Temperaturen Regen Tabelle Garten Tabelle Volleyball
ID Device ID Time Temperatur Stall rel Luftfeuchte Bat V Gateway RSSI Date Time
1 temp-at-nowhere 2024-05-19 06:40:12 14.44 °C offen 99.9 % 2.643 V ttn-pfaffenrot -91 dBm 19.05.2024 06:40
2 temp-at-nowhere 2024-05-19 06:30:33 14.32 °C zu 99.9 % 2.644 V ttn-pfaffenrot -87 dBm 19.05.2024 06:30
3 temp-at-nowhere 2024-05-19 05:30:34 13.43 °C zu 99.9 % 2.643 V ttn-pfaffenrot -93 dBm 19.05.2024 05:30
4 temp-at-nowhere 2024-05-19 04:30:34 13.06 °C zu 99.9 % 2.646 V ttn-pfaffenrot -90 dBm 19.05.2024 04:30
5 temp-at-nowhere 2024-05-19 03:30:35 12.64 °C zu 99.9 % 2.645 V ttn-pfaffenrot -103 dBm 19.05.2024 03:30
6 temp-at-nowhere 2024-05-19 02:30:36 13.14 °C zu 99.9 % 2.646 V ttn-pfaffenrot -91 dBm 19.05.2024 02:30
7 temp-at-nowhere 2024-05-19 01:30:36 13.05 °C zu 99.9 % 2.648 V ttn-pfaffenrot -95 dBm 19.05.2024 01:30
8 temp-at-nowhere 2024-05-19 00:30:37 13.48 °C zu 99.9 % 2.649 V ttn-pfaffenrot -90 dBm 19.05.2024 00:30
9 temp-at-nowhere 2024-05-18 23:30:38 13.3 °C zu 99.9 % 2.652 V ttn-pfaffenrot -91 dBm 18.05.2024 23:30
10 temp-at-nowhere 2024-05-18 22:30:38 13.4 °C zu 99.9 % 2.652 V ttn-pfaffenrot -83 dBm 18.05.2024 22:30
11 temp-at-nowhere 2024-05-18 21:30:39 13.31 °C zu 99.9 % 2.653 V ttn-pfaffenrot -96 dBm 18.05.2024 21:30
12 temp-at-nowhere 2024-05-18 20:42:24 13.58 °C zu 99.9 % 2.655 V ttn-pfaffenrot -85 dBm 18.05.2024 20:42
13 temp-at-nowhere 2024-05-18 20:30:39 14.11 °C offen 99.9 % 2.656 V ttn-pfaffenrot -93 dBm 18.05.2024 20:30
14 temp-at-nowhere 2024-05-18 19:30:40 17.12 °C offen 97.7 % 2.656 V ttn-pfaffenrot -84 dBm 18.05.2024 19:30
15 temp-at-nowhere 2024-05-18 18:30:41 17.42 °C offen 96.8 % 2.657 V ttn-pfaffenrot -93 dBm 18.05.2024 18:30
16 temp-at-nowhere 2024-05-18 17:30:41 17.5 °C offen 99.1 % 2.655 V ttn-pfaffenrot -90 dBm 18.05.2024 17:30
17 temp-at-nowhere 2024-05-18 16:30:42 17.77 °C offen 99.1 % 2.655 V ttn-pfaffenrot -82 dBm 18.05.2024 16:30
18 temp-at-nowhere 2024-05-18 15:30:43 17.32 °C offen 99.9 % 2.654 V ttn-pfaffenrot -83 dBm 18.05.2024 15:30
19 temp-at-nowhere 2024-05-18 14:30:43 16.66 °C offen 99.9 % 2.652 V ttn-pfaffenrot -97 dBm 18.05.2024 14:30
20 temp-at-nowhere 2024-05-18 13:30:44 15.67 °C offen 99.9 % 2.652 V ttn-pfaffenrot -83 dBm 18.05.2024 13:30
21 temp-at-nowhere 2024-05-18 12:30:44 15.04 °C offen 99.9 % 2.652 V ttn-pfaffenrot -95 dBm 18.05.2024 12:30
22 temp-at-nowhere 2024-05-18 11:30:45 13.75 °C offen 99.9 % 2.651 V ttn-pfaffenrot -85 dBm 18.05.2024 11:30
23 temp-at-nowhere 2024-05-18 10:30:46 12.29 °C offen 99.9 % 2.65 V ttn-pfaffenrot -84 dBm 18.05.2024 10:30
24 temp-at-nowhere 2024-05-18 09:30:46 11.51 °C offen 99.9 % 2.65 V ttn-pfaffenrot -78 dBm 18.05.2024 09:30
25 temp-at-nowhere 2024-05-18 08:30:47 10.92 °C offen 99.9 % 2.649 V ttn-pfaffenrot -89 dBm 18.05.2024 08:30
26 temp-at-nowhere 2024-05-18 07:30:48 10.57 °C offen 99.9 % 2.648 V ttn-pfaffenrot -87 dBm 18.05.2024 07:30
27 temp-at-nowhere 2024-05-18 06:30:48 10.58 °C offen 99.9 % 2.646 V ttn-pfaffenrot -84 dBm 18.05.2024 06:30
28 temp-at-nowhere 2024-05-18 05:30:49 11.28 °C offen 99.9 % 2.643 V ttn-pfaffenrot -87 dBm 18.05.2024 05:30
29 temp-at-nowhere 2024-05-18 05:03:15 12.05 °C offen 99.9 % 2.638 V ttn-pfaffenrot -82 dBm 18.05.2024 05:03
30 temp-at-nowhere 2024-05-18 04:30:49 11.84 °C zu 99.9 % 2.639 V ttn-pfaffenrot -91 dBm 18.05.2024 04:30
31 temp-at-nowhere 2024-05-18 03:30:50 11.85 °C zu 99.9 % 2.642 V ttn-pfaffenrot -95 dBm 18.05.2024 03:30
32 temp-at-nowhere 2024-05-18 02:30:51 11.54 °C zu 99.9 % 2.647 V ttn-pfaffenrot -88 dBm 18.05.2024 02:30
33 temp-at-nowhere 2024-05-18 01:30:51 11.43 °C zu 99.9 % 2.65 V ttn-pfaffenrot -95 dBm 18.05.2024 01:30
34 temp-at-nowhere 2024-05-18 00:30:52 11.45 °C zu 99.9 % 2.654 V ttn-pfaffenrot -84 dBm 18.05.2024 00:30
35 temp-at-nowhere 2024-05-17 23:30:53 11.34 °C zu 99.9 % 2.657 V ttn-pfaffenrot -93 dBm 17.05.2024 23:30
36 temp-at-nowhere 2024-05-17 22:30:53 11.34 °C zu 99.9 % 2.665 V ttn-pfaffenrot -87 dBm 17.05.2024 22:30
37 temp-at-nowhere 2024-05-17 21:30:54 11.33 °C zu 99.9 % 2.667 V ttn-pfaffenrot -93 dBm 17.05.2024 21:30
38 temp-at-nowhere 2024-05-17 21:12:17 10.22 °C zu 99.9 % 2.663 V ttn-pfaffenrot -85 dBm 17.05.2024 21:12
39 temp-at-nowhere 2024-05-17 21:12:09 10.17 °C offen 99.9 % 2.669 V ttn-pfaffenrot -93 dBm 17.05.2024 21:12
40 temp-at-nowhere 2024-05-17 21:11:18 10.13 °C zu 99.9 % 2.671 V ttn-pfaffenrot -79 dBm 17.05.2024 21:11
41 temp-at-nowhere 2024-05-17 20:30:54 10.11 °C offen 99.9 % 2.671 V ttn-pfaffenrot -95 dBm 17.05.2024 20:30
42 temp-at-nowhere 2024-05-17 19:30:55 10.15 °C offen 99.9 % 2.672 V ttn-pfaffenrot -87 dBm 17.05.2024 19:30
43 temp-at-nowhere 2024-05-17 18:30:56 10.19 °C offen 99.9 % 2.67 V ttn-pfaffenrot -101 dBm 17.05.2024 18:30
44 temp-at-nowhere 2024-05-17 17:30:56 10.13 °C offen 99.9 % 2.673 V ttn-pfaffenrot -85 dBm 17.05.2024 17:30
45 temp-at-nowhere 2024-05-17 16:30:57 10.09 °C offen 99.9 % 2.672 V ttn-pfaffenrot -95 dBm 17.05.2024 16:30
46 temp-at-nowhere 2024-05-17 15:30:58 10.21 °C offen 99.9 % 2.673 V ttn-pfaffenrot -85 dBm 17.05.2024 15:30
47 temp-at-nowhere 2024-05-17 14:30:58 10.15 °C offen 99.9 % 2.671 V ttn-pfaffenrot -89 dBm 17.05.2024 14:30
48 temp-at-nowhere 2024-05-17 13:30:59 9.9 °C offen 99.9 % 2.672 V ttn-pfaffenrot -79 dBm 17.05.2024 13:30
49 temp-at-nowhere 2024-05-17 12:30:59 9.79 °C offen 99.9 % 2.673 V ttn-pfaffenrot -78 dBm 17.05.2024 12:30
50 temp-at-nowhere 2024-05-17 11:31:00 9.95 °C offen 99.9 % 2.672 V ttn-pfaffenrot -85 dBm 17.05.2024 11:31
51 temp-at-nowhere 2024-05-17 10:31:01 10.23 °C offen 99.9 % 2.672 V ttn-pfaffenrot -95 dBm 17.05.2024 10:31
52 temp-at-nowhere 2024-05-17 09:31:01 10.31 °C offen 99.9 % 2.672 V ttn-pfaffenrot -83 dBm 17.05.2024 09:31
53 temp-at-nowhere 2024-05-17 08:31:02 10.52 °C offen 99.9 % 2.671 V ttn-pfaffenrot -93 dBm 17.05.2024 08:31
54 temp-at-nowhere 2024-05-17 07:31:03 11.29 °C offen 99.9 % 2.673 V ttn-pfaffenrot -86 dBm 17.05.2024 07:31
55 temp-at-nowhere 2024-05-17 06:40:15 13.19 °C offen 99.9 % 2.674 V ttn-pfaffenrot -86 dBm 17.05.2024 06:40
56 temp-at-nowhere 2024-05-17 06:31:03 13.18 °C zu 99.9 % 2.674 V ttn-pfaffenrot -86 dBm 17.05.2024 06:31
57 temp-at-nowhere 2024-05-17 05:31:04 13.01 °C zu 99.9 % 2.673 V ttn-pfaffenrot -90 dBm 17.05.2024 05:31
58 temp-at-nowhere 2024-05-17 04:31:04 13.44 °C zu 99.9 % 2.674 V ttn-pfaffenrot -84 dBm 17.05.2024 04:31
59 temp-at-nowhere 2024-05-17 03:31:05 13.66 °C zu 99.9 % 2.675 V ttn-pfaffenrot -83 dBm 17.05.2024 03:31
60 temp-at-nowhere 2024-05-17 02:31:06 14.03 °C zu 99.9 % 2.675 V ttn-pfaffenrot -83 dBm 17.05.2024 02:31
61 temp-at-nowhere 2024-05-17 01:31:06 14.94 °C zu 99.9 % 2.675 V ttn-pfaffenrot -91 dBm 17.05.2024 01:31
62 temp-at-nowhere 2024-05-17 00:31:07 15.73 °C zu 99.9 % 2.674 V ttn-pfaffenrot -85 dBm 17.05.2024 00:31
63 temp-at-nowhere 2024-05-16 23:31:08 16.7 °C zu 99.9 % 2.675 V ttn-pfaffenrot -93 dBm 16.05.2024 23:31
64 temp-at-nowhere 2024-05-16 22:31:08 17.17 °C zu 99.9 % 2.675 V ttn-pfaffenrot -83 dBm 16.05.2024 22:31
65 temp-at-nowhere 2024-05-16 21:31:09 16.95 °C zu 99.9 % 2.674 V ttn-pfaffenrot -97 dBm 16.05.2024 21:31
66 temp-at-nowhere 2024-05-16 20:56:27 16.05 °C zu 99.9 % 2.677 V ttn-pfaffenrot -89 dBm 16.05.2024 20:56
67 temp-at-nowhere 2024-05-16 20:31:09 16.52 °C offen 99.9 % 2.675 V ttn-pfaffenrot -89 dBm 16.05.2024 20:31
68 temp-at-nowhere 2024-05-16 19:31:10 16.87 °C offen 99.9 % 2.676 V ttn-pfaffenrot -89 dBm 16.05.2024 19:31
69 temp-at-nowhere 2024-05-16 18:31:11 17.03 °C offen 96.2 % 2.676 V ttn-pfaffenrot -96 dBm 16.05.2024 18:31
70 temp-at-nowhere 2024-05-16 17:31:11 16.67 °C offen 99.9 % 2.676 V ttn-pfaffenrot -89 dBm 16.05.2024 17:31
71 temp-at-nowhere 2024-05-16 16:31:12 16.39 °C offen 99.9 % 2.676 V ttn-pfaffenrot -90 dBm 16.05.2024 16:31
72 temp-at-nowhere 2024-05-16 15:31:13 16.5 °C offen 99.9 % 2.677 V ttn-pfaffenrot -85 dBm 16.05.2024 15:31
73 temp-at-nowhere 2024-05-16 14:31:13 16.28 °C offen 99.9 % 2.677 V ttn-pfaffenrot -93 dBm 16.05.2024 14:31
74 temp-at-nowhere 2024-05-16 13:31:14 16.58 °C offen 99.9 % 2.676 V ttn-pfaffenrot -89 dBm 16.05.2024 13:31
75 temp-at-nowhere 2024-05-16 12:31:15 17.18 °C offen 99.9 % 2.676 V ttn-pfaffenrot -95 dBm 16.05.2024 12:31
76 temp-at-nowhere 2024-05-16 11:31:15 16.91 °C offen 99.9 % 2.676 V ttn-pfaffenrot -83 dBm 16.05.2024 11:31
77 temp-at-nowhere 2024-05-16 10:31:16 15.93 °C offen 99.9 % 2.677 V ttn-pfaffenrot -91 dBm 16.05.2024 10:31
78 temp-at-nowhere 2024-05-16 09:31:17 14.49 °C offen 99.9 % 2.676 V ttn-pfaffenrot -89 dBm 16.05.2024 09:31
79 temp-at-nowhere 2024-05-16 08:31:17 13.39 °C offen 99.9 % 2.677 V ttn-pfaffenrot -90 dBm 16.05.2024 08:31
80 temp-at-nowhere 2024-05-16 07:31:18 12.89 °C offen 99.9 % 2.676 V ttn-pfaffenrot -84 dBm 16.05.2024 07:31
81 temp-at-nowhere 2024-05-16 06:40:16 14.92 °C offen 99.9 % 2.676 V ttn-pfaffenrot -79 dBm 16.05.2024 06:40
82 temp-at-nowhere 2024-05-16 06:31:18 14.89 °C zu 99.9 % 2.677 V ttn-pfaffenrot -77 dBm 16.05.2024 06:31
83 temp-at-nowhere 2024-05-16 05:31:19 14.31 °C zu 99.9 % 2.676 V ttn-pfaffenrot -81 dBm 16.05.2024 05:31
84 temp-at-nowhere 2024-05-16 04:31:20 14.47 °C zu 99.9 % 2.676 V ttn-pfaffenrot -80 dBm 16.05.2024 04:31
85 temp-at-nowhere 2024-05-16 03:31:20 14.77 °C zu 99.9 % 2.676 V ttn-pfaffenrot -84 dBm 16.05.2024 03:31
86 temp-at-nowhere 2024-05-16 02:31:21 15.49 °C zu 99.9 % 2.677 V ttn-pfaffenrot -83 dBm 16.05.2024 02:31
87 temp-at-nowhere 2024-05-16 01:31:22 16.49 °C zu 99.9 % 2.676 V ttn-pfaffenrot -82 dBm 16.05.2024 01:31
88 temp-at-nowhere 2024-05-16 00:31:22 17.02 °C zu 99.9 % 2.677 V ttn-pfaffenrot -82 dBm 16.05.2024 00:31
89 temp-at-nowhere 2024-05-15 23:31:23 17.37 °C zu 99.9 % 2.676 V ttn-pfaffenrot -80 dBm 15.05.2024 23:31
90 temp-at-nowhere 2024-05-15 22:31:24 17.46 °C zu 99.9 % 2.678 V ttn-pfaffenrot -83 dBm 15.05.2024 22:31
91 temp-at-nowhere 2024-05-15 21:31:24 16.91 °C zu 99.9 % 2.677 V ttn-pfaffenrot -81 dBm 15.05.2024 21:31
92 temp-at-nowhere 2024-05-15 21:07:48 16.39 °C zu 99.9 % 2.677 V ttn-pfaffenrot -90 dBm 15.05.2024 21:07
93 temp-at-nowhere 2024-05-15 20:31:25 16.74 °C offen 99.9 % 2.677 V ttn-pfaffenrot -87 dBm 15.05.2024 20:31
94 temp-at-nowhere 2024-05-15 19:31:25 17.13 °C offen 99.9 % 2.678 V ttn-pfaffenrot -89 dBm 15.05.2024 19:31
95 temp-at-nowhere 2024-05-15 18:31:26 17.45 °C offen 99.9 % 2.677 V ttn-pfaffenrot -90 dBm 15.05.2024 18:31
96 temp-at-nowhere 2024-05-15 17:31:27 17.66 °C offen 99.9 % 2.678 V ttn-pfaffenrot -97 dBm 15.05.2024 17:31
97 temp-at-nowhere 2024-05-15 16:31:27 17.55 °C offen 99.9 % 2.677 V ttn-pfaffenrot -88 dBm 15.05.2024 16:31
98 temp-at-nowhere 2024-05-15 15:31:28 17.28 °C offen 99.9 % 2.678 V ttn-pfaffenrot -93 dBm 15.05.2024 15:31
99 temp-at-nowhere 2024-05-15 14:31:29 16.68 °C offen 99.9 % 2.678 V ttn-pfaffenrot -90 dBm 15.05.2024 14:31
100 temp-at-nowhere 2024-05-15 13:31:29 16.09 °C offen 99.9 % 2.677 V ttn-pfaffenrot -88 dBm 15.05.2024 13:31
101 temp-at-nowhere 2024-05-15 12:31:30 15.46 °C offen 99.9 % 2.678 V ttn-pfaffenrot -90 dBm 15.05.2024 12:31
102 temp-at-nowhere 2024-05-15 11:31:31 14.79 °C offen 99.9 % 2.677 V ttn-pfaffenrot -91 dBm 15.05.2024 11:31
103 temp-at-nowhere 2024-05-15 10:31:31 14 °C offen 99.9 % 2.678 V ttn-pfaffenrot -87 dBm 15.05.2024 10:31
104 temp-at-nowhere 2024-05-15 10:19:26 13.98 °C offen 99.9 % 2.673 V ttn-pfaffenrot -83 dBm 15.05.2024 10:19
105 temp-at-nowhere 2024-05-15 10:18:58 13.92 °C zu 99.9 % 2.677 V ttn-pfaffenrot -79 dBm 15.05.2024 10:18
106 temp-at-nowhere 2024-05-15 09:31:32 13.92 °C offen 99.9 % 2.677 V ttn-pfaffenrot -90 dBm 15.05.2024 09:31
107 temp-at-nowhere 2024-05-15 08:31:33 13.88 °C offen 99.9 % 2.677 V ttn-pfaffenrot -89 dBm 15.05.2024 08:31
108 temp-at-nowhere 2024-05-15 07:31:33 14.25 °C offen 99.9 % 2.677 V ttn-pfaffenrot -89 dBm 15.05.2024 07:31
109 temp-at-nowhere 2024-05-15 06:39:17 16.46 °C offen 99.9 % 2.677 V ttn-pfaffenrot -84 dBm 15.05.2024 06:39
110 temp-at-nowhere 2024-05-15 06:31:34 16.5 °C zu 99.9 % 2.678 V ttn-pfaffenrot -77 dBm 15.05.2024 06:31
111 temp-at-nowhere 2024-05-15 05:31:34 16.11 °C zu 99.9 % 2.68 V ttn-pfaffenrot -79 dBm 15.05.2024 05:31
112 temp-at-nowhere 2024-05-15 03:31:36 16.19 °C zu 99.9 % 2.678 V ttn-pfaffenrot -78 dBm 15.05.2024 03:31
113 temp-at-nowhere 2024-05-15 02:31:36 16.57 °C zu 99.9 % 2.678 V ttn-pfaffenrot -80 dBm 15.05.2024 02:31
114 temp-at-nowhere 2024-05-15 01:31:37 16.69 °C zu 99.9 % 2.68 V ttn-pfaffenrot -78 dBm 15.05.2024 01:31
115 temp-at-nowhere 2024-05-15 00:31:38 17.45 °C zu 99.9 % 2.68 V ttn-pfaffenrot -79 dBm 15.05.2024 00:31
116 temp-at-nowhere 2024-05-14 23:31:38 18.47 °C zu 99.9 % 2.68 V ttn-pfaffenrot -79 dBm 14.05.2024 23:31
117 temp-at-nowhere 2024-05-14 22:31:39 19.24 °C zu 95.8 % 2.678 V ttn-pfaffenrot -79 dBm 14.05.2024 22:31
118 temp-at-nowhere 2024-05-14 21:31:40 19.54 °C zu 82.1 % 2.678 V ttn-pfaffenrot -82 dBm 14.05.2024 21:31
119 temp-at-nowhere 2024-05-14 21:26:05 19.52 °C zu 78.2 % 2.679 V ttn-pfaffenrot -79 dBm 14.05.2024 21:26
120 temp-at-nowhere 2024-05-14 20:31:40 20.9 °C offen 75.3 % 2.68 V ttn-pfaffenrot -84 dBm 14.05.2024 20:31
121 temp-at-nowhere 2024-05-14 19:31:41 21.73 °C offen 72.5 % 2.679 V ttn-pfaffenrot -83 dBm 14.05.2024 19:31
122 temp-at-nowhere 2024-05-14 18:31:42 22.24 °C offen 70.6 % 2.68 V ttn-pfaffenrot -84 dBm 14.05.2024 18:31
123 temp-at-nowhere 2024-05-14 17:31:42 22.61 °C offen 71.8 % 2.679 V ttn-pfaffenrot -99 dBm 14.05.2024 17:31
124 temp-at-nowhere 2024-05-14 16:31:43 22.56 °C offen 74.7 % 2.679 V ttn-pfaffenrot -84 dBm 14.05.2024 16:31
125 temp-at-nowhere 2024-05-14 15:31:44 22.4 °C offen 77 % 2.678 V ttn-pfaffenrot -81 dBm 14.05.2024 15:31
126 temp-at-nowhere 2024-05-14 14:31:44 21.88 °C offen 80.7 % 2.679 V ttn-pfaffenrot -84 dBm 14.05.2024 14:31
127 temp-at-nowhere 2024-05-14 13:31:45 21.67 °C offen 81.2 % 2.679 V ttn-pfaffenrot -85 dBm 14.05.2024 13:31
128 temp-at-nowhere 2024-05-14 12:31:45 21.95 °C offen 83.6 % 2.678 V ttn-pfaffenrot -83 dBm 14.05.2024 12:31
129 temp-at-nowhere 2024-05-14 11:31:46 20.86 °C offen 85.6 % 2.679 V ttn-pfaffenrot -83 dBm 14.05.2024 11:31
130 temp-at-nowhere 2024-05-14 10:31:47 19.79 °C offen 94.1 % 2.679 V ttn-pfaffenrot -86 dBm 14.05.2024 10:31
131 temp-at-nowhere 2024-05-14 09:31:47 18.01 °C offen 99.9 % 2.678 V ttn-pfaffenrot -88 dBm 14.05.2024 09:31
132 temp-at-nowhere 2024-05-14 08:31:48 16.32 °C offen 99.9 % 2.679 V ttn-pfaffenrot -82 dBm 14.05.2024 08:31
133 temp-at-nowhere 2024-05-14 07:31:49 15.54 °C offen 99.9 % 2.678 V ttn-pfaffenrot -85 dBm 14.05.2024 07:31
134 temp-at-nowhere 2024-05-14 06:33:58 17.24 °C offen 99.9 % 2.677 V ttn-pfaffenrot -83 dBm 14.05.2024 06:33
135 temp-at-nowhere 2024-05-14 06:31:49 17.24 °C zu 99.9 % 2.678 V ttn-pfaffenrot -82 dBm 14.05.2024 06:31
136 temp-at-nowhere 2024-05-14 05:31:50 16.72 °C zu 99.9 % 2.68 V ttn-pfaffenrot -77 dBm 14.05.2024 05:31
137 temp-at-nowhere 2024-05-14 04:31:51 16.5 °C zu 99.9 % 2.679 V ttn-pfaffenrot -84 dBm 14.05.2024 04:31
138 temp-at-nowhere 2024-05-14 03:31:51 16.94 °C zu 99.9 % 2.68 V ttn-pfaffenrot -81 dBm 14.05.2024 03:31
139 temp-at-nowhere 2024-05-14 02:31:52 17.4 °C zu 99.9 % 2.679 V ttn-pfaffenrot -87 dBm 14.05.2024 02:31
140 temp-at-nowhere 2024-05-14 01:31:52 17.72 °C zu 99.9 % 2.678 V ttn-pfaffenrot -81 dBm 14.05.2024 01:31
141 temp-at-nowhere 2024-05-14 00:31:53 17.75 °C zu 99.9 % 2.678 V ttn-pfaffenrot -81 dBm 14.05.2024 00:31
142 temp-at-nowhere 2024-05-13 23:31:54 17.82 °C zu 99.9 % 2.681 V ttn-pfaffenrot -79 dBm 13.05.2024 23:31
143 temp-at-nowhere 2024-05-13 22:31:54 17.72 °C zu 99.9 % 2.679 V ttn-pfaffenrot -81 dBm 13.05.2024 22:31
144 temp-at-nowhere 2024-05-13 21:31:55 17.83 °C zu 99.9 % 2.679 V ttn-pfaffenrot -79 dBm 13.05.2024 21:31
145 temp-at-nowhere 2024-05-13 21:13:11 17.49 °C zu 99.9 % 2.679 V ttn-pfaffenrot -77 dBm 13.05.2024 21:13
146 temp-at-nowhere 2024-05-13 20:31:56 17.91 °C offen 99.9 % 2.68 V ttn-pfaffenrot -88 dBm 13.05.2024 20:31
147 temp-at-nowhere 2024-05-13 19:31:56 18.41 °C offen 99.9 % 2.68 V ttn-pfaffenrot -83 dBm 13.05.2024 19:31
148 temp-at-nowhere 2024-05-13 18:31:57 18.87 °C offen 99.9 % 2.679 V ttn-pfaffenrot -83 dBm 13.05.2024 18:31
149 temp-at-nowhere 2024-05-13 17:31:58 18.61 °C offen 99.9 % 2.68 V ttn-pfaffenrot -82 dBm 13.05.2024 17:31
150 temp-at-nowhere 2024-05-13 16:31:58 17.72 °C offen 99.9 % 2.679 V ttn-pfaffenrot -82 dBm 13.05.2024 16:31
151 temp-at-nowhere 2024-05-13 15:31:59 17.19 °C offen 99.9 % 2.679 V ttn-pfaffenrot -82 dBm 13.05.2024 15:31
152 temp-at-nowhere 2024-05-13 14:31:59 17.37 °C offen 99.9 % 2.68 V ttn-pfaffenrot -82 dBm 13.05.2024 14:31
153 temp-at-nowhere 2024-05-13 13:32:00 18.05 °C offen 99.9 % 2.68 V ttn-pfaffenrot -81 dBm 13.05.2024 13:32
154 temp-at-nowhere 2024-05-13 12:32:01 18.64 °C offen 99.9 % 2.681 V ttn-pfaffenrot -80 dBm 13.05.2024 12:32
155 temp-at-nowhere 2024-05-13 11:32:01 18.2 °C offen 99.9 % 2.68 V ttn-pfaffenrot -82 dBm 13.05.2024 11:32
156 temp-at-nowhere 2024-05-13 10:32:02 16.9 °C offen 99.9 % 2.681 V ttn-pfaffenrot -79 dBm 13.05.2024 10:32
157 temp-at-nowhere 2024-05-13 09:32:03 15.46 °C offen 99.9 % 2.679 V ttn-pfaffenrot -79 dBm 13.05.2024 09:32
158 temp-at-nowhere 2024-05-13 08:32:03 15.29 °C offen 99.9 % 2.679 V ttn-pfaffenrot -79 dBm 13.05.2024 08:32
159 temp-at-nowhere 2024-05-13 07:32:04 15.78 °C offen 99.9 % 2.681 V ttn-pfaffenrot -80 dBm 13.05.2024 07:32
160 temp-at-nowhere 2024-05-13 06:32:05 18.27 °C offen 99.9 % 2.68 V ttn-pfaffenrot -80 dBm 13.05.2024 06:32
161 temp-at-nowhere 2024-05-13 06:26:59 18.51 °C offen 99.9 % 2.681 V ttn-pfaffenrot -77 dBm 13.05.2024 06:26
162 temp-at-nowhere 2024-05-13 05:32:05 18.58 °C zu 99.9 % 2.681 V ttn-pfaffenrot -79 dBm 13.05.2024 05:32
163 temp-at-nowhere 2024-05-13 04:32:06 18.85 °C zu 99.9 % 2.68 V ttn-pfaffenrot -82 dBm 13.05.2024 04:32
164 temp-at-nowhere 2024-05-13 03:32:07 19.11 °C zu 99.9 % 2.681 V ttn-pfaffenrot -78 dBm 13.05.2024 03:32
165 temp-at-nowhere 2024-05-13 02:32:07 19.43 °C zu 99.9 % 2.68 V ttn-pfaffenrot -79 dBm 13.05.2024 02:32
166 temp-at-nowhere 2024-05-13 01:32:08 19.31 °C zu 99.9 % 2.679 V ttn-pfaffenrot -78 dBm 13.05.2024 01:32
167 temp-at-nowhere 2024-05-13 00:32:08 19.69 °C zu 99.9 % 2.681 V ttn-pfaffenrot -79 dBm 13.05.2024 00:32
168 temp-at-nowhere 2024-05-12 23:32:09 20.18 °C zu 99.9 % 2.68 V ttn-pfaffenrot -78 dBm 12.05.2024 23:32
169 temp-at-nowhere 2024-05-12 22:32:10 20.43 °C zu 99.9 % 2.68 V ttn-pfaffenrot -79 dBm 12.05.2024 22:32
170 temp-at-nowhere 2024-05-12 21:32:10 20.2 °C zu 91.7 % 2.68 V ttn-pfaffenrot -79 dBm 12.05.2024 21:32
171 temp-at-nowhere 2024-05-12 21:15:15 20.1 °C zu 83 % 2.681 V ttn-pfaffenrot -77 dBm 12.05.2024 21:15
172 temp-at-nowhere 2024-05-12 20:32:11 21 °C offen 82.1 % 2.68 V ttn-pfaffenrot -88 dBm 12.05.2024 20:32
173 temp-at-nowhere 2024-05-12 19:32:12 21.95 °C offen 78.3 % 2.68 V ttn-pfaffenrot -88 dBm 12.05.2024 19:32
174 temp-at-nowhere 2024-05-12 18:32:12 22.51 °C offen 78.9 % 2.68 V ttn-pfaffenrot -85 dBm 12.05.2024 18:32
175 temp-at-nowhere 2024-05-12 17:32:13 22.84 °C offen 76.8 % 2.681 V ttn-pfaffenrot -88 dBm 12.05.2024 17:32
176 temp-at-nowhere 2024-05-12 16:32:14 22.98 °C offen 78 % 2.68 V ttn-pfaffenrot -87 dBm 12.05.2024 16:32
177 temp-at-nowhere 2024-05-12 15:32:14 23.01 °C offen 75.6 % 2.68 V ttn-pfaffenrot -88 dBm 12.05.2024 15:32
178 temp-at-nowhere 2024-05-12 14:32:15 22.88 °C offen 74.5 % 2.68 V ttn-pfaffenrot -86 dBm 12.05.2024 14:32
179 temp-at-nowhere 2024-05-12 13:32:16 22.48 °C offen 76.7 % 2.679 V ttn-pfaffenrot -86 dBm 12.05.2024 13:32
180 temp-at-nowhere 2024-05-12 12:32:16 21.55 °C offen 77.1 % 2.679 V ttn-pfaffenrot -89 dBm 12.05.2024 12:32
181 temp-at-nowhere 2024-05-12 11:32:17 20.38 °C offen 80.3 % 2.679 V ttn-pfaffenrot -88 dBm 12.05.2024 11:32
182 temp-at-nowhere 2024-05-12 09:32:18 17.63 °C offen 91.4 % 2.68 V ttn-pfaffenrot -87 dBm 12.05.2024 09:32
183 temp-at-nowhere 2024-05-12 08:32:19 16.01 °C offen 99.9 % 2.68 V ttn-pfaffenrot -85 dBm 12.05.2024 08:32
184 temp-at-nowhere 2024-05-12 07:32:19 15.59 °C offen 99.9 % 2.679 V ttn-pfaffenrot -84 dBm 12.05.2024 07:32
185 temp-at-nowhere 2024-05-12 06:40:23 17.63 °C offen 99.9 % 2.68 V ttn-pfaffenrot -78 dBm 12.05.2024 06:40
186 temp-at-nowhere 2024-05-12 06:32:20 17.51 °C zu 99.9 % 2.68 V ttn-pfaffenrot -80 dBm 12.05.2024 06:32
187 temp-at-nowhere 2024-05-12 05:32:21 17.02 °C zu 99.9 % 2.68 V ttn-pfaffenrot -81 dBm 12.05.2024 05:32
188 temp-at-nowhere 2024-05-12 04:32:21 16.81 °C zu 99.9 % 2.681 V ttn-pfaffenrot -81 dBm 12.05.2024 04:32
189 temp-at-nowhere 2024-05-12 03:32:22 17 °C zu 99.9 % 2.681 V ttn-pfaffenrot -80 dBm 12.05.2024 03:32
190 temp-at-nowhere 2024-05-12 02:32:23 17.4 °C zu 99.9 % 2.682 V ttn-pfaffenrot -81 dBm 12.05.2024 02:32
191 temp-at-nowhere 2024-05-12 01:32:23 17.81 °C zu 99.9 % 2.68 V ttn-pfaffenrot -81 dBm 12.05.2024 01:32
192 temp-at-nowhere 2024-05-12 00:32:24 18.29 °C zu 99.9 % 2.68 V ttn-pfaffenrot -81 dBm 12.05.2024 00:32
193 temp-at-nowhere 2024-05-11 23:32:25 18.96 °C zu 99.9 % 2.681 V ttn-pfaffenrot -78 dBm 11.05.2024 23:32
194 temp-at-nowhere 2024-05-11 22:32:25 18.91 °C zu 99.9 % 2.68 V ttn-pfaffenrot -80 dBm 11.05.2024 22:32
195 temp-at-nowhere 2024-05-11 21:32:26 18.91 °C zu 87.9 % 2.68 V ttn-pfaffenrot -82 dBm 11.05.2024 21:32
196 temp-at-nowhere 2024-05-11 21:13:08 18.75 °C zu 77.9 % 2.679 V ttn-pfaffenrot -96 dBm 11.05.2024 21:13
197 temp-at-nowhere 2024-05-11 20:32:26 19.63 °C offen 74.1 % 2.682 V ttn-pfaffenrot -80 dBm 11.05.2024 20:32
198 temp-at-nowhere 2024-05-11 19:32:27 20.5 °C offen 71.5 % 2.682 V ttn-pfaffenrot -82 dBm 11.05.2024 19:32
199 temp-at-nowhere 2024-05-11 18:32:28 21.07 °C offen 70.1 % 2.681 V ttn-pfaffenrot -82 dBm 11.05.2024 18:32
200 temp-at-nowhere 2024-05-11 17:32:28 21.39 °C offen 68.6 % 2.682 V ttn-pfaffenrot -87 dBm 11.05.2024 17:32
201 temp-at-nowhere 2024-05-11 16:32:29 21.48 °C offen 69.7 % 2.683 V ttn-pfaffenrot -83 dBm 11.05.2024 16:32
202 temp-at-nowhere 2024-05-11 15:32:30 21.23 °C offen 69.6 % 2.682 V ttn-pfaffenrot -85 dBm 11.05.2024 15:32
203 temp-at-nowhere 2024-05-11 14:32:30 20.91 °C offen 71 % 2.68 V ttn-pfaffenrot -82 dBm 11.05.2024 14:32
204 temp-at-nowhere 2024-05-11 13:32:31 20.4 °C offen 74.9 % 2.68 V ttn-pfaffenrot -87 dBm 11.05.2024 13:32
205 temp-at-nowhere 2024-05-11 12:32:32 19.49 °C offen 82.6 % 2.681 V ttn-pfaffenrot -89 dBm 11.05.2024 12:32
206 temp-at-nowhere 2024-05-11 11:32:32 18.22 °C offen 89 % 2.68 V ttn-pfaffenrot -88 dBm 11.05.2024 11:32
207 temp-at-nowhere 2024-05-11 10:32:33 16.7 °C offen 99.9 % 2.68 V ttn-pfaffenrot -94 dBm 11.05.2024 10:32
208 temp-at-nowhere 2024-05-11 09:32:34 14.82 °C offen 99.9 % 2.681 V ttn-pfaffenrot -94 dBm 11.05.2024 09:32
209 temp-at-nowhere 2024-05-11 08:32:34 13.41 °C offen 99.9 % 2.679 V ttn-pfaffenrot -95 dBm 11.05.2024 08:32
210 temp-at-nowhere 2024-05-11 07:32:35 12.83 °C offen 99.9 % 2.68 V ttn-pfaffenrot -99 dBm 11.05.2024 07:32
211 temp-at-nowhere 2024-05-11 06:40:25 14.58 °C offen 99.9 % 2.682 V ttn-pfaffenrot -80 dBm 11.05.2024 06:40
212 temp-at-nowhere 2024-05-11 06:32:35 14.5 °C zu 99.9 % 2.68 V ttn-pfaffenrot -82 dBm 11.05.2024 06:32
213 temp-at-nowhere 2024-05-11 05:32:36 14.14 °C zu 99.9 % 2.68 V ttn-pfaffenrot -87 dBm 11.05.2024 05:32
214 temp-at-nowhere 2024-05-11 04:32:37 14.52 °C zu 99.9 % 2.682 V ttn-pfaffenrot -87 dBm 11.05.2024 04:32
215 temp-at-nowhere 2024-05-11 03:32:37 14.83 °C zu 99.9 % 2.682 V ttn-pfaffenrot -81 dBm 11.05.2024 03:32
216 temp-at-nowhere 2024-05-11 02:32:38 15.02 °C zu 99.9 % 2.681 V ttn-pfaffenrot -83 dBm 11.05.2024 02:32
217 temp-at-nowhere 2024-05-11 01:32:39 15.6 °C zu 99.9 % 2.68 V ttn-pfaffenrot -83 dBm 11.05.2024 01:32
218 temp-at-nowhere 2024-05-11 00:32:39 16.05 °C zu 99.9 % 2.682 V ttn-pfaffenrot -83 dBm 11.05.2024 00:32
219 temp-at-nowhere 2024-05-10 23:32:40 16.51 °C zu 99.9 % 2.68 V ttn-pfaffenrot -82 dBm 10.05.2024 23:32
220 temp-at-nowhere 2024-05-10 22:32:40 16.85 °C zu 99.9 % 2.681 V ttn-pfaffenrot -83 dBm 10.05.2024 22:32
221 temp-at-nowhere 2024-05-10 21:32:41 16.76 °C zu 85.9 % 2.681 V ttn-pfaffenrot -83 dBm 10.05.2024 21:32
222 temp-at-nowhere 2024-05-10 20:32:42 17.81 °C offen 78 % 2.683 V ttn-pfaffenrot -80 dBm 10.05.2024 20:32
223 temp-at-nowhere 2024-05-10 19:32:42 18.85 °C offen 73.8 % 2.682 V ttn-pfaffenrot -83 dBm 10.05.2024 19:32
224 temp-at-nowhere 2024-05-10 18:32:43 19.48 °C offen 74.1 % 2.682 V ttn-pfaffenrot -80 dBm 10.05.2024 18:32
225 temp-at-nowhere 2024-05-10 17:32:44 19.94 °C offen 74.9 % 2.681 V ttn-pfaffenrot -83 dBm 10.05.2024 17:32
226 temp-at-nowhere 2024-05-10 16:32:44 20.12 °C offen 75.9 % 2.682 V ttn-pfaffenrot -84 dBm 10.05.2024 16:32
227 temp-at-nowhere 2024-05-10 15:32:45 19.88 °C offen 77 % 2.681 V ttn-pfaffenrot -85 dBm 10.05.2024 15:32
228 temp-at-nowhere 2024-05-10 14:32:46 19.45 °C offen 78.1 % 2.681 V ttn-pfaffenrot -93 dBm 10.05.2024 14:32
229 temp-at-nowhere 2024-05-10 13:32:46 18.81 °C offen 83.9 % 2.681 V ttn-pfaffenrot -85 dBm 10.05.2024 13:32
230 temp-at-nowhere 2024-05-10 12:32:47 17.99 °C offen 88.6 % 2.681 V ttn-pfaffenrot -96 dBm 10.05.2024 12:32
231 temp-at-nowhere 2024-05-10 11:32:48 16.82 °C offen 97.3 % 2.682 V ttn-pfaffenrot -96 dBm 10.05.2024 11:32
232 temp-at-nowhere 2024-05-10 10:32:48 15.17 °C offen 99.9 % 2.68 V ttn-pfaffenrot -98 dBm 10.05.2024 10:32
233 temp-at-nowhere 2024-05-10 09:32:49 13.41 °C offen 99.9 % 2.682 V ttn-pfaffenrot -102 dBm 10.05.2024 09:32
234 temp-at-nowhere 2024-05-10 08:32:49 12 °C offen 99.9 % 2.681 V ttn-pfaffenrot -105 dBm 10.05.2024 08:32
235 temp-at-nowhere 2024-05-10 07:32:50 11.35 °C offen 99.9 % 2.68 V ttn-pfaffenrot -98 dBm 10.05.2024 07:32
236 temp-at-nowhere 2024-05-10 06:40:27 12.98 °C offen 99.9 % 2.681 V ttn-pfaffenrot -82 dBm 10.05.2024 06:40
237 temp-at-nowhere 2024-05-10 06:32:51 12.86 °C zu 99.9 % 2.682 V ttn-pfaffenrot -90 dBm 10.05.2024 06:32
238 temp-at-nowhere 2024-05-10 05:32:51 12.93 °C zu 99.9 % 2.682 V ttn-pfaffenrot -85 dBm 10.05.2024 05:32
239 temp-at-nowhere 2024-05-10 04:32:52 12.97 °C zu 99.9 % 2.682 V ttn-pfaffenrot -83 dBm 10.05.2024 04:32
240 temp-at-nowhere 2024-05-10 03:32:53 12.84 °C zu 99.9 % 2.683 V ttn-pfaffenrot -84 dBm 10.05.2024 03:32
241 temp-at-nowhere 2024-05-10 02:32:53 12.95 °C zu 99.9 % 2.681 V ttn-pfaffenrot -82 dBm 10.05.2024 02:32
242 temp-at-nowhere 2024-05-10 01:32:54 13.44 °C zu 99.9 % 2.681 V ttn-pfaffenrot -83 dBm 10.05.2024 01:32
243 temp-at-nowhere 2024-05-10 00:32:54 13.86 °C zu 99.9 % 2.683 V ttn-pfaffenrot -84 dBm 10.05.2024 00:32
244 temp-at-nowhere 2024-05-09 23:32:55 14.58 °C zu 99.9 % 2.684 V ttn-pfaffenrot -84 dBm 09.05.2024 23:32
245 temp-at-nowhere 2024-05-09 22:32:56 15.43 °C zu 99.9 % 2.683 V ttn-pfaffenrot -81 dBm 09.05.2024 22:32
246 temp-at-nowhere 2024-05-09 21:32:56 15.86 °C zu 99.9 % 2.682 V ttn-pfaffenrot -85 dBm 09.05.2024 21:32
247 temp-at-nowhere 2024-05-09 20:52:47 15.54 °C zu 94.1 % 2.683 V ttn-pfaffenrot -86 dBm 09.05.2024 20:52
248 temp-at-nowhere 2024-05-09 20:32:57 15.95 °C offen 93.2 % 2.682 V ttn-pfaffenrot -105 dBm 09.05.2024 20:32
249 temp-at-nowhere 2024-05-09 19:32:58 16.83 °C offen 87.1 % 2.682 V ttn-pfaffenrot -100 dBm 09.05.2024 19:32
250 temp-at-nowhere 2024-05-09 18:32:58 17.3 °C offen 89.4 % 2.682 V ttn-pfaffenrot -109 dBm 09.05.2024 18:32
251 temp-at-nowhere 2024-05-09 17:32:59 17.54 °C offen 86.4 % 2.684 V ttn-pfaffenrot -95 dBm 09.05.2024 17:32
252 temp-at-nowhere 2024-05-09 16:33:00 17.8 °C offen 87.4 % 2.684 V ttn-pfaffenrot -106 dBm 09.05.2024 16:33
253 temp-at-nowhere 2024-05-09 15:33:00 17.6 °C offen 89.6 % 2.685 V ttn-pfaffenrot -91 dBm 09.05.2024 15:33
254 temp-at-nowhere 2024-05-09 13:33:01 16.37 °C offen 99.9 % 2.685 V ttn-pfaffenrot -89 dBm 09.05.2024 13:33
255 temp-at-nowhere 2024-05-09 12:33:02 15.27 °C offen 99.9 % 2.685 V ttn-pfaffenrot -88 dBm 09.05.2024 12:33
256 temp-at-nowhere 2024-05-09 11:33:03 14.08 °C offen 99.9 % 2.682 V ttn-pfaffenrot -90 dBm 09.05.2024 11:33
257 temp-at-nowhere 2024-05-09 10:33:03 13.14 °C offen 99.9 % 2.683 V ttn-pfaffenrot -93 dBm 09.05.2024 10:33
258 temp-at-nowhere 2024-05-09 09:33:04 11.92 °C offen 99.9 % 2.683 V ttn-pfaffenrot -90 dBm 09.05.2024 09:33
259 temp-at-nowhere 2024-05-09 08:33:05 10.63 °C offen 99.9 % 2.683 V ttn-pfaffenrot -90 dBm 09.05.2024 08:33
260 temp-at-nowhere 2024-05-09 07:33:05 9.88 °C offen 99.9 % 2.683 V ttn-pfaffenrot -88 dBm 09.05.2024 07:33
261 temp-at-nowhere 2024-05-09 06:40:28 11.49 °C offen 99.9 % 2.682 V ttn-pfaffenrot -88 dBm 09.05.2024 06:40
262 temp-at-nowhere 2024-05-09 06:33:06 11.33 °C zu 99.9 % 2.683 V ttn-pfaffenrot -85 dBm 09.05.2024 06:33
263 temp-at-nowhere 2024-05-09 05:33:06 10.86 °C zu 99.9 % 2.684 V ttn-pfaffenrot -84 dBm 09.05.2024 05:33
264 temp-at-nowhere 2024-05-09 04:33:07 11.21 °C zu 99.9 % 2.682 V ttn-pfaffenrot -88 dBm 09.05.2024 04:33
265 temp-at-nowhere 2024-05-09 03:33:08 12.02 °C zu 99.9 % 2.684 V ttn-pfaffenrot -87 dBm 09.05.2024 03:33
266 temp-at-nowhere 2024-05-09 02:33:08 12.42 °C zu 99.9 % 2.685 V ttn-pfaffenrot -87 dBm 09.05.2024 02:33
267 temp-at-nowhere 2024-05-09 01:33:09 13.1 °C zu 99.9 % 2.684 V ttn-pfaffenrot -85 dBm 09.05.2024 01:33
268 temp-at-nowhere 2024-05-09 00:33:10 13.7 °C zu 99.9 % 2.685 V ttn-pfaffenrot -93 dBm 09.05.2024 00:33
269 temp-at-nowhere 2024-05-08 23:33:10 13.97 °C zu 99.9 % 2.684 V ttn-pfaffenrot -88 dBm 08.05.2024 23:33
270 temp-at-nowhere 2024-05-08 22:33:11 14.03 °C zu 99.9 % 2.685 V ttn-pfaffenrot -88 dBm 08.05.2024 22:33
271 temp-at-nowhere 2024-05-08 21:33:12 13.53 °C zu 99.9 % 2.685 V ttn-pfaffenrot -86 dBm 08.05.2024 21:33
272 temp-at-nowhere 2024-05-08 21:02:48 12.69 °C zu 99.9 % 2.685 V ttn-pfaffenrot -87 dBm 08.05.2024 21:02
273 temp-at-nowhere 2024-05-08 20:33:12 12.95 °C offen 99.9 % 2.686 V ttn-pfaffenrot -93 dBm 08.05.2024 20:33
274 temp-at-nowhere 2024-05-08 19:33:13 13.15 °C offen 99.9 % 2.685 V ttn-pfaffenrot -92 dBm 08.05.2024 19:33
275 temp-at-nowhere 2024-05-08 18:33:13 13.08 °C offen 99.9 % 2.686 V ttn-pfaffenrot -88 dBm 08.05.2024 18:33
276 temp-at-nowhere 2024-05-08 17:33:14 12.8 °C offen 99.9 % 2.685 V ttn-pfaffenrot -94 dBm 08.05.2024 17:33
277 temp-at-nowhere 2024-05-08 16:33:15 12.44 °C offen 99.9 % 2.685 V ttn-pfaffenrot -91 dBm 08.05.2024 16:33
278 temp-at-nowhere 2024-05-08 15:33:15 12.31 °C offen 99.9 % 2.685 V ttn-pfaffenrot -93 dBm 08.05.2024 15:33
279 temp-at-nowhere 2024-05-08 14:33:16 12.06 °C offen 99.9 % 2.685 V ttn-pfaffenrot -87 dBm 08.05.2024 14:33
280 temp-at-nowhere 2024-05-08 13:33:17 12.37 °C offen 99.9 % 2.685 V ttn-pfaffenrot -90 dBm 08.05.2024 13:33
281 temp-at-nowhere 2024-05-08 12:33:17 11.94 °C offen 99.9 % 2.684 V ttn-pfaffenrot -87 dBm 08.05.2024 12:33
282 temp-at-nowhere 2024-05-08 11:33:18 11.6 °C offen 99.9 % 2.686 V ttn-pfaffenrot -89 dBm 08.05.2024 11:33
283 temp-at-nowhere 2024-05-08 10:33:18 11.31 °C offen 99.9 % 2.685 V ttn-pfaffenrot -89 dBm 08.05.2024 10:33
284 temp-at-nowhere 2024-05-08 09:33:19 10.83 °C offen 99.9 % 2.685 V ttn-pfaffenrot -86 dBm 08.05.2024 09:33
285 temp-at-nowhere 2024-05-08 08:33:20 10.35 °C offen 99.9 % 2.685 V ttn-pfaffenrot -85 dBm 08.05.2024 08:33
286 temp-at-nowhere 2024-05-08 07:33:20 10.88 °C offen 99.9 % 2.685 V ttn-pfaffenrot -87 dBm 08.05.2024 07:33
287 temp-at-nowhere 2024-05-08 06:33:21 13.02 °C offen 99.9 % 2.686 V ttn-pfaffenrot -83 dBm 08.05.2024 06:33
288 temp-at-nowhere 2024-05-08 06:30:56 13.06 °C offen 99.9 % 2.688 V ttn-pfaffenrot -85 dBm 08.05.2024 06:30
289 temp-at-nowhere 2024-05-08 05:33:22 12.86 °C zu 99.9 % 2.686 V ttn-pfaffenrot -83 dBm 08.05.2024 05:33
290 temp-at-nowhere 2024-05-08 04:33:22 13.52 °C zu 99.9 % 2.688 V ttn-pfaffenrot -83 dBm 08.05.2024 04:33
291 temp-at-nowhere 2024-05-08 03:33:23 12.96 °C zu 99.9 % 2.687 V ttn-pfaffenrot -89 dBm 08.05.2024 03:33
292 temp-at-nowhere 2024-05-08 02:33:23 13.13 °C zu 99.9 % 2.688 V ttn-pfaffenrot -87 dBm 08.05.2024 02:33
293 temp-at-nowhere 2024-05-08 01:33:24 13.43 °C zu 99.9 % 2.689 V ttn-pfaffenrot -86 dBm 08.05.2024 01:33
294 temp-at-nowhere 2024-05-08 00:33:25 13.52 °C zu 99.9 % 2.688 V ttn-pfaffenrot -89 dBm 08.05.2024 00:33
295 temp-at-nowhere 2024-05-07 23:33:25 13.36 °C zu 99.9 % 2.689 V ttn-pfaffenrot -83 dBm 07.05.2024 23:33
296 temp-at-nowhere 2024-05-07 22:33:26 13.71 °C zu 99.9 % 2.688 V ttn-pfaffenrot -87 dBm 07.05.2024 22:33
297 temp-at-nowhere 2024-05-07 21:33:27 12.92 °C zu 99.9 % 2.688 V ttn-pfaffenrot -82 dBm 07.05.2024 21:33
298 temp-at-nowhere 2024-05-07 21:05:52 12.39 °C zu 99.9 % 2.689 V ttn-pfaffenrot -78 dBm 07.05.2024 21:05
299 temp-at-nowhere 2024-05-07 20:33:27 12.63 °C offen 99.9 % 2.688 V ttn-pfaffenrot -95 dBm 07.05.2024 20:33
300 temp-at-nowhere 2024-05-07 19:33:28 13.12 °C offen 99.9 % 2.689 V ttn-pfaffenrot -93 dBm 07.05.2024 19:33
301 temp-at-nowhere 2024-05-07 18:33:28 13.42 °C offen 99.9 % 2.69 V ttn-pfaffenrot -90 dBm 07.05.2024 18:33
302 temp-at-nowhere 2024-05-07 17:33:29 13.43 °C offen 99.9 % 2.689 V ttn-pfaffenrot -92 dBm 07.05.2024 17:33
303 temp-at-nowhere 2024-05-07 16:33:30 14.19 °C offen 99.9 % 2.688 V ttn-pfaffenrot -94 dBm 07.05.2024 16:33
304 temp-at-nowhere 2024-05-07 15:33:30 14.29 °C offen 99.9 % 2.69 V ttn-pfaffenrot -91 dBm 07.05.2024 15:33
305 temp-at-nowhere 2024-05-07 14:33:31 14.06 °C offen 99.9 % 2.69 V ttn-pfaffenrot -94 dBm 07.05.2024 14:33
306 temp-at-nowhere 2024-05-07 13:33:32 14.66 °C offen 99.9 % 2.69 V ttn-pfaffenrot -95 dBm 07.05.2024 13:33
307 temp-at-nowhere 2024-05-07 12:33:32 14.89 °C offen 99.9 % 2.69 V ttn-pfaffenrot -94 dBm 07.05.2024 12:33
308 temp-at-nowhere 2024-05-07 11:33:33 14.62 °C offen 99.9 % 2.69 V ttn-pfaffenrot -96 dBm 07.05.2024 11:33
309 temp-at-nowhere 2024-05-07 10:33:34 13.39 °C offen 99.9 % 2.691 V ttn-pfaffenrot -91 dBm 07.05.2024 10:33
310 temp-at-nowhere 2024-05-07 09:33:34 12.25 °C offen 99.9 % 2.691 V ttn-pfaffenrot -90 dBm 07.05.2024 09:33
311 temp-at-nowhere 2024-05-07 08:33:35 11.17 °C offen 99.9 % 2.69 V ttn-pfaffenrot -98 dBm 07.05.2024 08:33
312 temp-at-nowhere 2024-05-07 07:33:35 11.22 °C offen 99.9 % 2.69 V ttn-pfaffenrot -83 dBm 07.05.2024 07:33
313 temp-at-nowhere 2024-05-07 06:36:27 12.83 °C offen 99.9 % 2.691 V ttn-pfaffenrot -82 dBm 07.05.2024 06:36
314 temp-at-nowhere 2024-05-07 06:33:36 12.83 °C zu 99.9 % 2.691 V ttn-pfaffenrot -83 dBm 07.05.2024 06:33
315 temp-at-nowhere 2024-05-07 05:33:37 12.1 °C zu 99.9 % 2.692 V ttn-pfaffenrot -88 dBm 07.05.2024 05:33
316 temp-at-nowhere 2024-05-07 04:33:37 12.21 °C zu 99.9 % 2.691 V ttn-pfaffenrot -83 dBm 07.05.2024 04:33
317 temp-at-nowhere 2024-05-07 03:33:38 12.53 °C zu 99.9 % 2.692 V ttn-pfaffenrot -82 dBm 07.05.2024 03:33
318 temp-at-nowhere 2024-05-07 02:33:39 12.82 °C zu 99.9 % 2.693 V ttn-pfaffenrot -87 dBm 07.05.2024 02:33
319 temp-at-nowhere 2024-05-07 01:33:43 12.99 °C zu 99.9 % 2.693 V ttn-pfaffenrot -82 dBm 07.05.2024 01:33
320 temp-at-nowhere 2024-05-07 00:33:40 13.53 °C zu 99.9 % 2.694 V ttn-pfaffenrot -84 dBm 07.05.2024 00:33
321 temp-at-nowhere 2024-05-06 23:33:41 13.8 °C zu 99.9 % 2.693 V ttn-pfaffenrot -84 dBm 06.05.2024 23:33
322 temp-at-nowhere 2024-05-06 22:33:41 13.97 °C zu 99.9 % 2.693 V ttn-pfaffenrot -83 dBm 06.05.2024 22:33
323 temp-at-nowhere 2024-05-06 21:33:42 14.03 °C zu 99.9 % 2.694 V ttn-pfaffenrot -85 dBm 06.05.2024 21:33
324 temp-at-nowhere 2024-05-06 21:12:01 14.17 °C zu 93.7 % 2.694 V ttn-pfaffenrot -85 dBm 06.05.2024 21:12
325 temp-at-nowhere 2024-05-06 20:38:01 19.44 °C offen 75 % 2.688 V ttn-pfaffenrot -76 dBm 06.05.2024 20:38
326 temp-at-nowhere 2024-05-06 20:37:53 19.5 °C zu 74.8 % 2.69 V ttn-pfaffenrot -87 dBm 06.05.2024 20:37
327 temp-at-nowhere 2024-05-06 20:37:09 19.82 °C offen 74.1 % 2.687 V ttn-pfaffenrot -84 dBm 06.05.2024 20:37
328 temp-at-nowhere 2024-05-06 20:37:01 19.87 °C zu 74 % 2.692 V ttn-pfaffenrot -83 dBm 06.05.2024 20:37
329 temp-at-nowhere 2024-05-06 20:34:42 20.92 °C offen 72.1 % 2.687 V ttn-pfaffenrot -85 dBm 06.05.2024 20:34
330 temp-at-nowhere 2024-05-06 20:34:34 20.98 °C offen 71.9 % 2.691 V ttn-pfaffenrot -99 dBm 06.05.2024 20:34
331 temp-at-nowhere 2024-05-06 20:33:45 21.2 °C zu 71.9 % 2.688 V ttn-pfaffenrot -79 dBm 06.05.2024 20:33
332 temp-at-nowhere 2024-05-06 20:33:37 21.24 °C zu 72.1 % 2.691 V ttn-pfaffenrot -77 dBm 06.05.2024 20:33
333 temp-at-nowhere 2024-05-06 19:13:19 21.64 °C zu 71.7 % 2.704 V ttn-pfaffenrot -99 dBm 06.05.2024 19:13
334 temp-at-nowhere 2024-05-06 19:07:26 21.72 °C zu 71.2 % 2.704 V ttn-pfaffenrot -100 dBm 06.05.2024 19:07
335 temp-at-nowhere 2024-05-06 17:13:20 22.68 °C offen 70 % 2.721 V ttn-pfaffenrot -110 dBm 06.05.2024 17:13
336 temp-at-nowhere 2024-05-06 16:13:21 22.58 °C offen 70.9 % 2.722 V ttn-pfaffenrot -108 dBm 06.05.2024 16:13
337 temp-at-nowhere 2024-05-06 15:52:47 22.63 °C offen 70.6 % 2.712 V ttn-pfaffenrot -95 dBm 06.05.2024 15:52
338 temp-at-nowhere 2024-05-06 15:52:39 22.62 °C zu 70.6 % 2.717 V ttn-pfaffenrot -99 dBm 06.05.2024 15:52
339 temp-at-nowhere 2024-05-06 15:40:27 22.55 °C offen 70.9 % 2.71 V ttn-pfaffenrot -103 dBm 06.05.2024 15:40
340 temp-at-nowhere 2024-05-06 15:40:19 22.6 °C zu 70.9 % 2.716 V ttn-pfaffenrot -102 dBm 06.05.2024 15:40
341 temp-at-nowhere 2024-05-06 15:35:57 22.56 °C offen 70.9 % 2.711 V ttn-pfaffenrot -101 dBm 06.05.2024 15:35
342 temp-at-nowhere 2024-05-06 15:35:49 22.55 °C zu 70.9 % 2.715 V ttn-pfaffenrot -100 dBm 06.05.2024 15:35
343 temp-at-nowhere 2024-05-06 15:13:21 22.65 °C offen 71.2 % 2.709 V ttn-pfaffenrot -96 dBm 06.05.2024 15:13
344 temp-at-nowhere 2024-05-06 14:30:58 22.66 °C offen 72.2 % 2.692 V ttn-pfaffenrot -100 dBm 06.05.2024 14:30
345 temp-at-nowhere 2024-05-06 14:30:50 22.62 °C zu 72.2 % 2.698 V ttn-pfaffenrot -90 dBm 06.05.2024 14:30
346 temp-at-nowhere 2024-05-06 14:13:22 22.73 °C offen 72.3 % 2.689 V ttn-pfaffenrot -94 dBm 06.05.2024 14:13
347 temp-at-nowhere 2024-05-06 14:08:27 22.74 °C offen 72.1 % 2.678 V ttn-pfaffenrot -96 dBm 06.05.2024 14:08
348 temp-at-nowhere 2024-05-06 14:08:19 22.71 °C zu 72.2 % 2.683 V ttn-pfaffenrot -95 dBm 06.05.2024 14:08
349 temp-at-nowhere 2024-05-06 14:07:35 22.73 °C offen 72.1 % 2.682 V ttn-pfaffenrot -96 dBm 06.05.2024 14:07
350 temp-at-nowhere 2024-05-06 14:07:25 22.66 °C zu 72.2 % 2.684 V ttn-pfaffenrot -97 dBm 06.05.2024 14:07
351 temp-at-nowhere 2024-05-06 14:07:17 22.68 °C offen 72.3 % 2.689 V ttn-pfaffenrot -95 dBm 06.05.2024 14:07
352 temp-at-nowhere 2024-05-06 14:06:54 22.68 °C zu 72.2 % 2.69 V ttn-pfaffenrot -99 dBm 06.05.2024 14:06
353 temp-at-nowhere 2024-05-06 13:46:10 22.88 °C offen 72.1 % 2.667 V ttn-pfaffenrot -93 dBm 06.05.2024 13:46
354 temp-at-nowhere 2024-05-06 13:46:02 22.88 °C zu 72.1 % 2.671 V ttn-pfaffenrot -97 dBm 06.05.2024 13:46
355 temp-at-nowhere 2024-05-06 13:45:45 22.85 °C offen 72.3 % 2.671 V ttn-pfaffenrot -98 dBm 06.05.2024 13:45
356 temp-at-nowhere 2024-05-06 13:45:37 22.82 °C zu 72.3 % 2.674 V ttn-pfaffenrot -98 dBm 06.05.2024 13:45
357 temp-at-nowhere 2024-05-06 13:42:17 22.78 °C offen 72.5 % 2.674 V ttn-pfaffenrot -95 dBm 06.05.2024 13:42
358 temp-at-nowhere 2024-05-06 13:42:09 22.75 °C zu 72.5 % 2.68 V ttn-pfaffenrot -97 dBm 06.05.2024 13:42
359 temp-at-nowhere 2024-05-06 13:41:34 22.7 °C zu 72.6 % 2.68 V ttn-pfaffenrot -96 dBm 06.05.2024 13:41
360 temp-at-nowhere 2024-05-06 13:40:49 22.71 °C zu 72.5 % 2.681 V ttn-pfaffenrot -97 dBm 06.05.2024 13:40
361 temp-at-nowhere 2024-05-06 13:40:05 22.69 °C zu 72.6 % 2.679 V ttn-pfaffenrot -94 dBm 06.05.2024 13:40
362 temp-at-nowhere 2024-05-06 13:39:57 22.7 °C zu 72.6 % 2.683 V ttn-pfaffenrot -97 dBm 06.05.2024 13:39
363 temp-at-nowhere 2024-05-06 11:33:48 14.36 °C x 99.9 % 2.666 V ttn-pfaffenrot -81 dBm 06.05.2024 11:33
364 temp-at-nowhere 2024-05-06 10:33:48 13.7 °C x 99.9 % 2.667 V ttn-pfaffenrot -80 dBm 06.05.2024 10:33
365 temp-at-nowhere 2024-05-06 09:33:49 13.31 °C x 99.9 % 2.665 V ttn-pfaffenrot -83 dBm 06.05.2024 09:33
366 temp-at-nowhere 2024-05-06 08:33:50 13.44 °C x 99.9 % 2.666 V ttn-pfaffenrot -82 dBm 06.05.2024 08:33
367 temp-at-nowhere 2024-05-06 07:33:50 13.73 °C x 99.9 % 2.667 V ttn-pfaffenrot -82 dBm 06.05.2024 07:33
368 temp-at-nowhere 2024-05-06 06:33:51 15.41 °C x 99.9 % 2.666 V ttn-pfaffenrot -88 dBm 06.05.2024 06:33
369 temp-at-nowhere 2024-05-06 05:33:52 14.47 °C x 99.9 % 2.666 V ttn-pfaffenrot -86 dBm 06.05.2024 05:33
370 temp-at-nowhere 2024-05-06 04:33:52 14.1 °C x 99.9 % 2.665 V ttn-pfaffenrot -82 dBm 06.05.2024 04:33
371 temp-at-nowhere 2024-05-06 03:33:53 13.89 °C x 99.9 % 2.667 V ttn-pfaffenrot -83 dBm 06.05.2024 03:33
372 temp-at-nowhere 2024-05-06 02:33:54 13.99 °C x 99.9 % 2.666 V ttn-pfaffenrot -82 dBm 06.05.2024 02:33
373 temp-at-nowhere 2024-05-06 01:33:54 14.29 °C x 99.9 % 2.668 V ttn-pfaffenrot -85 dBm 06.05.2024 01:33
374 temp-at-nowhere 2024-05-06 00:33:55 14.29 °C x 99.9 % 2.666 V ttn-pfaffenrot -85 dBm 06.05.2024 00:33
375 temp-at-nowhere 2024-05-05 23:33:55 14.44 °C x 99.9 % 2.666 V ttn-pfaffenrot -84 dBm 05.05.2024 23:33
376 temp-at-nowhere 2024-05-05 22:33:56 14.54 °C x 99.9 % 2.666 V ttn-pfaffenrot -83 dBm 05.05.2024 22:33
377 temp-at-nowhere 2024-05-05 21:33:57 14.57 °C x 99.9 % 2.664 V ttn-pfaffenrot -90 dBm 05.05.2024 21:33
378 temp-at-nowhere 2024-05-05 20:33:57 14.75 °C x 99.9 % 2.667 V ttn-pfaffenrot -79 dBm 05.05.2024 20:33
379 temp-at-nowhere 2024-05-05 19:33:58 15.04 °C x 99.9 % 2.665 V ttn-pfaffenrot -83 dBm 05.05.2024 19:33
380 temp-at-nowhere 2024-05-05 18:33:59 14.98 °C x 99.9 % 2.667 V ttn-pfaffenrot -80 dBm 05.05.2024 18:33
381 temp-at-nowhere 2024-05-05 17:33:59 15.56 °C x 95.1 % 2.667 V ttn-pfaffenrot -81 dBm 05.05.2024 17:33
382 temp-at-nowhere 2024-05-05 16:34:00 18.07 °C x 93.2 % 2.666 V ttn-pfaffenrot -79 dBm 05.05.2024 16:34
383 temp-at-nowhere 2024-05-05 15:34:00 17.95 °C x 95.6 % 2.669 V ttn-pfaffenrot -81 dBm 05.05.2024 15:34
384 temp-at-nowhere 2024-05-05 14:34:01 17.39 °C x 99.9 % 2.668 V ttn-pfaffenrot -80 dBm 05.05.2024 14:34
385 temp-at-nowhere 2024-05-05 13:34:02 16.53 °C x 99.9 % 2.666 V ttn-pfaffenrot -79 dBm 05.05.2024 13:34
386 temp-at-nowhere 2024-05-05 12:34:02 15.33 °C x 99.9 % 2.666 V ttn-pfaffenrot -78 dBm 05.05.2024 12:34
387 temp-at-nowhere 2024-05-05 11:34:03 14.82 °C x 99.9 % 2.666 V ttn-pfaffenrot -79 dBm 05.05.2024 11:34
388 temp-at-nowhere 2024-05-05 10:34:04 14.25 °C x 99.9 % 2.666 V ttn-pfaffenrot -87 dBm 05.05.2024 10:34
389 temp-at-nowhere 2024-05-05 09:34:04 13.48 °C x 99.9 % 2.667 V ttn-pfaffenrot -76 dBm 05.05.2024 09:34
390 temp-at-nowhere 2024-05-05 08:34:05 13.08 °C x 99.9 % 2.667 V ttn-pfaffenrot -89 dBm 05.05.2024 08:34
391 temp-at-nowhere 2024-05-05 07:34:06 13.72 °C x 99.9 % 2.667 V ttn-pfaffenrot -79 dBm 05.05.2024 07:34
392 temp-at-nowhere 2024-05-05 06:34:06 14.64 °C x 99.9 % 2.667 V ttn-pfaffenrot -95 dBm 05.05.2024 06:34
393 temp-at-nowhere 2024-05-05 05:34:07 14.23 °C x 99.9 % 2.666 V ttn-pfaffenrot -84 dBm 05.05.2024 05:34
394 temp-at-nowhere 2024-05-05 04:34:07 14.32 °C x 97.9 % 2.667 V ttn-pfaffenrot -87 dBm 05.05.2024 04:34
395 temp-at-nowhere 2024-05-05 03:34:08 15.21 °C x 94.4 % 2.668 V ttn-pfaffenrot -82 dBm 05.05.2024 03:34
396 temp-at-nowhere 2024-05-05 02:34:09 16.1 °C x 93 % 2.667 V ttn-pfaffenrot -89 dBm 05.05.2024 02:34
397 temp-at-nowhere 2024-05-05 01:34:09 15.94 °C x 93 % 2.666 V ttn-pfaffenrot -85 dBm 05.05.2024 01:34
398 temp-at-nowhere 2024-05-05 00:34:10 15.71 °C x 94.1 % 2.666 V ttn-pfaffenrot -75 dBm 05.05.2024 00:34
399 temp-at-nowhere 2024-05-04 23:34:11 15.85 °C x 93.7 % 2.665 V ttn-pfaffenrot -78 dBm 04.05.2024 23:34
400 temp-at-nowhere 2024-05-04 22:34:11 15.84 °C x 91.7 % 2.666 V ttn-pfaffenrot -85 dBm 04.05.2024 22:34
401 temp-at-nowhere 2024-05-04 21:34:12 15.9 °C x 88.5 % 2.667 V ttn-pfaffenrot -81 dBm 04.05.2024 21:34
402 temp-at-nowhere 2024-05-04 20:34:13 15.99 °C x 84.8 % 2.67 V ttn-pfaffenrot -84 dBm 04.05.2024 20:34
403 temp-at-nowhere 2024-05-04 19:34:13 16.72 °C x 83.2 % 2.667 V ttn-pfaffenrot -80 dBm 04.05.2024 19:34
404 temp-at-nowhere 2024-05-04 18:34:14 17.56 °C x 82.3 % 2.668 V ttn-pfaffenrot -95 dBm 04.05.2024 18:34
405 temp-at-nowhere 2024-05-04 17:34:14 18.04 °C x 81.7 % 2.667 V ttn-pfaffenrot -83 dBm 04.05.2024 17:34
406 temp-at-nowhere 2024-05-04 16:34:15 18.22 °C x 83.1 % 2.667 V ttn-pfaffenrot -95 dBm 04.05.2024 16:34
407 temp-at-nowhere 2024-05-04 15:34:16 17.97 °C x 86.5 % 2.666 V ttn-pfaffenrot -81 dBm 04.05.2024 15:34
408 temp-at-nowhere 2024-05-04 14:34:16 17.29 °C x 89.3 % 2.667 V ttn-pfaffenrot -87 dBm 04.05.2024 14:34
409 temp-at-nowhere 2024-05-04 13:34:17 16.48 °C x 94 % 2.665 V ttn-pfaffenrot -81 dBm 04.05.2024 13:34
410 temp-at-nowhere 2024-05-04 12:34:18 15.64 °C x 99.9 % 2.668 V ttn-pfaffenrot -91 dBm 04.05.2024 12:34
411 temp-at-nowhere 2024-05-04 11:34:18 14.26 °C x 99.9 % 2.667 V ttn-pfaffenrot -82 dBm 04.05.2024 11:34
412 temp-at-nowhere 2024-05-04 10:34:19 12.89 °C x 99.9 % 2.666 V ttn-pfaffenrot -97 dBm 04.05.2024 10:34
413 temp-at-nowhere 2024-05-04 09:34:20 12.14 °C x 99.9 % 2.667 V ttn-pfaffenrot -83 dBm 04.05.2024 09:34
414 temp-at-nowhere 2024-05-04 08:34:20 11.17 °C x 99.9 % 2.667 V ttn-pfaffenrot -84 dBm 04.05.2024 08:34
415 temp-at-nowhere 2024-05-04 07:34:21 10.91 °C x 99.9 % 2.666 V ttn-pfaffenrot -79 dBm 04.05.2024 07:34
416 temp-at-nowhere 2024-05-04 06:34:21 12.77 °C x 99.9 % 2.668 V ttn-pfaffenrot -88 dBm 04.05.2024 06:34
417 temp-at-nowhere 2024-05-04 05:34:22 12.44 °C x 99.9 % 2.666 V ttn-pfaffenrot -79 dBm 04.05.2024 05:34
418 temp-at-nowhere 2024-05-04 04:34:23 11.77 °C x 99.9 % 2.666 V ttn-pfaffenrot -93 dBm 04.05.2024 04:34
419 temp-at-nowhere 2024-05-04 03:34:23 11.72 °C x 99.9 % 2.666 V ttn-pfaffenrot -80 dBm 04.05.2024 03:34
420 temp-at-nowhere 2024-05-04 02:34:24 11.8 °C x 99.9 % 2.667 V ttn-pfaffenrot -85 dBm 04.05.2024 02:34
421 temp-at-nowhere 2024-05-04 01:34:25 11.87 °C x 99.9 % 2.667 V ttn-pfaffenrot -81 dBm 04.05.2024 01:34
422 temp-at-nowhere 2024-05-04 00:34:25 12.29 °C x 99.9 % 2.667 V ttn-pfaffenrot -81 dBm 04.05.2024 00:34
423 temp-at-nowhere 2024-05-03 23:34:26 12.9 °C x 99.9 % 2.667 V ttn-pfaffenrot -84 dBm 03.05.2024 23:34
424 temp-at-nowhere 2024-05-03 22:34:26 12.92 °C x 99.9 % 2.666 V ttn-pfaffenrot -82 dBm 03.05.2024 22:34
425 temp-at-nowhere 2024-05-03 21:34:27 12.81 °C x 94.3 % 2.666 V ttn-pfaffenrot -81 dBm 03.05.2024 21:34
426 temp-at-nowhere 2024-05-03 20:34:28 12.76 °C x 90.4 % 2.668 V ttn-pfaffenrot -91 dBm 03.05.2024 20:34
427 temp-at-nowhere 2024-05-03 19:34:28 13.48 °C x 90.1 % 2.667 V ttn-pfaffenrot -79 dBm 03.05.2024 19:34
428 temp-at-nowhere 2024-05-03 18:34:29 13.83 °C x 89.5 % 2.666 V ttn-pfaffenrot -89 dBm 03.05.2024 18:34
429 temp-at-nowhere 2024-05-03 17:34:30 14.24 °C x 92.3 % 2.669 V ttn-pfaffenrot -82 dBm 03.05.2024 17:34
430 temp-at-nowhere 2024-05-03 16:34:30 13.89 °C x 94.6 % 2.668 V ttn-pfaffenrot -89 dBm 03.05.2024 16:34
431 temp-at-nowhere 2024-05-03 15:34:31 14.23 °C x 97.6 % 2.668 V ttn-pfaffenrot -79 dBm 03.05.2024 15:34
432 temp-at-nowhere 2024-05-03 14:34:32 13.43 °C x 99.9 % 2.667 V ttn-pfaffenrot -84 dBm 03.05.2024 14:34
433 temp-at-nowhere 2024-05-03 13:34:32 12.78 °C x 99.9 % 2.667 V ttn-pfaffenrot -81 dBm 03.05.2024 13:34
434 temp-at-nowhere 2024-05-03 12:34:33 12.56 °C x 99.9 % 2.667 V ttn-pfaffenrot -87 dBm 03.05.2024 12:34
435 temp-at-nowhere 2024-05-03 11:34:33 12.03 °C x 99.9 % 2.668 V ttn-pfaffenrot -75 dBm 03.05.2024 11:34
436 temp-at-nowhere 2024-05-03 10:34:34 11.68 °C x 99.9 % 2.668 V ttn-pfaffenrot -95 dBm 03.05.2024 10:34
437 temp-at-nowhere 2024-05-03 09:34:35 10.91 °C x 99.9 % 2.667 V ttn-pfaffenrot -83 dBm 03.05.2024 09:34
438 temp-at-nowhere 2024-05-03 08:34:35 9.56 °C x 99.9 % 2.667 V ttn-pfaffenrot -89 dBm 03.05.2024 08:34
439 temp-at-nowhere 2024-05-03 07:34:36 10.11 °C x 99.9 % 2.667 V ttn-pfaffenrot -85 dBm 03.05.2024 07:34
440 temp-at-nowhere 2024-05-03 06:34:37 12.16 °C x 99.9 % 2.667 V ttn-pfaffenrot -101 dBm 03.05.2024 06:34
441 temp-at-nowhere 2024-05-03 05:34:37 12.11 °C x 99.9 % 2.668 V ttn-pfaffenrot -87 dBm 03.05.2024 05:34
442 temp-at-nowhere 2024-05-03 04:34:38 11.75 °C x 99.9 % 2.666 V ttn-pfaffenrot -95 dBm 03.05.2024 04:34
443 temp-at-nowhere 2024-05-03 03:34:38 11.84 °C x 99.9 % 2.668 V ttn-pfaffenrot -83 dBm 03.05.2024 03:34
444 temp-at-nowhere 2024-05-03 02:34:39 11.81 °C x 99.9 % 2.667 V ttn-pfaffenrot -95 dBm 03.05.2024 02:34
445 temp-at-nowhere 2024-05-03 01:34:40 11.97 °C x 99.9 % 2.668 V ttn-pfaffenrot -89 dBm 03.05.2024 01:34
446 temp-at-nowhere 2024-05-03 00:34:40 12.29 °C x 99.9 % 2.669 V ttn-pfaffenrot -89 dBm 03.05.2024 00:34
447 temp-at-nowhere 2024-05-02 23:34:41 12.54 °C x 99.9 % 2.67 V ttn-pfaffenrot -89 dBm 02.05.2024 23:34
448 temp-at-nowhere 2024-05-02 22:34:42 12.64 °C x 99.9 % 2.669 V ttn-pfaffenrot -101 dBm 02.05.2024 22:34
449 temp-at-nowhere 2024-05-02 21:34:42 12.44 °C x 99.9 % 2.67 V ttn-pfaffenrot -84 dBm 02.05.2024 21:34
450 temp-at-nowhere 2024-05-02 20:34:43 12.03 °C x 99.9 % 2.667 V ttn-pfaffenrot -89 dBm 02.05.2024 20:34
451 temp-at-nowhere 2024-05-02 19:34:43 12.32 °C x 99.9 % 2.668 V ttn-pfaffenrot -85 dBm 02.05.2024 19:34
452 temp-at-nowhere 2024-05-02 18:34:44 12.65 °C x 99.9 % 2.669 V ttn-pfaffenrot -82 dBm 02.05.2024 18:34
453 temp-at-nowhere 2024-05-02 17:34:45 13.92 °C x 99.9 % 2.669 V ttn-pfaffenrot -88 dBm 02.05.2024 17:34
454 temp-at-nowhere 2024-05-02 16:34:45 16.04 °C x 96.3 % 2.67 V ttn-pfaffenrot -90 dBm 02.05.2024 16:34
455 temp-at-nowhere 2024-05-02 15:34:46 17.92 °C x 94.3 % 2.67 V ttn-pfaffenrot -85 dBm 02.05.2024 15:34
456 temp-at-nowhere 2024-05-02 14:34:47 18.93 °C x 97.8 % 2.669 V ttn-pfaffenrot -91 dBm 02.05.2024 14:34
457 temp-at-nowhere 2024-05-02 13:34:47 18.66 °C x 98.8 % 2.67 V ttn-pfaffenrot -85 dBm 02.05.2024 13:34
458 temp-at-nowhere 2024-05-02 12:34:48 18.89 °C x 99.9 % 2.67 V ttn-pfaffenrot -89 dBm 02.05.2024 12:34
459 temp-at-nowhere 2024-05-02 11:34:49 18.01 °C x 99.9 % 2.67 V ttn-pfaffenrot -84 dBm 02.05.2024 11:34
460 temp-at-nowhere 2024-05-02 10:34:49 17.3 °C x 99.9 % 2.669 V ttn-pfaffenrot -83 dBm 02.05.2024 10:34
461 temp-at-nowhere 2024-05-02 09:34:50 16.05 °C x 99.9 % 2.67 V ttn-pfaffenrot -85 dBm 02.05.2024 09:34
462 temp-at-nowhere 2024-05-02 08:34:51 15.14 °C x 99.9 % 2.668 V ttn-pfaffenrot -84 dBm 02.05.2024 08:34
463 temp-at-nowhere 2024-05-02 07:34:51 14.37 °C x 99.9 % 2.67 V ttn-pfaffenrot -85 dBm 02.05.2024 07:34
464 temp-at-nowhere 2024-05-02 06:34:52 15.54 °C x 99.9 % 2.67 V ttn-pfaffenrot -82 dBm 02.05.2024 06:34
465 temp-at-nowhere 2024-05-02 05:34:52 15.8 °C x 99.9 % 2.671 V ttn-pfaffenrot -87 dBm 02.05.2024 05:34
466 temp-at-nowhere 2024-05-02 04:34:53 15.68 °C x 99.9 % 2.67 V ttn-pfaffenrot -88 dBm 02.05.2024 04:34
467 temp-at-nowhere 2024-05-02 03:34:54 16.11 °C x 99.9 % 2.669 V ttn-pfaffenrot -84 dBm 02.05.2024 03:34
468 temp-at-nowhere 2024-05-02 02:34:54 17.14 °C x 99.9 % 2.67 V ttn-pfaffenrot -93 dBm 02.05.2024 02:34
469 temp-at-nowhere 2024-05-02 01:34:55 17.9 °C x 99.9 % 2.67 V ttn-pfaffenrot -89 dBm 02.05.2024 01:34
470 temp-at-nowhere 2024-05-02 00:34:56 18.45 °C x 99.9 % 2.671 V ttn-pfaffenrot -95 dBm 02.05.2024 00:34
471 temp-at-nowhere 2024-05-01 23:34:56 19.36 °C x 95.2 % 2.671 V ttn-pfaffenrot -89 dBm 01.05.2024 23:34
472 temp-at-nowhere 2024-05-01 22:34:57 20.18 °C x 88.6 % 2.669 V ttn-pfaffenrot -97 dBm 01.05.2024 22:34
473 temp-at-nowhere 2024-05-01 21:34:58 20.3 °C x 84.4 % 2.67 V ttn-pfaffenrot -84 dBm 01.05.2024 21:34
474 temp-at-nowhere 2024-05-01 20:34:58 20.91 °C x 80.7 % 2.67 V ttn-pfaffenrot -95 dBm 01.05.2024 20:34
475 temp-at-nowhere 2024-05-01 19:34:59 22 °C x 77.3 % 2.668 V ttn-pfaffenrot -82 dBm 01.05.2024 19:34
476 temp-at-nowhere 2024-05-01 18:34:59 22.7 °C x 76 % 2.669 V ttn-pfaffenrot -89 dBm 01.05.2024 18:34
477 temp-at-nowhere 2024-05-01 17:35:00 23.31 °C x 81.1 % 2.67 V ttn-pfaffenrot -81 dBm 01.05.2024 17:35
478 temp-at-nowhere 2024-05-01 16:35:01 23.5 °C x 79.9 % 2.669 V ttn-pfaffenrot -95 dBm 01.05.2024 16:35
479 temp-at-nowhere 2024-05-01 15:35:01 23.08 °C x 80.4 % 2.668 V ttn-pfaffenrot -83 dBm 01.05.2024 15:35
480 temp-at-nowhere 2024-05-01 14:35:02 22.95 °C x 84.8 % 2.668 V ttn-pfaffenrot -95 dBm 01.05.2024 14:35
481 temp-at-nowhere 2024-05-01 13:35:03 21.86 °C x 91 % 2.667 V ttn-pfaffenrot -89 dBm 01.05.2024 13:35
482 temp-at-nowhere 2024-05-01 12:35:03 20.44 °C x 97.6 % 2.669 V ttn-pfaffenrot -91 dBm 01.05.2024 12:35
483 temp-at-nowhere 2024-05-01 11:35:04 18.62 °C x 99.9 % 2.67 V ttn-pfaffenrot -85 dBm 01.05.2024 11:35
484 temp-at-nowhere 2024-05-01 10:35:05 16.99 °C x 99.9 % 2.668 V ttn-pfaffenrot -85 dBm 01.05.2024 10:35
485 temp-at-nowhere 2024-05-01 09:35:05 15.5 °C x 99.9 % 2.668 V ttn-pfaffenrot -83 dBm 01.05.2024 09:35
486 temp-at-nowhere 2024-05-01 08:35:06 14.55 °C x 99.9 % 2.667 V ttn-pfaffenrot -82 dBm 01.05.2024 08:35
487 temp-at-nowhere 2024-05-01 07:35:07 14.47 °C x 99.9 % 2.667 V ttn-pfaffenrot -82 dBm 01.05.2024 07:35
488 temp-at-nowhere 2024-05-01 06:35:07 16.28 °C x 99.9 % 2.668 V ttn-pfaffenrot -96 dBm 01.05.2024 06:35
489 temp-at-nowhere 2024-05-01 05:35:08 15.64 °C x 99.9 % 2.668 V ttn-pfaffenrot -82 dBm 01.05.2024 05:35
490 temp-at-nowhere 2024-05-01 04:35:08 15.83 °C x 99.9 % 2.667 V ttn-pfaffenrot -81 dBm 01.05.2024 04:35
491 temp-at-nowhere 2024-05-01 03:35:09 16.06 °C x 99.9 % 2.667 V ttn-pfaffenrot -83 dBm 01.05.2024 03:35
492 temp-at-nowhere 2024-05-01 02:35:10 16.38 °C x 99.9 % 2.667 V ttn-pfaffenrot -95 dBm 01.05.2024 02:35
493 temp-at-nowhere 2024-05-01 01:35:10 16.73 °C x 99.9 % 2.666 V ttn-pfaffenrot -84 dBm 01.05.2024 01:35
494 temp-at-nowhere 2024-05-01 00:35:11 17.65 °C x 99.9 % 2.667 V ttn-pfaffenrot -89 dBm 01.05.2024 00:35
495 temp-at-nowhere 2024-04-30 23:35:12 18.2 °C x 99.9 % 2.667 V ttn-pfaffenrot -87 dBm 30.04.2024 23:35
496 temp-at-nowhere 2024-04-30 22:35:12 19.12 °C x 96.9 % 2.667 V ttn-pfaffenrot -91 dBm 30.04.2024 22:35
497 temp-at-nowhere 2024-04-30 21:35:13 19.85 °C x 90.6 % 2.667 V ttn-pfaffenrot -85 dBm 30.04.2024 21:35
498 temp-at-nowhere 2024-04-30 20:35:14 20.03 °C x 84.7 % 2.668 V ttn-pfaffenrot -83 dBm 30.04.2024 20:35
499 temp-at-nowhere 2024-04-30 19:35:14 20.79 °C x 84.7 % 2.668 V ttn-pfaffenrot -82 dBm 30.04.2024 19:35
500 temp-at-nowhere 2024-04-30 18:35:15 21.47 °C x 82.4 % 2.667 V ttn-pfaffenrot -95 dBm 30.04.2024 18:35
501 temp-at-nowhere 2024-04-30 17:35:16 21.93 °C x 84.4 % 2.667 V ttn-pfaffenrot -81 dBm 30.04.2024 17:35
502 temp-at-nowhere 2024-04-30 16:35:16 21.92 °C x 88.4 % 2.666 V ttn-pfaffenrot -97 dBm 30.04.2024 16:35
503 temp-at-nowhere 2024-04-30 15:35:17 21.6 °C x 91.7 % 2.666 V ttn-pfaffenrot -84 dBm 30.04.2024 15:35
504 temp-at-nowhere 2024-04-30 14:35:18 20.79 °C x 96.1 % 2.666 V ttn-pfaffenrot -97 dBm 30.04.2024 14:35
505 temp-at-nowhere 2024-04-30 13:35:18 19.65 °C x 99.9 % 2.665 V ttn-pfaffenrot -84 dBm 30.04.2024 13:35
506 temp-at-nowhere 2024-04-30 12:35:19 18.31 °C x 99.9 % 2.666 V ttn-pfaffenrot -91 dBm 30.04.2024 12:35
507 temp-at-nowhere 2024-04-30 11:35:20 16.87 °C x 99.9 % 2.664 V ttn-pfaffenrot -87 dBm 30.04.2024 11:35
508 temp-at-nowhere 2024-04-30 10:35:20 15.11 °C x 99.9 % 2.664 V ttn-pfaffenrot -93 dBm 30.04.2024 10:35
509 temp-at-nowhere 2024-04-30 09:35:21 13.53 °C x 99.9 % 2.665 V ttn-pfaffenrot -84 dBm 30.04.2024 09:35
510 temp-at-nowhere 2024-04-30 08:35:21 12.16 °C x 99.9 % 2.664 V ttn-pfaffenrot -91 dBm 30.04.2024 08:35
511 temp-at-nowhere 2024-04-30 07:35:22 11.48 °C x 99.9 % 2.665 V ttn-pfaffenrot -81 dBm 30.04.2024 07:35
512 temp-at-nowhere 2024-04-30 06:35:23 13.13 °C x 99.9 % 2.666 V ttn-pfaffenrot -97 dBm 30.04.2024 06:35
513 temp-at-nowhere 2024-04-30 05:35:23 13.73 °C x 99.9 % 2.665 V ttn-pfaffenrot -89 dBm 30.04.2024 05:35
514 temp-at-nowhere 2024-04-30 04:35:24 14.2 °C x 99.9 % 2.664 V ttn-pfaffenrot -103 dBm 30.04.2024 04:35
515 temp-at-nowhere 2024-04-30 03:35:25 14.31 °C x 99.9 % 2.665 V ttn-pfaffenrot -89 dBm 30.04.2024 03:35
516 temp-at-nowhere 2024-04-30 02:35:25 14.67 °C x 99.9 % 2.665 V ttn-pfaffenrot -95 dBm 30.04.2024 02:35
517 temp-at-nowhere 2024-04-30 01:35:26 15.11 °C x 99.9 % 2.665 V ttn-pfaffenrot -86 dBm 30.04.2024 01:35
518 temp-at-nowhere 2024-04-30 00:35:27 16.08 °C x 99.9 % 2.665 V ttn-pfaffenrot -86 dBm 30.04.2024 00:35
519 temp-at-nowhere 2024-04-29 23:35:27 16.52 °C x 99.9 % 2.665 V ttn-pfaffenrot -86 dBm 29.04.2024 23:35
520 temp-at-nowhere 2024-04-29 22:35:28 16.7 °C x 99 % 2.664 V ttn-pfaffenrot -83 dBm 29.04.2024 22:35
521 temp-at-nowhere 2024-04-29 21:35:29 16.55 °C x 91.3 % 2.665 V ttn-pfaffenrot -85 dBm 29.04.2024 21:35
522 temp-at-nowhere 2024-04-29 20:35:29 16.64 °C x 85.6 % 2.665 V ttn-pfaffenrot -87 dBm 29.04.2024 20:35
523 temp-at-nowhere 2024-04-29 19:35:30 17.62 °C x 85 % 2.665 V ttn-pfaffenrot -85 dBm 29.04.2024 19:35
524 temp-at-nowhere 2024-04-29 18:35:30 18.34 °C x 83.1 % 2.665 V ttn-pfaffenrot -81 dBm 29.04.2024 18:35
525 temp-at-nowhere 2024-04-29 17:35:31 18.94 °C x 83.5 % 2.666 V ttn-pfaffenrot -82 dBm 29.04.2024 17:35
526 temp-at-nowhere 2024-04-29 16:35:32 19.33 °C x 84.9 % 2.665 V ttn-pfaffenrot -91 dBm 29.04.2024 16:35
527 temp-at-nowhere 2024-04-29 15:35:32 19.18 °C x 88 % 2.665 V ttn-pfaffenrot -85 dBm 29.04.2024 15:35
528 temp-at-nowhere 2024-04-29 14:35:33 18.44 °C x 91.9 % 2.666 V ttn-pfaffenrot -89 dBm 29.04.2024 14:35
529 temp-at-nowhere 2024-04-29 13:35:34 17.6 °C x 96.2 % 2.665 V ttn-pfaffenrot -85 dBm 29.04.2024 13:35
530 temp-at-nowhere 2024-04-29 12:35:34 16.24 °C x 99.9 % 2.663 V ttn-pfaffenrot -80 dBm 29.04.2024 12:35
531 temp-at-nowhere 2024-04-29 11:35:35 14.84 °C x 99.9 % 2.663 V ttn-pfaffenrot -84 dBm 29.04.2024 11:35
532 temp-at-nowhere 2024-04-29 10:35:36 12.97 °C x 99.9 % 2.662 V ttn-pfaffenrot -89 dBm 29.04.2024 10:35
533 temp-at-nowhere 2024-04-29 09:35:36 11.18 °C x 99.9 % 2.663 V ttn-pfaffenrot -85 dBm 29.04.2024 09:35
534 temp-at-nowhere 2024-04-29 08:35:37 10.08 °C x 99.9 % 2.664 V ttn-pfaffenrot -101 dBm 29.04.2024 08:35
535 temp-at-nowhere 2024-04-29 07:35:38 10.68 °C x 99.9 % 2.662 V ttn-pfaffenrot -87 dBm 29.04.2024 07:35
536 temp-at-nowhere 2024-04-29 06:35:38 13.07 °C x 99.9 % 2.663 V ttn-pfaffenrot -93 dBm 29.04.2024 06:35
537 temp-at-nowhere 2024-04-29 05:35:39 12.59 °C x 99.9 % 2.664 V ttn-pfaffenrot -89 dBm 29.04.2024 05:35
538 temp-at-nowhere 2024-04-29 04:35:39 12.33 °C x 99.9 % 2.663 V ttn-pfaffenrot -97 dBm 29.04.2024 04:35
539 temp-at-nowhere 2024-04-29 03:35:40 12.28 °C x 99.9 % 2.663 V ttn-pfaffenrot -89 dBm 29.04.2024 03:35
540 temp-at-nowhere 2024-04-29 02:35:41 12.63 °C x 99.9 % 2.665 V ttn-pfaffenrot -89 dBm 29.04.2024 02:35
541 temp-at-nowhere 2024-04-29 01:35:41 12.71 °C x 99.9 % 2.663 V ttn-pfaffenrot -83 dBm 29.04.2024 01:35
542 temp-at-nowhere 2024-04-29 00:35:42 12.96 °C x 99.9 % 2.664 V ttn-pfaffenrot -101 dBm 29.04.2024 00:35
543 temp-at-nowhere 2024-04-28 23:35:43 13.2 °C x 98.4 % 2.662 V ttn-pfaffenrot -90 dBm 28.04.2024 23:35
544 temp-at-nowhere 2024-04-28 22:35:43 13.74 °C x 93.7 % 2.664 V ttn-pfaffenrot -95 dBm 28.04.2024 22:35
545 temp-at-nowhere 2024-04-28 21:35:44 13.65 °C x 89.1 % 2.663 V ttn-pfaffenrot -87 dBm 28.04.2024 21:35
546 temp-at-nowhere 2024-04-28 20:35:45 13.89 °C x 82.9 % 2.664 V ttn-pfaffenrot -97 dBm 28.04.2024 20:35
547 temp-at-nowhere 2024-04-28 19:35:45 15.09 °C x 80.3 % 2.665 V ttn-pfaffenrot -91 dBm 28.04.2024 19:35
548 temp-at-nowhere 2024-04-28 18:35:46 15.93 °C x 79 % 2.664 V ttn-pfaffenrot -89 dBm 28.04.2024 18:35
549 temp-at-nowhere 2024-04-28 17:35:46 16.18 °C x 81 % 2.665 V ttn-pfaffenrot -83 dBm 28.04.2024 17:35
550 temp-at-nowhere 2024-04-28 16:35:47 15.97 °C x 82.2 % 2.665 V ttn-pfaffenrot -97 dBm 28.04.2024 16:35
551 temp-at-nowhere 2024-04-28 15:35:48 16.64 °C x 82.4 % 2.664 V ttn-pfaffenrot -83 dBm 28.04.2024 15:35
552 temp-at-nowhere 2024-04-28 14:35:48 16.9 °C x 86.1 % 2.663 V ttn-pfaffenrot -89 dBm 28.04.2024 14:35
553 temp-at-nowhere 2024-04-28 13:35:49 16.61 °C x 91.4 % 2.664 V ttn-pfaffenrot -86 dBm 28.04.2024 13:35
554 temp-at-nowhere 2024-04-28 12:35:50 14.79 °C x 98.4 % 2.663 V ttn-pfaffenrot -95 dBm 28.04.2024 12:35
555 temp-at-nowhere 2024-04-28 11:35:50 13.53 °C x 99.9 % 2.663 V ttn-pfaffenrot -85 dBm 28.04.2024 11:35
556 temp-at-nowhere 2024-04-28 10:35:51 13.1 °C x 99.9 % 2.663 V ttn-pfaffenrot -80 dBm 28.04.2024 10:35
557 temp-at-nowhere 2024-04-28 09:35:52 12.48 °C x 99.9 % 2.662 V ttn-pfaffenrot -84 dBm 28.04.2024 09:35
558 temp-at-nowhere 2024-04-28 08:35:52 12.11 °C x 99.9 % 2.662 V ttn-pfaffenrot -88 dBm 28.04.2024 08:35
559 temp-at-nowhere 2024-04-28 07:35:53 12.61 °C x 99.9 % 2.661 V ttn-pfaffenrot -86 dBm 28.04.2024 07:35
560 temp-at-nowhere 2024-04-28 06:35:54 14.63 °C x 99.9 % 2.663 V ttn-pfaffenrot -91 dBm 28.04.2024 06:35
561 temp-at-nowhere 2024-04-28 05:35:54 14.18 °C x 99.9 % 2.663 V ttn-pfaffenrot -83 dBm 28.04.2024 05:35
562 temp-at-nowhere 2024-04-28 04:35:55 13.87 °C x 99.9 % 2.662 V ttn-pfaffenrot -95 dBm 28.04.2024 04:35
563 temp-at-nowhere 2024-04-28 03:35:55 13.99 °C x 99.1 % 2.663 V ttn-pfaffenrot -88 dBm 28.04.2024 03:35
564 temp-at-nowhere 2024-04-28 02:35:56 14.65 °C x 95.3 % 2.663 V ttn-pfaffenrot -101 dBm 28.04.2024 02:35
565 temp-at-nowhere 2024-04-28 01:35:57 15.17 °C x 90.3 % 2.662 V ttn-pfaffenrot -91 dBm 28.04.2024 01:35
566 temp-at-nowhere 2024-04-28 00:35:57 15.29 °C x 91 % 2.664 V ttn-pfaffenrot -97 dBm 28.04.2024 00:35
567 temp-at-nowhere 2024-04-27 23:35:58 15.99 °C x 91.2 % 2.665 V ttn-pfaffenrot -93 dBm 27.04.2024 23:35
568 temp-at-nowhere 2024-04-27 22:35:59 15.49 °C x 85.1 % 2.663 V ttn-pfaffenrot -97 dBm 27.04.2024 22:35
569 temp-at-nowhere 2024-04-27 21:35:59 14.94 °C x 79.1 % 2.663 V ttn-pfaffenrot -84 dBm 27.04.2024 21:35
570 temp-at-nowhere 2024-04-27 20:36:00 16.08 °C x 78.1 % 2.664 V ttn-pfaffenrot -91 dBm 27.04.2024 20:36
571 temp-at-nowhere 2024-04-27 19:36:01 17.23 °C x 78.8 % 2.666 V ttn-pfaffenrot -84 dBm 27.04.2024 19:36
572 temp-at-nowhere 2024-04-27 18:36:01 17.87 °C x 79.5 % 2.663 V ttn-pfaffenrot -90 dBm 27.04.2024 18:36
573 temp-at-nowhere 2024-04-27 17:36:02 18.2 °C x 81.2 % 2.661 V ttn-pfaffenrot -91 dBm 27.04.2024 17:36
574 temp-at-nowhere 2024-04-27 16:36:02 18.48 °C x 85.2 % 2.662 V ttn-pfaffenrot -95 dBm 27.04.2024 16:36
575 temp-at-nowhere 2024-04-27 15:36:03 17.85 °C x 91.9 % 2.662 V ttn-pfaffenrot -87 dBm 27.04.2024 15:36
576 temp-at-nowhere 2024-04-27 14:36:04 17.6 °C x 99.9 % 2.663 V ttn-pfaffenrot -91 dBm 27.04.2024 14:36
577 temp-at-nowhere 2024-04-27 13:36:04 15.96 °C x 99.9 % 2.66 V ttn-pfaffenrot -89 dBm 27.04.2024 13:36
578 temp-at-nowhere 2024-04-27 12:36:05 15.07 °C x 99.9 % 2.661 V ttn-pfaffenrot -93 dBm 27.04.2024 12:36
579 temp-at-nowhere 2024-04-27 11:36:06 13.5 °C x 99.9 % 2.66 V ttn-pfaffenrot -86 dBm 27.04.2024 11:36
580 temp-at-nowhere 2024-04-27 10:36:06 11.71 °C x 99.9 % 2.66 V ttn-pfaffenrot -89 dBm 27.04.2024 10:36
581 temp-at-nowhere 2024-04-27 09:36:07 9.76 °C x 99.9 % 2.661 V ttn-pfaffenrot -87 dBm 27.04.2024 09:36
582 temp-at-nowhere 2024-04-27 08:36:08 8.31 °C x 99.9 % 2.658 V ttn-pfaffenrot -93 dBm 27.04.2024 08:36
583 temp-at-nowhere 2024-04-27 07:36:08 8.33 °C x 99.9 % 2.66 V ttn-pfaffenrot -91 dBm 27.04.2024 07:36
584 temp-at-nowhere 2024-04-27 06:36:09 9.97 °C x 99.9 % 2.658 V ttn-pfaffenrot -93 dBm 27.04.2024 06:36
585 temp-at-nowhere 2024-04-27 05:36:09 9.2 °C x 99.9 % 2.66 V ttn-pfaffenrot -89 dBm 27.04.2024 05:36
586 temp-at-nowhere 2024-04-27 04:36:10 7.78 °C x 99.9 % 2.659 V ttn-pfaffenrot -89 dBm 27.04.2024 04:36
587 temp-at-nowhere 2024-04-27 03:36:11 7.68 °C x 99.9 % 2.658 V ttn-pfaffenrot -94 dBm 27.04.2024 03:36
588 temp-at-nowhere 2024-04-27 02:36:11 8.15 °C x 99.9 % 2.659 V ttn-pfaffenrot -95 dBm 27.04.2024 02:36
589 temp-at-nowhere 2024-04-27 01:36:12 8.79 °C x 99.9 % 2.659 V ttn-pfaffenrot -87 dBm 27.04.2024 01:36
590 temp-at-nowhere 2024-04-27 00:36:12 9.35 °C x 99.9 % 2.659 V ttn-pfaffenrot -90 dBm 27.04.2024 00:36
591 temp-at-nowhere 2024-04-26 23:36:13 9.46 °C x 99.9 % 2.658 V ttn-pfaffenrot -87 dBm 26.04.2024 23:36
592 temp-at-nowhere 2024-04-26 21:36:14 9.6 °C x 99.9 % 2.659 V ttn-pfaffenrot -84 dBm 26.04.2024 21:36
593 temp-at-nowhere 2024-04-26 20:36:15 9.6 °C x 99.9 % 2.66 V ttn-pfaffenrot -91 dBm 26.04.2024 20:36
594 temp-at-nowhere 2024-04-26 19:36:16 11.59 °C x 99.9 % 2.662 V ttn-pfaffenrot -89 dBm 26.04.2024 19:36
595 temp-at-nowhere 2024-04-26 18:36:16 13.1 °C x 99.9 % 2.661 V ttn-pfaffenrot -93 dBm 26.04.2024 18:36
596 temp-at-nowhere 2024-04-26 17:36:17 13.43 °C x 99.9 % 2.661 V ttn-pfaffenrot -87 dBm 26.04.2024 17:36
597 temp-at-nowhere 2024-04-26 16:36:18 13.1 °C x 99.9 % 2.661 V ttn-pfaffenrot -97 dBm 26.04.2024 16:36
598 temp-at-nowhere 2024-04-26 15:36:18 12.66 °C x 99.9 % 2.661 V ttn-pfaffenrot -89 dBm 26.04.2024 15:36
599 temp-at-nowhere 2024-04-26 14:36:19 12.56 °C x 99.9 % 2.662 V ttn-pfaffenrot -95 dBm 26.04.2024 14:36
600 temp-at-nowhere 2024-04-26 13:36:19 12.52 °C x 99.9 % 2.659 V ttn-pfaffenrot -84 dBm 26.04.2024 13:36
601 temp-at-nowhere 2024-04-26 12:36:20 11.51 °C x 99.9 % 2.659 V ttn-pfaffenrot -101 dBm 26.04.2024 12:36
602 temp-at-nowhere 2024-04-26 11:36:21 10.21 °C x 99.9 % 2.66 V ttn-pfaffenrot -91 dBm 26.04.2024 11:36
603 temp-at-nowhere 2024-04-26 10:36:21 9.04 °C x 99.9 % 2.661 V ttn-pfaffenrot -95 dBm 26.04.2024 10:36
604 temp-at-nowhere 2024-04-26 09:36:22 7.27 °C x 99.9 % 2.659 V ttn-pfaffenrot -89 dBm 26.04.2024 09:36
605 temp-at-nowhere 2024-04-26 08:36:23 6.01 °C x 99.9 % 2.659 V ttn-pfaffenrot -93 dBm 26.04.2024 08:36
606 temp-at-nowhere 2024-04-26 07:36:23 6.08 °C x 99.9 % 2.66 V ttn-pfaffenrot -91 dBm 26.04.2024 07:36
607 temp-at-nowhere 2024-04-26 06:36:24 7.27 °C x 99.9 % 2.66 V ttn-pfaffenrot -101 dBm 26.04.2024 06:36
608 temp-at-nowhere 2024-04-26 05:36:24 6.41 °C x 99.9 % 2.658 V ttn-pfaffenrot -85 dBm 26.04.2024 05:36
609 temp-at-nowhere 2024-04-26 04:36:25 4.95 °C x 99.9 % 2.655 V ttn-pfaffenrot -91 dBm 26.04.2024 04:36
610 temp-at-nowhere 2024-04-26 03:36:26 4.57 °C x 99.9 % 2.657 V ttn-pfaffenrot -89 dBm 26.04.2024 03:36
611 temp-at-nowhere 2024-04-26 02:36:26 4.59 °C x 99.9 % 2.657 V ttn-pfaffenrot -82 dBm 26.04.2024 02:36
612 temp-at-nowhere 2024-04-26 01:36:27 4.24 °C x 99.9 % 2.657 V ttn-pfaffenrot -84 dBm 26.04.2024 01:36
613 temp-at-nowhere 2024-04-26 00:36:27 4.52 °C x 99.9 % 2.658 V ttn-pfaffenrot -87 dBm 26.04.2024 00:36
614 temp-at-nowhere 2024-04-25 23:36:28 5.02 °C x 99.9 % 2.659 V ttn-pfaffenrot -85 dBm 25.04.2024 23:36
615 temp-at-nowhere 2024-04-25 22:36:29 5.84 °C x 99.9 % 2.66 V ttn-pfaffenrot -95 dBm 25.04.2024 22:36
616 temp-at-nowhere 2024-04-25 21:36:29 6.41 °C x 99.9 % 2.659 V ttn-pfaffenrot -89 dBm 25.04.2024 21:36
617 temp-at-nowhere 2024-04-25 20:36:30 6.43 °C x 99.9 % 2.659 V ttn-pfaffenrot -85 dBm 25.04.2024 20:36
618 temp-at-nowhere 2024-04-25 19:36:31 7.08 °C x 99.9 % 2.66 V ttn-pfaffenrot -86 dBm 25.04.2024 19:36
619 temp-at-nowhere 2024-04-25 18:36:31 7.44 °C x 99.9 % 2.659 V ttn-pfaffenrot -97 dBm 25.04.2024 18:36
620 temp-at-nowhere 2024-04-25 17:36:32 7.86 °C x 99.9 % 2.661 V ttn-pfaffenrot -88 dBm 25.04.2024 17:36
621 temp-at-nowhere 2024-04-25 16:36:32 7.65 °C x 99.9 % 2.661 V ttn-pfaffenrot -86 dBm 25.04.2024 16:36
622 temp-at-nowhere 2024-04-25 15:36:33 6.81 °C x 99.9 % 2.66 V ttn-pfaffenrot -85 dBm 25.04.2024 15:36
623 temp-at-nowhere 2024-04-25 14:36:34 7.26 °C x 99.9 % 2.66 V ttn-pfaffenrot -91 dBm 25.04.2024 14:36
624 temp-at-nowhere 2024-04-25 13:36:34 5.9 °C x 99.9 % 2.66 V ttn-pfaffenrot -90 dBm 25.04.2024 13:36
625 temp-at-nowhere 2024-04-25 12:36:35 5.52 °C x 99.9 % 2.658 V ttn-pfaffenrot -91 dBm 25.04.2024 12:36
626 temp-at-nowhere 2024-04-25 11:36:35 4.92 °C x 99.9 % 2.66 V ttn-pfaffenrot -87 dBm 25.04.2024 11:36
627 temp-at-nowhere 2024-04-25 10:36:36 4.22 °C x 99.9 % 2.659 V ttn-pfaffenrot -95 dBm 25.04.2024 10:36
628 temp-at-nowhere 2024-04-25 09:36:37 3.46 °C x 99.9 % 2.658 V ttn-pfaffenrot -91 dBm 25.04.2024 09:36
629 temp-at-nowhere 2024-04-25 08:36:37 3.2 °C x 99.9 % 2.658 V ttn-pfaffenrot -91 dBm 25.04.2024 08:36
630 temp-at-nowhere 2024-04-25 07:36:38 3.64 °C x 99.9 % 2.659 V ttn-pfaffenrot -85 dBm 25.04.2024 07:36
631 temp-at-nowhere 2024-04-25 06:36:38 5.87 °C x 99.9 % 2.66 V ttn-pfaffenrot -97 dBm 25.04.2024 06:36
632 temp-at-nowhere 2024-04-25 05:36:39 5.44 °C x 99.9 % 2.659 V ttn-pfaffenrot -93 dBm 25.04.2024 05:36
633 temp-at-nowhere 2024-04-25 04:36:40 4.86 °C x 99.9 % 2.659 V ttn-pfaffenrot -95 dBm 25.04.2024 04:36
634 temp-at-nowhere 2024-04-25 03:36:40 5.02 °C x 99.9 % 2.659 V ttn-pfaffenrot -89 dBm 25.04.2024 03:36
635 temp-at-nowhere 2024-04-25 02:36:41 4.72 °C x 99.9 % 2.659 V ttn-pfaffenrot -101 dBm 25.04.2024 02:36
636 temp-at-nowhere 2024-04-25 01:36:42 5.01 °C x 99.9 % 2.659 V ttn-pfaffenrot -88 dBm 25.04.2024 01:36
637 temp-at-nowhere 2024-04-25 00:36:42 5.03 °C x 99.9 % 2.661 V ttn-pfaffenrot -95 dBm 25.04.2024 00:36
638 temp-at-nowhere 2024-04-24 23:36:43 4.65 °C x 99.9 % 2.66 V ttn-pfaffenrot -89 dBm 24.04.2024 23:36
639 temp-at-nowhere 2024-04-24 22:36:43 4.5 °C x 99.9 % 2.659 V ttn-pfaffenrot -93 dBm 24.04.2024 22:36
640 temp-at-nowhere 2024-04-24 21:36:44 3.75 °C x 99.9 % 2.659 V ttn-pfaffenrot -87 dBm 24.04.2024 21:36
641 temp-at-nowhere 2024-04-24 20:36:44 3.53 °C x 99.9 % 2.659 V ttn-pfaffenrot -97 dBm 24.04.2024 20:36
642 temp-at-nowhere 2024-04-24 19:36:45 4.21 °C x 99.9 % 2.66 V ttn-pfaffenrot -89 dBm 24.04.2024 19:36
643 temp-at-nowhere 2024-04-24 18:36:46 4.28 °C x 99.9 % 2.66 V ttn-pfaffenrot -85 dBm 24.04.2024 18:36
644 temp-at-nowhere 2024-04-24 17:36:46 4.84 °C x 99.9 % 2.66 V ttn-pfaffenrot -86 dBm 24.04.2024 17:36
645 temp-at-nowhere 2024-04-24 16:36:47 4.43 °C x 99.9 % 2.659 V ttn-pfaffenrot -83 dBm 24.04.2024 16:36
646 temp-at-nowhere 2024-04-24 15:36:47 3.06 °C x 99.9 % 2.659 V ttn-pfaffenrot -85 dBm 24.04.2024 15:36
647 temp-at-nowhere 2024-04-24 14:36:48 5.1 °C x 99.9 % 2.661 V ttn-pfaffenrot -83 dBm 24.04.2024 14:36
648 temp-at-nowhere 2024-04-24 13:36:49 4.27 °C x 99.9 % 2.661 V ttn-pfaffenrot -88 dBm 24.04.2024 13:36
649 temp-at-nowhere 2024-04-24 12:36:49 3.43 °C x 99.9 % 2.66 V ttn-pfaffenrot -86 dBm 24.04.2024 12:36
650 temp-at-nowhere 2024-04-24 11:36:50 2.87 °C x 99.9 % 2.659 V ttn-pfaffenrot -89 dBm 24.04.2024 11:36
651 temp-at-nowhere 2024-04-24 10:36:50 3.16 °C x 99.9 % 2.661 V ttn-pfaffenrot -90 dBm 24.04.2024 10:36
652 temp-at-nowhere 2024-04-24 09:36:51 3.05 °C x 99.9 % 2.66 V ttn-pfaffenrot -85 dBm 24.04.2024 09:36
653 temp-at-nowhere 2024-04-24 08:36:52 2.99 °C x 99.9 % 2.659 V ttn-pfaffenrot -84 dBm 24.04.2024 08:36
654 temp-at-nowhere 2024-04-24 07:36:52 3.15 °C x 99.9 % 2.661 V ttn-pfaffenrot -84 dBm 24.04.2024 07:36
655 temp-at-nowhere 2024-04-24 06:36:53 4.93 °C x 99.9 % 2.661 V ttn-pfaffenrot -83 dBm 24.04.2024 06:36
656 temp-at-nowhere 2024-04-24 05:36:53 4.99 °C x 99.9 % 2.662 V ttn-pfaffenrot -87 dBm 24.04.2024 05:36
657 temp-at-nowhere 2024-04-24 04:36:54 4.89 °C x 99.9 % 2.661 V marx-pf-kistj -139 dBm 24.04.2024 04:36
658 temp-at-nowhere 2024-04-24 03:36:55 4.7 °C x 99.9 % 2.661 V ttn-pfaffenrot -88 dBm 24.04.2024 03:36
659 temp-at-nowhere 2024-04-24 02:36:55 4.75 °C x 99.9 % 2.661 V ttn-pfaffenrot -89 dBm 24.04.2024 02:36
660 temp-at-nowhere 2024-04-24 01:36:56 4.37 °C x 99.9 % 2.662 V ttn-pfaffenrot -88 dBm 24.04.2024 01:36
661 temp-at-nowhere 2024-04-24 00:36:56 4.57 °C x 99.9 % 2.663 V ttn-pfaffenrot -81 dBm 24.04.2024 00:36
662 temp-at-nowhere 2024-04-23 23:36:57 4.97 °C x 99.9 % 2.661 V ttn-pfaffenrot -89 dBm 23.04.2024 23:36
663 temp-at-nowhere 2024-04-23 22:36:58 5.92 °C x 99.9 % 2.662 V ttn-pfaffenrot -90 dBm 23.04.2024 22:36
664 temp-at-nowhere 2024-04-23 21:36:58 6.8 °C x 99.9 % 2.665 V ttn-pfaffenrot -91 dBm 23.04.2024 21:36
665 temp-at-nowhere 2024-04-23 20:36:59 7.05 °C x 99.9 % 2.666 V ttn-pfaffenrot -86 dBm 23.04.2024 20:36
666 temp-at-nowhere 2024-04-23 19:36:59 7.98 °C x 99.9 % 2.664 V ttn-pfaffenrot -87 dBm 23.04.2024 19:36
667 temp-at-nowhere 2024-04-23 18:37:00 8.16 °C x 99.9 % 2.664 V ttn-pfaffenrot -84 dBm 23.04.2024 18:37
668 temp-at-nowhere 2024-04-23 17:37:01 8.59 °C x 99.9 % 2.665 V ttn-pfaffenrot -89 dBm 23.04.2024 17:37
669 temp-at-nowhere 2024-04-23 16:37:01 8.39 °C x 99.9 % 2.664 V ttn-pfaffenrot -82 dBm 23.04.2024 16:37
670 temp-at-nowhere 2024-04-23 15:37:03 8.2 °C x 99.9 % 2.665 V ttn-pfaffenrot -84 dBm 23.04.2024 15:37
671 temp-at-nowhere 2024-04-23 14:37:03 7.67 °C x 99.9 % 2.665 V ttn-pfaffenrot -84 dBm 23.04.2024 14:37
672 temp-at-nowhere 2024-04-23 13:37:03 6.88 °C x 99.9 % 2.665 V ttn-pfaffenrot -87 dBm 23.04.2024 13:37
673 temp-at-nowhere 2024-04-23 12:37:04 5.59 °C x 99.9 % 2.662 V ttn-pfaffenrot -81 dBm 23.04.2024 12:37
674 temp-at-nowhere 2024-04-23 11:37:04 4.63 °C x 99.9 % 2.664 V ttn-pfaffenrot -87 dBm 23.04.2024 11:37
675 temp-at-nowhere 2024-04-23 10:37:05 3.3 °C x 99.9 % 2.663 V ttn-pfaffenrot -82 dBm 23.04.2024 10:37
676 temp-at-nowhere 2024-04-23 09:37:06 2.14 °C x 99.9 % 2.661 V ttn-pfaffenrot -79 dBm 23.04.2024 09:37
677 temp-at-nowhere 2024-04-23 08:37:06 1.23 °C x 99.9 % 2.661 V ttn-pfaffenrot -73 dBm 23.04.2024 08:37
678 temp-at-nowhere 2024-04-23 07:37:07 1.27 °C x 99.9 % 2.661 V ttn-pfaffenrot -79 dBm 23.04.2024 07:37
679 temp-at-nowhere 2024-04-23 06:37:07 3.11 °C x 99.9 % 2.662 V ttn-pfaffenrot -77 dBm 23.04.2024 06:37
680 temp-at-nowhere 2024-04-23 05:37:08 3.36 °C x 99.9 % 2.662 V ttn-pfaffenrot -78 dBm 23.04.2024 05:37
681 temp-at-nowhere 2024-04-23 04:37:09 3.25 °C x 99.9 % 2.663 V ttn-pfaffenrot -79 dBm 23.04.2024 04:37
682 temp-at-nowhere 2024-04-23 03:37:09 3.37 °C x 99.9 % 2.662 V ttn-pfaffenrot -77 dBm 23.04.2024 03:37
683 temp-at-nowhere 2024-04-23 02:37:10 3.41 °C x 99.9 % 2.662 V ttn-pfaffenrot -81 dBm 23.04.2024 02:37
684 temp-at-nowhere 2024-04-23 01:37:10 3.33 °C x 99.9 % 2.663 V ttn-pfaffenrot -81 dBm 23.04.2024 01:37
685 temp-at-nowhere 2024-04-23 00:37:11 3.71 °C x 99.9 % 2.664 V ttn-pfaffenrot -81 dBm 23.04.2024 00:37
686 temp-at-nowhere 2024-04-22 23:37:11 4.2 °C x 99.9 % 2.664 V ttn-pfaffenrot -87 dBm 22.04.2024 23:37
687 temp-at-nowhere 2024-04-22 22:37:12 4.57 °C x 99.9 % 2.665 V ttn-pfaffenrot -88 dBm 22.04.2024 22:37
688 temp-at-nowhere 2024-04-22 21:37:13 4.71 °C x 99.9 % 2.663 V ttn-pfaffenrot -88 dBm 22.04.2024 21:37
689 temp-at-nowhere 2024-04-22 20:37:13 4.68 °C x 99.9 % 2.665 V ttn-pfaffenrot -85 dBm 22.04.2024 20:37
690 temp-at-nowhere 2024-04-22 19:37:14 5.62 °C x 99.9 % 2.665 V ttn-pfaffenrot -85 dBm 22.04.2024 19:37
691 temp-at-nowhere 2024-04-22 18:37:15 6.07 °C x 99.9 % 2.664 V ttn-pfaffenrot -83 dBm 22.04.2024 18:37
692 temp-at-nowhere 2024-04-22 17:37:15 6.32 °C x 99.9 % 2.666 V ttn-pfaffenrot -84 dBm 22.04.2024 17:37
693 temp-at-nowhere 2024-04-22 16:37:16 6.68 °C x 99.9 % 2.667 V ttn-pfaffenrot -82 dBm 22.04.2024 16:37
694 temp-at-nowhere 2024-04-22 15:37:17 6.51 °C x 99.9 % 2.665 V ttn-pfaffenrot -85 dBm 22.04.2024 15:37
695 temp-at-nowhere 2024-04-22 14:37:17 6.23 °C x 99.9 % 2.666 V ttn-pfaffenrot -84 dBm 22.04.2024 14:37
696 temp-at-nowhere 2024-04-22 13:37:18 5.27 °C x 99.9 % 2.665 V ttn-pfaffenrot -82 dBm 22.04.2024 13:37
697 temp-at-nowhere 2024-04-22 12:37:18 4.06 °C x 99.9 % 2.664 V ttn-pfaffenrot -83 dBm 22.04.2024 12:37
698 temp-at-nowhere 2024-04-22 11:37:19 3.83 °C x 99.9 % 2.664 V ttn-pfaffenrot -85 dBm 22.04.2024 11:37
699 temp-at-nowhere 2024-04-22 10:37:20 3.38 °C x 99.9 % 2.665 V ttn-pfaffenrot -83 dBm 22.04.2024 10:37
700 temp-at-nowhere 2024-04-22 09:37:20 2.33 °C x 99.9 % 2.663 V ttn-pfaffenrot -83 dBm 22.04.2024 09:37
701 temp-at-nowhere 2024-04-22 08:37:21 1.65 °C x 99.9 % 2.665 V ttn-pfaffenrot -81 dBm 22.04.2024 08:37
702 temp-at-nowhere 2024-04-22 07:37:22 2.02 °C x 99.9 % 2.664 V ttn-pfaffenrot -83 dBm 22.04.2024 07:37
703 temp-at-nowhere 2024-04-22 06:37:22 4.65 °C x 99.9 % 2.665 V ttn-pfaffenrot -81 dBm 22.04.2024 06:37
704 temp-at-nowhere 2024-04-22 05:37:23 4.36 °C x 99.9 % 2.665 V ttn-pfaffenrot -84 dBm 22.04.2024 05:37
705 temp-at-nowhere 2024-04-22 04:37:24 3.82 °C x 99.9 % 2.665 V ttn-pfaffenrot -81 dBm 22.04.2024 04:37
706 temp-at-nowhere 2024-04-22 03:37:24 3.48 °C x 99.9 % 2.665 V ttn-pfaffenrot -84 dBm 22.04.2024 03:37
707 temp-at-nowhere 2024-04-22 02:37:25 3.16 °C x 99.9 % 2.666 V ttn-pfaffenrot -80 dBm 22.04.2024 02:37
708 temp-at-nowhere 2024-04-22 01:37:26 3.29 °C x 99.9 % 2.664 V ttn-pfaffenrot -79 dBm 22.04.2024 01:37
709 temp-at-nowhere 2024-04-22 00:37:26 3.03 °C x 99.9 % 2.666 V ttn-pfaffenrot -77 dBm 22.04.2024 00:37
710 temp-at-nowhere 2024-04-21 23:37:27 2.8 °C x 99.9 % 2.666 V ttn-pfaffenrot -76 dBm 21.04.2024 23:37
711 temp-at-nowhere 2024-04-21 22:37:27 2.47 °C x 99.9 % 2.665 V ttn-pfaffenrot -69 dBm 21.04.2024 22:37
712 temp-at-nowhere 2024-04-21 21:37:28 2 °C x 99.9 % 2.665 V ttn-pfaffenrot -73 dBm 21.04.2024 21:37
713 temp-at-nowhere 2024-04-21 20:37:29 1.54 °C x 99.9 % 2.665 V ttn-pfaffenrot -72 dBm 21.04.2024 20:37
714 temp-at-nowhere 2024-04-21 19:37:29 2.16 °C x 99.9 % 2.665 V ttn-pfaffenrot -75 dBm 21.04.2024 19:37
715 temp-at-nowhere 2024-04-21 18:37:30 3.9 °C x 99.9 % 2.668 V ttn-pfaffenrot -78 dBm 21.04.2024 18:37
716 temp-at-nowhere 2024-04-21 17:37:31 5.14 °C x 99.9 % 2.668 V ttn-pfaffenrot -79 dBm 21.04.2024 17:37
717 temp-at-nowhere 2024-04-21 16:37:31 5.35 °C x 99.9 % 2.667 V ttn-pfaffenrot -81 dBm 21.04.2024 16:37
718 temp-at-nowhere 2024-04-21 15:37:32 5.28 °C x 99.9 % 2.668 V ttn-pfaffenrot -84 dBm 21.04.2024 15:37
719 temp-at-nowhere 2024-04-21 14:37:33 5.16 °C x 99.9 % 2.669 V ttn-pfaffenrot -84 dBm 21.04.2024 14:37
720 temp-at-nowhere 2024-04-21 13:37:33 5.32 °C x 99.9 % 2.667 V ttn-pfaffenrot -82 dBm 21.04.2024 13:37
721 temp-at-nowhere 2024-04-21 12:37:34 4.2 °C x 99.9 % 2.668 V ttn-pfaffenrot -81 dBm 21.04.2024 12:37
722 temp-at-nowhere 2024-04-21 11:37:35 2.82 °C x 99.9 % 2.667 V ttn-pfaffenrot -81 dBm 21.04.2024 11:37
723 temp-at-nowhere 2024-04-21 10:37:35 2.47 °C x 99.9 % 2.666 V ttn-pfaffenrot -79 dBm 21.04.2024 10:37
724 temp-at-nowhere 2024-04-21 09:37:36 2.24 °C x 99.9 % 2.667 V ttn-pfaffenrot -81 dBm 21.04.2024 09:37
725 temp-at-nowhere 2024-04-21 08:37:37 2.57 °C x 99.9 % 2.666 V ttn-pfaffenrot -78 dBm 21.04.2024 08:37
726 temp-at-nowhere 2024-04-21 07:37:37 3.23 °C x 99.9 % 2.666 V ttn-pfaffenrot -83 dBm 21.04.2024 07:37
727 temp-at-nowhere 2024-04-21 06:37:38 5.46 °C x 99.9 % 2.669 V ttn-pfaffenrot -79 dBm 21.04.2024 06:37
728 temp-at-nowhere 2024-04-21 05:37:39 5.05 °C x 99.9 % 2.667 V ttn-pfaffenrot -81 dBm 21.04.2024 05:37
729 temp-at-nowhere 2024-04-21 04:37:39 4.81 °C x 99.9 % 2.67 V ttn-pfaffenrot -83 dBm 21.04.2024 04:37
730 temp-at-nowhere 2024-04-21 03:37:40 4.37 °C x 99.9 % 2.669 V ttn-pfaffenrot -87 dBm 21.04.2024 03:37
731 temp-at-nowhere 2024-04-21 02:37:41 4.5 °C x 99.9 % 2.667 V ttn-pfaffenrot -82 dBm 21.04.2024 02:37
732 temp-at-nowhere 2024-04-21 01:37:42 4.45 °C x 99.9 % 2.668 V ttn-pfaffenrot -83 dBm 21.04.2024 01:37
733 temp-at-nowhere 2024-04-21 00:37:42 4.49 °C x 99.9 % 2.67 V ttn-pfaffenrot -80 dBm 21.04.2024 00:37
734 temp-at-nowhere 2024-04-20 23:37:43 4.35 °C x 99.9 % 2.669 V ttn-pfaffenrot -87 dBm 20.04.2024 23:37
735 temp-at-nowhere 2024-04-20 21:37:44 3.56 °C x 99.9 % 2.668 V ttn-pfaffenrot -83 dBm 20.04.2024 21:37
736 temp-at-nowhere 2024-04-20 20:37:45 2.71 °C x 99.9 % 2.669 V ttn-pfaffenrot -85 dBm 20.04.2024 20:37
737 temp-at-nowhere 2024-04-20 19:37:46 4.04 °C x 99.9 % 2.67 V ttn-pfaffenrot -80 dBm 20.04.2024 19:37
738 temp-at-nowhere 2024-04-20 18:37:46 5.69 °C x 99.9 % 2.67 V ttn-pfaffenrot -82 dBm 20.04.2024 18:37
739 temp-at-nowhere 2024-04-20 17:37:47 5.58 °C x 99.9 % 2.671 V ttn-pfaffenrot -81 dBm 20.04.2024 17:37
740 temp-at-nowhere 2024-04-20 16:37:48 6.86 °C x 99.9 % 2.671 V ttn-pfaffenrot -81 dBm 20.04.2024 16:37
741 temp-at-nowhere 2024-04-20 15:37:48 7.87 °C x 99.9 % 2.67 V ttn-pfaffenrot -84 dBm 20.04.2024 15:37
742 temp-at-nowhere 2024-04-20 14:37:49 6.92 °C x 99.9 % 2.673 V ttn-pfaffenrot -82 dBm 20.04.2024 14:37
743 temp-at-nowhere 2024-04-20 13:37:50 6.74 °C x 99.9 % 2.671 V ttn-pfaffenrot -83 dBm 20.04.2024 13:37
744 temp-at-nowhere 2024-04-20 12:37:50 5.51 °C x 99.9 % 2.671 V ttn-pfaffenrot -80 dBm 20.04.2024 12:37
745 temp-at-nowhere 2024-04-20 11:37:51 5.34 °C x 99.9 % 2.67 V ttn-pfaffenrot -81 dBm 20.04.2024 11:37
746 temp-at-nowhere 2024-04-20 10:37:52 4.94 °C x 99.9 % 2.67 V ttn-pfaffenrot -77 dBm 20.04.2024 10:37
747 temp-at-nowhere 2024-04-20 09:37:53 4.35 °C x 99.9 % 2.672 V ttn-pfaffenrot -77 dBm 20.04.2024 09:37
748 temp-at-nowhere 2024-04-20 08:37:53 3.96 °C x 99.9 % 2.672 V ttn-pfaffenrot -80 dBm 20.04.2024 08:37
749 temp-at-nowhere 2024-04-20 07:37:54 4.18 °C x 99.9 % 2.671 V ttn-pfaffenrot -82 dBm 20.04.2024 07:37
750 temp-at-nowhere 2024-04-20 06:37:55 5.94 °C x 99.9 % 2.671 V ttn-pfaffenrot -82 dBm 20.04.2024 06:37
751 temp-at-nowhere 2024-04-20 05:37:55 5.15 °C x 99.9 % 2.671 V ttn-pfaffenrot -80 dBm 20.04.2024 05:37
752 temp-at-nowhere 2024-04-20 04:37:56 5.18 °C x 99.9 % 2.671 V ttn-pfaffenrot -79 dBm 20.04.2024 04:37
753 temp-at-nowhere 2024-04-20 03:37:57 5.41 °C x 99.9 % 2.67 V ttn-pfaffenrot -81 dBm 20.04.2024 03:37
754 temp-at-nowhere 2024-04-20 02:37:57 5.76 °C x 99.9 % 2.671 V ttn-pfaffenrot -79 dBm 20.04.2024 02:37
755 temp-at-nowhere 2024-04-20 01:37:58 6.11 °C x 99.9 % 2.672 V ttn-pfaffenrot -82 dBm 20.04.2024 01:37
756 temp-at-nowhere 2024-04-20 00:37:59 6.23 °C x 99.9 % 2.671 V ttn-pfaffenrot -83 dBm 20.04.2024 00:37
757 temp-at-nowhere 2024-04-19 23:37:59 6.23 °C x 99.9 % 2.671 V ttn-pfaffenrot -79 dBm 19.04.2024 23:37
758 temp-at-nowhere 2024-04-19 22:38:00 6.31 °C x 99.9 % 2.672 V ttn-pfaffenrot -81 dBm 19.04.2024 22:38
759 temp-at-nowhere 2024-04-19 21:38:01 6.21 °C x 99.9 % 2.671 V ttn-pfaffenrot -80 dBm 19.04.2024 21:38
760 temp-at-nowhere 2024-04-19 20:38:02 5.46 °C x 99.9 % 2.671 V ttn-pfaffenrot -79 dBm 19.04.2024 20:38
761 temp-at-nowhere 2024-04-19 19:38:02 5.36 °C x 99.9 % 2.673 V ttn-pfaffenrot -79 dBm 19.04.2024 19:38
762 temp-at-nowhere 2024-04-19 18:38:03 4.83 °C x 99.9 % 2.671 V ttn-pfaffenrot -75 dBm 19.04.2024 18:38
763 temp-at-nowhere 2024-04-19 17:38:04 4.29 °C x 99.9 % 2.671 V ttn-pfaffenrot -76 dBm 19.04.2024 17:38
764 temp-at-nowhere 2024-04-19 16:38:04 4.18 °C x 99.9 % 2.671 V ttn-pfaffenrot -78 dBm 19.04.2024 16:38
765 temp-at-nowhere 2024-04-19 15:38:05 3.97 °C x 99.9 % 2.671 V ttn-pfaffenrot -75 dBm 19.04.2024 15:38
766 temp-at-nowhere 2024-04-19 14:38:06 3.96 °C x 99.9 % 2.671 V ttn-pfaffenrot -79 dBm 19.04.2024 14:38
767 temp-at-nowhere 2024-04-19 13:38:06 3.77 °C x 99.9 % 2.671 V ttn-pfaffenrot -84 dBm 19.04.2024 13:38
768 temp-at-nowhere 2024-04-19 12:38:07 3.72 °C x 99.9 % 2.672 V ttn-pfaffenrot -77 dBm 19.04.2024 12:38
769 temp-at-nowhere 2024-04-19 11:38:08 3.26 °C x 99.9 % 2.671 V ttn-pfaffenrot -81 dBm 19.04.2024 11:38
770 temp-at-nowhere 2024-04-19 10:38:09 3.38 °C x 99.9 % 2.672 V ttn-pfaffenrot -80 dBm 19.04.2024 10:38
771 temp-at-nowhere 2024-04-19 09:38:09 4.05 °C x 99.9 % 2.674 V ttn-pfaffenrot -78 dBm 19.04.2024 09:38
772 temp-at-nowhere 2024-04-19 08:38:10 4.32 °C x 99.9 % 2.672 V ttn-pfaffenrot -84 dBm 19.04.2024 08:38
773 temp-at-nowhere 2024-04-19 07:38:11 4.76 °C x 99.9 % 2.674 V ttn-pfaffenrot -80 dBm 19.04.2024 07:38
774 temp-at-nowhere 2024-04-19 06:38:11 6.83 °C x 99.9 % 2.673 V ttn-pfaffenrot -85 dBm 19.04.2024 06:38
775 temp-at-nowhere 2024-04-19 05:38:12 5.86 °C x 99.9 % 2.673 V ttn-pfaffenrot -82 dBm 19.04.2024 05:38
776 temp-at-nowhere 2024-04-19 04:38:13 5.54 °C x 99.9 % 2.674 V ttn-pfaffenrot -81 dBm 19.04.2024 04:38
777 temp-at-nowhere 2024-04-19 03:38:13 5.62 °C x 99.9 % 2.672 V ttn-pfaffenrot -82 dBm 19.04.2024 03:38
778 temp-at-nowhere 2024-04-19 02:38:14 5.23 °C x 99.9 % 2.674 V ttn-pfaffenrot -86 dBm 19.04.2024 02:38
779 temp-at-nowhere 2024-04-19 01:38:15 5.06 °C x 99.9 % 2.674 V ttn-pfaffenrot -81 dBm 19.04.2024 01:38
780 temp-at-nowhere 2024-04-19 00:38:16 4.97 °C x 99.9 % 2.675 V ttn-pfaffenrot -84 dBm 19.04.2024 00:38
781 temp-at-nowhere 2024-04-18 23:38:16 4.97 °C x 99.9 % 2.674 V ttn-pfaffenrot -84 dBm 18.04.2024 23:38
782 temp-at-nowhere 2024-04-18 22:38:17 5.05 °C x 99.9 % 2.675 V ttn-pfaffenrot -85 dBm 18.04.2024 22:38
783 temp-at-nowhere 2024-04-18 21:38:18 5.34 °C x 99.9 % 2.675 V ttn-pfaffenrot -85 dBm 18.04.2024 21:38
784 temp-at-nowhere 2024-04-18 20:38:18 4.97 °C x 99.9 % 2.673 V ttn-pfaffenrot -81 dBm 18.04.2024 20:38
785 temp-at-nowhere 2024-04-18 19:38:19 5.95 °C x 99.9 % 2.675 V ttn-pfaffenrot -79 dBm 18.04.2024 19:38
786 temp-at-nowhere 2024-04-18 18:38:20 6.77 °C x 99.9 % 2.674 V ttn-pfaffenrot -83 dBm 18.04.2024 18:38
787 temp-at-nowhere 2024-04-18 17:38:21 7.42 °C x 99.9 % 2.676 V ttn-pfaffenrot -81 dBm 18.04.2024 17:38
788 temp-at-nowhere 2024-04-18 16:38:21 7.06 °C x 99.9 % 2.674 V ttn-pfaffenrot -81 dBm 18.04.2024 16:38
789 temp-at-nowhere 2024-04-18 15:38:22 6.15 °C x 99.9 % 2.675 V ttn-pfaffenrot -84 dBm 18.04.2024 15:38
790 temp-at-nowhere 2024-04-18 14:38:23 6.73 °C x 99.9 % 2.675 V ttn-pfaffenrot -81 dBm 18.04.2024 14:38
791 temp-at-nowhere 2024-04-18 13:38:23 5.63 °C x 99.9 % 2.675 V ttn-pfaffenrot -85 dBm 18.04.2024 13:38
792 temp-at-nowhere 2024-04-18 12:38:24 4.84 °C x 99.9 % 2.674 V ttn-pfaffenrot -76 dBm 18.04.2024 12:38
793 temp-at-nowhere 2024-04-18 11:38:25 3.22 °C x 99.9 % 2.674 V ttn-pfaffenrot -84 dBm 18.04.2024 11:38
794 temp-at-nowhere 2024-04-18 10:38:26 2.21 °C x 99.9 % 2.672 V ttn-pfaffenrot -81 dBm 18.04.2024 10:38
795 temp-at-nowhere 2024-04-18 09:38:26 1.91 °C x 99.9 % 2.674 V ttn-pfaffenrot -81 dBm 18.04.2024 09:38
796 temp-at-nowhere 2024-04-18 08:38:27 2.12 °C x 99.9 % 2.674 V ttn-pfaffenrot -77 dBm 18.04.2024 08:38
797 temp-at-nowhere 2024-04-18 07:38:28 3.31 °C x 99.9 % 2.675 V ttn-pfaffenrot -82 dBm 18.04.2024 07:38
798 temp-at-nowhere 2024-04-18 06:38:28 6.68 °C x 99.9 % 2.677 V ttn-pfaffenrot -91 dBm 18.04.2024 06:38
799 temp-at-nowhere 2024-04-18 05:38:29 6.12 °C x 99.9 % 2.676 V ttn-pfaffenrot -84 dBm 18.04.2024 05:38
800 temp-at-nowhere 2024-04-18 04:38:30 5.62 °C x 99.9 % 2.677 V ttn-pfaffenrot -86 dBm 18.04.2024 04:38
801 temp-at-nowhere 2024-04-18 03:38:31 4.92 °C x 99.9 % 2.676 V ttn-pfaffenrot -83 dBm 18.04.2024 03:38
802 temp-at-nowhere 2024-04-18 02:38:31 5.02 °C x 99.9 % 2.675 V ttn-pfaffenrot -84 dBm 18.04.2024 02:38
803 temp-at-nowhere 2024-04-18 01:38:32 4.72 °C x 99.9 % 2.678 V ttn-pfaffenrot -89 dBm 18.04.2024 01:38
804 temp-at-nowhere 2024-04-18 00:38:33 4.82 °C x 99.9 % 2.677 V ttn-pfaffenrot -85 dBm 18.04.2024 00:38
805 temp-at-nowhere 2024-04-17 23:38:33 4.99 °C x 99.9 % 2.677 V ttn-pfaffenrot -90 dBm 17.04.2024 23:38
806 temp-at-nowhere 2024-04-17 22:38:34 5.07 °C x 99.9 % 2.676 V ttn-pfaffenrot -90 dBm 17.04.2024 22:38
807 temp-at-nowhere 2024-04-17 21:38:35 5.6 °C x 99.9 % 2.678 V ttn-pfaffenrot -91 dBm 17.04.2024 21:38
808 temp-at-nowhere 2024-04-17 20:38:35 4.97 °C x 99.9 % 2.677 V ttn-pfaffenrot -82 dBm 17.04.2024 20:38
809 temp-at-nowhere 2024-04-17 19:38:36 5.54 °C x 99.9 % 2.678 V ttn-pfaffenrot -81 dBm 17.04.2024 19:38
810 temp-at-nowhere 2024-04-17 18:38:37 6.31 °C x 99.9 % 2.678 V ttn-pfaffenrot -81 dBm 17.04.2024 18:38
811 temp-at-nowhere 2024-04-17 17:38:38 7.02 °C x 99.9 % 2.678 V ttn-pfaffenrot -80 dBm 17.04.2024 17:38
812 temp-at-nowhere 2024-04-17 16:38:38 6.88 °C x 99.9 % 2.679 V ttn-pfaffenrot -78 dBm 17.04.2024 16:38
813 temp-at-nowhere 2024-04-17 15:38:39 6.48 °C x 99.9 % 2.679 V ttn-pfaffenrot -79 dBm 17.04.2024 15:38
814 temp-at-nowhere 2024-04-17 14:38:40 4.84 °C x 99.9 % 2.678 V ttn-pfaffenrot -80 dBm 17.04.2024 14:38
815 temp-at-nowhere 2024-04-17 13:38:41 5.22 °C x 99.9 % 2.678 V ttn-pfaffenrot -79 dBm 17.04.2024 13:38
816 temp-at-nowhere 2024-04-17 12:38:41 5.66 °C x 99.9 % 2.678 V ttn-pfaffenrot -82 dBm 17.04.2024 12:38
817 temp-at-nowhere 2024-04-17 11:38:42 5.02 °C x 99.9 % 2.678 V ttn-pfaffenrot -80 dBm 17.04.2024 11:38
818 temp-at-nowhere 2024-04-17 10:38:43 4.5 °C x 99.9 % 2.68 V ttn-pfaffenrot -80 dBm 17.04.2024 10:38
819 temp-at-nowhere 2024-04-17 09:38:44 4.43 °C x 99.9 % 2.678 V ttn-pfaffenrot -84 dBm 17.04.2024 09:38
820 temp-at-nowhere 2024-04-17 08:38:44 4.69 °C x 99.9 % 2.679 V ttn-pfaffenrot -79 dBm 17.04.2024 08:38
821 temp-at-nowhere 2024-04-17 07:38:45 5.37 °C x 99.9 % 2.679 V ttn-pfaffenrot -84 dBm 17.04.2024 07:38
822 temp-at-nowhere 2024-04-17 06:38:46 7.68 °C x 99.9 % 2.678 V ttn-pfaffenrot -83 dBm 17.04.2024 06:38
823 temp-at-nowhere 2024-04-17 05:38:46 7.22 °C x 99.9 % 2.68 V ttn-pfaffenrot -87 dBm 17.04.2024 05:38
824 temp-at-nowhere 2024-04-17 04:38:47 7.16 °C x 99.9 % 2.679 V ttn-pfaffenrot -83 dBm 17.04.2024 04:38
825 temp-at-nowhere 2024-04-17 03:38:48 6.24 °C x 99.9 % 2.678 V ttn-pfaffenrot -84 dBm 17.04.2024 03:38
826 temp-at-nowhere 2024-04-17 02:38:49 6.41 °C x 99.9 % 2.679 V ttn-pfaffenrot -86 dBm 17.04.2024 02:38
827 temp-at-nowhere 2024-04-17 01:38:49 6.58 °C x 99.9 % 2.68 V ttn-pfaffenrot -85 dBm 17.04.2024 01:38
828 temp-at-nowhere 2024-04-17 00:38:50 6.66 °C x 99.9 % 2.68 V ttn-pfaffenrot -82 dBm 17.04.2024 00:38
829 temp-at-nowhere 2024-04-16 23:38:51 6.54 °C x 99.9 % 2.68 V ttn-pfaffenrot -87 dBm 16.04.2024 23:38
830 temp-at-nowhere 2024-04-16 22:38:51 6.7 °C x 99.9 % 2.679 V ttn-pfaffenrot -84 dBm 16.04.2024 22:38
831 temp-at-nowhere 2024-04-16 21:38:52 7.08 °C x 99.9 % 2.68 V ttn-pfaffenrot -91 dBm 16.04.2024 21:38
832 temp-at-nowhere 2024-04-16 20:38:53 6.61 °C x 99.9 % 2.68 V ttn-pfaffenrot -82 dBm 16.04.2024 20:38
833 temp-at-nowhere 2024-04-16 19:38:54 7.15 °C x 99.9 % 2.68 V ttn-pfaffenrot -84 dBm 16.04.2024 19:38
834 temp-at-nowhere 2024-04-16 18:38:54 7.5 °C x 99.9 % 2.68 V ttn-pfaffenrot -82 dBm 16.04.2024 18:38
835 temp-at-nowhere 2024-04-16 17:38:55 7.7 °C x 99.9 % 2.682 V ttn-pfaffenrot -83 dBm 16.04.2024 17:38
836 temp-at-nowhere 2024-04-16 16:38:56 7.66 °C x 99.9 % 2.681 V ttn-pfaffenrot -84 dBm 16.04.2024 16:38
837 temp-at-nowhere 2024-04-16 15:38:57 7.3 °C x 99.9 % 2.682 V ttn-pfaffenrot -83 dBm 16.04.2024 15:38
838 temp-at-nowhere 2024-04-16 14:38:57 6.48 °C x 99.9 % 2.681 V ttn-pfaffenrot -82 dBm 16.04.2024 14:38
839 temp-at-nowhere 2024-04-16 13:38:58 5.42 °C x 99.9 % 2.681 V ttn-pfaffenrot -83 dBm 16.04.2024 13:38
840 temp-at-nowhere 2024-04-16 12:38:59 5.31 °C x 99.9 % 2.68 V ttn-pfaffenrot -80 dBm 16.04.2024 12:38
841 temp-at-nowhere 2024-04-16 11:38:59 5.56 °C x 99.9 % 2.68 V ttn-pfaffenrot -80 dBm 16.04.2024 11:38
842 temp-at-nowhere 2024-04-16 10:39:00 5.55 °C x 99.9 % 2.682 V ttn-pfaffenrot -81 dBm 16.04.2024 10:39
843 temp-at-nowhere 2024-04-16 09:39:01 5.79 °C x 99.9 % 2.681 V ttn-pfaffenrot -83 dBm 16.04.2024 09:39
844 temp-at-nowhere 2024-04-16 08:39:02 4.95 °C x 99.9 % 2.681 V ttn-pfaffenrot -80 dBm 16.04.2024 08:39
845 temp-at-nowhere 2024-04-16 07:39:02 4.95 °C x 99.9 % 2.682 V ttn-pfaffenrot -82 dBm 16.04.2024 07:39
846 temp-at-nowhere 2024-04-16 06:39:03 6.19 °C x 99.9 % 2.682 V ttn-pfaffenrot -81 dBm 16.04.2024 06:39
847 temp-at-nowhere 2024-04-16 05:39:04 6.68 °C x 99.9 % 2.683 V ttn-pfaffenrot -85 dBm 16.04.2024 05:39
848 temp-at-nowhere 2024-04-16 04:39:05 6.51 °C x 99.9 % 2.683 V ttn-pfaffenrot -85 dBm 16.04.2024 04:39
849 temp-at-nowhere 2024-04-16 03:39:05 6.21 °C x 99.9 % 2.681 V ttn-pfaffenrot -82 dBm 16.04.2024 03:39
850 temp-at-nowhere 2024-04-16 02:39:06 5.94 °C x 99.9 % 2.683 V ttn-pfaffenrot -83 dBm 16.04.2024 02:39
851 temp-at-nowhere 2024-04-16 01:39:07 5.72 °C x 99.9 % 2.683 V ttn-pfaffenrot -85 dBm 16.04.2024 01:39
852 temp-at-nowhere 2024-04-16 00:39:07 5.51 °C x 99.9 % 2.684 V ttn-pfaffenrot -83 dBm 16.04.2024 00:39
853 temp-at-nowhere 2024-04-15 23:39:08 5.84 °C x 96.9 % 2.682 V ttn-pfaffenrot -88 dBm 15.04.2024 23:39
854 temp-at-nowhere 2024-04-15 22:39:09 6.88 °C x 92.1 % 2.684 V ttn-pfaffenrot -85 dBm 15.04.2024 22:39
855 temp-at-nowhere 2024-04-15 21:39:09 9.19 °C x 85.9 % 2.686 V ttn-pfaffenrot -100 dBm 15.04.2024 21:39
856 temp-at-nowhere 2024-04-15 20:39:10 12.36 °C x 80.4 % 2.685 V ttn-pfaffenrot -92 dBm 15.04.2024 20:39
857 temp-at-nowhere 2024-04-15 19:39:11 13.6 °C x 81.4 % 2.686 V ttn-pfaffenrot -89 dBm 15.04.2024 19:39
858 temp-at-nowhere 2024-04-15 18:39:12 14.64 °C x 82.8 % 2.687 V ttn-pfaffenrot -89 dBm 15.04.2024 18:39
859 temp-at-nowhere 2024-04-15 17:39:12 15.55 °C x 86.1 % 2.686 V ttn-pfaffenrot -88 dBm 15.04.2024 17:39
860 temp-at-nowhere 2024-04-15 16:39:13 16.05 °C x 91.5 % 2.687 V ttn-pfaffenrot -85 dBm 15.04.2024 16:39
861 temp-at-nowhere 2024-04-15 15:39:14 15.84 °C x 97.9 % 2.686 V ttn-pfaffenrot -87 dBm 15.04.2024 15:39
862 temp-at-nowhere 2024-04-15 14:39:15 15.17 °C x 99.9 % 2.687 V ttn-pfaffenrot -88 dBm 15.04.2024 14:39
863 temp-at-nowhere 2024-04-15 13:39:15 15.07 °C x 99.9 % 2.686 V ttn-pfaffenrot -87 dBm 15.04.2024 13:39
864 temp-at-nowhere 2024-04-15 12:39:16 14.3 °C x 99.9 % 2.685 V ttn-pfaffenrot -84 dBm 15.04.2024 12:39
865 temp-at-nowhere 2024-04-15 11:39:17 13.02 °C x 99.9 % 2.686 V ttn-pfaffenrot -85 dBm 15.04.2024 11:39
866 temp-at-nowhere 2024-04-15 10:39:18 12.16 °C x 99.9 % 2.686 V ttn-pfaffenrot -85 dBm 15.04.2024 10:39
867 temp-at-nowhere 2024-04-15 09:39:18 12.05 °C x 99.9 % 2.686 V ttn-pfaffenrot -90 dBm 15.04.2024 09:39
868 temp-at-nowhere 2024-04-15 08:39:20 12.04 °C x 99.9 % 2.685 V ttn-pfaffenrot -90 dBm 15.04.2024 08:39
869 temp-at-nowhere 2024-04-15 07:39:20 12.6 °C x 99.9 % 2.686 V ttn-pfaffenrot -93 dBm 15.04.2024 07:39
870 temp-at-nowhere 2024-04-15 06:39:20 14.55 °C x 99.9 % 2.686 V ttn-pfaffenrot -90 dBm 15.04.2024 06:39
871 temp-at-nowhere 2024-04-15 05:39:21 15.49 °C x 99.9 % 2.687 V ttn-pfaffenrot -89 dBm 15.04.2024 05:39
872 temp-at-nowhere 2024-04-15 04:39:22 16.13 °C x 99.9 % 2.687 V ttn-pfaffenrot -107 dBm 15.04.2024 04:39
873 temp-at-nowhere 2024-04-15 03:39:23 16.27 °C x 99.9 % 2.686 V ttn-pfaffenrot -92 dBm 15.04.2024 03:39
874 temp-at-nowhere 2024-04-15 02:39:24 17.13 °C x 99.9 % 2.689 V ttn-pfaffenrot -101 dBm 15.04.2024 02:39
875 temp-at-nowhere 2024-04-15 01:39:24 17.62 °C x 99.9 % 2.687 V ttn-pfaffenrot -94 dBm 15.04.2024 01:39
876 temp-at-nowhere 2024-04-15 00:39:25 17.75 °C x 99.9 % 2.686 V ttn-pfaffenrot -91 dBm 15.04.2024 00:39
877 temp-at-nowhere 2024-04-14 23:39:26 18.39 °C x 98.6 % 2.688 V ttn-pfaffenrot -96 dBm 14.04.2024 23:39
878 temp-at-nowhere 2024-04-14 22:39:26 19.07 °C x 94.3 % 2.687 V ttn-pfaffenrot -91 dBm 14.04.2024 22:39
879 temp-at-nowhere 2024-04-14 21:39:27 19.39 °C x 87.8 % 2.687 V ttn-pfaffenrot -92 dBm 14.04.2024 21:39
880 temp-at-nowhere 2024-04-14 20:39:28 19.68 °C x 80.5 % 2.687 V ttn-pfaffenrot -88 dBm 14.04.2024 20:39
881 temp-at-nowhere 2024-04-14 19:39:29 20.91 °C x 78.2 % 2.686 V ttn-pfaffenrot -88 dBm 14.04.2024 19:39
882 temp-at-nowhere 2024-04-14 18:39:29 22.02 °C x 77.5 % 2.686 V ttn-pfaffenrot -89 dBm 14.04.2024 18:39
883 temp-at-nowhere 2024-04-14 17:39:30 22.78 °C x 77.5 % 2.686 V ttn-pfaffenrot -91 dBm 14.04.2024 17:39
884 temp-at-nowhere 2024-04-14 16:39:31 23.45 °C x 78.5 % 2.687 V ttn-pfaffenrot -88 dBm 14.04.2024 16:39
885 temp-at-nowhere 2024-04-14 15:39:32 23.38 °C x 79.4 % 2.686 V ttn-pfaffenrot -91 dBm 14.04.2024 15:39
886 temp-at-nowhere 2024-04-14 14:39:32 22.95 °C x 81 % 2.685 V ttn-pfaffenrot -93 dBm 14.04.2024 14:39
887 temp-at-nowhere 2024-04-14 13:39:33 22.36 °C x 84.3 % 2.685 V ttn-pfaffenrot -94 dBm 14.04.2024 13:39
888 temp-at-nowhere 2024-04-14 12:39:34 21.31 °C x 86 % 2.686 V ttn-pfaffenrot -88 dBm 14.04.2024 12:39
889 temp-at-nowhere 2024-04-14 11:39:35 20.33 °C x 88.1 % 2.686 V ttn-pfaffenrot -90 dBm 14.04.2024 11:39
890 temp-at-nowhere 2024-04-14 10:39:35 19.2 °C x 90 % 2.684 V ttn-pfaffenrot -89 dBm 14.04.2024 10:39
891 temp-at-nowhere 2024-04-14 09:39:36 17.93 °C x 91.8 % 2.686 V ttn-pfaffenrot -90 dBm 14.04.2024 09:39
892 temp-at-nowhere 2024-04-14 08:39:37 17.16 °C x 92.5 % 2.685 V ttn-pfaffenrot -90 dBm 14.04.2024 08:39
893 temp-at-nowhere 2024-04-14 07:39:38 17.41 °C x 93.4 % 2.686 V ttn-pfaffenrot -96 dBm 14.04.2024 07:39
894 temp-at-nowhere 2024-04-14 06:39:39 19.35 °C x 98.5 % 2.686 V ttn-pfaffenrot -86 dBm 14.04.2024 06:39
895 temp-at-nowhere 2024-04-14 05:39:40 19.63 °C x 95.4 % 2.686 V ttn-pfaffenrot -94 dBm 14.04.2024 05:39
896 temp-at-nowhere 2024-04-14 04:39:40 19.93 °C x 94.2 % 2.684 V ttn-pfaffenrot -91 dBm 14.04.2024 04:39
897 temp-at-nowhere 2024-04-14 03:39:41 19.58 °C x 91 % 2.686 V ttn-pfaffenrot -95 dBm 14.04.2024 03:39
898 temp-at-nowhere 2024-04-14 02:39:42 19.48 °C x 89.5 % 2.685 V ttn-pfaffenrot -99 dBm 14.04.2024 02:39
899 temp-at-nowhere 2024-04-14 01:39:43 19.65 °C x 89.7 % 2.685 V ttn-pfaffenrot -97 dBm 14.04.2024 01:39
900 temp-at-nowhere 2024-04-14 00:39:44 19.68 °C x 90.3 % 2.686 V ttn-pfaffenrot -97 dBm 14.04.2024 00:39
901 temp-at-nowhere 2024-04-13 23:39:45 19.45 °C x 92.9 % 2.686 V ttn-pfaffenrot -95 dBm 13.04.2024 23:39
902 temp-at-nowhere 2024-04-13 22:39:45 19.13 °C x 92.4 % 2.686 V ttn-pfaffenrot -97 dBm 13.04.2024 22:39
903 temp-at-nowhere 2024-04-13 21:39:46 19.8 °C x 86.4 % 2.685 V ttn-pfaffenrot -91 dBm 13.04.2024 21:39
904 temp-at-nowhere 2024-04-13 20:39:47 20.1 °C x 78.6 % 2.685 V ttn-pfaffenrot -99 dBm 13.04.2024 20:39
905 temp-at-nowhere 2024-04-13 19:39:48 21.34 °C x 77.3 % 2.684 V ttn-pfaffenrot -91 dBm 13.04.2024 19:39
906 temp-at-nowhere 2024-04-13 18:39:49 22.31 °C x 77.2 % 2.685 V ttn-pfaffenrot -95 dBm 13.04.2024 18:39
907 temp-at-nowhere 2024-04-13 17:39:49 22.78 °C x 79 % 2.683 V ttn-pfaffenrot -94 dBm 13.04.2024 17:39
908 temp-at-nowhere 2024-04-13 16:39:50 22.97 °C x 83.4 % 2.684 V ttn-pfaffenrot -101 dBm 13.04.2024 16:39
909 temp-at-nowhere 2024-04-13 15:39:51 22.82 °C x 86.9 % 2.684 V ttn-pfaffenrot -94 dBm 13.04.2024 15:39
910 temp-at-nowhere 2024-04-13 14:39:52 21.93 °C x 90.3 % 2.684 V ttn-pfaffenrot -97 dBm 13.04.2024 14:39
911 temp-at-nowhere 2024-04-13 13:39:52 21.05 °C x 92.9 % 2.683 V ttn-pfaffenrot -94 dBm 13.04.2024 13:39
912 temp-at-nowhere 2024-04-13 12:39:53 20.05 °C x 99.2 % 2.684 V ttn-pfaffenrot -99 dBm 13.04.2024 12:39
913 temp-at-nowhere 2024-04-13 11:39:54 18.44 °C x 99.9 % 2.683 V ttn-pfaffenrot -93 dBm 13.04.2024 11:39
914 temp-at-nowhere 2024-04-13 10:39:55 16.68 °C x 99.9 % 2.683 V ttn-pfaffenrot -101 dBm 13.04.2024 10:39
915 temp-at-nowhere 2024-04-13 09:39:56 14.82 °C x 99.9 % 2.683 V ttn-pfaffenrot -93 dBm 13.04.2024 09:39
916 temp-at-nowhere 2024-04-13 08:39:56 13.26 °C x 99.9 % 2.682 V ttn-pfaffenrot -102 dBm 13.04.2024 08:39
917 temp-at-nowhere 2024-04-13 07:39:57 12.79 °C x 99.9 % 2.683 V ttn-pfaffenrot -96 dBm 13.04.2024 07:39
918 temp-at-nowhere 2024-04-13 06:39:58 14.37 °C x 99.9 % 2.682 V ttn-pfaffenrot -99 dBm 13.04.2024 06:39
919 temp-at-nowhere 2024-04-13 05:39:59 13.96 °C x 99.9 % 2.684 V ttn-pfaffenrot -91 dBm 13.04.2024 05:39
920 temp-at-nowhere 2024-04-13 04:40:00 14.29 °C x 99.9 % 2.682 V ttn-pfaffenrot -96 dBm 13.04.2024 04:40
921 temp-at-nowhere 2024-04-13 03:40:01 14.24 °C x 99.9 % 2.682 V ttn-pfaffenrot -103 dBm 13.04.2024 03:40
922 temp-at-nowhere 2024-04-13 02:40:01 14.63 °C x 97.3 % 2.685 V ttn-pfaffenrot -99 dBm 13.04.2024 02:40
923 temp-at-nowhere 2024-04-13 01:40:02 15.04 °C x 95.6 % 2.684 V ttn-pfaffenrot -90 dBm 13.04.2024 01:40
924 temp-at-nowhere 2024-04-13 00:40:03 15.18 °C x 92 % 2.683 V ttn-pfaffenrot -107 dBm 13.04.2024 00:40
925 temp-at-nowhere 2024-04-12 22:40:05 16.42 °C x 86.4 % 2.684 V ttn-pfaffenrot -97 dBm 12.04.2024 22:40
926 temp-at-nowhere 2024-04-12 21:40:06 17.01 °C x 82.4 % 2.684 V ttn-pfaffenrot -99 dBm 12.04.2024 21:40
927 temp-at-nowhere 2024-04-12 20:40:07 17.35 °C x 77.1 % 2.684 V ttn-pfaffenrot -96 dBm 12.04.2024 20:40
928 temp-at-nowhere 2024-04-12 19:40:08 18.55 °C x 76.1 % 2.685 V ttn-pfaffenrot -96 dBm 12.04.2024 19:40
929 temp-at-nowhere 2024-04-12 18:40:09 19.13 °C x 74.4 % 2.684 V ttn-pfaffenrot -101 dBm 12.04.2024 18:40
930 temp-at-nowhere 2024-04-12 17:40:09 19.67 °C x 74.9 % 2.685 V ttn-pfaffenrot -97 dBm 12.04.2024 17:40
931 temp-at-nowhere 2024-04-12 16:40:10 20.13 °C x 75.8 % 2.683 V ttn-pfaffenrot -96 dBm 12.04.2024 16:40
932 temp-at-nowhere 2024-04-12 15:40:11 19.96 °C x 78.7 % 2.684 V ttn-pfaffenrot -94 dBm 12.04.2024 15:40
933 temp-at-nowhere 2024-04-12 14:40:12 18.98 °C x 82.4 % 2.683 V ttn-pfaffenrot -97 dBm 12.04.2024 14:40
934 temp-at-nowhere 2024-04-12 13:40:13 18.22 °C x 84.4 % 2.683 V ttn-pfaffenrot -95 dBm 12.04.2024 13:40
935 temp-at-nowhere 2024-04-12 12:40:13 17.47 °C x 88.3 % 2.682 V ttn-pfaffenrot -96 dBm 12.04.2024 12:40
936 temp-at-nowhere 2024-04-12 11:40:14 16.01 °C x 93.1 % 2.682 V ttn-pfaffenrot -94 dBm 12.04.2024 11:40
937 temp-at-nowhere 2024-04-12 10:40:15 14.27 °C x 99.9 % 2.684 V ttn-pfaffenrot -97 dBm 12.04.2024 10:40
938 temp-at-nowhere 2024-04-12 09:40:16 12.16 °C x 99.9 % 2.682 V ttn-pfaffenrot -93 dBm 12.04.2024 09:40
939 temp-at-nowhere 2024-04-12 08:40:17 10.03 °C x 99.9 % 2.682 V ttn-pfaffenrot -93 dBm 12.04.2024 08:40
940 temp-at-nowhere 2024-04-12 07:40:18 9.56 °C x 99.9 % 2.683 V ttn-pfaffenrot -97 dBm 12.04.2024 07:40
941 temp-at-nowhere 2024-04-12 06:40:18 11.4 °C x 99.9 % 2.682 V ttn-pfaffenrot -90 dBm 12.04.2024 06:40
942 temp-at-nowhere 2024-04-12 05:40:19 11.01 °C x 99.9 % 2.682 V ttn-pfaffenrot -93 dBm 12.04.2024 05:40
943 temp-at-nowhere 2024-04-12 04:40:20 10.73 °C x 99.9 % 2.682 V ttn-pfaffenrot -94 dBm 12.04.2024 04:40
944 temp-at-nowhere 2024-04-12 03:40:21 10.46 °C x 99.9 % 2.684 V ttn-pfaffenrot -100 dBm 12.04.2024 03:40
945 temp-at-nowhere 2024-04-12 02:40:22 10.65 °C x 99.9 % 2.683 V ttn-pfaffenrot -100 dBm 12.04.2024 02:40
946 temp-at-nowhere 2024-04-12 01:40:23 11.07 °C x 99.9 % 2.684 V ttn-pfaffenrot -99 dBm 12.04.2024 01:40
947 temp-at-nowhere 2024-04-12 00:40:23 11.49 °C x 99.9 % 2.683 V ttn-pfaffenrot -108 dBm 12.04.2024 00:40
948 temp-at-nowhere 2024-04-11 23:40:24 12.3 °C x 99.9 % 2.683 V ttn-pfaffenrot -92 dBm 11.04.2024 23:40
949 temp-at-nowhere 2024-04-11 22:40:25 12.71 °C x 95.4 % 2.684 V ttn-pfaffenrot -99 dBm 11.04.2024 22:40
950 temp-at-nowhere 2024-04-11 21:40:26 13.1 °C x 89.9 % 2.684 V ttn-pfaffenrot -96 dBm 11.04.2024 21:40
951 temp-at-nowhere 2024-04-11 20:40:27 13.68 °C x 87.3 % 2.684 V ttn-pfaffenrot -93 dBm 11.04.2024 20:40
952 temp-at-nowhere 2024-04-11 19:40:27 14.87 °C x 85.4 % 2.685 V ttn-pfaffenrot -94 dBm 11.04.2024 19:40
953 temp-at-nowhere 2024-04-11 18:40:28 15.66 °C x 84.1 % 2.684 V ttn-pfaffenrot -97 dBm 11.04.2024 18:40
954 temp-at-nowhere 2024-04-11 17:40:29 16.44 °C x 85.1 % 2.684 V ttn-pfaffenrot -97 dBm 11.04.2024 17:40
955 temp-at-nowhere 2024-04-11 16:40:30 16.87 °C x 86.4 % 2.685 V ttn-pfaffenrot -101 dBm 11.04.2024 16:40
956 temp-at-nowhere 2024-04-11 15:40:31 17.07 °C x 88.4 % 2.684 V ttn-pfaffenrot -103 dBm 11.04.2024 15:40
957 temp-at-nowhere 2024-04-11 14:40:31 16.93 °C x 93 % 2.685 V ttn-pfaffenrot -101 dBm 11.04.2024 14:40
958 temp-at-nowhere 2024-04-11 13:40:32 15.46 °C x 97.9 % 2.684 V ttn-pfaffenrot -104 dBm 11.04.2024 13:40
959 temp-at-nowhere 2024-04-11 12:40:33 14.49 °C x 99.9 % 2.684 V ttn-pfaffenrot -108 dBm 11.04.2024 12:40
960 temp-at-nowhere 2024-04-11 11:40:34 13.01 °C x 99.9 % 2.683 V ttn-pfaffenrot -95 dBm 11.04.2024 11:40
961 temp-at-nowhere 2024-04-11 10:40:35 11.01 °C x 99.9 % 2.683 V ttn-pfaffenrot -91 dBm 11.04.2024 10:40
962 temp-at-nowhere 2024-04-11 09:40:35 8.56 °C x 99.9 % 2.682 V ttn-pfaffenrot -89 dBm 11.04.2024 09:40
963 temp-at-nowhere 2024-04-11 08:40:36 6.73 °C x 99.9 % 2.682 V ttn-pfaffenrot -99 dBm 11.04.2024 08:40
964 temp-at-nowhere 2024-04-11 07:40:37 5.96 °C x 99.9 % 2.682 V ttn-pfaffenrot -87 dBm 11.04.2024 07:40
965 temp-at-nowhere 2024-04-11 06:40:38 7.37 °C x 99.9 % 2.681 V ttn-pfaffenrot -96 dBm 11.04.2024 06:40
966 temp-at-nowhere 2024-04-11 05:40:39 7.6 °C x 99.9 % 2.683 V ttn-pfaffenrot -92 dBm 11.04.2024 05:40
967 temp-at-nowhere 2024-04-11 04:40:40 7.51 °C x 99.9 % 2.682 V marx-pf-kistj -139 dBm 11.04.2024 04:40
968 temp-at-nowhere 2024-04-11 03:40:40 7.88 °C x 99.9 % 2.683 V ttn-pfaffenrot -94 dBm 11.04.2024 03:40
969 temp-at-nowhere 2024-04-11 02:40:41 7.94 °C x 99.9 % 2.682 V ttn-pfaffenrot -87 dBm 11.04.2024 02:40
970 temp-at-nowhere 2024-04-11 01:40:42 8.27 °C x 99.9 % 2.683 V ttn-pfaffenrot -96 dBm 11.04.2024 01:40
971 temp-at-nowhere 2024-04-11 00:40:43 8.67 °C x 99.9 % 2.681 V ttn-pfaffenrot -94 dBm 11.04.2024 00:40
972 temp-at-nowhere 2024-04-10 23:40:44 9.32 °C x 99.9 % 2.684 V ttn-pfaffenrot -93 dBm 10.04.2024 23:40
973 temp-at-nowhere 2024-04-10 22:40:44 10.18 °C x 99.9 % 2.683 V ttn-pfaffenrot -96 dBm 10.04.2024 22:40
974 temp-at-nowhere 2024-04-10 21:40:45 11.1 °C x 96.8 % 2.685 V ttn-pfaffenrot -96 dBm 10.04.2024 21:40
975 temp-at-nowhere 2024-04-10 20:40:46 11.06 °C x 91.4 % 2.685 V marx-pf-kistj -140 dBm 10.04.2024 20:40
976 temp-at-nowhere 2024-04-10 19:40:47 12.13 °C x 90.5 % 2.685 V ttn-pfaffenrot -113 dBm 10.04.2024 19:40
977 temp-at-nowhere 2024-04-10 18:40:47 12.89 °C x 88.7 % 2.685 V ttn-pfaffenrot -99 dBm 10.04.2024 18:40
978 temp-at-nowhere 2024-04-10 17:40:48 13.57 °C x 89.2 % 2.686 V ttn-pfaffenrot -95 dBm 10.04.2024 17:40
979 temp-at-nowhere 2024-04-10 16:40:49 14.27 °C x 90.6 % 2.685 V ttn-pfaffenrot -96 dBm 10.04.2024 16:40
980 temp-at-nowhere 2024-04-10 15:40:50 13.89 °C x 93.5 % 2.685 V ttn-pfaffenrot -99 dBm 10.04.2024 15:40
981 temp-at-nowhere 2024-04-10 14:40:51 13.82 °C x 98.8 % 2.686 V ttn-pfaffenrot -105 dBm 10.04.2024 14:40
982 temp-at-nowhere 2024-04-10 13:40:51 13.27 °C x 99.9 % 2.685 V ttn-pfaffenrot -96 dBm 10.04.2024 13:40
983 temp-at-nowhere 2024-04-10 12:40:52 11.99 °C x 99.9 % 2.688 V ttn-pfaffenrot -110 dBm 10.04.2024 12:40
984 temp-at-nowhere 2024-04-10 11:40:53 10.16 °C x 99.9 % 2.687 V ttn-pfaffenrot -93 dBm 10.04.2024 11:40
985 temp-at-nowhere 2024-04-10 10:40:54 8.69 °C x 99.9 % 2.685 V ttn-pfaffenrot -99 dBm 10.04.2024 10:40
986 temp-at-nowhere 2024-04-10 09:40:55 7.07 °C x 99.9 % 2.683 V ttn-pfaffenrot -87 dBm 10.04.2024 09:40
987 temp-at-nowhere 2024-04-10 08:40:55 5.96 °C x 99.9 % 2.684 V ttn-pfaffenrot -99 dBm 10.04.2024 08:40
988 temp-at-nowhere 2024-04-10 07:40:56 6.27 °C x 99.9 % 2.685 V ttn-pfaffenrot -91 dBm 10.04.2024 07:40
989 temp-at-nowhere 2024-04-10 06:40:57 8 °C x 99.9 % 2.683 V ttn-pfaffenrot -97 dBm 10.04.2024 06:40
990 temp-at-nowhere 2024-04-10 05:40:58 9.06 °C x 99.9 % 2.684 V ttn-pfaffenrot -89 dBm 10.04.2024 05:40
991 temp-at-nowhere 2024-04-10 04:40:59 8.77 °C x 99.9 % 2.685 V ttn-pfaffenrot -101 dBm 10.04.2024 04:40
992 temp-at-nowhere 2024-04-10 03:40:59 9.02 °C x 99.9 % 2.688 V ttn-pfaffenrot -96 dBm 10.04.2024 03:40
993 temp-at-nowhere 2024-04-10 02:41:00 10.07 °C x 99.9 % 2.686 V ttn-pfaffenrot -88 dBm 10.04.2024 02:41
994 temp-at-nowhere 2024-04-10 01:41:01 10.06 °C x 99.9 % 2.685 V ttn-pfaffenrot -88 dBm 10.04.2024 01:41
995 temp-at-nowhere 2024-04-10 00:41:02 10.59 °C x 99.9 % 2.687 V ttn-pfaffenrot -89 dBm 10.04.2024 00:41
996 temp-at-nowhere 2024-04-09 23:41:02 10.72 °C x 99.9 % 2.685 V ttn-pfaffenrot -88 dBm 09.04.2024 23:41
997 temp-at-nowhere 2024-04-09 22:41:04 10.79 °C x 99.9 % 2.686 V ttn-pfaffenrot -90 dBm 09.04.2024 22:41
998 temp-at-nowhere 2024-04-09 21:41:04 10.46 °C x 99.9 % 2.686 V ttn-pfaffenrot -91 dBm 09.04.2024 21:41
999 temp-at-nowhere 2024-04-09 20:41:05 9.76 °C x 95.9 % 2.687 V ttn-pfaffenrot -95 dBm 09.04.2024 20:41
1000 temp-at-nowhere 2024-04-09 19:41:06 9.49 °C x 95.1 % 2.686 V ttn-pfaffenrot -93 dBm 09.04.2024 19:41
1001 temp-at-nowhere 2024-04-09 18:41:06 9.55 °C x 96.1 % 2.685 V ttn-pfaffenrot -113 dBm 09.04.2024 18:41
1002 temp-at-nowhere 2024-04-09 17:41:07 9.31 °C x 97.9 % 2.686 V ttn-pfaffenrot -94 dBm 09.04.2024 17:41
1003 temp-at-nowhere 2024-04-09 16:41:08 8.91 °C x 99.3 % 2.686 V marx-pf-kistj -139 dBm 09.04.2024 16:41
1004 temp-at-nowhere 2024-04-09 15:41:09 8.59 °C x 99.9 % 2.685 V ttn-pfaffenrot -88 dBm 09.04.2024 15:41
1005 temp-at-nowhere 2024-04-09 14:41:10 8.44 °C x 99.9 % 2.686 V ttn-pfaffenrot -95 dBm 09.04.2024 14:41
1006 temp-at-nowhere 2024-04-09 13:41:10 8.42 °C x 99.9 % 2.686 V ttn-pfaffenrot -94 dBm 09.04.2024 13:41
1007 temp-at-nowhere 2024-04-09 12:41:11 8.59 °C x 99.9 % 2.688 V ttn-pfaffenrot -96 dBm 09.04.2024 12:41
1008 temp-at-nowhere 2024-04-09 11:41:12 9.75 °C x 99.3 % 2.686 V ttn-pfaffenrot -93 dBm 09.04.2024 11:41
1009 temp-at-nowhere 2024-04-09 10:41:13 11.17 °C x 97.2 % 2.687 V ttn-pfaffenrot -97 dBm 09.04.2024 10:41
1010 temp-at-nowhere 2024-04-09 09:41:13 12.97 °C x 96.1 % 2.689 V ttn-pfaffenrot -93 dBm 09.04.2024 09:41
1011 temp-at-nowhere 2024-04-09 08:41:14 15 °C x 98.8 % 2.688 V ttn-pfaffenrot -109 dBm 09.04.2024 08:41
1012 temp-at-nowhere 2024-04-09 07:41:15 15.91 °C x 96.4 % 2.689 V ttn-pfaffenrot -96 dBm 09.04.2024 07:41
1013 temp-at-nowhere 2024-04-09 06:41:16 17.77 °C x 99.9 % 2.689 V ttn-pfaffenrot -101 dBm 09.04.2024 06:41
1014 temp-at-nowhere 2024-04-09 05:41:17 19.31 °C x 99.9 % 2.688 V ttn-pfaffenrot -95 dBm 09.04.2024 05:41
1015 temp-at-nowhere 2024-04-09 04:41:17 19.02 °C x 99.9 % 2.688 V ttn-pfaffenrot -97 dBm 09.04.2024 04:41
1016 temp-at-nowhere 2024-04-09 03:41:18 19.38 °C x 99.9 % 2.69 V ttn-pfaffenrot -90 dBm 09.04.2024 03:41
1017 temp-at-nowhere 2024-04-09 02:41:19 19.68 °C x 99.9 % 2.689 V ttn-pfaffenrot -93 dBm 09.04.2024 02:41
1018 temp-at-nowhere 2024-04-09 01:41:20 20.3 °C x 99.9 % 2.688 V ttn-pfaffenrot -96 dBm 09.04.2024 01:41
1019 temp-at-nowhere 2024-04-09 00:41:21 20.82 °C x 99.9 % 2.688 V ttn-pfaffenrot -97 dBm 09.04.2024 00:41
1020 temp-at-nowhere 2024-04-08 23:41:22 20.4 °C x 99.9 % 2.688 V ttn-pfaffenrot -90 dBm 08.04.2024 23:41
1021 temp-at-nowhere 2024-04-08 22:41:22 20.97 °C x 98.4 % 2.689 V ttn-pfaffenrot -96 dBm 08.04.2024 22:41
1022 temp-at-nowhere 2024-04-08 21:41:23 21.07 °C x 94.7 % 2.688 V ttn-pfaffenrot -86 dBm 08.04.2024 21:41
1023 temp-at-nowhere 2024-04-08 20:41:24 20.83 °C x 84.9 % 2.687 V ttn-pfaffenrot -103 dBm 08.04.2024 20:41
1024 temp-at-nowhere 2024-04-08 19:41:25 21.79 °C x 86.2 % 2.687 V ttn-pfaffenrot -97 dBm 08.04.2024 19:41
1025 temp-at-nowhere 2024-04-08 18:41:26 22.58 °C x 86.2 % 2.687 V ttn-pfaffenrot -95 dBm 08.04.2024 18:41
1026 temp-at-nowhere 2024-04-08 17:41:27 22.92 °C x 84.1 % 2.688 V ttn-pfaffenrot -92 dBm 08.04.2024 17:41
1027 temp-at-nowhere 2024-04-08 16:41:27 23.33 °C x 82.3 % 2.687 V ttn-pfaffenrot -99 dBm 08.04.2024 16:41
1028 temp-at-nowhere 2024-04-08 15:41:28 24.01 °C x 82.2 % 2.686 V ttn-pfaffenrot -88 dBm 08.04.2024 15:41
1029 temp-at-nowhere 2024-04-08 14:41:29 23.34 °C x 83.9 % 2.686 V ttn-pfaffenrot -94 dBm 08.04.2024 14:41
1030 temp-at-nowhere 2024-04-08 13:41:30 22.3 °C x 86.8 % 2.687 V ttn-pfaffenrot -96 dBm 08.04.2024 13:41
1031 temp-at-nowhere 2024-04-08 11:41:32 20.85 °C x 98.8 % 2.687 V ttn-pfaffenrot -91 dBm 08.04.2024 11:41
1032 temp-at-nowhere 2024-04-08 10:41:32 19.13 °C x 99.9 % 2.687 V ttn-pfaffenrot -88 dBm 08.04.2024 10:41
1033 temp-at-nowhere 2024-04-08 09:41:33 17.4 °C x 99.9 % 2.687 V ttn-pfaffenrot -88 dBm 08.04.2024 09:41
1034 temp-at-nowhere 2024-04-08 08:41:34 16.46 °C x 99.9 % 2.685 V ttn-pfaffenrot -93 dBm 08.04.2024 08:41
1035 temp-at-nowhere 2024-04-08 07:41:35 16.95 °C x 99.9 % 2.687 V ttn-pfaffenrot -84 dBm 08.04.2024 07:41
1036 temp-at-nowhere 2024-04-08 06:41:36 19.1 °C x 99.9 % 2.686 V ttn-pfaffenrot -93 dBm 08.04.2024 06:41
1037 temp-at-nowhere 2024-04-08 05:41:37 18.58 °C x 99.9 % 2.686 V ttn-pfaffenrot -87 dBm 08.04.2024 05:41
1038 temp-at-nowhere 2024-04-08 04:41:38 18.18 °C x 99.9 % 2.686 V ttn-pfaffenrot -93 dBm 08.04.2024 04:41
1039 temp-at-nowhere 2024-04-08 03:41:38 18.44 °C x 99.9 % 2.686 V ttn-pfaffenrot -89 dBm 08.04.2024 03:41
1040 temp-at-nowhere 2024-04-08 02:41:39 18.83 °C x 99.9 % 2.686 V ttn-pfaffenrot -101 dBm 08.04.2024 02:41
1041 temp-at-nowhere 2024-04-08 01:41:40 19.55 °C x 99.9 % 2.685 V ttn-pfaffenrot -93 dBm 08.04.2024 01:41
1042 temp-at-nowhere 2024-04-08 00:41:41 19.82 °C x 99.9 % 2.686 V ttn-pfaffenrot -99 dBm 08.04.2024 00:41
1043 temp-at-nowhere 2024-04-07 23:41:42 20.21 °C x 99.9 % 2.686 V ttn-pfaffenrot -87 dBm 07.04.2024 23:41
1044 temp-at-nowhere 2024-04-07 22:41:43 20.72 °C x 99.9 % 2.685 V ttn-pfaffenrot -95 dBm 07.04.2024 22:41
1045 temp-at-nowhere 2024-04-07 21:41:43 20.38 °C x 99.3 % 2.684 V ttn-pfaffenrot -95 dBm 07.04.2024 21:41
1046 temp-at-nowhere 2024-04-07 20:41:44 20 °C x 87.4 % 2.687 V ttn-pfaffenrot -95 dBm 07.04.2024 20:41
1047 temp-at-nowhere 2024-04-07 19:41:45 20.82 °C x 83.8 % 2.685 V ttn-pfaffenrot -86 dBm 07.04.2024 19:41
1048 temp-at-nowhere 2024-04-07 18:41:46 22 °C x 81.2 % 2.686 V ttn-pfaffenrot -103 dBm 07.04.2024 18:41
1049 temp-at-nowhere 2024-04-07 17:41:47 22.98 °C x 79.3 % 2.685 V ttn-pfaffenrot -93 dBm 07.04.2024 17:41
1050 temp-at-nowhere 2024-04-07 16:41:47 23.18 °C x 79.6 % 2.685 V ttn-pfaffenrot -101 dBm 07.04.2024 16:41
1051 temp-at-nowhere 2024-04-07 15:41:48 23.02 °C x 81.8 % 2.683 V ttn-pfaffenrot -87 dBm 07.04.2024 15:41
1052 temp-at-nowhere 2024-04-07 14:41:49 22.05 °C x 82.7 % 2.684 V ttn-pfaffenrot -97 dBm 07.04.2024 14:41
1053 temp-at-nowhere 2024-04-07 13:41:50 21.65 °C x 83.5 % 2.684 V ttn-pfaffenrot -91 dBm 07.04.2024 13:41
1054 temp-at-nowhere 2024-04-07 12:41:51 20.7 °C x 86.5 % 2.684 V ttn-pfaffenrot -93 dBm 07.04.2024 12:41
1055 temp-at-nowhere 2024-04-07 11:41:51 19.08 °C x 87.2 % 2.684 V ttn-pfaffenrot -89 dBm 07.04.2024 11:41
1056 temp-at-nowhere 2024-04-07 10:41:52 17.6 °C x 86 % 2.683 V ttn-pfaffenrot -90 dBm 07.04.2024 10:41
1057 temp-at-nowhere 2024-04-07 09:41:53 17.19 °C x 84.9 % 2.684 V ttn-pfaffenrot -88 dBm 07.04.2024 09:41
1058 temp-at-nowhere 2024-04-07 08:41:54 17.41 °C x 84.8 % 2.683 V ttn-pfaffenrot -83 dBm 07.04.2024 08:41
1059 temp-at-nowhere 2024-04-07 07:41:55 18.46 °C x 83.8 % 2.683 V ttn-pfaffenrot -85 dBm 07.04.2024 07:41
1060 temp-at-nowhere 2024-04-07 06:41:55 21.05 °C x 90.8 % 2.685 V ttn-pfaffenrot -91 dBm 07.04.2024 06:41
1061 temp-at-nowhere 2024-04-07 05:41:56 21.29 °C x 92.2 % 2.683 V ttn-pfaffenrot -84 dBm 07.04.2024 05:41
1062 temp-at-nowhere 2024-04-07 04:41:57 22.3 °C x 88.7 % 2.684 V ttn-pfaffenrot -87 dBm 07.04.2024 04:41
1063 temp-at-nowhere 2024-04-07 03:41:58 22.26 °C x 84.2 % 2.682 V ttn-pfaffenrot -84 dBm 07.04.2024 03:41
1064 temp-at-nowhere 2024-04-07 02:41:59 22.34 °C x 85.4 % 2.682 V ttn-pfaffenrot -81 dBm 07.04.2024 02:41
1065 temp-at-nowhere 2024-04-07 01:41:59 22.03 °C x 87.1 % 2.682 V ttn-pfaffenrot -85 dBm 07.04.2024 01:41
1066 temp-at-nowhere 2024-04-07 00:42:00 21.12 °C x 92.8 % 2.683 V ttn-pfaffenrot -82 dBm 07.04.2024 00:42
1067 temp-at-nowhere 2024-04-06 23:42:01 20.39 °C x 99.9 % 2.682 V ttn-pfaffenrot -84 dBm 06.04.2024 23:42
1068 temp-at-nowhere 2024-04-06 22:42:02 20.62 °C x 95.5 % 2.682 V ttn-pfaffenrot -93 dBm 06.04.2024 22:42
1069 temp-at-nowhere 2024-04-06 21:42:03 20.94 °C x 85.7 % 2.682 V ttn-pfaffenrot -89 dBm 06.04.2024 21:42
1070 temp-at-nowhere 2024-04-06 20:42:03 20.99 °C x 78 % 2.682 V ttn-pfaffenrot -93 dBm 06.04.2024 20:42
1071 temp-at-nowhere 2024-04-06 19:42:04 22.29 °C x 82 % 2.682 V ttn-pfaffenrot -85 dBm 06.04.2024 19:42
1072 temp-at-nowhere 2024-04-06 18:42:05 23.01 °C x 81.6 % 2.682 V ttn-pfaffenrot -95 dBm 06.04.2024 18:42
1073 temp-at-nowhere 2024-04-06 17:42:06 23.87 °C x 78.2 % 2.68 V ttn-pfaffenrot -84 dBm 06.04.2024 17:42
1074 temp-at-nowhere 2024-04-06 16:42:07 25.21 °C x 76.5 % 2.68 V ttn-pfaffenrot -90 dBm 06.04.2024 16:42
1075 temp-at-nowhere 2024-04-06 15:42:07 26.2 °C x 74.8 % 2.679 V ttn-pfaffenrot -85 dBm 06.04.2024 15:42
1076 temp-at-nowhere 2024-04-06 14:42:08 25.18 °C x 74.7 % 2.679 V ttn-pfaffenrot -103 dBm 06.04.2024 14:42
1077 temp-at-nowhere 2024-04-06 13:42:09 24.01 °C x 78.1 % 2.679 V ttn-pfaffenrot -91 dBm 06.04.2024 13:42
1078 temp-at-nowhere 2024-04-06 12:42:10 22.9 °C x 82.9 % 2.68 V ttn-pfaffenrot -93 dBm 06.04.2024 12:42
1079 temp-at-nowhere 2024-04-06 11:42:11 20.89 °C x 92.8 % 2.679 V ttn-pfaffenrot -86 dBm 06.04.2024 11:42
1080 temp-at-nowhere 2024-04-06 10:42:11 18.37 °C x 99.9 % 2.678 V ttn-pfaffenrot -101 dBm 06.04.2024 10:42
1081 temp-at-nowhere 2024-04-06 09:42:12 15.4 °C x 99.9 % 2.678 V ttn-pfaffenrot -89 dBm 06.04.2024 09:42
1082 temp-at-nowhere 2024-04-06 08:42:13 13.51 °C x 99.9 % 2.677 V ttn-pfaffenrot -93 dBm 06.04.2024 08:42
1083 temp-at-nowhere 2024-04-06 07:42:14 13.6 °C x 99.9 % 2.676 V ttn-pfaffenrot -79 dBm 06.04.2024 07:42
1084 temp-at-nowhere 2024-04-06 06:42:15 15.45 °C x 99.9 % 2.679 V ttn-pfaffenrot -88 dBm 06.04.2024 06:42
1085 temp-at-nowhere 2024-04-06 05:42:15 15.37 °C x 99.9 % 2.678 V ttn-pfaffenrot -83 dBm 06.04.2024 05:42
1086 temp-at-nowhere 2024-04-06 04:42:16 15.5 °C x 99.9 % 2.679 V ttn-pfaffenrot -87 dBm 06.04.2024 04:42
1087 temp-at-nowhere 2024-04-06 03:42:17 15.52 °C x 99.9 % 2.679 V ttn-pfaffenrot -85 dBm 06.04.2024 03:42
1088 temp-at-nowhere 2024-04-06 02:42:18 16.43 °C x 99.9 % 2.679 V ttn-pfaffenrot -87 dBm 06.04.2024 02:42
1089 temp-at-nowhere 2024-04-06 01:42:19 17.06 °C x 99.9 % 2.679 V ttn-pfaffenrot -84 dBm 06.04.2024 01:42
1090 temp-at-nowhere 2024-04-06 00:42:19 17.54 °C x 99.9 % 2.679 V ttn-pfaffenrot -82 dBm 06.04.2024 00:42
1091 temp-at-nowhere 2024-04-05 23:42:20 17.92 °C x 99.9 % 2.678 V ttn-pfaffenrot -81 dBm 05.04.2024 23:42
1092 temp-at-nowhere 2024-04-05 22:42:21 17.99 °C x 99.9 % 2.677 V ttn-pfaffenrot -89 dBm 05.04.2024 22:42
1093 temp-at-nowhere 2024-04-05 21:42:22 17.63 °C x 93.9 % 2.676 V ttn-pfaffenrot -83 dBm 05.04.2024 21:42
1094 temp-at-nowhere 2024-04-05 20:42:22 17.27 °C x 87.2 % 2.677 V ttn-pfaffenrot -80 dBm 05.04.2024 20:42
1095 temp-at-nowhere 2024-04-05 19:42:23 18.12 °C x 85.7 % 2.678 V ttn-pfaffenrot -85 dBm 05.04.2024 19:42
1096 temp-at-nowhere 2024-04-05 18:42:24 18.78 °C x 84.6 % 2.677 V ttn-pfaffenrot -88 dBm 05.04.2024 18:42
1097 temp-at-nowhere 2024-04-05 17:42:25 19.5 °C x 83.7 % 2.678 V ttn-pfaffenrot -89 dBm 05.04.2024 17:42
1098 temp-at-nowhere 2024-04-05 16:42:26 20.05 °C x 83.4 % 2.678 V ttn-pfaffenrot -89 dBm 05.04.2024 16:42
1099 temp-at-nowhere 2024-04-05 15:42:26 19.94 °C x 84 % 2.677 V ttn-pfaffenrot -83 dBm 05.04.2024 15:42
1100 temp-at-nowhere 2024-04-05 14:42:27 20.47 °C x 85 % 2.676 V ttn-pfaffenrot -95 dBm 05.04.2024 14:42
1101 temp-at-nowhere 2024-04-05 13:42:28 21.27 °C x 91.5 % 2.675 V ttn-pfaffenrot -88 dBm 05.04.2024 13:42
1102 temp-at-nowhere 2024-04-05 12:42:28 20.34 °C x 99.9 % 2.676 V ttn-pfaffenrot -82 dBm 05.04.2024 12:42
1103 temp-at-nowhere 2024-04-05 11:42:29 17.8 °C x 99.9 % 2.675 V ttn-pfaffenrot -83 dBm 05.04.2024 11:42
1104 temp-at-nowhere 2024-04-05 10:42:30 15.22 °C x 99.9 % 2.676 V ttn-pfaffenrot -97 dBm 05.04.2024 10:42
1105 temp-at-nowhere 2024-04-05 09:42:31 13.73 °C x 99.9 % 2.675 V ttn-pfaffenrot -82 dBm 05.04.2024 09:42
1106 temp-at-nowhere 2024-04-05 08:42:31 12.58 °C x 99.9 % 2.674 V ttn-pfaffenrot -90 dBm 05.04.2024 08:42
1107 temp-at-nowhere 2024-04-05 07:42:32 12.56 °C x 99.9 % 2.674 V ttn-pfaffenrot -87 dBm 05.04.2024 07:42
1108 temp-at-nowhere 2024-04-05 06:42:33 14.5 °C x 99.9 % 2.674 V ttn-pfaffenrot -87 dBm 05.04.2024 06:42
1109 temp-at-nowhere 2024-04-05 05:42:34 14.51 °C x 99.9 % 2.674 V ttn-pfaffenrot -82 dBm 05.04.2024 05:42
1110 temp-at-nowhere 2024-04-05 04:42:35 14.63 °C x 99.9 % 2.676 V ttn-pfaffenrot -91 dBm 05.04.2024 04:42
1111 temp-at-nowhere 2024-04-05 03:42:36 13.86 °C x 99.9 % 2.674 V ttn-pfaffenrot -82 dBm 05.04.2024 03:42
1112 temp-at-nowhere 2024-04-05 02:42:36 13.77 °C x 99.9 % 2.675 V ttn-pfaffenrot -91 dBm 05.04.2024 02:42
1113 temp-at-nowhere 2024-04-05 01:42:37 13.54 °C x 99.9 % 2.675 V ttn-pfaffenrot -79 dBm 05.04.2024 01:42
1114 temp-at-nowhere 2024-04-05 00:42:38 13.36 °C x 99.9 % 2.675 V ttn-pfaffenrot -101 dBm 05.04.2024 00:42
1115 temp-at-nowhere 2024-04-04 23:42:39 12.95 °C x 99.9 % 2.673 V ttn-pfaffenrot -78 dBm 04.04.2024 23:42
1116 temp-at-nowhere 2024-04-04 22:42:40 12.95 °C x 99.9 % 2.674 V ttn-pfaffenrot -89 dBm 04.04.2024 22:42
1117 temp-at-nowhere 2024-04-04 21:42:40 12.41 °C x 99.9 % 2.677 V ttn-pfaffenrot -81 dBm 04.04.2024 21:42
1118 temp-at-nowhere 2024-04-04 20:42:41 11.45 °C x 99.9 % 2.675 V ttn-pfaffenrot -87 dBm 04.04.2024 20:42
1119 temp-at-nowhere 2024-04-04 19:42:42 12.02 °C x 99.9 % 2.674 V ttn-pfaffenrot -81 dBm 04.04.2024 19:42
1120 temp-at-nowhere 2024-04-04 18:42:43 12.97 °C x 99.9 % 2.674 V ttn-pfaffenrot -85 dBm 04.04.2024 18:42
1121 temp-at-nowhere 2024-04-04 17:42:44 12.71 °C x 99.9 % 2.677 V ttn-pfaffenrot -84 dBm 04.04.2024 17:42
1122 temp-at-nowhere 2024-04-04 16:42:44 12.24 °C x 99.9 % 2.674 V ttn-pfaffenrot -89 dBm 04.04.2024 16:42
1123 temp-at-nowhere 2024-04-04 15:42:45 11.85 °C x 99.9 % 2.673 V ttn-pfaffenrot -82 dBm 04.04.2024 15:42
1124 temp-at-nowhere 2024-04-04 14:42:46 11.66 °C x 99.9 % 2.674 V ttn-pfaffenrot -83 dBm 04.04.2024 14:42
1125 temp-at-nowhere 2024-04-04 13:42:47 11.64 °C x 99.9 % 2.675 V ttn-pfaffenrot -83 dBm 04.04.2024 13:42
1126 temp-at-nowhere 2024-04-04 12:42:48 11.59 °C x 99.9 % 2.675 V ttn-pfaffenrot -85 dBm 04.04.2024 12:42
1127 temp-at-nowhere 2024-04-04 10:42:49 12.42 °C x 99.9 % 2.674 V ttn-pfaffenrot -87 dBm 04.04.2024 10:42
1128 temp-at-nowhere 2024-04-04 09:42:50 11.99 °C x 99.9 % 2.675 V ttn-pfaffenrot -85 dBm 04.04.2024 09:42
1129 temp-at-nowhere 2024-04-04 08:42:51 11.92 °C x 99.9 % 2.675 V ttn-pfaffenrot -86 dBm 04.04.2024 08:42
1130 temp-at-nowhere 2024-04-04 07:42:52 11.83 °C x 99.9 % 2.674 V ttn-pfaffenrot -80 dBm 04.04.2024 07:42
1131 temp-at-nowhere 2024-04-04 06:42:53 12.76 °C x 99.9 % 2.675 V ttn-pfaffenrot -82 dBm 04.04.2024 06:42
1132 temp-at-nowhere 2024-04-04 05:42:53 13.15 °C x 99.9 % 2.675 V ttn-pfaffenrot -84 dBm 04.04.2024 05:42
1133 temp-at-nowhere 2024-04-04 04:42:54 13.05 °C x 99.9 % 2.676 V ttn-pfaffenrot -91 dBm 04.04.2024 04:42
1134 temp-at-nowhere 2024-04-04 03:42:55 12.84 °C x 99.9 % 2.675 V ttn-pfaffenrot -84 dBm 04.04.2024 03:42
1135 temp-at-nowhere 2024-04-04 02:42:56 12.75 °C x 99.9 % 2.676 V ttn-pfaffenrot -89 dBm 04.04.2024 02:42
1136 temp-at-nowhere 2024-04-04 01:42:57 12.8 °C x 99.9 % 2.673 V ttn-pfaffenrot -83 dBm 04.04.2024 01:42
1137 temp-at-nowhere 2024-04-04 00:42:57 12.7 °C x 99.9 % 2.674 V ttn-pfaffenrot -89 dBm 04.04.2024 00:42
1138 temp-at-nowhere 2024-04-03 23:42:58 12.69 °C x 99.9 % 2.673 V ttn-pfaffenrot -82 dBm 03.04.2024 23:42
1139 temp-at-nowhere 2024-04-03 22:42:59 12.47 °C x 99.9 % 2.674 V ttn-pfaffenrot -91 dBm 03.04.2024 22:42
1140 temp-at-nowhere 2024-04-03 21:43:00 11.89 °C x 99.9 % 2.675 V ttn-pfaffenrot -85 dBm 03.04.2024 21:43
1141 temp-at-nowhere 2024-04-03 20:43:01 11.16 °C x 99.9 % 2.675 V ttn-pfaffenrot -91 dBm 03.04.2024 20:43
1142 temp-at-nowhere 2024-04-03 19:43:01 10.95 °C x 99.9 % 2.676 V ttn-pfaffenrot -87 dBm 03.04.2024 19:43
1143 temp-at-nowhere 2024-04-03 18:43:02 10.72 °C x 99.9 % 2.674 V ttn-pfaffenrot -95 dBm 03.04.2024 18:43
1144 temp-at-nowhere 2024-04-03 17:43:03 10.33 °C x 99.9 % 2.674 V ttn-pfaffenrot -79 dBm 03.04.2024 17:43
1145 temp-at-nowhere 2024-04-03 16:43:04 10.82 °C x 99.9 % 2.676 V ttn-pfaffenrot -85 dBm 03.04.2024 16:43
1146 temp-at-nowhere 2024-04-03 15:43:05 11.66 °C x 99.9 % 2.674 V ttn-pfaffenrot -85 dBm 03.04.2024 15:43
1147 temp-at-nowhere 2024-04-03 14:43:05 12.19 °C x 99.9 % 2.675 V ttn-pfaffenrot -91 dBm 03.04.2024 14:43
1148 temp-at-nowhere 2024-04-03 13:43:06 12.32 °C x 99.9 % 2.674 V ttn-pfaffenrot -84 dBm 03.04.2024 13:43
1149 temp-at-nowhere 2024-04-03 12:43:07 11.69 °C x 99.9 % 2.675 V ttn-pfaffenrot -95 dBm 03.04.2024 12:43
1150 temp-at-nowhere 2024-04-03 11:43:08 11.99 °C x 99.9 % 2.673 V ttn-pfaffenrot -85 dBm 03.04.2024 11:43
1151 temp-at-nowhere 2024-04-03 10:43:08 9.96 °C x 99.9 % 2.674 V ttn-pfaffenrot -82 dBm 03.04.2024 10:43
1152 temp-at-nowhere 2024-04-03 09:43:09 8.71 °C x 99.9 % 2.675 V ttn-pfaffenrot -80 dBm 03.04.2024 09:43
1153 temp-at-nowhere 2024-04-03 08:43:10 8.97 °C x 99.9 % 2.673 V ttn-pfaffenrot -79 dBm 03.04.2024 08:43
1154 temp-at-nowhere 2024-04-03 07:43:11 9.42 °C x 99.9 % 2.674 V ttn-pfaffenrot -84 dBm 03.04.2024 07:43
1155 temp-at-nowhere 2024-04-03 06:43:12 11.13 °C x 99.9 % 2.675 V ttn-pfaffenrot -79 dBm 03.04.2024 06:43
1156 temp-at-nowhere 2024-04-03 05:43:12 11.79 °C x 99.9 % 2.675 V ttn-pfaffenrot -80 dBm 03.04.2024 05:43
1157 temp-at-nowhere 2024-04-03 04:43:13 11.1 °C x 99.9 % 2.674 V ttn-pfaffenrot -79 dBm 03.04.2024 04:43
1158 temp-at-nowhere 2024-04-03 03:43:14 10.18 °C x 99.9 % 2.675 V ttn-pfaffenrot -83 dBm 03.04.2024 03:43
1159 temp-at-nowhere 2024-04-03 02:43:15 10.23 °C x 99.9 % 2.675 V ttn-pfaffenrot -83 dBm 03.04.2024 02:43
1160 temp-at-nowhere 2024-04-03 01:43:15 11 °C x 99.9 % 2.673 V ttn-pfaffenrot -80 dBm 03.04.2024 01:43
1161 temp-at-nowhere 2024-04-03 00:43:16 10.83 °C x 99.9 % 2.674 V ttn-pfaffenrot -80 dBm 03.04.2024 00:43
1162 temp-at-nowhere 2024-04-02 23:43:17 10.72 °C x 99.9 % 2.674 V ttn-pfaffenrot -81 dBm 02.04.2024 23:43
1163 temp-at-nowhere 2024-04-02 22:43:18 11.02 °C x 99.9 % 2.676 V ttn-pfaffenrot -81 dBm 02.04.2024 22:43
1164 temp-at-nowhere 2024-04-02 21:43:18 10.57 °C x 99.9 % 2.675 V ttn-pfaffenrot -82 dBm 02.04.2024 21:43
1165 temp-at-nowhere 2024-04-02 20:43:19 9.92 °C x 95.3 % 2.674 V ttn-pfaffenrot -80 dBm 02.04.2024 20:43
1166 temp-at-nowhere 2024-04-02 19:43:20 10.7 °C x 96.1 % 2.675 V ttn-pfaffenrot -83 dBm 02.04.2024 19:43
1167 temp-at-nowhere 2024-04-02 18:43:21 11.32 °C x 98.3 % 2.675 V ttn-pfaffenrot -79 dBm 02.04.2024 18:43
1168 temp-at-nowhere 2024-04-02 17:43:21 11.64 °C x 99.9 % 2.674 V ttn-pfaffenrot -82 dBm 02.04.2024 17:43
1169 temp-at-nowhere 2024-04-02 16:43:22 11.72 °C x 99.9 % 2.675 V ttn-pfaffenrot -81 dBm 02.04.2024 16:43
1170 temp-at-nowhere 2024-04-02 15:43:23 11.79 °C x 99.9 % 2.675 V ttn-pfaffenrot -83 dBm 02.04.2024 15:43
1171 temp-at-nowhere 2024-04-02 14:43:24 11.44 °C x 99.9 % 2.675 V ttn-pfaffenrot -79 dBm 02.04.2024 14:43
1172 temp-at-nowhere 2024-04-02 13:43:24 11.32 °C x 99.9 % 2.675 V ttn-pfaffenrot -79 dBm 02.04.2024 13:43
1173 temp-at-nowhere 2024-04-02 12:43:25 10.01 °C x 99.9 % 2.675 V ttn-pfaffenrot -80 dBm 02.04.2024 12:43
1174 temp-at-nowhere 2024-04-02 11:43:26 9.36 °C x 99.9 % 2.674 V ttn-pfaffenrot -83 dBm 02.04.2024 11:43
1175 temp-at-nowhere 2024-04-02 10:43:27 7.82 °C x 99.9 % 2.674 V ttn-pfaffenrot -77 dBm 02.04.2024 10:43
1176 temp-at-nowhere 2024-04-02 09:43:27 6.98 °C x 99.9 % 2.676 V ttn-pfaffenrot -82 dBm 02.04.2024 09:43
1177 temp-at-nowhere 2024-04-02 08:43:28 6.56 °C x 99.9 % 2.674 V ttn-pfaffenrot -80 dBm 02.04.2024 08:43
1178 temp-at-nowhere 2024-04-02 07:43:29 7.32 °C x 99.9 % 2.674 V ttn-pfaffenrot -81 dBm 02.04.2024 07:43
1179 temp-at-nowhere 2024-04-02 06:43:30 8.69 °C x 99.9 % 2.675 V ttn-pfaffenrot -79 dBm 02.04.2024 06:43
1180 temp-at-nowhere 2024-04-02 05:43:30 9.56 °C x 99.9 % 2.675 V ttn-pfaffenrot -82 dBm 02.04.2024 05:43
1181 temp-at-nowhere 2024-04-02 04:43:31 9.24 °C x 99.9 % 2.674 V ttn-pfaffenrot -80 dBm 02.04.2024 04:43
1182 temp-at-nowhere 2024-04-02 03:43:32 8.73 °C x 99.9 % 2.674 V ttn-pfaffenrot -80 dBm 02.04.2024 03:43
1183 temp-at-nowhere 2024-04-02 02:43:33 8.58 °C x 99.9 % 2.675 V ttn-pfaffenrot -78 dBm 02.04.2024 02:43
1184 temp-at-nowhere 2024-04-02 01:43:33 8.56 °C x 99.9 % 2.674 V ttn-pfaffenrot -79 dBm 02.04.2024 01:43
1185 temp-at-nowhere 2024-04-02 00:43:34 8.62 °C x 99.9 % 2.674 V ttn-pfaffenrot -80 dBm 02.04.2024 00:43
1186 temp-at-nowhere 2024-04-01 23:43:35 8.99 °C x 99.9 % 2.675 V ttn-pfaffenrot -78 dBm 01.04.2024 23:43
1187 temp-at-nowhere 2024-04-01 22:43:36 9.1 °C x 99.9 % 2.675 V ttn-pfaffenrot -80 dBm 01.04.2024 22:43
1188 temp-at-nowhere 2024-04-01 21:43:36 8.67 °C x 99.9 % 2.674 V ttn-pfaffenrot -82 dBm 01.04.2024 21:43
1189 temp-at-nowhere 2024-04-01 20:43:37 8.35 °C x 99.9 % 2.676 V ttn-pfaffenrot -80 dBm 01.04.2024 20:43
1190 temp-at-nowhere 2024-04-01 19:43:38 8.73 °C x 99.9 % 2.676 V ttn-pfaffenrot -83 dBm 01.04.2024 19:43
1191 temp-at-nowhere 2024-04-01 18:43:39 9.14 °C x 99.9 % 2.676 V ttn-pfaffenrot -78 dBm 01.04.2024 18:43
1192 temp-at-nowhere 2024-04-01 17:43:39 9.17 °C x 99.9 % 2.674 V ttn-pfaffenrot -81 dBm 01.04.2024 17:43
1193 temp-at-nowhere 2024-04-01 16:43:40 8.91 °C x 99.9 % 2.675 V ttn-pfaffenrot -81 dBm 01.04.2024 16:43
1194 temp-at-nowhere 2024-04-01 15:43:41 8.12 °C x 99.9 % 2.675 V ttn-pfaffenrot -77 dBm 01.04.2024 15:43
1195 temp-at-nowhere 2024-04-01 14:43:42 7.46 °C x 99.9 % 2.675 V ttn-pfaffenrot -78 dBm 01.04.2024 14:43
1196 temp-at-nowhere 2024-04-01 13:43:42 7.5 °C x 99.9 % 2.674 V ttn-pfaffenrot -79 dBm 01.04.2024 13:43
1197 temp-at-nowhere 2024-04-01 12:43:43 7.92 °C x 99.9 % 2.675 V ttn-pfaffenrot -77 dBm 01.04.2024 12:43
1198 temp-at-nowhere 2024-04-01 11:43:44 7.96 °C x 99.9 % 2.675 V ttn-pfaffenrot -80 dBm 01.04.2024 11:43
1199 temp-at-nowhere 2024-04-01 10:43:45 8 °C x 99.9 % 2.676 V ttn-pfaffenrot -77 dBm 01.04.2024 10:43
1200 temp-at-nowhere 2024-04-01 09:43:45 8.3 °C x 99.9 % 2.676 V ttn-pfaffenrot -83 dBm 01.04.2024 09:43
1201 temp-at-nowhere 2024-04-01 08:43:46 9.26 °C x 99.9 % 2.678 V ttn-pfaffenrot -79 dBm 01.04.2024 08:43
1202 temp-at-nowhere 2024-04-01 07:43:47 11.47 °C x 99.9 % 2.677 V ttn-pfaffenrot -79 dBm 01.04.2024 07:43
1203 temp-at-nowhere 2024-04-01 06:43:48 12.02 °C x 99.9 % 2.676 V ttn-pfaffenrot -80 dBm 01.04.2024 06:43
1204 temp-at-nowhere 2024-04-01 05:43:48 12.29 °C x 99.9 % 2.678 V ttn-pfaffenrot -84 dBm 01.04.2024 05:43
1205 temp-at-nowhere 2024-04-01 04:43:49 11.92 °C x 99.9 % 2.677 V ttn-pfaffenrot -81 dBm 01.04.2024 04:43
1206 temp-at-nowhere 2024-04-01 03:43:50 11.82 °C x 99.9 % 2.677 V ttn-pfaffenrot -82 dBm 01.04.2024 03:43
1207 temp-at-nowhere 2024-04-01 02:43:51 12.13 °C x 99.9 % 2.677 V ttn-pfaffenrot -75 dBm 01.04.2024 02:43
1208 temp-at-nowhere 2024-04-01 01:43:51 13.02 °C x 99.9 % 2.677 V ttn-pfaffenrot -79 dBm 01.04.2024 01:43
1209 temp-at-nowhere 2024-04-01 00:43:52 13.68 °C x 99.9 % 2.676 V ttn-pfaffenrot -81 dBm 01.04.2024 00:43
1210 temp-at-nowhere 2024-03-31 23:43:53 14.24 °C x 99.9 % 2.678 V ttn-pfaffenrot -79 dBm 31.03.2024 23:43
1211 temp-at-nowhere 2024-03-31 22:43:54 14.42 °C x 99.9 % 2.677 V ttn-pfaffenrot -81 dBm 31.03.2024 22:43
1212 temp-at-nowhere 2024-03-31 21:43:54 14.59 °C x 99.9 % 2.677 V ttn-pfaffenrot -80 dBm 31.03.2024 21:43
1213 temp-at-nowhere 2024-03-31 20:43:55 14.13 °C x 99.9 % 2.677 V ttn-pfaffenrot -80 dBm 31.03.2024 20:43
1214 temp-at-nowhere 2024-03-31 19:43:56 15.2 °C x 99.9 % 2.677 V ttn-pfaffenrot -83 dBm 31.03.2024 19:43
1215 temp-at-nowhere 2024-03-31 18:43:57 16.02 °C x 99.9 % 2.677 V ttn-pfaffenrot -83 dBm 31.03.2024 18:43
1216 temp-at-nowhere 2024-03-31 17:43:57 16.91 °C x 99.9 % 2.678 V ttn-pfaffenrot -83 dBm 31.03.2024 17:43
1217 temp-at-nowhere 2024-03-31 16:43:58 17.54 °C x 99.9 % 2.678 V ttn-pfaffenrot -84 dBm 31.03.2024 16:43
1218 temp-at-nowhere 2024-03-31 15:43:59 17 °C x 99.9 % 2.677 V ttn-pfaffenrot -82 dBm 31.03.2024 15:43
1219 temp-at-nowhere 2024-03-31 14:44:00 16.91 °C x 99.9 % 2.676 V ttn-pfaffenrot -83 dBm 31.03.2024 14:44
1220 temp-at-nowhere 2024-03-31 13:44:00 15.37 °C x 99.9 % 2.676 V ttn-pfaffenrot -83 dBm 31.03.2024 13:44
1221 temp-at-nowhere 2024-03-31 12:44:01 13.81 °C x 99.9 % 2.677 V ttn-pfaffenrot -81 dBm 31.03.2024 12:44
1222 temp-at-nowhere 2024-03-31 11:44:02 13.11 °C x 99.9 % 2.677 V ttn-pfaffenrot -76 dBm 31.03.2024 11:44
1223 temp-at-nowhere 2024-03-31 10:44:03 12.19 °C x 99.9 % 2.676 V ttn-pfaffenrot -78 dBm 31.03.2024 10:44
1224 temp-at-nowhere 2024-03-31 09:44:04 10.18 °C x 99.9 % 2.676 V ttn-pfaffenrot -84 dBm 31.03.2024 09:44
1225 temp-at-nowhere 2024-03-31 08:44:04 9.43 °C x 99.9 % 2.676 V ttn-pfaffenrot -78 dBm 31.03.2024 08:44
1226 temp-at-nowhere 2024-03-31 07:44:05 11.28 °C x 99.9 % 2.677 V ttn-pfaffenrot -79 dBm 31.03.2024 07:44
1227 temp-at-nowhere 2024-03-31 06:44:06 11.5 °C x 99.9 % 2.676 V ttn-pfaffenrot -77 dBm 31.03.2024 06:44
1228 temp-at-nowhere 2024-03-31 05:44:07 11.3 °C x 99.9 % 2.678 V ttn-pfaffenrot -79 dBm 31.03.2024 05:44
1229 temp-at-nowhere 2024-03-31 04:44:07 11.57 °C x 99.9 % 2.676 V ttn-pfaffenrot -79 dBm 31.03.2024 04:44
1230 temp-at-nowhere 2024-03-31 03:44:08 11.09 °C x 99.9 % 2.676 V ttn-pfaffenrot -78 dBm 31.03.2024 03:44
1231 temp-at-nowhere 2024-03-31 01:44:09 10.84 °C x 99.9 % 2.677 V ttn-pfaffenrot -78 dBm 31.03.2024 01:44
1232 temp-at-nowhere 2024-03-31 00:44:10 11.52 °C x 99.9 % 2.676 V ttn-pfaffenrot -82 dBm 31.03.2024 00:44
1233 temp-at-nowhere 2024-03-30 23:44:11 11.78 °C x 99.9 % 2.677 V ttn-pfaffenrot -82 dBm 30.03.2024 23:44
1234 temp-at-nowhere 2024-03-30 22:44:11 11.43 °C x 99.9 % 2.675 V ttn-pfaffenrot -80 dBm 30.03.2024 22:44
1235 temp-at-nowhere 2024-03-30 21:44:12 10.99 °C x 99.9 % 2.675 V ttn-pfaffenrot -79 dBm 30.03.2024 21:44
1236 temp-at-nowhere 2024-03-30 20:44:13 10.75 °C x 99.9 % 2.676 V ttn-pfaffenrot -83 dBm 30.03.2024 20:44
1237 temp-at-nowhere 2024-03-30 19:44:14 11.6 °C x 99.9 % 2.675 V ttn-pfaffenrot -82 dBm 30.03.2024 19:44
1238 temp-at-nowhere 2024-03-30 18:44:14 12.62 °C x 99.1 % 2.675 V ttn-pfaffenrot -81 dBm 30.03.2024 18:44
1239 temp-at-nowhere 2024-03-30 17:44:15 13.51 °C x 97.5 % 2.678 V ttn-pfaffenrot -82 dBm 30.03.2024 17:44
1240 temp-at-nowhere 2024-03-30 16:44:16 13.67 °C x 97.4 % 2.68 V ttn-pfaffenrot -85 dBm 30.03.2024 16:44
1241 temp-at-nowhere 2024-03-30 15:44:17 13.78 °C x 97.6 % 2.675 V ttn-pfaffenrot -83 dBm 30.03.2024 15:44
1242 temp-at-nowhere 2024-03-30 14:44:18 13.3 °C x 99.2 % 2.676 V ttn-pfaffenrot -84 dBm 30.03.2024 14:44
1243 temp-at-nowhere 2024-03-30 13:44:18 13.04 °C x 99.5 % 2.678 V ttn-pfaffenrot -82 dBm 30.03.2024 13:44
1244 temp-at-nowhere 2024-03-30 12:44:19 13.81 °C x 96.3 % 2.677 V ttn-pfaffenrot -84 dBm 30.03.2024 12:44
1245 temp-at-nowhere 2024-03-30 11:44:20 14.97 °C x 94.9 % 2.676 V ttn-pfaffenrot -81 dBm 30.03.2024 11:44
1246 temp-at-nowhere 2024-03-30 10:44:21 14.42 °C x 99.9 % 2.677 V ttn-pfaffenrot -80 dBm 30.03.2024 10:44
1247 temp-at-nowhere 2024-03-30 09:44:22 14.03 °C x 99.9 % 2.678 V ttn-pfaffenrot -81 dBm 30.03.2024 09:44
1248 temp-at-nowhere 2024-03-30 08:44:23 13.61 °C x 99.9 % 2.677 V ttn-pfaffenrot -82 dBm 30.03.2024 08:44
1249 temp-at-nowhere 2024-03-30 07:44:23 13.46 °C x 99.9 % 2.677 V ttn-pfaffenrot -82 dBm 30.03.2024 07:44
1250 temp-at-nowhere 2024-03-30 06:44:24 14.52 °C x 99.9 % 2.676 V ttn-pfaffenrot -79 dBm 30.03.2024 06:44
1251 temp-at-nowhere 2024-03-30 05:44:25 14.17 °C x 99.9 % 2.677 V ttn-pfaffenrot -77 dBm 30.03.2024 05:44
1252 temp-at-nowhere 2024-03-30 04:44:26 12.87 °C x 99.9 % 2.675 V ttn-pfaffenrot -78 dBm 30.03.2024 04:44
1253 temp-at-nowhere 2024-03-30 03:44:27 12.07 °C x 99.9 % 2.675 V ttn-pfaffenrot -77 dBm 30.03.2024 03:44
1254 temp-at-nowhere 2024-03-30 02:44:28 11.42 °C x 99.9 % 2.676 V ttn-pfaffenrot -78 dBm 30.03.2024 02:44
1255 temp-at-nowhere 2024-03-30 01:44:28 11.22 °C x 99.9 % 2.677 V ttn-pfaffenrot -78 dBm 30.03.2024 01:44
1256 temp-at-nowhere 2024-03-30 00:44:29 11.69 °C x 99.9 % 2.675 V ttn-pfaffenrot -79 dBm 30.03.2024 00:44
1257 temp-at-nowhere 2024-03-29 23:44:30 12.1 °C x 99.9 % 2.676 V ttn-pfaffenrot -78 dBm 29.03.2024 23:44
1258 temp-at-nowhere 2024-03-29 22:44:31 12.38 °C x 99.9 % 2.675 V ttn-pfaffenrot -78 dBm 29.03.2024 22:44
1259 temp-at-nowhere 2024-03-29 21:44:32 12.01 °C x 99.9 % 2.677 V ttn-pfaffenrot -78 dBm 29.03.2024 21:44
1260 temp-at-nowhere 2024-03-29 20:44:33 10.89 °C x 99.9 % 2.677 V ttn-pfaffenrot -78 dBm 29.03.2024 20:44
1261 temp-at-nowhere 2024-03-29 19:44:33 11.52 °C x 99.9 % 2.676 V ttn-pfaffenrot -76 dBm 29.03.2024 19:44
1262 temp-at-nowhere 2024-03-29 18:44:34 12.21 °C x 99.9 % 2.675 V ttn-pfaffenrot -79 dBm 29.03.2024 18:44
1263 temp-at-nowhere 2024-03-29 17:44:35 12.73 °C x 99.9 % 2.677 V ttn-pfaffenrot -78 dBm 29.03.2024 17:44
1264 temp-at-nowhere 2024-03-29 16:44:36 12.95 °C x 99.9 % 2.676 V ttn-pfaffenrot -78 dBm 29.03.2024 16:44
1265 temp-at-nowhere 2024-03-29 15:44:37 12.91 °C x 99.9 % 2.677 V ttn-pfaffenrot -77 dBm 29.03.2024 15:44
1266 temp-at-nowhere 2024-03-29 14:44:38 12.98 °C x 99.9 % 2.677 V ttn-pfaffenrot -78 dBm 29.03.2024 14:44
1267 temp-at-nowhere 2024-03-29 13:44:38 13.37 °C x 99.9 % 2.676 V ttn-pfaffenrot -77 dBm 29.03.2024 13:44
1268 temp-at-nowhere 2024-03-29 12:44:39 12.61 °C x 99.9 % 2.676 V ttn-pfaffenrot -78 dBm 29.03.2024 12:44
1269 temp-at-nowhere 2024-03-29 11:44:40 10.88 °C x 99.9 % 2.675 V ttn-pfaffenrot -76 dBm 29.03.2024 11:44
1270 temp-at-nowhere 2024-03-29 10:44:41 10.11 °C x 99.9 % 2.675 V ttn-pfaffenrot -78 dBm 29.03.2024 10:44
1271 temp-at-nowhere 2024-03-29 09:44:42 9.49 °C x 99.9 % 2.675 V ttn-pfaffenrot -77 dBm 29.03.2024 09:44
1272 temp-at-nowhere 2024-03-29 08:44:43 10.23 °C x 99.9 % 2.675 V ttn-pfaffenrot -79 dBm 29.03.2024 08:44
1273 temp-at-nowhere 2024-03-29 07:44:43 10.95 °C x 99.9 % 2.676 V ttn-pfaffenrot -73 dBm 29.03.2024 07:44
1274 temp-at-nowhere 2024-03-29 06:44:44 12.36 °C x 99.9 % 2.678 V ttn-pfaffenrot -83 dBm 29.03.2024 06:44
1275 temp-at-nowhere 2024-03-29 05:44:45 11.7 °C x 99.9 % 2.677 V ttn-pfaffenrot -79 dBm 29.03.2024 05:44
1276 temp-at-nowhere 2024-03-29 04:44:46 10.67 °C x 99.9 % 2.676 V ttn-pfaffenrot -79 dBm 29.03.2024 04:44
1277 temp-at-nowhere 2024-03-29 03:44:47 9.48 °C x 99.9 % 2.676 V ttn-pfaffenrot -78 dBm 29.03.2024 03:44
1278 temp-at-nowhere 2024-03-29 02:44:48 8.79 °C x 99.9 % 2.676 V ttn-pfaffenrot -82 dBm 29.03.2024 02:44
1279 temp-at-nowhere 2024-03-29 01:44:49 9.18 °C x 99.9 % 2.676 V ttn-pfaffenrot -79 dBm 29.03.2024 01:44
1280 temp-at-nowhere 2024-03-29 00:44:49 9.27 °C x 99.9 % 2.674 V ttn-pfaffenrot -78 dBm 29.03.2024 00:44
1281 temp-at-nowhere 2024-03-28 23:44:50 8.69 °C x 99.9 % 2.674 V ttn-pfaffenrot -82 dBm 28.03.2024 23:44
1282 temp-at-nowhere 2024-03-28 22:44:51 8.53 °C x 99.9 % 2.673 V ttn-pfaffenrot -77 dBm 28.03.2024 22:44
1283 temp-at-nowhere 2024-03-28 21:44:52 7.85 °C x 99.9 % 2.675 V ttn-pfaffenrot -78 dBm 28.03.2024 21:44
1284 temp-at-nowhere 2024-03-28 20:44:53 7.1 °C x 99.9 % 2.676 V ttn-pfaffenrot -78 dBm 28.03.2024 20:44
1285 temp-at-nowhere 2024-03-28 19:44:54 7.54 °C x 99.9 % 2.675 V ttn-pfaffenrot -78 dBm 28.03.2024 19:44
1286 temp-at-nowhere 2024-03-28 18:44:54 8.01 °C x 99.9 % 2.676 V ttn-pfaffenrot -81 dBm 28.03.2024 18:44
1287 temp-at-nowhere 2024-03-28 17:44:55 8.09 °C x 99.9 % 2.674 V ttn-pfaffenrot -77 dBm 28.03.2024 17:44
1288 temp-at-nowhere 2024-03-28 16:44:56 8 °C x 99.9 % 2.675 V ttn-pfaffenrot -77 dBm 28.03.2024 16:44
1289 temp-at-nowhere 2024-03-28 15:44:57 8.54 °C x 99.9 % 2.675 V ttn-pfaffenrot -78 dBm 28.03.2024 15:44
1290 temp-at-nowhere 2024-03-28 14:44:58 8.52 °C x 99.9 % 2.675 V ttn-pfaffenrot -78 dBm 28.03.2024 14:44
1291 temp-at-nowhere 2024-03-28 13:44:59 8.65 °C x 99.9 % 2.677 V ttn-pfaffenrot -76 dBm 28.03.2024 13:44
1292 temp-at-nowhere 2024-03-28 12:45:00 10.34 °C x 99.9 % 2.676 V ttn-pfaffenrot -79 dBm 28.03.2024 12:45
1293 temp-at-nowhere 2024-03-28 11:45:00 9 °C x 99.9 % 2.674 V ttn-pfaffenrot -77 dBm 28.03.2024 11:45
1294 temp-at-nowhere 2024-03-28 10:45:01 6.55 °C x 99.9 % 2.676 V ttn-pfaffenrot -76 dBm 28.03.2024 10:45
1295 temp-at-nowhere 2024-03-28 09:45:02 5.89 °C x 99.9 % 2.676 V ttn-pfaffenrot -78 dBm 28.03.2024 09:45
1296 temp-at-nowhere 2024-03-28 08:45:03 5.31 °C x 99.9 % 2.675 V ttn-pfaffenrot -79 dBm 28.03.2024 08:45
1297 temp-at-nowhere 2024-03-28 07:45:04 5.54 °C x 99.9 % 2.675 V ttn-pfaffenrot -78 dBm 28.03.2024 07:45
1298 temp-at-nowhere 2024-03-28 06:45:05 6.93 °C x 99.9 % 2.677 V ttn-pfaffenrot -81 dBm 28.03.2024 06:45
1299 temp-at-nowhere 2024-03-28 05:45:05 5.94 °C x 99.9 % 2.675 V ttn-pfaffenrot -77 dBm 28.03.2024 05:45
1300 temp-at-nowhere 2024-03-28 04:45:06 5.31 °C x 99.9 % 2.675 V ttn-pfaffenrot -81 dBm 28.03.2024 04:45
1301 temp-at-nowhere 2024-03-28 03:45:07 5.15 °C x 99.9 % 2.676 V ttn-pfaffenrot -79 dBm 28.03.2024 03:45
1302 temp-at-nowhere 2024-03-28 02:45:08 6.22 °C x 99.9 % 2.677 V ttn-pfaffenrot -81 dBm 28.03.2024 02:45
1303 temp-at-nowhere 2024-03-28 01:45:09 6.98 °C x 99.9 % 2.676 V ttn-pfaffenrot -79 dBm 28.03.2024 01:45
1304 temp-at-nowhere 2024-03-28 00:45:10 7.28 °C x 99.9 % 2.676 V ttn-pfaffenrot -83 dBm 28.03.2024 00:45
1305 temp-at-nowhere 2024-03-27 23:45:10 7.71 °C x 99.9 % 2.677 V ttn-pfaffenrot -81 dBm 27.03.2024 23:45
1306 temp-at-nowhere 2024-03-27 22:45:11 7.47 °C x 99.9 % 2.675 V ttn-pfaffenrot -84 dBm 27.03.2024 22:45
1307 temp-at-nowhere 2024-03-27 21:45:12 6.96 °C x 99.9 % 2.677 V ttn-pfaffenrot -78 dBm 27.03.2024 21:45
1308 temp-at-nowhere 2024-03-27 20:45:13 5.93 °C x 99.9 % 2.676 V ttn-pfaffenrot -79 dBm 27.03.2024 20:45
1309 temp-at-nowhere 2024-03-27 19:45:14 6.16 °C x 99.9 % 2.676 V ttn-pfaffenrot -79 dBm 27.03.2024 19:45
1310 temp-at-nowhere 2024-03-27 18:45:17 6.55 °C x 99.9 % 2.676 V ttn-pfaffenrot -79 dBm 27.03.2024 18:45
1311 temp-at-nowhere 2024-03-27 17:45:16 6.96 °C x 99.9 % 2.678 V ttn-pfaffenrot -79 dBm 27.03.2024 17:45
1312 temp-at-nowhere 2024-03-27 16:45:20 7.25 °C x 99.9 % 2.676 V ttn-pfaffenrot -82 dBm 27.03.2024 16:45
1313 temp-at-nowhere 2024-03-27 15:45:27 7.8 °C x 99.9 % 2.677 V ttn-pfaffenrot -80 dBm 27.03.2024 15:45
1314 temp-at-nowhere 2024-03-27 14:45:18 8.82 °C x 99.9 % 2.679 V ttn-pfaffenrot -81 dBm 27.03.2024 14:45
1315 temp-at-nowhere 2024-03-27 13:45:19 8.35 °C x 99.9 % 2.679 V ttn-pfaffenrot -78 dBm 27.03.2024 13:45
1316 temp-at-nowhere 2024-03-27 12:45:20 7.82 °C x 99.9 % 2.677 V ttn-pfaffenrot -78 dBm 27.03.2024 12:45
1317 temp-at-nowhere 2024-03-27 11:45:21 8.44 °C x 99.9 % 2.678 V ttn-pfaffenrot -80 dBm 27.03.2024 11:45
1318 temp-at-nowhere 2024-03-27 10:45:22 9.65 °C x 99.9 % 2.679 V ttn-pfaffenrot -79 dBm 27.03.2024 10:45
1319 temp-at-nowhere 2024-03-27 09:45:22 9.23 °C x 99.9 % 2.678 V ttn-pfaffenrot -81 dBm 27.03.2024 09:45
1320 temp-at-nowhere 2024-03-27 08:45:23 8.2 °C x 99.9 % 2.677 V ttn-pfaffenrot -80 dBm 27.03.2024 08:45
1321 temp-at-nowhere 2024-03-27 07:45:24 8.1 °C x 99.9 % 2.677 V ttn-pfaffenrot -79 dBm 27.03.2024 07:45
1322 temp-at-nowhere 2024-03-27 06:45:25 10.21 °C x 99.9 % 2.678 V ttn-pfaffenrot -77 dBm 27.03.2024 06:45
1323 temp-at-nowhere 2024-03-27 05:45:26 9.71 °C x 99.9 % 2.679 V ttn-pfaffenrot -77 dBm 27.03.2024 05:45
1324 temp-at-nowhere 2024-03-27 04:45:27 11.22 °C x 99.9 % 2.68 V ttn-pfaffenrot -81 dBm 27.03.2024 04:45
1325 temp-at-nowhere 2024-03-27 03:45:28 11.34 °C x 99.9 % 2.679 V ttn-pfaffenrot -79 dBm 27.03.2024 03:45
1326 temp-at-nowhere 2024-03-27 02:45:29 11.92 °C x 99.9 % 2.68 V ttn-pfaffenrot -78 dBm 27.03.2024 02:45
1327 temp-at-nowhere 2024-03-27 01:45:29 12.44 °C x 99.9 % 2.679 V ttn-pfaffenrot -78 dBm 27.03.2024 01:45
1328 temp-at-nowhere 2024-03-27 00:45:30 12.52 °C x 99.9 % 2.679 V ttn-pfaffenrot -82 dBm 27.03.2024 00:45
1329 temp-at-nowhere 2024-03-26 23:45:31 12.76 °C x 99.9 % 2.678 V ttn-pfaffenrot -80 dBm 26.03.2024 23:45
1330 temp-at-nowhere 2024-03-26 22:45:32 12.48 °C x 99.9 % 2.679 V ttn-pfaffenrot -81 dBm 26.03.2024 22:45
1331 temp-at-nowhere 2024-03-26 21:45:33 11.57 °C x 99.9 % 2.679 V ttn-pfaffenrot -76 dBm 26.03.2024 21:45
1332 temp-at-nowhere 2024-03-26 20:45:34 10.82 °C x 96.7 % 2.677 V ttn-pfaffenrot -82 dBm 26.03.2024 20:45
1333 temp-at-nowhere 2024-03-26 19:45:35 11.55 °C x 96.3 % 2.679 V ttn-pfaffenrot -82 dBm 26.03.2024 19:45
1334 temp-at-nowhere 2024-03-26 18:45:36 12.35 °C x 95.3 % 2.678 V ttn-pfaffenrot -82 dBm 26.03.2024 18:45
1335 temp-at-nowhere 2024-03-26 17:45:36 13.21 °C x 94 % 2.679 V ttn-pfaffenrot -80 dBm 26.03.2024 17:45
1336 temp-at-nowhere 2024-03-26 16:45:37 14.15 °C x 92.9 % 2.68 V ttn-pfaffenrot -80 dBm 26.03.2024 16:45
1337 temp-at-nowhere 2024-03-26 15:45:38 15.38 °C x 93 % 2.68 V ttn-pfaffenrot -82 dBm 26.03.2024 15:45
1338 temp-at-nowhere 2024-03-26 14:45:39 16.74 °C x 97 % 2.68 V ttn-pfaffenrot -78 dBm 26.03.2024 14:45
1339 temp-at-nowhere 2024-03-26 13:45:40 15.55 °C x 99.9 % 2.678 V ttn-pfaffenrot -74 dBm 26.03.2024 13:45
1340 temp-at-nowhere 2024-03-26 12:45:41 13.75 °C x 99.9 % 2.679 V ttn-pfaffenrot -83 dBm 26.03.2024 12:45
1341 temp-at-nowhere 2024-03-26 11:45:42 12.27 °C x 99.9 % 2.678 V ttn-pfaffenrot -78 dBm 26.03.2024 11:45
1342 temp-at-nowhere 2024-03-26 10:45:42 9.11 °C x 99.9 % 2.677 V ttn-pfaffenrot -82 dBm 26.03.2024 10:45
1343 temp-at-nowhere 2024-03-26 09:45:43 7 °C x 99.9 % 2.676 V ttn-pfaffenrot -77 dBm 26.03.2024 09:45
1344 temp-at-nowhere 2024-03-26 08:45:44 5.79 °C x 99.9 % 2.676 V ttn-pfaffenrot -82 dBm 26.03.2024 08:45
1345 temp-at-nowhere 2024-03-26 07:45:45 5.62 °C x 99.9 % 2.677 V ttn-pfaffenrot -80 dBm 26.03.2024 07:45
1346 temp-at-nowhere 2024-03-26 06:45:46 7.13 °C x 99.9 % 2.677 V ttn-pfaffenrot -78 dBm 26.03.2024 06:45
1347 temp-at-nowhere 2024-03-26 05:45:47 6.41 °C x 99.9 % 2.677 V ttn-pfaffenrot -77 dBm 26.03.2024 05:45
1348 temp-at-nowhere 2024-03-26 04:45:48 7.09 °C x 99.9 % 2.677 V ttn-pfaffenrot -79 dBm 26.03.2024 04:45
1349 temp-at-nowhere 2024-03-26 03:45:49 7.09 °C x 99.9 % 2.678 V ttn-pfaffenrot -75 dBm 26.03.2024 03:45
1350 temp-at-nowhere 2024-03-26 02:45:49 6.46 °C x 99.9 % 2.677 V ttn-pfaffenrot -78 dBm 26.03.2024 02:45
1351 temp-at-nowhere 2024-03-26 01:45:50 6.26 °C x 99.9 % 2.677 V ttn-pfaffenrot -79 dBm 26.03.2024 01:45
1352 temp-at-nowhere 2024-03-26 00:45:51 6.66 °C x 99.9 % 2.678 V ttn-pfaffenrot -78 dBm 26.03.2024 00:45
1353 temp-at-nowhere 2024-03-25 23:45:52 6.8 °C x 99.9 % 2.679 V ttn-pfaffenrot -78 dBm 25.03.2024 23:45
1354 temp-at-nowhere 2024-03-25 22:45:53 6.89 °C x 99.9 % 2.678 V ttn-pfaffenrot -79 dBm 25.03.2024 22:45
1355 temp-at-nowhere 2024-03-25 21:45:54 6.75 °C x 99.9 % 2.679 V ttn-pfaffenrot -79 dBm 25.03.2024 21:45
1356 temp-at-nowhere 2024-03-25 20:45:54 6.25 °C x 99.9 % 2.679 V ttn-pfaffenrot -81 dBm 25.03.2024 20:45
1357 temp-at-nowhere 2024-03-25 19:45:55 7.3 °C x 99.4 % 2.678 V ttn-pfaffenrot -82 dBm 25.03.2024 19:45
1358 temp-at-nowhere 2024-03-25 18:45:56 8.44 °C x 97.8 % 2.679 V ttn-pfaffenrot -74 dBm 25.03.2024 18:45
1359 temp-at-nowhere 2024-03-25 17:45:57 9.21 °C x 98.8 % 2.679 V ttn-pfaffenrot -78 dBm 25.03.2024 17:45
1360 temp-at-nowhere 2024-03-25 16:45:58 10.05 °C x 99.9 % 2.681 V ttn-pfaffenrot -79 dBm 25.03.2024 16:45
1361 temp-at-nowhere 2024-03-25 15:45:58 11.62 °C x 99.9 % 2.681 V ttn-pfaffenrot -75 dBm 25.03.2024 15:45
1362 temp-at-nowhere 2024-03-25 14:45:59 12.48 °C x 99.9 % 2.68 V ttn-pfaffenrot -79 dBm 25.03.2024 14:45
1363 temp-at-nowhere 2024-03-25 13:46:00 11.02 °C x 99.9 % 2.679 V ttn-pfaffenrot -78 dBm 25.03.2024 13:46
1364 temp-at-nowhere 2024-03-25 12:46:01 10.49 °C x 99.9 % 2.68 V ttn-pfaffenrot -78 dBm 25.03.2024 12:46
1365 temp-at-nowhere 2024-03-25 11:46:01 9.34 °C x 99.9 % 2.679 V ttn-pfaffenrot -77 dBm 25.03.2024 11:46
1366 temp-at-nowhere 2024-03-25 10:46:02 7.8 °C x 99.9 % 2.678 V ttn-pfaffenrot -78 dBm 25.03.2024 10:46
1367 temp-at-nowhere 2024-03-25 09:46:03 7.3 °C x 99.9 % 2.678 V ttn-pfaffenrot -76 dBm 25.03.2024 09:46
1368 temp-at-nowhere 2024-03-25 08:46:04 5.21 °C x 99.9 % 2.677 V ttn-pfaffenrot -78 dBm 25.03.2024 08:46
1369 temp-at-nowhere 2024-03-25 07:46:05 5.07 °C x 99.9 % 2.678 V ttn-pfaffenrot -74 dBm 25.03.2024 07:46
1370 temp-at-nowhere 2024-03-25 06:46:06 7.11 °C x 99.9 % 2.677 V ttn-pfaffenrot -76 dBm 25.03.2024 06:46
1371 temp-at-nowhere 2024-03-25 05:46:07 6.15 °C x 99.9 % 2.678 V ttn-pfaffenrot -77 dBm 25.03.2024 05:46
1372 temp-at-nowhere 2024-03-25 04:46:08 6.58 °C x 99.9 % 2.679 V ttn-pfaffenrot -76 dBm 25.03.2024 04:46
1373 temp-at-nowhere 2024-03-25 03:46:09 6.58 °C x 99.9 % 2.678 V ttn-pfaffenrot -76 dBm 25.03.2024 03:46
1374 temp-at-nowhere 2024-03-25 02:46:09 5.74 °C x 99.9 % 2.679 V ttn-pfaffenrot -79 dBm 25.03.2024 02:46
1375 temp-at-nowhere 2024-03-25 01:46:10 5.83 °C x 99.9 % 2.678 V ttn-pfaffenrot -76 dBm 25.03.2024 01:46
1376 temp-at-nowhere 2024-03-25 00:46:11 6 °C x 99.9 % 2.679 V ttn-pfaffenrot -75 dBm 25.03.2024 00:46
1377 temp-at-nowhere 2024-03-24 23:46:12 6.63 °C x 99.9 % 2.678 V ttn-pfaffenrot -74 dBm 24.03.2024 23:46
1378 temp-at-nowhere 2024-03-24 22:46:13 5.65 °C x 99.9 % 2.678 V ttn-pfaffenrot -78 dBm 24.03.2024 22:46
1379 temp-at-nowhere 2024-03-24 21:46:14 4.78 °C x 99.9 % 2.678 V ttn-pfaffenrot -76 dBm 24.03.2024 21:46
1380 temp-at-nowhere 2024-03-24 20:46:15 4.11 °C x 99.9 % 2.677 V ttn-pfaffenrot -74 dBm 24.03.2024 20:46
1381 temp-at-nowhere 2024-03-24 19:46:16 3.85 °C x 99.9 % 2.677 V ttn-pfaffenrot -76 dBm 24.03.2024 19:46
1382 temp-at-nowhere 2024-03-24 18:46:17 4.06 °C x 99.9 % 2.679 V ttn-pfaffenrot -77 dBm 24.03.2024 18:46
1383 temp-at-nowhere 2024-03-24 17:46:18 4.43 °C x 99.9 % 2.679 V ttn-pfaffenrot -77 dBm 24.03.2024 17:46
1384 temp-at-nowhere 2024-03-24 16:46:18 4.6 °C x 99.9 % 2.679 V ttn-pfaffenrot -76 dBm 24.03.2024 16:46
1385 temp-at-nowhere 2024-03-24 15:46:19 4.61 °C x 99.9 % 2.678 V ttn-pfaffenrot -75 dBm 24.03.2024 15:46
1386 temp-at-nowhere 2024-03-24 14:46:20 4.45 °C x 99.9 % 2.678 V ttn-pfaffenrot -76 dBm 24.03.2024 14:46
1387 temp-at-nowhere 2024-03-24 13:46:21 3.53 °C x 99.9 % 2.677 V ttn-pfaffenrot -75 dBm 24.03.2024 13:46
1388 temp-at-nowhere 2024-03-24 12:46:22 4.12 °C x 99.9 % 2.679 V ttn-pfaffenrot -74 dBm 24.03.2024 12:46
1389 temp-at-nowhere 2024-03-24 11:46:23 4.55 °C x 99.9 % 2.679 V ttn-pfaffenrot -76 dBm 24.03.2024 11:46
1390 temp-at-nowhere 2024-03-24 10:46:24 3.75 °C x 99.9 % 2.679 V ttn-pfaffenrot -77 dBm 24.03.2024 10:46
1391 temp-at-nowhere 2024-03-24 09:46:25 3.73 °C x 99.9 % 2.679 V ttn-pfaffenrot -74 dBm 24.03.2024 09:46
1392 temp-at-nowhere 2024-03-24 08:46:26 3.13 °C x 99.9 % 2.68 V ttn-pfaffenrot -74 dBm 24.03.2024 08:46
1393 temp-at-nowhere 2024-03-24 07:46:27 3.09 °C x 99.9 % 2.68 V ttn-pfaffenrot -73 dBm 24.03.2024 07:46
1394 temp-at-nowhere 2024-03-24 06:46:28 4.93 °C x 99.9 % 2.681 V ttn-pfaffenrot -78 dBm 24.03.2024 06:46
1395 temp-at-nowhere 2024-03-24 05:46:29 4.11 °C x 99.9 % 2.679 V ttn-pfaffenrot -76 dBm 24.03.2024 05:46
1396 temp-at-nowhere 2024-03-24 04:46:29 4.63 °C x 99.9 % 2.679 V ttn-pfaffenrot -77 dBm 24.03.2024 04:46
1397 temp-at-nowhere 2024-03-24 03:46:31 5.1 °C x 99.9 % 2.678 V ttn-pfaffenrot -74 dBm 24.03.2024 03:46
1398 temp-at-nowhere 2024-03-24 02:46:31 4.3 °C x 99.9 % 2.68 V ttn-pfaffenrot -79 dBm 24.03.2024 02:46
1399 temp-at-nowhere 2024-03-24 01:46:32 4.55 °C x 99.9 % 2.68 V ttn-pfaffenrot -74 dBm 24.03.2024 01:46
1400 temp-at-nowhere 2024-03-24 00:46:33 4.89 °C x 99.9 % 2.681 V ttn-pfaffenrot -73 dBm 24.03.2024 00:46
1401 temp-at-nowhere 2024-03-23 23:46:34 4.69 °C x 99.9 % 2.681 V ttn-pfaffenrot -75 dBm 23.03.2024 23:46
1402 temp-at-nowhere 2024-03-23 22:46:35 4.18 °C x 99.9 % 2.679 V ttn-pfaffenrot -78 dBm 23.03.2024 22:46
1403 temp-at-nowhere 2024-03-23 21:46:36 3.66 °C x 99.9 % 2.68 V ttn-pfaffenrot -75 dBm 23.03.2024 21:46
1404 temp-at-nowhere 2024-03-23 20:46:37 2.82 °C x 99.9 % 2.679 V ttn-pfaffenrot -79 dBm 23.03.2024 20:46
1405 temp-at-nowhere 2024-03-23 19:46:38 3.26 °C x 99.9 % 2.681 V ttn-pfaffenrot -75 dBm 23.03.2024 19:46
1406 temp-at-nowhere 2024-03-23 18:46:39 3.99 °C x 99.9 % 2.683 V ttn-pfaffenrot -79 dBm 23.03.2024 18:46
1407 temp-at-nowhere 2024-03-23 17:46:40 5.22 °C x 99.9 % 2.682 V ttn-pfaffenrot -78 dBm 23.03.2024 17:46
1408 temp-at-nowhere 2024-03-23 16:46:40 5.51 °C x 99.9 % 2.681 V ttn-pfaffenrot -79 dBm 23.03.2024 16:46
1409 temp-at-nowhere 2024-03-23 15:46:41 5.54 °C x 99.9 % 2.681 V ttn-pfaffenrot -78 dBm 23.03.2024 15:46
1410 temp-at-nowhere 2024-03-23 14:46:42 6.86 °C x 99.9 % 2.682 V ttn-pfaffenrot -79 dBm 23.03.2024 14:46
1411 temp-at-nowhere 2024-03-23 13:46:43 8.65 °C x 99.9 % 2.682 V ttn-pfaffenrot -78 dBm 23.03.2024 13:46
1412 temp-at-nowhere 2024-03-23 12:46:44 7.35 °C x 99.9 % 2.682 V ttn-pfaffenrot -78 dBm 23.03.2024 12:46
1413 temp-at-nowhere 2024-03-23 11:46:45 6.89 °C x 99.9 % 2.682 V ttn-pfaffenrot -78 dBm 23.03.2024 11:46
1414 temp-at-nowhere 2024-03-23 10:46:46 8.54 °C x 99.9 % 2.683 V ttn-pfaffenrot -81 dBm 23.03.2024 10:46
1415 temp-at-nowhere 2024-03-23 09:46:47 7.23 °C x 99.9 % 2.682 V ttn-pfaffenrot -76 dBm 23.03.2024 09:46
1416 temp-at-nowhere 2024-03-23 08:46:48 7.42 °C x 99.9 % 2.683 V ttn-pfaffenrot -79 dBm 23.03.2024 08:46
1417 temp-at-nowhere 2024-03-23 07:46:49 8.42 °C x 99.9 % 2.685 V ttn-pfaffenrot -84 dBm 23.03.2024 07:46
1418 temp-at-nowhere 2024-03-23 06:46:50 11.81 °C x 99.9 % 2.683 V ttn-pfaffenrot -78 dBm 23.03.2024 06:46
1419 temp-at-nowhere 2024-03-23 05:46:51 12.56 °C x 99.9 % 2.685 V ttn-pfaffenrot -84 dBm 23.03.2024 05:46
1420 temp-at-nowhere 2024-03-23 04:46:52 13.77 °C x 99.9 % 2.685 V ttn-pfaffenrot -78 dBm 23.03.2024 04:46
1421 temp-at-nowhere 2024-03-23 03:46:53 13.35 °C x 99.9 % 2.684 V ttn-pfaffenrot -83 dBm 23.03.2024 03:46
1422 temp-at-nowhere 2024-03-23 02:46:54 12.93 °C x 99.9 % 2.684 V ttn-pfaffenrot -79 dBm 23.03.2024 02:46
1423 temp-at-nowhere 2024-03-23 01:46:55 12.74 °C x 99.9 % 2.684 V ttn-pfaffenrot -83 dBm 23.03.2024 01:46
1424 temp-at-nowhere 2024-03-23 00:46:56 12.72 °C x 99.9 % 2.686 V ttn-pfaffenrot -79 dBm 23.03.2024 00:46
1425 temp-at-nowhere 2024-03-22 23:46:57 12.75 °C x 99.9 % 2.685 V ttn-pfaffenrot -91 dBm 22.03.2024 23:46
1426 temp-at-nowhere 2024-03-22 22:46:58 12.98 °C x 99.9 % 2.684 V ttn-pfaffenrot -79 dBm 22.03.2024 22:46
1427 temp-at-nowhere 2024-03-22 21:46:59 12.61 °C x 99.9 % 2.684 V ttn-pfaffenrot -91 dBm 22.03.2024 21:46
1428 temp-at-nowhere 2024-03-22 20:47:00 12.59 °C x 99.1 % 2.684 V ttn-pfaffenrot -81 dBm 22.03.2024 20:47
1429 temp-at-nowhere 2024-03-22 19:47:01 13.85 °C x 97.6 % 2.684 V ttn-pfaffenrot -91 dBm 22.03.2024 19:47
1430 temp-at-nowhere 2024-03-22 18:47:02 15 °C x 95.8 % 2.685 V ttn-pfaffenrot -81 dBm 22.03.2024 18:47
1431 temp-at-nowhere 2024-03-22 17:47:03 15.53 °C x 94 % 2.685 V ttn-pfaffenrot -85 dBm 22.03.2024 17:47
1432 temp-at-nowhere 2024-03-22 16:47:03 15.76 °C x 94.1 % 2.685 V ttn-pfaffenrot -83 dBm 22.03.2024 16:47
1433 temp-at-nowhere 2024-03-22 15:47:04 16.3 °C x 93.4 % 2.685 V ttn-pfaffenrot -89 dBm 22.03.2024 15:47
1434 temp-at-nowhere 2024-03-22 14:47:05 16.7 °C x 94.8 % 2.684 V ttn-pfaffenrot -84 dBm 22.03.2024 14:47
1435 temp-at-nowhere 2024-03-22 13:47:05 16.47 °C x 97.9 % 2.684 V ttn-pfaffenrot -90 dBm 22.03.2024 13:47
1436 temp-at-nowhere 2024-03-22 12:47:06 16.79 °C x 99.9 % 2.686 V ttn-pfaffenrot -78 dBm 22.03.2024 12:47
1437 temp-at-nowhere 2024-03-22 11:47:07 16.6 °C x 99.9 % 2.683 V ttn-pfaffenrot -87 dBm 22.03.2024 11:47
1438 temp-at-nowhere 2024-03-22 10:47:08 16.35 °C x 99.9 % 2.683 V ttn-pfaffenrot -84 dBm 22.03.2024 10:47
1439 temp-at-nowhere 2024-03-22 09:47:08 14.41 °C x 99.9 % 2.683 V ttn-pfaffenrot -81 dBm 22.03.2024 09:47
1440 temp-at-nowhere 2024-03-22 08:47:09 11.45 °C x 99.9 % 2.682 V ttn-pfaffenrot -81 dBm 22.03.2024 08:47
1441 temp-at-nowhere 2024-03-22 07:47:10 10.05 °C x 99.9 % 2.684 V ttn-pfaffenrot -83 dBm 22.03.2024 07:47
1442 temp-at-nowhere 2024-03-22 06:47:11 11.64 °C x 99.9 % 2.684 V ttn-pfaffenrot -80 dBm 22.03.2024 06:47
1443 temp-at-nowhere 2024-03-22 05:47:12 10.77 °C x 99.9 % 2.682 V ttn-pfaffenrot -76 dBm 22.03.2024 05:47
1444 temp-at-nowhere 2024-03-22 04:47:13 11.37 °C x 99.9 % 2.684 V ttn-pfaffenrot -79 dBm 22.03.2024 04:47
1445 temp-at-nowhere 2024-03-22 03:47:14 11.17 °C x 99.9 % 2.683 V ttn-pfaffenrot -85 dBm 22.03.2024 03:47
1446 temp-at-nowhere 2024-03-22 02:47:15 10.53 °C x 99.9 % 2.683 V ttn-pfaffenrot -79 dBm 22.03.2024 02:47
1447 temp-at-nowhere 2024-03-22 01:47:16 11.03 °C x 99.9 % 2.684 V ttn-pfaffenrot -85 dBm 22.03.2024 01:47
1448 temp-at-nowhere 2024-03-22 00:47:16 11.76 °C x 99.9 % 2.684 V ttn-pfaffenrot -79 dBm 22.03.2024 00:47
1449 temp-at-nowhere 2024-03-21 23:47:17 12.36 °C x 99.9 % 2.684 V ttn-pfaffenrot -85 dBm 21.03.2024 23:47
1450 temp-at-nowhere 2024-03-21 22:47:18 12.74 °C x 99.9 % 2.684 V ttn-pfaffenrot -78 dBm 21.03.2024 22:47
1451 temp-at-nowhere 2024-03-21 21:47:19 12.66 °C x 99.9 % 2.686 V ttn-pfaffenrot -83 dBm 21.03.2024 21:47
1452 temp-at-nowhere 2024-03-21 20:47:20 12.47 °C x 99.9 % 2.685 V ttn-pfaffenrot -80 dBm 21.03.2024 20:47
1453 temp-at-nowhere 2024-03-21 19:47:20 13.35 °C x 99.9 % 2.686 V ttn-pfaffenrot -87 dBm 21.03.2024 19:47
1454 temp-at-nowhere 2024-03-21 18:47:21 14.42 °C x 99.2 % 2.685 V ttn-pfaffenrot -78 dBm 21.03.2024 18:47
1455 temp-at-nowhere 2024-03-21 17:47:22 15.34 °C x 95.9 % 2.685 V ttn-pfaffenrot -101 dBm 21.03.2024 17:47
1456 temp-at-nowhere 2024-03-21 16:47:23 15.98 °C x 98.4 % 2.685 V ttn-pfaffenrot -82 dBm 21.03.2024 16:47
1457 temp-at-nowhere 2024-03-21 15:47:23 17.31 °C x 96.6 % 2.685 V ttn-pfaffenrot -95 dBm 21.03.2024 15:47
1458 temp-at-nowhere 2024-03-21 14:47:24 18.66 °C x 99.9 % 2.683 V ttn-pfaffenrot -85 dBm 21.03.2024 14:47
1459 temp-at-nowhere 2024-03-21 13:47:25 17.25 °C x 99.9 % 2.684 V ttn-pfaffenrot -85 dBm 21.03.2024 13:47
1460 temp-at-nowhere 2024-03-21 12:47:25 17.62 °C x 99.9 % 2.684 V ttn-pfaffenrot -81 dBm 21.03.2024 12:47
1461 temp-at-nowhere 2024-03-21 11:47:26 16.5 °C x 99.9 % 2.685 V ttn-pfaffenrot -85 dBm 21.03.2024 11:47
1462 temp-at-nowhere 2024-03-21 10:47:27 14.7 °C x 99.9 % 2.684 V ttn-pfaffenrot -77 dBm 21.03.2024 10:47
1463 temp-at-nowhere 2024-03-21 09:47:27 13.54 °C x 99.9 % 2.685 V ttn-pfaffenrot -84 dBm 21.03.2024 09:47
1464 temp-at-nowhere 2024-03-21 08:47:28 12.48 °C x 99.9 % 2.683 V ttn-pfaffenrot -82 dBm 21.03.2024 08:47
1465 temp-at-nowhere 2024-03-21 07:47:29 12.55 °C x 99.9 % 2.683 V ttn-pfaffenrot -87 dBm 21.03.2024 07:47
1466 temp-at-nowhere 2024-03-21 06:47:29 14.21 °C x 99.9 % 2.683 V ttn-pfaffenrot -81 dBm 21.03.2024 06:47
1467 temp-at-nowhere 2024-03-21 05:47:30 13.4 °C x 99.9 % 2.683 V ttn-pfaffenrot -95 dBm 21.03.2024 05:47
1468 temp-at-nowhere 2024-03-21 04:47:31 13.72 °C x 99.9 % 2.684 V ttn-pfaffenrot -83 dBm 21.03.2024 04:47
1469 temp-at-nowhere 2024-03-21 03:47:31 12.66 °C x 99.9 % 2.683 V ttn-pfaffenrot -91 dBm 21.03.2024 03:47
1470 temp-at-nowhere 2024-03-21 02:47:32 11.82 °C x 99.9 % 2.682 V ttn-pfaffenrot -83 dBm 21.03.2024 02:47
1471 temp-at-nowhere 2024-03-21 01:47:33 11.55 °C x 99.9 % 2.683 V ttn-pfaffenrot -80 dBm 21.03.2024 01:47
1472 temp-at-nowhere 2024-03-21 00:47:33 11.62 °C x 99.9 % 2.685 V ttn-pfaffenrot -76 dBm 21.03.2024 00:47
1473 temp-at-nowhere 2024-03-20 23:47:34 11.81 °C x 99.9 % 2.683 V ttn-pfaffenrot -89 dBm 20.03.2024 23:47
1474 temp-at-nowhere 2024-03-20 22:47:35 12.39 °C x 99.9 % 2.683 V ttn-pfaffenrot -79 dBm 20.03.2024 22:47
1475 temp-at-nowhere 2024-03-20 21:47:36 12.6 °C x 99.9 % 2.683 V ttn-pfaffenrot -81 dBm 20.03.2024 21:47
1476 temp-at-nowhere 2024-03-20 20:47:36 12.75 °C x 99.9 % 2.684 V ttn-pfaffenrot -83 dBm 20.03.2024 20:47
1477 temp-at-nowhere 2024-03-20 19:47:37 13.81 °C x 99.9 % 2.684 V ttn-pfaffenrot -91 dBm 20.03.2024 19:47
1478 temp-at-nowhere 2024-03-20 18:47:37 14.93 °C x 99.9 % 2.684 V ttn-pfaffenrot -79 dBm 20.03.2024 18:47
1479 temp-at-nowhere 2024-03-20 17:47:38 15.98 °C x 99.9 % 2.685 V ttn-pfaffenrot -91 dBm 20.03.2024 17:47
1480 temp-at-nowhere 2024-03-20 16:47:39 17.18 °C x 99.9 % 2.685 V ttn-pfaffenrot -76 dBm 20.03.2024 16:47
1481 temp-at-nowhere 2024-03-20 15:47:39 18.64 °C x 99.9 % 2.684 V ttn-pfaffenrot -89 dBm 20.03.2024 15:47
1482 temp-at-nowhere 2024-03-20 14:47:40 20.12 °C x 99.9 % 2.682 V ttn-pfaffenrot -85 dBm 20.03.2024 14:47
1483 temp-at-nowhere 2024-03-20 13:47:41 18.27 °C x 99.9 % 2.682 V ttn-pfaffenrot -89 dBm 20.03.2024 13:47
1484 temp-at-nowhere 2024-03-20 12:47:41 16.73 °C x 99.9 % 2.682 V ttn-pfaffenrot -83 dBm 20.03.2024 12:47
1485 temp-at-nowhere 2024-03-20 11:47:42 15.49 °C x 99.9 % 2.682 V ttn-pfaffenrot -91 dBm 20.03.2024 11:47
1486 temp-at-nowhere 2024-03-20 10:47:43 13.77 °C x 99.9 % 2.682 V ttn-pfaffenrot -81 dBm 20.03.2024 10:47
1487 temp-at-nowhere 2024-03-20 09:47:44 11.92 °C x 99.9 % 2.683 V ttn-pfaffenrot -91 dBm 20.03.2024 09:47
1488 temp-at-nowhere 2024-03-20 08:47:44 9.47 °C x 99.9 % 2.681 V ttn-pfaffenrot -81 dBm 20.03.2024 08:47
1489 temp-at-nowhere 2024-03-20 07:47:45 8.18 °C x 99.9 % 2.681 V ttn-pfaffenrot -90 dBm 20.03.2024 07:47
1490 temp-at-nowhere 2024-03-20 06:47:46 9.05 °C x 99.9 % 2.682 V ttn-pfaffenrot -82 dBm 20.03.2024 06:47
1491 temp-at-nowhere 2024-03-20 05:47:46 9.77 °C x 99.9 % 2.681 V ttn-pfaffenrot -91 dBm 20.03.2024 05:47
1492 temp-at-nowhere 2024-03-20 04:47:47 9.98 °C x 99.9 % 2.681 V ttn-pfaffenrot -84 dBm 20.03.2024 04:47
1493 temp-at-nowhere 2024-03-20 03:47:48 10.76 °C x 99.9 % 2.682 V ttn-pfaffenrot -95 dBm 20.03.2024 03:47
1494 temp-at-nowhere 2024-03-20 02:47:48 10.32 °C x 99.9 % 2.682 V ttn-pfaffenrot -81 dBm 20.03.2024 02:47
1495 temp-at-nowhere 2024-03-20 01:47:49 10.85 °C x 99.9 % 2.681 V ttn-pfaffenrot -97 dBm 20.03.2024 01:47
1496 temp-at-nowhere 2024-03-20 00:47:50 11.22 °C x 99.9 % 2.681 V ttn-pfaffenrot -85 dBm 20.03.2024 00:47
1497 temp-at-nowhere 2024-03-19 23:47:50 11.4 °C x 99.9 % 2.682 V ttn-pfaffenrot -89 dBm 19.03.2024 23:47
1498 temp-at-nowhere 2024-03-19 22:47:51 11.62 °C x 99.9 % 2.682 V ttn-pfaffenrot -83 dBm 19.03.2024 22:47
1499 temp-at-nowhere 2024-03-19 21:47:51 11.46 °C x 99.9 % 2.681 V ttn-pfaffenrot -97 dBm 19.03.2024 21:47
1500 temp-at-nowhere 2024-03-19 20:47:52 11.12 °C x 99.9 % 2.683 V ttn-pfaffenrot -87 dBm 19.03.2024 20:47
1501 temp-at-nowhere 2024-03-19 19:47:53 12.27 °C x 99.9 % 2.683 V ttn-pfaffenrot -87 dBm 19.03.2024 19:47
1502 temp-at-nowhere 2024-03-19 18:47:53 13.24 °C x 99.9 % 2.683 V ttn-pfaffenrot -83 dBm 19.03.2024 18:47
1503 temp-at-nowhere 2024-03-19 17:47:54 14.1 °C x 99.9 % 2.683 V ttn-pfaffenrot -91 dBm 19.03.2024 17:47
1504 temp-at-nowhere 2024-03-19 16:47:55 14.87 °C x 99.9 % 2.682 V ttn-pfaffenrot -81 dBm 19.03.2024 16:47
1505 temp-at-nowhere 2024-03-19 15:47:56 15.66 °C x 99.9 % 2.683 V ttn-pfaffenrot -83 dBm 19.03.2024 15:47
1506 temp-at-nowhere 2024-03-19 14:47:56 16.08 °C x 99.9 % 2.682 V ttn-pfaffenrot -80 dBm 19.03.2024 14:47
1507 temp-at-nowhere 2024-03-19 13:47:57 15.17 °C x 99.9 % 2.681 V ttn-pfaffenrot -84 dBm 19.03.2024 13:47
1508 temp-at-nowhere 2024-03-19 12:47:58 13.6 °C x 99.9 % 2.684 V ttn-pfaffenrot -78 dBm 19.03.2024 12:47
1509 temp-at-nowhere 2024-03-19 11:47:58 13.1 °C x 99.9 % 2.681 V ttn-pfaffenrot -87 dBm 19.03.2024 11:47
1510 temp-at-nowhere 2024-03-19 10:47:59 11.89 °C x 99.9 % 2.682 V ttn-pfaffenrot -83 dBm 19.03.2024 10:47
1511 temp-at-nowhere 2024-03-19 09:48:00 10.35 °C x 99.9 % 2.682 V ttn-pfaffenrot -83 dBm 19.03.2024 09:48
1512 temp-at-nowhere 2024-03-19 08:48:00 8.72 °C x 99.9 % 2.682 V ttn-pfaffenrot -78 dBm 19.03.2024 08:48
1513 temp-at-nowhere 2024-03-19 07:48:01 7.92 °C x 99.9 % 2.682 V ttn-pfaffenrot -87 dBm 19.03.2024 07:48
1514 temp-at-nowhere 2024-03-19 06:48:02 9.51 °C x 99.9 % 2.681 V ttn-pfaffenrot -78 dBm 19.03.2024 06:48
1515 temp-at-nowhere 2024-03-19 05:48:02 8.71 °C x 99.9 % 2.681 V ttn-pfaffenrot -81 dBm 19.03.2024 05:48
1516 temp-at-nowhere 2024-03-19 04:48:03 9.28 °C x 99.9 % 2.681 V ttn-pfaffenrot -76 dBm 19.03.2024 04:48
1517 temp-at-nowhere 2024-03-19 03:48:04 9.41 °C x 99.9 % 2.682 V ttn-pfaffenrot -77 dBm 19.03.2024 03:48
1518 temp-at-nowhere 2024-03-19 02:48:04 9.44 °C x 99.9 % 2.682 V ttn-pfaffenrot -81 dBm 19.03.2024 02:48
1519 temp-at-nowhere 2024-03-19 01:48:05 10.18 °C x 99.9 % 2.682 V ttn-pfaffenrot -87 dBm 19.03.2024 01:48
1520 temp-at-nowhere 2024-03-19 00:48:06 10.63 °C x 99.9 % 2.682 V ttn-pfaffenrot -78 dBm 19.03.2024 00:48
1521 temp-at-nowhere 2024-03-18 23:48:06 10.83 °C x 99.9 % 2.682 V ttn-pfaffenrot -87 dBm 18.03.2024 23:48
1522 temp-at-nowhere 2024-03-18 22:48:07 10.7 °C x 99.9 % 2.682 V ttn-pfaffenrot -83 dBm 18.03.2024 22:48
1523 temp-at-nowhere 2024-03-18 21:48:08 10.42 °C x 99.9 % 2.681 V ttn-pfaffenrot -89 dBm 18.03.2024 21:48
1524 temp-at-nowhere 2024-03-18 20:48:08 10.13 °C x 99.9 % 2.682 V ttn-pfaffenrot -79 dBm 18.03.2024 20:48
1525 temp-at-nowhere 2024-03-18 19:48:09 10.83 °C x 99.9 % 2.682 V ttn-pfaffenrot -87 dBm 18.03.2024 19:48
1526 temp-at-nowhere 2024-03-18 18:48:10 11.52 °C x 99.9 % 2.683 V ttn-pfaffenrot -83 dBm 18.03.2024 18:48
1527 temp-at-nowhere 2024-03-18 17:48:11 11.89 °C x 99.9 % 2.681 V ttn-pfaffenrot -87 dBm 18.03.2024 17:48
1528 temp-at-nowhere 2024-03-18 16:48:11 12.19 °C x 99.9 % 2.682 V ttn-pfaffenrot -83 dBm 18.03.2024 16:48
1529 temp-at-nowhere 2024-03-18 15:48:12 12.24 °C x 99.9 % 2.681 V ttn-pfaffenrot -87 dBm 18.03.2024 15:48
1530 temp-at-nowhere 2024-03-18 14:48:12 11.31 °C x 99.9 % 2.682 V ttn-pfaffenrot -81 dBm 18.03.2024 14:48
1531 temp-at-nowhere 2024-03-18 13:48:13 10.35 °C x 99.9 % 2.681 V ttn-pfaffenrot -84 dBm 18.03.2024 13:48
1532 temp-at-nowhere 2024-03-18 12:48:14 10.03 °C x 99.9 % 2.682 V ttn-pfaffenrot -81 dBm 18.03.2024 12:48
1533 temp-at-nowhere 2024-03-18 11:48:15 9.61 °C x 99.9 % 2.682 V ttn-pfaffenrot -95 dBm 18.03.2024 11:48
1534 temp-at-nowhere 2024-03-18 10:48:15 9.3 °C x 99.9 % 2.681 V ttn-pfaffenrot -76 dBm 18.03.2024 10:48
1535 temp-at-nowhere 2024-03-18 09:48:16 9.06 °C x 99.9 % 2.681 V ttn-pfaffenrot -85 dBm 18.03.2024 09:48
1536 temp-at-nowhere 2024-03-18 08:48:17 9.06 °C x 99.9 % 2.681 V ttn-pfaffenrot -81 dBm 18.03.2024 08:48
1537 temp-at-nowhere 2024-03-18 07:48:17 9.59 °C x 99.9 % 2.682 V ttn-pfaffenrot -84 dBm 18.03.2024 07:48
1538 temp-at-nowhere 2024-03-18 06:48:18 11.28 °C x 99.9 % 2.683 V ttn-pfaffenrot -79 dBm 18.03.2024 06:48
1539 temp-at-nowhere 2024-03-18 05:48:19 10.73 °C x 99.9 % 2.682 V ttn-pfaffenrot -81 dBm 18.03.2024 05:48
1540 temp-at-nowhere 2024-03-18 04:48:19 10.91 °C x 99.9 % 2.682 V ttn-pfaffenrot -77 dBm 18.03.2024 04:48
1541 temp-at-nowhere 2024-03-18 03:48:20 11.07 °C x 99.9 % 2.683 V ttn-pfaffenrot -85 dBm 18.03.2024 03:48
1542 temp-at-nowhere 2024-03-18 02:48:21 10.71 °C x 99.9 % 2.682 V ttn-pfaffenrot -80 dBm 18.03.2024 02:48
1543 temp-at-nowhere 2024-03-18 01:48:21 10.65 °C x 99.9 % 2.682 V ttn-pfaffenrot -79 dBm 18.03.2024 01:48
1544 temp-at-nowhere 2024-03-18 00:48:22 10.39 °C x 99.9 % 2.681 V ttn-pfaffenrot -79 dBm 18.03.2024 00:48
1545 temp-at-nowhere 2024-03-17 23:48:23 10.46 °C x 99.9 % 2.682 V ttn-pfaffenrot -83 dBm 17.03.2024 23:48
1546 temp-at-nowhere 2024-03-17 22:48:23 10.4 °C x 99.9 % 2.682 V ttn-pfaffenrot -81 dBm 17.03.2024 22:48
1547 temp-at-nowhere 2024-03-17 21:48:24 10.22 °C x 99.9 % 2.683 V ttn-pfaffenrot -85 dBm 17.03.2024 21:48
1548 temp-at-nowhere 2024-03-17 20:48:25 9.66 °C x 99.9 % 2.683 V ttn-pfaffenrot -78 dBm 17.03.2024 20:48
1549 temp-at-nowhere 2024-03-17 19:48:26 10.22 °C x 99.9 % 2.682 V ttn-pfaffenrot -82 dBm 17.03.2024 19:48
1550 temp-at-nowhere 2024-03-17 18:48:26 11.37 °C x 99.9 % 2.681 V ttn-pfaffenrot -77 dBm 17.03.2024 18:48
1551 temp-at-nowhere 2024-03-17 17:48:27 12.14 °C x 99.9 % 2.683 V ttn-pfaffenrot -89 dBm 17.03.2024 17:48
1552 temp-at-nowhere 2024-03-17 16:48:28 12.71 °C x 99.9 % 2.684 V ttn-pfaffenrot -78 dBm 17.03.2024 16:48
1553 temp-at-nowhere 2024-03-17 15:48:29 13.16 °C x 99.9 % 2.684 V ttn-pfaffenrot -91 dBm 17.03.2024 15:48
1554 temp-at-nowhere 2024-03-17 14:48:29 13.33 °C x 99.9 % 2.682 V ttn-pfaffenrot -83 dBm 17.03.2024 14:48
1555 temp-at-nowhere 2024-03-17 13:48:30 12.86 °C x 99.9 % 2.683 V ttn-pfaffenrot -95 dBm 17.03.2024 13:48
1556 temp-at-nowhere 2024-03-17 12:48:30 12.59 °C x 99.9 % 2.683 V ttn-pfaffenrot -83 dBm 17.03.2024 12:48
1557 temp-at-nowhere 2024-03-17 11:48:31 12.46 °C x 99.9 % 2.683 V ttn-pfaffenrot -95 dBm 17.03.2024 11:48
1558 temp-at-nowhere 2024-03-17 10:48:32 10.21 °C x 99.9 % 2.682 V ttn-pfaffenrot -78 dBm 17.03.2024 10:48
1559 temp-at-nowhere 2024-03-17 09:48:33 8.58 °C x 99.9 % 2.683 V ttn-pfaffenrot -95 dBm 17.03.2024 09:48
1560 temp-at-nowhere 2024-03-17 08:48:34 7.23 °C x 99.9 % 2.682 V ttn-pfaffenrot -77 dBm 17.03.2024 08:48
1561 temp-at-nowhere 2024-03-17 07:48:34 6.19 °C x 99.9 % 2.683 V ttn-pfaffenrot -95 dBm 17.03.2024 07:48
1562 temp-at-nowhere 2024-03-17 06:48:35 7.69 °C x 99.9 % 2.681 V ttn-pfaffenrot -81 dBm 17.03.2024 06:48
1563 temp-at-nowhere 2024-03-17 05:48:36 7.3 °C x 99.9 % 2.682 V ttn-pfaffenrot -84 dBm 17.03.2024 05:48
1564 temp-at-nowhere 2024-03-17 04:48:37 7.62 °C x 99.9 % 2.683 V ttn-pfaffenrot -76 dBm 17.03.2024 04:48
1565 temp-at-nowhere 2024-03-17 03:48:38 8.15 °C x 99.9 % 2.682 V ttn-pfaffenrot -89 dBm 17.03.2024 03:48
1566 temp-at-nowhere 2024-03-17 02:48:39 8 °C x 99.9 % 2.683 V ttn-pfaffenrot -78 dBm 17.03.2024 02:48
1567 temp-at-nowhere 2024-03-17 01:48:39 8.69 °C x 99.9 % 2.683 V ttn-pfaffenrot -83 dBm 17.03.2024 01:48
1568 temp-at-nowhere 2024-03-17 00:48:40 9.02 °C x 99.9 % 2.681 V ttn-pfaffenrot -79 dBm 17.03.2024 00:48
1569 temp-at-nowhere 2024-03-16 23:48:41 9.65 °C x 99.9 % 2.684 V ttn-pfaffenrot -75 dBm 16.03.2024 23:48
1570 temp-at-nowhere 2024-03-16 22:48:42 10.23 °C x 99.9 % 2.685 V ttn-pfaffenrot -77 dBm 16.03.2024 22:48
1571 temp-at-nowhere 2024-03-16 21:48:43 10.27 °C x 99.9 % 2.682 V ttn-pfaffenrot -83 dBm 16.03.2024 21:48
1572 temp-at-nowhere 2024-03-16 20:48:43 9.38 °C x 99.9 % 2.683 V ttn-pfaffenrot -79 dBm 16.03.2024 20:48
1573 temp-at-nowhere 2024-03-16 19:48:44 9.73 °C x 99.9 % 2.685 V ttn-pfaffenrot -80 dBm 16.03.2024 19:48
1574 temp-at-nowhere 2024-03-16 18:48:45 10.09 °C x 99.9 % 2.683 V ttn-pfaffenrot -78 dBm 16.03.2024 18:48
1575 temp-at-nowhere 2024-03-16 17:48:46 10.58 °C x 99.9 % 2.684 V ttn-pfaffenrot -79 dBm 16.03.2024 17:48
1576 temp-at-nowhere 2024-03-16 16:48:46 11.08 °C x 99.9 % 2.683 V ttn-pfaffenrot -76 dBm 16.03.2024 16:48
1577 temp-at-nowhere 2024-03-16 15:48:47 12.03 °C x 99.9 % 2.682 V ttn-pfaffenrot -74 dBm 16.03.2024 15:48
1578 temp-at-nowhere 2024-03-16 14:48:48 12.07 °C x 99.9 % 2.683 V ttn-pfaffenrot -73 dBm 16.03.2024 14:48
1579 temp-at-nowhere 2024-03-16 13:48:49 10.27 °C x 99.9 % 2.682 V ttn-pfaffenrot -79 dBm 16.03.2024 13:48
1580 temp-at-nowhere 2024-03-16 12:48:50 10.06 °C x 99.9 % 2.686 V ttn-pfaffenrot -78 dBm 16.03.2024 12:48
1581 temp-at-nowhere 2024-03-16 11:48:51 9.94 °C x 99.9 % 2.684 V ttn-pfaffenrot -77 dBm 16.03.2024 11:48
1582 temp-at-nowhere 2024-03-16 10:48:51 9.47 °C x 99.9 % 2.685 V ttn-pfaffenrot -76 dBm 16.03.2024 10:48
1583 temp-at-nowhere 2024-03-16 09:48:52 9.09 °C x 99.9 % 2.683 V ttn-pfaffenrot -83 dBm 16.03.2024 09:48
1584 temp-at-nowhere 2024-03-16 08:48:53 9.02 °C x 99.9 % 2.684 V ttn-pfaffenrot -79 dBm 16.03.2024 08:48
1585 temp-at-nowhere 2024-03-16 07:48:54 8.89 °C x 99.9 % 2.683 V ttn-pfaffenrot -83 dBm 16.03.2024 07:48
1586 temp-at-nowhere 2024-03-16 06:48:55 10.18 °C x 99.9 % 2.684 V ttn-pfaffenrot -76 dBm 16.03.2024 06:48
1587 temp-at-nowhere 2024-03-16 05:48:56 9.81 °C x 99.9 % 2.685 V ttn-pfaffenrot -95 dBm 16.03.2024 05:48
1588 temp-at-nowhere 2024-03-16 04:48:57 10.55 °C x 99.9 % 2.683 V ttn-pfaffenrot -74 dBm 16.03.2024 04:48
1589 temp-at-nowhere 2024-03-16 03:48:58 11.25 °C x 99.9 % 2.685 V ttn-pfaffenrot -89 dBm 16.03.2024 03:48
1590 temp-at-nowhere 2024-03-16 02:48:59 11.15 °C x 99.9 % 2.683 V ttn-pfaffenrot -72 dBm 16.03.2024 02:48
1591 temp-at-nowhere 2024-03-16 01:48:59 10.74 °C x 99.9 % 2.685 V ttn-pfaffenrot -87 dBm 16.03.2024 01:48
1592 temp-at-nowhere 2024-03-16 00:49:00 10.95 °C x 99.9 % 2.684 V ttn-pfaffenrot -78 dBm 16.03.2024 00:49
1593 temp-at-nowhere 2024-03-15 23:49:01 10.67 °C x 99.9 % 2.684 V ttn-pfaffenrot -83 dBm 15.03.2024 23:49
1594 temp-at-nowhere 2024-03-15 22:49:01 10.86 °C x 99.9 % 2.684 V ttn-pfaffenrot -74 dBm 15.03.2024 22:49
1595 temp-at-nowhere 2024-03-15 21:49:02 11.74 °C x 99.9 % 2.683 V ttn-pfaffenrot -85 dBm 15.03.2024 21:49
1596 temp-at-nowhere 2024-03-15 20:49:03 12.18 °C x 99.9 % 2.684 V ttn-pfaffenrot -79 dBm 15.03.2024 20:49
1597 temp-at-nowhere 2024-03-15 19:49:04 12.33 °C x 99.9 % 2.685 V ttn-pfaffenrot -84 dBm 15.03.2024 19:49
1598 temp-at-nowhere 2024-03-15 18:49:04 12.86 °C x 99.6 % 2.684 V ttn-pfaffenrot -81 dBm 15.03.2024 18:49
1599 temp-at-nowhere 2024-03-15 17:49:05 13.55 °C x 99.9 % 2.685 V ttn-pfaffenrot -83 dBm 15.03.2024 17:49
1600 temp-at-nowhere 2024-03-15 16:49:06 13.79 °C x 99.9 % 2.685 V ttn-pfaffenrot -81 dBm 15.03.2024 16:49
1601 temp-at-nowhere 2024-03-15 15:49:06 14.22 °C x 99.9 % 2.684 V ttn-pfaffenrot -83 dBm 15.03.2024 15:49
1602 temp-at-nowhere 2024-03-15 14:49:07 14.44 °C x 99.9 % 2.683 V ttn-pfaffenrot -79 dBm 15.03.2024 14:49
1603 temp-at-nowhere 2024-03-15 13:49:08 14.56 °C x 99.9 % 2.684 V ttn-pfaffenrot -91 dBm 15.03.2024 13:49
1604 temp-at-nowhere 2024-03-15 12:49:08 14.55 °C x 99.9 % 2.685 V ttn-pfaffenrot -76 dBm 15.03.2024 12:49
1605 temp-at-nowhere 2024-03-15 11:49:09 13.26 °C x 99.9 % 2.684 V ttn-pfaffenrot -87 dBm 15.03.2024 11:49
1606 temp-at-nowhere 2024-03-15 10:49:10 13.47 °C x 99.9 % 2.685 V ttn-pfaffenrot -81 dBm 15.03.2024 10:49
1607 temp-at-nowhere 2024-03-15 09:49:10 14.89 °C x 99.9 % 2.685 V ttn-pfaffenrot -89 dBm 15.03.2024 09:49
1608 temp-at-nowhere 2024-03-15 08:49:11 12.79 °C x 99.9 % 2.684 V ttn-pfaffenrot -79 dBm 15.03.2024 08:49
1609 temp-at-nowhere 2024-03-15 07:49:12 11.96 °C x 99.9 % 2.683 V ttn-pfaffenrot -84 dBm 15.03.2024 07:49
1610 temp-at-nowhere 2024-03-15 06:49:12 13.45 °C x 99.9 % 2.685 V ttn-pfaffenrot -81 dBm 15.03.2024 06:49
1611 temp-at-nowhere 2024-03-15 05:49:13 13.46 °C x 99.9 % 2.682 V ttn-pfaffenrot -79 dBm 15.03.2024 05:49
1612 temp-at-nowhere 2024-03-15 04:49:14 13.7 °C x 99.9 % 2.683 V ttn-pfaffenrot -82 dBm 15.03.2024 04:49
1613 temp-at-nowhere 2024-03-15 03:49:14 13.13 °C x 99.9 % 2.682 V ttn-pfaffenrot -77 dBm 15.03.2024 03:49
1614 temp-at-nowhere 2024-03-15 02:49:15 12.98 °C x 99.9 % 2.683 V ttn-pfaffenrot -79 dBm 15.03.2024 02:49
1615 temp-at-nowhere 2024-03-15 01:49:16 12.85 °C x 99.9 % 2.684 V ttn-pfaffenrot -101 dBm 15.03.2024 01:49
1616 temp-at-nowhere 2024-03-15 00:49:17 12.68 °C x 99.9 % 2.684 V ttn-pfaffenrot -83 dBm 15.03.2024 00:49
1617 temp-at-nowhere 2024-03-14 23:49:17 12.61 °C x 99.9 % 2.684 V ttn-pfaffenrot -95 dBm 14.03.2024 23:49
1618 temp-at-nowhere 2024-03-14 22:49:18 12.36 °C x 99.9 % 2.684 V ttn-pfaffenrot -83 dBm 14.03.2024 22:49
1619 temp-at-nowhere 2024-03-14 21:49:19 12.24 °C x 99.9 % 2.683 V ttn-pfaffenrot -91 dBm 14.03.2024 21:49
1620 temp-at-nowhere 2024-03-14 20:49:19 12.08 °C x 99.9 % 2.685 V ttn-pfaffenrot -85 dBm 14.03.2024 20:49
1621 temp-at-nowhere 2024-03-14 19:49:20 12.98 °C x 99.9 % 2.684 V ttn-pfaffenrot -95 dBm 14.03.2024 19:49
1622 temp-at-nowhere 2024-03-14 18:49:21 14.01 °C x 99.9 % 2.683 V ttn-pfaffenrot -84 dBm 14.03.2024 18:49
1623 temp-at-nowhere 2024-03-14 17:49:21 14.87 °C x 99.9 % 2.684 V ttn-pfaffenrot -90 dBm 14.03.2024 17:49
1624 temp-at-nowhere 2024-03-14 16:49:22 15.97 °C x 99.9 % 2.683 V ttn-pfaffenrot -83 dBm 14.03.2024 16:49
1625 temp-at-nowhere 2024-03-14 15:49:23 17.51 °C x 99.9 % 2.685 V ttn-pfaffenrot -91 dBm 14.03.2024 15:49
1626 temp-at-nowhere 2024-03-14 14:49:23 19.56 °C x 99.9 % 2.684 V ttn-pfaffenrot -84 dBm 14.03.2024 14:49
1627 temp-at-nowhere 2024-03-14 13:49:24 17.83 °C x 99.9 % 2.682 V ttn-pfaffenrot -89 dBm 14.03.2024 13:49
1628 temp-at-nowhere 2024-03-14 12:49:25 16.56 °C x 99.9 % 2.683 V ttn-pfaffenrot -79 dBm 14.03.2024 12:49
1629 temp-at-nowhere 2024-03-14 11:49:26 15.22 °C x 99.9 % 2.682 V ttn-pfaffenrot -95 dBm 14.03.2024 11:49
1630 temp-at-nowhere 2024-03-14 10:49:26 12.7 °C x 99.9 % 2.681 V ttn-pfaffenrot -81 dBm 14.03.2024 10:49
1631 temp-at-nowhere 2024-03-14 09:49:27 10.51 °C x 99.9 % 2.682 V ttn-pfaffenrot -91 dBm 14.03.2024 09:49
1632 temp-at-nowhere 2024-03-14 08:49:28 7.82 °C x 99.9 % 2.682 V ttn-pfaffenrot -79 dBm 14.03.2024 08:49
1633 temp-at-nowhere 2024-03-14 07:49:28 7.46 °C x 99.9 % 2.681 V ttn-pfaffenrot -84 dBm 14.03.2024 07:49
1634 temp-at-nowhere 2024-03-14 06:49:29 8.39 °C x 99.9 % 2.683 V ttn-pfaffenrot -81 dBm 14.03.2024 06:49
1635 temp-at-nowhere 2024-03-14 05:49:30 9.77 °C x 99.9 % 2.683 V ttn-pfaffenrot -84 dBm 14.03.2024 05:49
1636 temp-at-nowhere 2024-03-14 04:49:31 9.78 °C x 99.9 % 2.682 V ttn-pfaffenrot -81 dBm 14.03.2024 04:49
1637 temp-at-nowhere 2024-03-14 03:49:31 9.78 °C x 99.9 % 2.682 V ttn-pfaffenrot -91 dBm 14.03.2024 03:49
1638 temp-at-nowhere 2024-03-14 02:49:32 10.08 °C x 99.9 % 2.681 V ttn-pfaffenrot -81 dBm 14.03.2024 02:49
1639 temp-at-nowhere 2024-03-14 01:49:33 10.9 °C x 99.9 % 2.682 V ttn-pfaffenrot -83 dBm 14.03.2024 01:49
1640 temp-at-nowhere 2024-03-14 00:49:33 11.32 °C x 99.9 % 2.682 V ttn-pfaffenrot -79 dBm 14.03.2024 00:49
1641 temp-at-nowhere 2024-03-13 23:49:34 11.52 °C x 99.9 % 2.681 V ttn-pfaffenrot -89 dBm 13.03.2024 23:49
1642 temp-at-nowhere 2024-03-13 22:49:35 11.52 °C x 99.9 % 2.682 V ttn-pfaffenrot -78 dBm 13.03.2024 22:49
1643 temp-at-nowhere 2024-03-13 21:49:35 11.19 °C x 99.9 % 2.682 V ttn-pfaffenrot -85 dBm 13.03.2024 21:49
1644 temp-at-nowhere 2024-03-13 20:49:36 10.1 °C x 99.9 % 2.68 V ttn-pfaffenrot -79 dBm 13.03.2024 20:49
1645 temp-at-nowhere 2024-03-13 19:49:37 10.15 °C x 99.9 % 2.682 V ttn-pfaffenrot -84 dBm 13.03.2024 19:49
1646 temp-at-nowhere 2024-03-13 18:49:38 10.6 °C x 99.9 % 2.681 V ttn-pfaffenrot -81 dBm 13.03.2024 18:49
1647 temp-at-nowhere 2024-03-13 17:49:38 11.22 °C x 99.9 % 2.682 V ttn-pfaffenrot -95 dBm 13.03.2024 17:49
1648 temp-at-nowhere 2024-03-13 16:49:39 11.62 °C x 99.9 % 2.683 V ttn-pfaffenrot -78 dBm 13.03.2024 16:49
1649 temp-at-nowhere 2024-03-13 15:49:40 11.66 °C x 99.9 % 2.681 V ttn-pfaffenrot -87 dBm 13.03.2024 15:49
1650 temp-at-nowhere 2024-03-13 14:49:40 10.77 °C x 99.9 % 2.681 V ttn-pfaffenrot -78 dBm 13.03.2024 14:49
1651 temp-at-nowhere 2024-03-13 13:49:41 10.34 °C x 99.9 % 2.68 V ttn-pfaffenrot -85 dBm 13.03.2024 13:49
1652 temp-at-nowhere 2024-03-13 12:49:42 10.24 °C x 99.9 % 2.681 V ttn-pfaffenrot -79 dBm 13.03.2024 12:49
1653 temp-at-nowhere 2024-03-13 11:49:43 9.99 °C x 99.9 % 2.682 V ttn-pfaffenrot -85 dBm 13.03.2024 11:49
1654 temp-at-nowhere 2024-03-13 10:49:43 9.5 °C x 99.9 % 2.682 V ttn-pfaffenrot -81 dBm 13.03.2024 10:49
1655 temp-at-nowhere 2024-03-13 09:49:44 8.72 °C x 99.9 % 2.68 V ttn-pfaffenrot -95 dBm 13.03.2024 09:49
1656 temp-at-nowhere 2024-03-13 08:49:45 8.19 °C x 99.9 % 2.681 V ttn-pfaffenrot -81 dBm 13.03.2024 08:49
1657 temp-at-nowhere 2024-03-13 07:49:46 8.03 °C x 99.9 % 2.681 V ttn-pfaffenrot -85 dBm 13.03.2024 07:49
1658 temp-at-nowhere 2024-03-13 06:49:46 9.07 °C x 99.9 % 2.68 V ttn-pfaffenrot -78 dBm 13.03.2024 06:49
1659 temp-at-nowhere 2024-03-13 05:49:47 8.66 °C x 99.9 % 2.683 V ttn-pfaffenrot -83 dBm 13.03.2024 05:49
1660 temp-at-nowhere 2024-03-13 04:49:48 7.96 °C x 99.9 % 2.681 V ttn-pfaffenrot -75 dBm 13.03.2024 04:49
1661 temp-at-nowhere 2024-03-13 03:49:49 7.58 °C x 99.9 % 2.681 V ttn-pfaffenrot -87 dBm 13.03.2024 03:49
1662 temp-at-nowhere 2024-03-13 02:49:50 7.58 °C x 99.9 % 2.681 V ttn-pfaffenrot -83 dBm 13.03.2024 02:49
1663 temp-at-nowhere 2024-03-13 01:49:50 7.39 °C x 99.9 % 2.681 V ttn-pfaffenrot -73 dBm 13.03.2024 01:49
1664 temp-at-nowhere 2024-03-13 00:49:51 6.91 °C x 99.9 % 2.68 V ttn-pfaffenrot -74 dBm 13.03.2024 00:49
1665 temp-at-nowhere 2024-03-12 23:49:52 6.84 °C x 99.9 % 2.681 V ttn-pfaffenrot -75 dBm 12.03.2024 23:49
1666 temp-at-nowhere 2024-03-12 22:49:53 7.04 °C x 99.9 % 2.681 V ttn-pfaffenrot -76 dBm 12.03.2024 22:49
1667 temp-at-nowhere 2024-03-12 21:49:53 7 °C x 99.9 % 2.682 V ttn-pfaffenrot -76 dBm 12.03.2024 21:49
1668 temp-at-nowhere 2024-03-12 20:49:54 6.11 °C x 99.9 % 2.681 V ttn-pfaffenrot -77 dBm 12.03.2024 20:49
1669 temp-at-nowhere 2024-03-12 19:49:55 6.28 °C x 99.9 % 2.68 V ttn-pfaffenrot -78 dBm 12.03.2024 19:49
1670 temp-at-nowhere 2024-03-12 18:49:56 6.4 °C x 99.9 % 2.682 V ttn-pfaffenrot -79 dBm 12.03.2024 18:49
1671 temp-at-nowhere 2024-03-12 17:49:57 6.71 °C x 99.9 % 2.682 V ttn-pfaffenrot -77 dBm 12.03.2024 17:49
1672 temp-at-nowhere 2024-03-12 16:49:57 7.07 °C x 99.9 % 2.682 V ttn-pfaffenrot -77 dBm 12.03.2024 16:49
1673 temp-at-nowhere 2024-03-12 15:49:58 7.06 °C x 99.9 % 2.681 V ttn-pfaffenrot -79 dBm 12.03.2024 15:49
1674 temp-at-nowhere 2024-03-12 14:49:59 6.95 °C x 99.9 % 2.68 V ttn-pfaffenrot -81 dBm 12.03.2024 14:49
1675 temp-at-nowhere 2024-03-12 13:50:00 6.88 °C x 99.9 % 2.682 V ttn-pfaffenrot -75 dBm 12.03.2024 13:50
1676 temp-at-nowhere 2024-03-12 12:50:01 6.51 °C x 99.9 % 2.681 V ttn-pfaffenrot -78 dBm 12.03.2024 12:50
1677 temp-at-nowhere 2024-03-12 11:50:01 6.47 °C x 99.9 % 2.682 V ttn-pfaffenrot -79 dBm 12.03.2024 11:50
1678 temp-at-nowhere 2024-03-12 10:50:02 6.51 °C x 99.9 % 2.681 V ttn-pfaffenrot -79 dBm 12.03.2024 10:50
1679 temp-at-nowhere 2024-03-12 09:50:03 6.32 °C x 99.9 % 2.681 V ttn-pfaffenrot -76 dBm 12.03.2024 09:50
1680 temp-at-nowhere 2024-03-12 08:50:04 6.21 °C x 99.9 % 2.682 V ttn-pfaffenrot -79 dBm 12.03.2024 08:50
1681 temp-at-nowhere 2024-03-12 07:50:05 6.62 °C x 99.9 % 2.682 V ttn-pfaffenrot -78 dBm 12.03.2024 07:50
1682 temp-at-nowhere 2024-03-12 06:50:06 8.12 °C x 99.9 % 2.683 V ttn-pfaffenrot -76 dBm 12.03.2024 06:50
1683 temp-at-nowhere 2024-03-12 05:50:07 8.41 °C x 99.9 % 2.682 V ttn-pfaffenrot -77 dBm 12.03.2024 05:50
1684 temp-at-nowhere 2024-03-12 04:50:07 8.25 °C x 99.9 % 2.682 V ttn-pfaffenrot -78 dBm 12.03.2024 04:50
1685 temp-at-nowhere 2024-03-12 03:50:08 7.9 °C x 99.9 % 2.683 V ttn-pfaffenrot -77 dBm 12.03.2024 03:50
1686 temp-at-nowhere 2024-03-12 02:50:09 7.7 °C x 99.9 % 2.682 V ttn-pfaffenrot -77 dBm 12.03.2024 02:50
1687 temp-at-nowhere 2024-03-12 01:50:10 7.65 °C x 99.9 % 2.683 V ttn-pfaffenrot -75 dBm 12.03.2024 01:50
1688 temp-at-nowhere 2024-03-12 00:50:11 7.86 °C x 99.9 % 2.682 V ttn-pfaffenrot -79 dBm 12.03.2024 00:50
1689 temp-at-nowhere 2024-03-11 23:50:11 8.24 °C x 99.9 % 2.684 V ttn-pfaffenrot -76 dBm 11.03.2024 23:50
1690 temp-at-nowhere 2024-03-11 22:50:12 8.55 °C x 99.9 % 2.683 V ttn-pfaffenrot -77 dBm 11.03.2024 22:50
1691 temp-at-nowhere 2024-03-11 21:50:13 8.81 °C x 99.9 % 2.683 V ttn-pfaffenrot -76 dBm 11.03.2024 21:50
1692 temp-at-nowhere 2024-03-11 20:50:14 8.17 °C x 99.9 % 2.683 V ttn-pfaffenrot -79 dBm 11.03.2024 20:50
1693 temp-at-nowhere 2024-03-11 19:50:15 8.94 °C x 99.9 % 2.683 V ttn-pfaffenrot -78 dBm 11.03.2024 19:50
1694 temp-at-nowhere 2024-03-11 18:50:15 9.85 °C x 99.9 % 2.683 V ttn-pfaffenrot -79 dBm 11.03.2024 18:50
1695 temp-at-nowhere 2024-03-11 17:50:16 10.93 °C x 99.9 % 2.684 V ttn-pfaffenrot -78 dBm 11.03.2024 17:50
1696 temp-at-nowhere 2024-03-11 16:50:17 11.69 °C x 99.9 % 2.682 V ttn-pfaffenrot -81 dBm 11.03.2024 16:50
1697 temp-at-nowhere 2024-03-11 15:50:18 12.56 °C x 99.9 % 2.683 V ttn-pfaffenrot -78 dBm 11.03.2024 15:50
1698 temp-at-nowhere 2024-03-11 14:50:18 12.99 °C x 99.9 % 2.684 V ttn-pfaffenrot -79 dBm 11.03.2024 14:50
1699 temp-at-nowhere 2024-03-11 13:50:19 13.81 °C x 99.9 % 2.684 V ttn-pfaffenrot -81 dBm 11.03.2024 13:50
1700 temp-at-nowhere 2024-03-11 12:50:20 13.88 °C x 99.9 % 2.684 V ttn-pfaffenrot -79 dBm 11.03.2024 12:50
1701 temp-at-nowhere 2024-03-11 11:50:22 12.46 °C x 99.9 % 2.682 V ttn-pfaffenrot -79 dBm 11.03.2024 11:50
1702 temp-at-nowhere 2024-03-11 10:50:22 10.16 °C x 99.9 % 2.684 V ttn-pfaffenrot -78 dBm 11.03.2024 10:50
1703 temp-at-nowhere 2024-03-11 09:50:22 8.48 °C x 99.9 % 2.683 V ttn-pfaffenrot -77 dBm 11.03.2024 09:50
1704 temp-at-nowhere 2024-03-11 08:50:23 7.06 °C x 99.9 % 2.681 V ttn-pfaffenrot -79 dBm 11.03.2024 08:50
1705 temp-at-nowhere 2024-03-11 07:50:24 5.9 °C x 99.9 % 2.681 V ttn-pfaffenrot -78 dBm 11.03.2024 07:50
1706 temp-at-nowhere 2024-03-11 06:50:25 6.27 °C x 99.9 % 2.682 V ttn-pfaffenrot -78 dBm 11.03.2024 06:50
1707 temp-at-nowhere 2024-03-11 05:50:26 7.27 °C x 99.9 % 2.682 V ttn-pfaffenrot -75 dBm 11.03.2024 05:50
1708 temp-at-nowhere 2024-03-11 04:50:26 6.8 °C x 99.9 % 2.682 V ttn-pfaffenrot -78 dBm 11.03.2024 04:50
1709 temp-at-nowhere 2024-03-11 03:50:27 7.06 °C x 99.9 % 2.683 V ttn-pfaffenrot -76 dBm 11.03.2024 03:50
1710 temp-at-nowhere 2024-03-11 02:50:28 7.38 °C x 99.9 % 2.682 V ttn-pfaffenrot -74 dBm 11.03.2024 02:50
1711 temp-at-nowhere 2024-03-11 01:50:29 7.15 °C x 99.9 % 2.682 V ttn-pfaffenrot -74 dBm 11.03.2024 01:50
1712 temp-at-nowhere 2024-03-11 00:50:30 6.95 °C x 99.9 % 2.681 V ttn-pfaffenrot -75 dBm 11.03.2024 00:50
1713 temp-at-nowhere 2024-03-10 23:50:30 6.82 °C x 99.9 % 2.683 V ttn-pfaffenrot -75 dBm 10.03.2024 23:50
1714 temp-at-nowhere 2024-03-10 22:50:31 6.74 °C x 99.9 % 2.683 V ttn-pfaffenrot -76 dBm 10.03.2024 22:50
1715 temp-at-nowhere 2024-03-10 21:50:32 6.85 °C x 99.9 % 2.682 V ttn-pfaffenrot -77 dBm 10.03.2024 21:50
1716 temp-at-nowhere 2024-03-10 20:50:33 6.43 °C x 99.9 % 2.683 V ttn-pfaffenrot -78 dBm 10.03.2024 20:50
1717 temp-at-nowhere 2024-03-10 19:50:34 7.32 °C x 99.9 % 2.684 V ttn-pfaffenrot -74 dBm 10.03.2024 19:50
1718 temp-at-nowhere 2024-03-10 18:50:34 7.89 °C x 99.9 % 2.682 V ttn-pfaffenrot -79 dBm 10.03.2024 18:50
1719 temp-at-nowhere 2024-03-10 17:50:35 8.51 °C x 99.9 % 2.684 V ttn-pfaffenrot -78 dBm 10.03.2024 17:50
1720 temp-at-nowhere 2024-03-10 16:50:36 9.17 °C x 99.9 % 2.684 V ttn-pfaffenrot -79 dBm 10.03.2024 16:50
1721 temp-at-nowhere 2024-03-10 15:50:37 9.83 °C x 99.9 % 2.683 V ttn-pfaffenrot -78 dBm 10.03.2024 15:50
1722 temp-at-nowhere 2024-03-10 14:50:37 10.9 °C x 99.9 % 2.685 V ttn-pfaffenrot -79 dBm 10.03.2024 14:50
1723 temp-at-nowhere 2024-03-10 12:50:39 11.27 °C x 99.9 % 2.686 V ttn-pfaffenrot -78 dBm 10.03.2024 12:50
1724 temp-at-nowhere 2024-03-10 11:50:40 10.07 °C x 99.9 % 2.683 V ttn-pfaffenrot -77 dBm 10.03.2024 11:50
1725 temp-at-nowhere 2024-03-10 10:50:41 8.89 °C x 99.9 % 2.684 V ttn-pfaffenrot -77 dBm 10.03.2024 10:50
1726 temp-at-nowhere 2024-03-10 09:50:42 7.61 °C x 99.9 % 2.683 V ttn-pfaffenrot -78 dBm 10.03.2024 09:50
1727 temp-at-nowhere 2024-03-10 08:50:42 7.01 °C x 99.9 % 2.682 V ttn-pfaffenrot -77 dBm 10.03.2024 08:50
1728 temp-at-nowhere 2024-03-10 07:50:43 7.26 °C x 99.9 % 2.684 V ttn-pfaffenrot -77 dBm 10.03.2024 07:50
1729 temp-at-nowhere 2024-03-10 06:50:44 9.06 °C x 99.9 % 2.682 V ttn-pfaffenrot -78 dBm 10.03.2024 06:50
1730 temp-at-nowhere 2024-03-10 05:50:45 8.97 °C x 99.9 % 2.684 V ttn-pfaffenrot -77 dBm 10.03.2024 05:50
1731 temp-at-nowhere 2024-03-10 04:50:46 8.72 °C x 99.9 % 2.685 V ttn-pfaffenrot -78 dBm 10.03.2024 04:50
1732 temp-at-nowhere 2024-03-10 03:50:47 9.16 °C x 99.9 % 2.686 V ttn-pfaffenrot -76 dBm 10.03.2024 03:50
1733 temp-at-nowhere 2024-03-10 02:50:48 9.26 °C x 99.9 % 2.683 V ttn-pfaffenrot -76 dBm 10.03.2024 02:50
1734 temp-at-nowhere 2024-03-10 01:50:49 9.58 °C x 99.9 % 2.686 V ttn-pfaffenrot -75 dBm 10.03.2024 01:50
1735 temp-at-nowhere 2024-03-10 00:50:49 9.66 °C x 99.9 % 2.685 V ttn-pfaffenrot -77 dBm 10.03.2024 00:50
1736 temp-at-nowhere 2024-03-09 23:50:50 10.15 °C x 99.9 % 2.686 V ttn-pfaffenrot -75 dBm 09.03.2024 23:50
1737 temp-at-nowhere 2024-03-09 22:50:51 10.25 °C x 99.9 % 2.684 V ttn-pfaffenrot -78 dBm 09.03.2024 22:50
1738 temp-at-nowhere 2024-03-09 21:50:52 10.6 °C x 99.9 % 2.684 V ttn-pfaffenrot -78 dBm 09.03.2024 21:50
1739 temp-at-nowhere 2024-03-09 20:50:53 10.51 °C x 99.9 % 2.684 V ttn-pfaffenrot -77 dBm 09.03.2024 20:50
1740 temp-at-nowhere 2024-03-09 19:50:54 10.74 °C x 98.8 % 2.685 V ttn-pfaffenrot -78 dBm 09.03.2024 19:50
1741 temp-at-nowhere 2024-03-09 18:50:55 11.92 °C x 97 % 2.684 V ttn-pfaffenrot -78 dBm 09.03.2024 18:50
1742 temp-at-nowhere 2024-03-09 17:50:55 13.09 °C x 93.6 % 2.685 V ttn-pfaffenrot -79 dBm 09.03.2024 17:50
1743 temp-at-nowhere 2024-03-09 16:50:56 14.29 °C x 89.8 % 2.685 V ttn-pfaffenrot -78 dBm 09.03.2024 16:50
1744 temp-at-nowhere 2024-03-09 15:50:57 15.71 °C x 87.5 % 2.685 V ttn-pfaffenrot -78 dBm 09.03.2024 15:50
1745 temp-at-nowhere 2024-03-09 14:50:58 17.87 °C x 92.7 % 2.683 V ttn-pfaffenrot -81 dBm 09.03.2024 14:50
1746 temp-at-nowhere 2024-03-09 13:50:58 16.88 °C x 99.9 % 2.684 V ttn-pfaffenrot -78 dBm 09.03.2024 13:50
1747 temp-at-nowhere 2024-03-09 12:50:59 15.64 °C x 99.9 % 2.685 V ttn-pfaffenrot -79 dBm 09.03.2024 12:50
1748 temp-at-nowhere 2024-03-09 11:51:00 13.67 °C x 99.9 % 2.684 V ttn-pfaffenrot -77 dBm 09.03.2024 11:51
1749 temp-at-nowhere 2024-03-09 10:51:01 11.11 °C x 99.9 % 2.684 V ttn-pfaffenrot -79 dBm 09.03.2024 10:51
1750 temp-at-nowhere 2024-03-09 09:51:01 8.18 °C x 99.9 % 2.683 V ttn-pfaffenrot -77 dBm 09.03.2024 09:51
1751 temp-at-nowhere 2024-03-09 08:51:02 5.53 °C x 99.9 % 2.681 V ttn-pfaffenrot -79 dBm 09.03.2024 08:51
1752 temp-at-nowhere 2024-03-09 07:51:03 4.91 °C x 99.9 % 2.681 V ttn-pfaffenrot -77 dBm 09.03.2024 07:51
1753 temp-at-nowhere 2024-03-09 06:51:04 7.2 °C x 99.9 % 2.683 V ttn-pfaffenrot -79 dBm 09.03.2024 06:51
1754 temp-at-nowhere 2024-03-09 05:51:05 6.93 °C x 99.9 % 2.682 V ttn-pfaffenrot -79 dBm 09.03.2024 05:51
1755 temp-at-nowhere 2024-03-09 04:51:05 6.56 °C x 99.9 % 2.682 V ttn-pfaffenrot -77 dBm 09.03.2024 04:51
1756 temp-at-nowhere 2024-03-09 03:51:06 6.48 °C x 99.9 % 2.682 V ttn-pfaffenrot -76 dBm 09.03.2024 03:51
1757 temp-at-nowhere 2024-03-09 02:51:07 6.46 °C x 99.9 % 2.682 V ttn-pfaffenrot -77 dBm 09.03.2024 02:51
1758 temp-at-nowhere 2024-03-09 01:51:08 6.16 °C x 99.9 % 2.683 V ttn-pfaffenrot -76 dBm 09.03.2024 01:51
1759 temp-at-nowhere 2024-03-09 00:51:08 6.22 °C x 99.9 % 2.684 V ttn-pfaffenrot -76 dBm 09.03.2024 00:51
1760 temp-at-nowhere 2024-03-08 23:51:09 6.21 °C x 99.9 % 2.682 V ttn-pfaffenrot -76 dBm 08.03.2024 23:51
1761 temp-at-nowhere 2024-03-08 22:51:10 6.08 °C x 99.9 % 2.683 V ttn-pfaffenrot -78 dBm 08.03.2024 22:51
1762 temp-at-nowhere 2024-03-08 21:51:11 6.15 °C x 99.9 % 2.683 V ttn-pfaffenrot -75 dBm 08.03.2024 21:51
1763 temp-at-nowhere 2024-03-08 20:51:11 5.55 °C x 99.9 % 2.683 V ttn-pfaffenrot -77 dBm 08.03.2024 20:51
1764 temp-at-nowhere 2024-03-08 19:51:12 5.9 °C x 99.9 % 2.683 V ttn-pfaffenrot -79 dBm 08.03.2024 19:51
1765 temp-at-nowhere 2024-03-08 18:51:13 6.4 °C x 99.9 % 2.682 V ttn-pfaffenrot -81 dBm 08.03.2024 18:51
1766 temp-at-nowhere 2024-03-08 17:51:13 7.52 °C x 99.9 % 2.684 V ttn-pfaffenrot -78 dBm 08.03.2024 17:51
1767 temp-at-nowhere 2024-03-08 16:51:14 8.52 °C x 99.9 % 2.683 V ttn-pfaffenrot -79 dBm 08.03.2024 16:51
1768 temp-at-nowhere 2024-03-08 15:51:15 10.33 °C x 99.9 % 2.684 V ttn-pfaffenrot -79 dBm 08.03.2024 15:51
1769 temp-at-nowhere 2024-03-08 14:51:15 12.59 °C x 99.9 % 2.685 V ttn-pfaffenrot -78 dBm 08.03.2024 14:51
1770 temp-at-nowhere 2024-03-08 13:51:16 11.08 °C x 99.9 % 2.684 V ttn-pfaffenrot -81 dBm 08.03.2024 13:51
1771 temp-at-nowhere 2024-03-08 12:51:17 9.13 °C x 99.9 % 2.684 V ttn-pfaffenrot -78 dBm 08.03.2024 12:51
1772 temp-at-nowhere 2024-03-08 11:51:18 8.44 °C x 99.9 % 2.683 V ttn-pfaffenrot -79 dBm 08.03.2024 11:51
1773 temp-at-nowhere 2024-03-08 10:51:18 6.89 °C x 99.9 % 2.683 V ttn-pfaffenrot -81 dBm 08.03.2024 10:51
1774 temp-at-nowhere 2024-03-08 09:51:19 4.58 °C x 99.9 % 2.683 V ttn-pfaffenrot -78 dBm 08.03.2024 09:51
1775 temp-at-nowhere 2024-03-08 08:51:20 1.95 °C x 99.9 % 2.68 V ttn-pfaffenrot -81 dBm 08.03.2024 08:51
1776 temp-at-nowhere 2024-03-08 07:51:21 1.47 °C x 99.9 % 2.681 V ttn-pfaffenrot -82 dBm 08.03.2024 07:51
1777 temp-at-nowhere 2024-03-08 06:51:21 2.99 °C x 99.9 % 2.682 V ttn-pfaffenrot -77 dBm 08.03.2024 06:51
1778 temp-at-nowhere 2024-03-08 05:51:22 2.84 °C x 99.9 % 2.681 V ttn-pfaffenrot -75 dBm 08.03.2024 05:51
1779 temp-at-nowhere 2024-03-08 04:51:23 3.31 °C x 99.9 % 2.683 V ttn-pfaffenrot -77 dBm 08.03.2024 04:51
1780 temp-at-nowhere 2024-03-08 03:51:24 3.73 °C x 99.9 % 2.683 V ttn-pfaffenrot -76 dBm 08.03.2024 03:51
1781 temp-at-nowhere 2024-03-08 02:51:24 3.85 °C x 99.9 % 2.682 V ttn-pfaffenrot -77 dBm 08.03.2024 02:51
1782 temp-at-nowhere 2024-03-08 01:51:25 4.32 °C x 99.9 % 2.683 V ttn-pfaffenrot -77 dBm 08.03.2024 01:51
1783 temp-at-nowhere 2024-03-08 00:51:26 4.47 °C x 99.9 % 2.683 V ttn-pfaffenrot -79 dBm 08.03.2024 00:51
1784 temp-at-nowhere 2024-03-07 23:51:26 4.52 °C x 99.9 % 2.682 V ttn-pfaffenrot -78 dBm 07.03.2024 23:51
1785 temp-at-nowhere 2024-03-07 22:51:27 4.75 °C x 99.9 % 2.684 V ttn-pfaffenrot -79 dBm 07.03.2024 22:51
1786 temp-at-nowhere 2024-03-07 21:51:28 4.92 °C x 99.9 % 2.683 V ttn-pfaffenrot -77 dBm 07.03.2024 21:51
1787 temp-at-nowhere 2024-03-07 20:51:28 4.85 °C x 99.9 % 2.685 V ttn-pfaffenrot -80 dBm 07.03.2024 20:51
1788 temp-at-nowhere 2024-03-07 19:51:29 5.44 °C x 99.9 % 2.684 V ttn-pfaffenrot -77 dBm 07.03.2024 19:51
1789 temp-at-nowhere 2024-03-07 18:51:30 5.89 °C x 99.9 % 2.685 V ttn-pfaffenrot -79 dBm 07.03.2024 18:51
1790 temp-at-nowhere 2024-03-07 17:51:31 6.55 °C x 99.9 % 2.686 V ttn-pfaffenrot -79 dBm 07.03.2024 17:51
1791 temp-at-nowhere 2024-03-07 15:51:32 7.42 °C x 99.9 % 2.684 V ttn-pfaffenrot -80 dBm 07.03.2024 15:51
1792 temp-at-nowhere 2024-03-07 14:51:33 8.53 °C x 99.9 % 2.685 V ttn-pfaffenrot -78 dBm 07.03.2024 14:51
1793 temp-at-nowhere 2024-03-07 13:51:33 8.49 °C x 99.9 % 2.683 V ttn-pfaffenrot -79 dBm 07.03.2024 13:51
1794 temp-at-nowhere 2024-03-07 12:51:34 8.52 °C x 99.9 % 2.686 V ttn-pfaffenrot -81 dBm 07.03.2024 12:51
1795 temp-at-nowhere 2024-03-07 11:51:35 7.72 °C x 99.9 % 2.685 V ttn-pfaffenrot -81 dBm 07.03.2024 11:51
1796 temp-at-nowhere 2024-03-07 10:51:36 6.53 °C x 99.9 % 2.685 V ttn-pfaffenrot -79 dBm 07.03.2024 10:51
1797 temp-at-nowhere 2024-03-07 09:51:36 4.82 °C x 99.9 % 2.683 V ttn-pfaffenrot -78 dBm 07.03.2024 09:51
1798 temp-at-nowhere 2024-03-07 08:51:37 2.9 °C x 99.9 % 2.683 V ttn-pfaffenrot -75 dBm 07.03.2024 08:51
1799 temp-at-nowhere 2024-03-07 07:51:38 2.92 °C x 99.9 % 2.684 V ttn-pfaffenrot -79 dBm 07.03.2024 07:51
1800 temp-at-nowhere 2024-03-07 06:51:39 5.02 °C x 99.9 % 2.686 V ttn-pfaffenrot -77 dBm 07.03.2024 06:51
1801 temp-at-nowhere 2024-03-07 05:51:39 5.66 °C x 99.9 % 2.685 V ttn-pfaffenrot -78 dBm 07.03.2024 05:51
1802 temp-at-nowhere 2024-03-07 04:51:40 6.05 °C x 99.9 % 2.685 V ttn-pfaffenrot -79 dBm 07.03.2024 04:51
1803 temp-at-nowhere 2024-03-07 03:51:41 6.16 °C x 99.9 % 2.685 V ttn-pfaffenrot -76 dBm 07.03.2024 03:51
1804 temp-at-nowhere 2024-03-07 02:51:42 6.74 °C x 99.9 % 2.686 V ttn-pfaffenrot -77 dBm 07.03.2024 02:51
1805 temp-at-nowhere 2024-03-07 01:51:42 6.88 °C x 99.9 % 2.686 V ttn-pfaffenrot -76 dBm 07.03.2024 01:51
1806 temp-at-nowhere 2024-03-07 00:51:43 7.18 °C x 99.9 % 2.686 V ttn-pfaffenrot -81 dBm 07.03.2024 00:51
1807 temp-at-nowhere 2024-03-06 23:51:44 7.3 °C x 99.9 % 2.686 V ttn-pfaffenrot -78 dBm 06.03.2024 23:51
1808 temp-at-nowhere 2024-03-06 22:51:45 7.17 °C x 99.9 % 2.686 V ttn-pfaffenrot -78 dBm 06.03.2024 22:51
1809 temp-at-nowhere 2024-03-06 21:51:45 6.76 °C x 99.9 % 2.685 V ttn-pfaffenrot -76 dBm 06.03.2024 21:51
1810 temp-at-nowhere 2024-03-06 20:51:46 5.67 °C x 99.9 % 2.686 V ttn-pfaffenrot -81 dBm 06.03.2024 20:51
1811 temp-at-nowhere 2024-03-06 19:51:47 5.64 °C x 99.9 % 2.684 V ttn-pfaffenrot -78 dBm 06.03.2024 19:51
1812 temp-at-nowhere 2024-03-06 18:51:48 5.79 °C x 99.9 % 2.686 V ttn-pfaffenrot -78 dBm 06.03.2024 18:51
1813 temp-at-nowhere 2024-03-06 17:51:49 6.07 °C x 99.9 % 2.687 V ttn-pfaffenrot -79 dBm 06.03.2024 17:51
1814 temp-at-nowhere 2024-03-06 16:51:49 6.4 °C x 99.9 % 2.688 V ttn-pfaffenrot -79 dBm 06.03.2024 16:51
1815 temp-at-nowhere 2024-03-06 15:51:50 6.74 °C x 99.9 % 2.687 V ttn-pfaffenrot -78 dBm 06.03.2024 15:51
1816 temp-at-nowhere 2024-03-06 14:51:51 6.53 °C x 99.9 % 2.685 V ttn-pfaffenrot -79 dBm 06.03.2024 14:51
1817 temp-at-nowhere 2024-03-06 13:51:52 6.4 °C x 99.9 % 2.686 V ttn-pfaffenrot -78 dBm 06.03.2024 13:51
1818 temp-at-nowhere 2024-03-06 12:51:52 6.43 °C x 99.9 % 2.686 V ttn-pfaffenrot -81 dBm 06.03.2024 12:51
1819 temp-at-nowhere 2024-03-06 11:51:53 6.6 °C x 99.9 % 2.686 V ttn-pfaffenrot -77 dBm 06.03.2024 11:51
1820 temp-at-nowhere 2024-03-06 10:51:54 6.05 °C x 99.9 % 2.685 V ttn-pfaffenrot -79 dBm 06.03.2024 10:51
1821 temp-at-nowhere 2024-03-06 09:51:55 5.25 °C x 99.9 % 2.685 V ttn-pfaffenrot -79 dBm 06.03.2024 09:51
1822 temp-at-nowhere 2024-03-06 08:51:56 4.84 °C x 99.9 % 2.686 V ttn-pfaffenrot -79 dBm 06.03.2024 08:51
1823 temp-at-nowhere 2024-03-06 07:51:56 5.02 °C x 99.9 % 2.685 V ttn-pfaffenrot -78 dBm 06.03.2024 07:51
1824 temp-at-nowhere 2024-03-06 06:51:57 6.29 °C x 99.9 % 2.687 V ttn-pfaffenrot -79 dBm 06.03.2024 06:51
1825 temp-at-nowhere 2024-03-06 05:51:58 5.97 °C x 99.9 % 2.687 V ttn-pfaffenrot -76 dBm 06.03.2024 05:51
1826 temp-at-nowhere 2024-03-06 04:51:59 5.97 °C x 99.9 % 2.686 V ttn-pfaffenrot -76 dBm 06.03.2024 04:51
1827 temp-at-nowhere 2024-03-06 03:51:59 6.23 °C x 99.9 % 2.687 V ttn-pfaffenrot -76 dBm 06.03.2024 03:51
1828 temp-at-nowhere 2024-03-06 02:52:00 6.09 °C x 99.9 % 2.687 V ttn-pfaffenrot -78 dBm 06.03.2024 02:52
1829 temp-at-nowhere 2024-03-06 01:52:01 6.09 °C x 99.9 % 2.687 V ttn-pfaffenrot -78 dBm 06.03.2024 01:52
1830 temp-at-nowhere 2024-03-06 00:52:02 6.08 °C x 99.9 % 2.688 V ttn-pfaffenrot -77 dBm 06.03.2024 00:52
1831 temp-at-nowhere 2024-03-05 23:52:02 5.86 °C x 99.9 % 2.689 V ttn-pfaffenrot -78 dBm 05.03.2024 23:52
1832 temp-at-nowhere 2024-03-05 22:52:03 5.87 °C x 99.9 % 2.688 V ttn-pfaffenrot -79 dBm 05.03.2024 22:52
1833 temp-at-nowhere 2024-03-05 21:52:04 5.62 °C x 99.9 % 2.687 V ttn-pfaffenrot -76 dBm 05.03.2024 21:52
1834 temp-at-nowhere 2024-03-05 20:52:05 4.84 °C x 99.9 % 2.688 V ttn-pfaffenrot -80 dBm 05.03.2024 20:52
1835 temp-at-nowhere 2024-03-05 19:52:05 5.5 °C x 99.9 % 2.687 V ttn-pfaffenrot -78 dBm 05.03.2024 19:52
1836 temp-at-nowhere 2024-03-05 18:52:06 6.37 °C x 99.9 % 2.687 V ttn-pfaffenrot -79 dBm 05.03.2024 18:52
1837 temp-at-nowhere 2024-03-05 17:52:07 7.21 °C x 99.9 % 2.688 V ttn-pfaffenrot -80 dBm 05.03.2024 17:52
1838 temp-at-nowhere 2024-03-05 16:52:08 7.8 °C x 99.9 % 2.689 V ttn-pfaffenrot -83 dBm 05.03.2024 16:52
1839 temp-at-nowhere 2024-03-05 15:52:09 8.35 °C x 99.9 % 2.689 V ttn-pfaffenrot -79 dBm 05.03.2024 15:52
1840 temp-at-nowhere 2024-03-05 14:52:09 7.21 °C x 99.9 % 2.688 V ttn-pfaffenrot -81 dBm 05.03.2024 14:52
1841 temp-at-nowhere 2024-03-05 13:52:10 6.95 °C x 99.9 % 2.688 V ttn-pfaffenrot -79 dBm 05.03.2024 13:52
1842 temp-at-nowhere 2024-03-05 12:52:11 6.63 °C x 99.9 % 2.687 V ttn-pfaffenrot -78 dBm 05.03.2024 12:52
1843 temp-at-nowhere 2024-03-05 11:52:12 6.44 °C x 99.9 % 2.688 V ttn-pfaffenrot -78 dBm 05.03.2024 11:52
1844 temp-at-nowhere 2024-03-05 10:52:12 6.17 °C x 99.9 % 2.689 V ttn-pfaffenrot -79 dBm 05.03.2024 10:52
1845 temp-at-nowhere 2024-03-05 09:52:13 6.24 °C x 99.9 % 2.687 V ttn-pfaffenrot -78 dBm 05.03.2024 09:52
1846 temp-at-nowhere 2024-03-05 08:52:14 6.38 °C x 99.9 % 2.688 V ttn-pfaffenrot -79 dBm 05.03.2024 08:52
1847 temp-at-nowhere 2024-03-05 07:52:15 7.28 °C x 99.9 % 2.69 V ttn-pfaffenrot -79 dBm 05.03.2024 07:52
1848 temp-at-nowhere 2024-03-05 06:52:16 8.72 °C x 99.9 % 2.688 V ttn-pfaffenrot -77 dBm 05.03.2024 06:52
1849 temp-at-nowhere 2024-03-05 05:52:16 8.24 °C x 99.9 % 2.688 V ttn-pfaffenrot -76 dBm 05.03.2024 05:52
1850 temp-at-nowhere 2024-03-05 04:52:17 8.05 °C x 99.9 % 2.689 V ttn-pfaffenrot -77 dBm 05.03.2024 04:52
1851 temp-at-nowhere 2024-03-05 03:52:18 8.12 °C x 99.9 % 2.689 V ttn-pfaffenrot -77 dBm 05.03.2024 03:52
1852 temp-at-nowhere 2024-03-05 02:52:19 8.39 °C x 99.9 % 2.69 V ttn-pfaffenrot -82 dBm 05.03.2024 02:52
1853 temp-at-nowhere 2024-03-05 01:52:20 8.57 °C x 99.9 % 2.687 V ttn-pfaffenrot -77 dBm 05.03.2024 01:52
1854 temp-at-nowhere 2024-03-05 00:52:20 8.36 °C x 99.9 % 2.691 V ttn-pfaffenrot -77 dBm 05.03.2024 00:52
1855 temp-at-nowhere 2024-03-04 23:52:21 8.29 °C x 99.9 % 2.69 V ttn-pfaffenrot -78 dBm 04.03.2024 23:52
1856 temp-at-nowhere 2024-03-04 22:52:22 8.22 °C x 99.9 % 2.69 V ttn-pfaffenrot -79 dBm 04.03.2024 22:52
1857 temp-at-nowhere 2024-03-04 21:52:23 7.92 °C x 99.9 % 2.689 V ttn-pfaffenrot -78 dBm 04.03.2024 21:52
1858 temp-at-nowhere 2024-03-04 20:52:24 6.86 °C x 99.9 % 2.69 V ttn-pfaffenrot -79 dBm 04.03.2024 20:52
1859 temp-at-nowhere 2024-03-04 19:52:24 6.97 °C x 99.9 % 2.688 V ttn-pfaffenrot -77 dBm 04.03.2024 19:52
1860 temp-at-nowhere 2024-03-04 18:52:25 7.08 °C x 99.9 % 2.689 V ttn-pfaffenrot -81 dBm 04.03.2024 18:52
1861 temp-at-nowhere 2024-03-04 17:52:26 7.33 °C x 99.9 % 2.688 V ttn-pfaffenrot -79 dBm 04.03.2024 17:52
1862 temp-at-nowhere 2024-03-04 16:52:27 7.46 °C x 99.9 % 2.688 V ttn-pfaffenrot -80 dBm 04.03.2024 16:52
1863 temp-at-nowhere 2024-03-04 15:52:28 7.42 °C x 99.9 % 2.689 V ttn-pfaffenrot -79 dBm 04.03.2024 15:52
1864 temp-at-nowhere 2024-03-04 14:52:28 7.24 °C x 99.9 % 2.688 V ttn-pfaffenrot -82 dBm 04.03.2024 14:52
1865 temp-at-nowhere 2024-03-04 13:52:29 7.26 °C x 99.9 % 2.689 V ttn-pfaffenrot -79 dBm 04.03.2024 13:52
1866 temp-at-nowhere 2024-03-04 12:52:30 7.17 °C x 99.9 % 2.69 V ttn-pfaffenrot -79 dBm 04.03.2024 12:52
1867 temp-at-nowhere 2024-03-04 11:52:31 6.95 °C x 99.9 % 2.69 V ttn-pfaffenrot -80 dBm 04.03.2024 11:52
1868 temp-at-nowhere 2024-03-04 10:52:32 6.86 °C x 99.9 % 2.69 V ttn-pfaffenrot -82 dBm 04.03.2024 10:52
1869 temp-at-nowhere 2024-03-04 09:52:32 6.57 °C x 99.9 % 2.689 V ttn-pfaffenrot -75 dBm 04.03.2024 09:52
1870 temp-at-nowhere 2024-03-04 08:52:33 6.48 °C x 99.9 % 2.689 V ttn-pfaffenrot -81 dBm 04.03.2024 08:52
1871 temp-at-nowhere 2024-03-04 07:52:34 6.63 °C x 99.9 % 2.69 V ttn-pfaffenrot -79 dBm 04.03.2024 07:52
1872 temp-at-nowhere 2024-03-04 06:52:35 7.63 °C x 99.9 % 2.689 V ttn-pfaffenrot -81 dBm 04.03.2024 06:52
1873 temp-at-nowhere 2024-03-04 05:52:36 7.77 °C x 99.9 % 2.69 V ttn-pfaffenrot -77 dBm 04.03.2024 05:52
1874 temp-at-nowhere 2024-03-04 04:52:36 8.07 °C x 99.9 % 2.689 V ttn-pfaffenrot -77 dBm 04.03.2024 04:52
1875 temp-at-nowhere 2024-03-04 03:52:37 7.99 °C x 99.9 % 2.69 V ttn-pfaffenrot -78 dBm 04.03.2024 03:52
1876 temp-at-nowhere 2024-03-04 02:52:38 8.44 °C x 99.9 % 2.69 V ttn-pfaffenrot -79 dBm 04.03.2024 02:52
1877 temp-at-nowhere 2024-03-04 01:52:39 8.99 °C x 99.9 % 2.691 V ttn-pfaffenrot -76 dBm 04.03.2024 01:52
1878 temp-at-nowhere 2024-03-04 00:52:40 9.09 °C x 99.9 % 2.692 V ttn-pfaffenrot -81 dBm 04.03.2024 00:52
1879 temp-at-nowhere 2024-03-03 23:52:41 9.53 °C x 99.9 % 2.69 V ttn-pfaffenrot -77 dBm 03.03.2024 23:52
1880 temp-at-nowhere 2024-03-03 22:52:41 10 °C x 99.9 % 2.691 V ttn-pfaffenrot -78 dBm 03.03.2024 22:52
1881 temp-at-nowhere 2024-03-03 21:52:42 10.25 °C x 99.9 % 2.692 V ttn-pfaffenrot -78 dBm 03.03.2024 21:52
1882 temp-at-nowhere 2024-03-03 20:52:43 9.41 °C x 99.9 % 2.691 V ttn-pfaffenrot -79 dBm 03.03.2024 20:52
1883 temp-at-nowhere 2024-03-03 19:52:44 10.52 °C x 99.9 % 2.691 V ttn-pfaffenrot -80 dBm 03.03.2024 19:52
1884 temp-at-nowhere 2024-03-03 18:52:45 11.95 °C x 99.9 % 2.692 V ttn-pfaffenrot -83 dBm 03.03.2024 18:52
1885 temp-at-nowhere 2024-03-03 17:52:45 13.21 °C x 99.9 % 2.692 V ttn-pfaffenrot -81 dBm 03.03.2024 17:52
1886 temp-at-nowhere 2024-03-03 16:52:46 14.32 °C x 97.7 % 2.693 V ttn-pfaffenrot -81 dBm 03.03.2024 16:52
1887 temp-at-nowhere 2024-03-03 15:52:47 16.43 °C x 96 % 2.691 V ttn-pfaffenrot -79 dBm 03.03.2024 15:52
1888 temp-at-nowhere 2024-03-03 14:52:48 17.82 °C x 99.9 % 2.692 V ttn-pfaffenrot -83 dBm 03.03.2024 14:52
1889 temp-at-nowhere 2024-03-03 13:52:49 12.88 °C x 99.9 % 2.692 V ttn-pfaffenrot -79 dBm 03.03.2024 13:52
1890 temp-at-nowhere 2024-03-03 12:52:50 11.32 °C x 99.9 % 2.691 V ttn-pfaffenrot -77 dBm 03.03.2024 12:52
1891 temp-at-nowhere 2024-03-03 11:52:50 9.72 °C x 99.9 % 2.691 V ttn-pfaffenrot -77 dBm 03.03.2024 11:52
1892 temp-at-nowhere 2024-03-03 10:52:51 8.08 °C x 99.9 % 2.691 V ttn-pfaffenrot -78 dBm 03.03.2024 10:52
1893 temp-at-nowhere 2024-03-03 09:52:52 7.1 °C x 99.9 % 2.69 V ttn-pfaffenrot -78 dBm 03.03.2024 09:52
1894 temp-at-nowhere 2024-03-03 08:52:53 6.82 °C x 99.9 % 2.691 V ttn-pfaffenrot -79 dBm 03.03.2024 08:52
1895 temp-at-nowhere 2024-03-03 07:52:54 7.38 °C x 99.9 % 2.691 V ttn-pfaffenrot -77 dBm 03.03.2024 07:52
1896 temp-at-nowhere 2024-03-03 06:52:55 8.67 °C x 99.9 % 2.691 V ttn-pfaffenrot -76 dBm 03.03.2024 06:52
1897 temp-at-nowhere 2024-03-03 05:52:56 8.62 °C x 99.9 % 2.69 V ttn-pfaffenrot -76 dBm 03.03.2024 05:52
1898 temp-at-nowhere 2024-03-03 04:52:57 8.8 °C x 99.9 % 2.691 V ttn-pfaffenrot -78 dBm 03.03.2024 04:52
1899 temp-at-nowhere 2024-03-03 03:52:58 8.56 °C x 99.9 % 2.691 V ttn-pfaffenrot -77 dBm 03.03.2024 03:52
1900 temp-at-nowhere 2024-03-03 02:52:58 9.04 °C x 99.9 % 2.692 V ttn-pfaffenrot -78 dBm 03.03.2024 02:52
1901 temp-at-nowhere 2024-03-03 01:52:59 9.53 °C x 99.9 % 2.691 V ttn-pfaffenrot -77 dBm 03.03.2024 01:52
1902 temp-at-nowhere 2024-03-03 00:53:00 10.02 °C x 99.9 % 2.691 V ttn-pfaffenrot -81 dBm 03.03.2024 00:53
1903 temp-at-nowhere 2024-03-02 23:53:01 10.51 °C x 99.9 % 2.692 V ttn-pfaffenrot -78 dBm 02.03.2024 23:53
1904 temp-at-nowhere 2024-03-02 22:53:02 10.9 °C x 99.9 % 2.693 V ttn-pfaffenrot -77 dBm 02.03.2024 22:53
1905 temp-at-nowhere 2024-03-02 21:53:03 10.58 °C x 98.8 % 2.691 V ttn-pfaffenrot -75 dBm 02.03.2024 21:53
1906 temp-at-nowhere 2024-03-02 20:53:04 10.17 °C x 92.7 % 2.692 V ttn-pfaffenrot -83 dBm 02.03.2024 20:53
1907 temp-at-nowhere 2024-03-02 19:53:05 11.07 °C x 91.4 % 2.691 V ttn-pfaffenrot -83 dBm 02.03.2024 19:53
1908 temp-at-nowhere 2024-03-02 18:53:05 11.76 °C x 91.4 % 2.691 V ttn-pfaffenrot -84 dBm 02.03.2024 18:53
1909 temp-at-nowhere 2024-03-02 17:53:06 12.83 °C x 90.2 % 2.693 V ttn-pfaffenrot -83 dBm 02.03.2024 17:53
1910 temp-at-nowhere 2024-03-02 16:53:07 13.9 °C x 89.1 % 2.691 V ttn-pfaffenrot -83 dBm 02.03.2024 16:53
1911 temp-at-nowhere 2024-03-02 15:53:08 15.69 °C x 87.2 % 2.692 V ttn-pfaffenrot -77 dBm 02.03.2024 15:53
1912 temp-at-nowhere 2024-03-02 14:53:09 17.82 °C x 90.7 % 2.692 V ttn-pfaffenrot -79 dBm 02.03.2024 14:53
1913 temp-at-nowhere 2024-03-02 13:53:09 17.26 °C x 96.5 % 2.691 V ttn-pfaffenrot -78 dBm 02.03.2024 13:53
1914 temp-at-nowhere 2024-03-02 12:53:10 15.38 °C x 99.9 % 2.692 V ttn-pfaffenrot -82 dBm 02.03.2024 12:53
1915 temp-at-nowhere 2024-03-02 11:53:11 14.49 °C x 82.9 % 2.689 V ttn-pfaffenrot -84 dBm 02.03.2024 11:53
1916 temp-at-nowhere 2024-03-02 11:43:15 13.45 °C x 99.9 % 2.692 V ttn-pfaffenrot -81 dBm 02.03.2024 11:43
1917 temp-at-nowhere 2024-02-27 16:25:19 8.57 °C x 99.9 % 2.69 V ttn-pfaffenrot -74 dBm 27.02.2024 16:25
1918 temp-at-nowhere 2024-02-27 15:25:20 8.47 °C x 99.9 % 2.689 V ttn-pfaffenrot -78 dBm 27.02.2024 15:25
1919 temp-at-nowhere 2024-02-27 14:25:21 8.14 °C x 99.9 % 2.688 V ttn-pfaffenrot -75 dBm 27.02.2024 14:25
1920 temp-at-nowhere 2024-02-27 13:25:21 8.07 °C x 99.9 % 2.689 V ttn-pfaffenrot -77 dBm 27.02.2024 13:25
1921 temp-at-nowhere 2024-02-27 12:25:22 7.51 °C x 99.9 % 2.687 V ttn-pfaffenrot -74 dBm 27.02.2024 12:25
1922 temp-at-nowhere 2024-02-27 11:25:23 7.06 °C x 99.9 % 2.688 V ttn-pfaffenrot -75 dBm 27.02.2024 11:25
1923 temp-at-nowhere 2024-02-27 10:25:24 6.67 °C x 99.9 % 2.688 V ttn-pfaffenrot -75 dBm 27.02.2024 10:25
1924 temp-at-nowhere 2024-02-27 09:25:25 5.89 °C x 99.9 % 2.687 V ttn-pfaffenrot -78 dBm 27.02.2024 09:25
1925 temp-at-nowhere 2024-02-27 08:25:25 5.97 °C x 99.9 % 2.688 V ttn-pfaffenrot -73 dBm 27.02.2024 08:25
1926 temp-at-nowhere 2024-02-27 07:25:26 6.88 °C x 99.9 % 2.688 V ttn-pfaffenrot -74 dBm 27.02.2024 07:25
1927 temp-at-nowhere 2024-02-27 06:25:27 8.22 °C x 99.9 % 2.689 V ttn-pfaffenrot -76 dBm 27.02.2024 06:25
1928 temp-at-nowhere 2024-02-27 05:25:28 8.36 °C x 99.9 % 2.689 V ttn-pfaffenrot -72 dBm 27.02.2024 05:25
1929 temp-at-nowhere 2024-02-27 04:25:28 8.61 °C x 99.9 % 2.689 V ttn-pfaffenrot -75 dBm 27.02.2024 04:25
1930 temp-at-nowhere 2024-02-27 03:25:29 8.99 °C x 99.9 % 2.688 V ttn-pfaffenrot -78 dBm 27.02.2024 03:25
1931 temp-at-nowhere 2024-02-27 02:25:30 9.35 °C x 99.9 % 2.689 V ttn-pfaffenrot -77 dBm 27.02.2024 02:25
1932 temp-at-nowhere 2024-02-27 01:25:31 9.39 °C x 99.9 % 2.69 V ttn-pfaffenrot -75 dBm 27.02.2024 01:25
1933 temp-at-nowhere 2024-02-27 00:25:32 9.64 °C x 99.9 % 2.689 V ttn-pfaffenrot -75 dBm 27.02.2024 00:25
1934 temp-at-nowhere 2024-02-26 23:25:33 9.77 °C x 99.9 % 2.69 V ttn-pfaffenrot -76 dBm 26.02.2024 23:25
1935 temp-at-nowhere 2024-02-26 22:25:33 9.73 °C x 99.9 % 2.688 V ttn-pfaffenrot -75 dBm 26.02.2024 22:25
1936 temp-at-nowhere 2024-02-26 21:25:34 8.51 °C x 99.9 % 2.689 V ttn-pfaffenrot -74 dBm 26.02.2024 21:25
1937 temp-at-nowhere 2024-02-26 20:25:35 8.9 °C x 99.9 % 2.691 V ttn-pfaffenrot -74 dBm 26.02.2024 20:25
1938 temp-at-nowhere 2024-02-26 19:25:36 9.47 °C x 99.9 % 2.689 V ttn-pfaffenrot -76 dBm 26.02.2024 19:25
1939 temp-at-nowhere 2024-02-26 18:25:37 10.14 °C x 99.9 % 2.691 V ttn-pfaffenrot -74 dBm 26.02.2024 18:25
1940 temp-at-nowhere 2024-02-26 17:25:37 11.32 °C x 99.9 % 2.69 V ttn-pfaffenrot -73 dBm 26.02.2024 17:25
1941 temp-at-nowhere 2024-02-26 16:25:38 12.09 °C x 99.9 % 2.69 V ttn-pfaffenrot -73 dBm 26.02.2024 16:25
1942 temp-at-nowhere 2024-02-26 15:25:39 12.77 °C x 99.9 % 2.692 V ttn-pfaffenrot -76 dBm 26.02.2024 15:25
1943 temp-at-nowhere 2024-02-26 14:25:40 12.78 °C x 99.9 % 2.69 V ttn-pfaffenrot -73 dBm 26.02.2024 14:25
1944 temp-at-nowhere 2024-02-26 13:25:41 13.25 °C x 99.9 % 2.69 V ttn-pfaffenrot -77 dBm 26.02.2024 13:25
1945 temp-at-nowhere 2024-02-26 12:25:42 11.59 °C x 99.9 % 2.688 V ttn-pfaffenrot -74 dBm 26.02.2024 12:25
1946 temp-at-nowhere 2024-02-26 11:25:42 8.56 °C x 99.9 % 2.688 V ttn-pfaffenrot -77 dBm 26.02.2024 11:25
1947 temp-at-nowhere 2024-02-26 10:25:43 7.51 °C x 99.9 % 2.689 V ttn-pfaffenrot -74 dBm 26.02.2024 10:25
1948 temp-at-nowhere 2024-02-26 09:25:44 6.57 °C x 99.9 % 2.688 V ttn-pfaffenrot -75 dBm 26.02.2024 09:25
1949 temp-at-nowhere 2024-02-26 08:25:45 6.38 °C x 99.9 % 2.689 V ttn-pfaffenrot -73 dBm 26.02.2024 08:25
1950 temp-at-nowhere 2024-02-26 07:25:54 6.92 °C x 99.9 % 2.687 V ttn-pfaffenrot -77 dBm 26.02.2024 07:25
1951 temp-at-nowhere 2024-02-26 06:25:46 7.94 °C x 99.9 % 2.688 V ttn-pfaffenrot -75 dBm 26.02.2024 06:25
1952 temp-at-nowhere 2024-02-26 05:25:47 7.68 °C x 99.9 % 2.69 V ttn-pfaffenrot -77 dBm 26.02.2024 05:25
1953 temp-at-nowhere 2024-02-26 04:25:48 8.08 °C x 99.9 % 2.688 V ttn-pfaffenrot -73 dBm 26.02.2024 04:25
1954 temp-at-nowhere 2024-02-26 03:25:49 8.82 °C x 99.9 % 2.689 V ttn-pfaffenrot -78 dBm 26.02.2024 03:25
1955 temp-at-nowhere 2024-02-26 02:25:50 8.76 °C x 99.9 % 2.689 V ttn-pfaffenrot -73 dBm 26.02.2024 02:25
1956 temp-at-nowhere 2024-02-26 01:25:50 8.61 °C x 99.9 % 2.689 V ttn-pfaffenrot -76 dBm 26.02.2024 01:25
1957 temp-at-nowhere 2024-02-26 00:25:51 8.12 °C x 99.9 % 2.689 V ttn-pfaffenrot -73 dBm 26.02.2024 00:25
1958 temp-at-nowhere 2024-02-25 23:25:52 7.81 °C x 99.9 % 2.689 V ttn-pfaffenrot -78 dBm 25.02.2024 23:25
1959 temp-at-nowhere 2024-02-25 22:25:53 7.7 °C x 99.9 % 2.689 V ttn-pfaffenrot -74 dBm 25.02.2024 22:25
1960 temp-at-nowhere 2024-02-25 21:25:54 6.38 °C x 99.5 % 2.688 V ttn-pfaffenrot -75 dBm 25.02.2024 21:25
1961 temp-at-nowhere 2024-02-25 20:25:54 6.27 °C x 99.9 % 2.687 V ttn-pfaffenrot -74 dBm 25.02.2024 20:25
1962 temp-at-nowhere 2024-02-25 19:25:55 6.86 °C x 99.9 % 2.69 V ttn-pfaffenrot -74 dBm 25.02.2024 19:25
1963 temp-at-nowhere 2024-02-25 18:25:56 7.68 °C x 99.9 % 2.688 V ttn-pfaffenrot -73 dBm 25.02.2024 18:25
1964 temp-at-nowhere 2024-02-25 17:25:57 8.59 °C x 94.4 % 2.691 V ttn-pfaffenrot -76 dBm 25.02.2024 17:25
1965 temp-at-nowhere 2024-02-25 16:25:58 9.88 °C x 90.2 % 2.688 V ttn-pfaffenrot -73 dBm 25.02.2024 16:25
1966 temp-at-nowhere 2024-02-25 15:25:59 11.8 °C x 84.9 % 2.691 V ttn-pfaffenrot -72 dBm 25.02.2024 15:25
1967 temp-at-nowhere 2024-02-25 14:25:59 10.48 °C x 89.5 % 2.689 V ttn-pfaffenrot -74 dBm 25.02.2024 14:25
1968 temp-at-nowhere 2024-02-25 13:26:00 9.99 °C x 94 % 2.689 V ttn-pfaffenrot -73 dBm 25.02.2024 13:26
1969 temp-at-nowhere 2024-02-25 12:26:01 8.4 °C x 99.6 % 2.69 V ttn-pfaffenrot -73 dBm 25.02.2024 12:26
1970 temp-at-nowhere 2024-02-25 11:26:02 8.24 °C x 99.9 % 2.689 V ttn-pfaffenrot -74 dBm 25.02.2024 11:26
1971 temp-at-nowhere 2024-02-25 10:26:03 6.39 °C x 99.9 % 2.688 V ttn-pfaffenrot -73 dBm 25.02.2024 10:26
1972 temp-at-nowhere 2024-02-25 09:26:03 3.99 °C x 99.9 % 2.688 V ttn-pfaffenrot -74 dBm 25.02.2024 09:26
1973 temp-at-nowhere 2024-02-25 08:26:04 3.81 °C x 99.9 % 2.688 V ttn-pfaffenrot -72 dBm 25.02.2024 08:26
1974 temp-at-nowhere 2024-02-25 07:26:05 4.6 °C x 99.9 % 2.687 V ttn-pfaffenrot -72 dBm 25.02.2024 07:26
1975 temp-at-nowhere 2024-02-25 06:26:06 5.72 °C x 99.9 % 2.69 V ttn-pfaffenrot -75 dBm 25.02.2024 06:26
1976 temp-at-nowhere 2024-02-25 05:26:07 5.19 °C x 99.9 % 2.688 V ttn-pfaffenrot -77 dBm 25.02.2024 05:26
1977 temp-at-nowhere 2024-02-25 04:26:07 4.24 °C x 99.9 % 2.689 V ttn-pfaffenrot -75 dBm 25.02.2024 04:26
1978 temp-at-nowhere 2024-02-25 03:26:08 4.16 °C x 99.9 % 2.689 V ttn-pfaffenrot -77 dBm 25.02.2024 03:26
1979 temp-at-nowhere 2024-02-25 02:26:09 3.91 °C x 99.9 % 2.688 V ttn-pfaffenrot -73 dBm 25.02.2024 02:26
1980 temp-at-nowhere 2024-02-25 01:26:10 3.84 °C x 99.9 % 2.688 V ttn-pfaffenrot -75 dBm 25.02.2024 01:26
1981 temp-at-nowhere 2024-02-25 00:26:11 4.14 °C x 99.9 % 2.688 V ttn-pfaffenrot -71 dBm 25.02.2024 00:26
1982 temp-at-nowhere 2024-02-24 23:26:11 4.21 °C x 99.9 % 2.69 V ttn-pfaffenrot -77 dBm 24.02.2024 23:26
1983 temp-at-nowhere 2024-02-24 22:26:12 4.1 °C x 99.9 % 2.688 V ttn-pfaffenrot -73 dBm 24.02.2024 22:26
1984 temp-at-nowhere 2024-02-24 21:26:13 3.54 °C x 99.9 % 2.689 V ttn-pfaffenrot -73 dBm 24.02.2024 21:26
1985 temp-at-nowhere 2024-02-24 20:26:14 3.94 °C x 99.9 % 2.689 V ttn-pfaffenrot -72 dBm 24.02.2024 20:26
1986 temp-at-nowhere 2024-02-24 19:26:15 4.82 °C x 99.9 % 2.689 V ttn-pfaffenrot -75 dBm 24.02.2024 19:26
1987 temp-at-nowhere 2024-02-24 18:26:15 5.87 °C x 99.9 % 2.69 V ttn-pfaffenrot -72 dBm 24.02.2024 18:26
1988 temp-at-nowhere 2024-02-24 17:26:16 6.47 °C x 99.9 % 2.691 V ttn-pfaffenrot -75 dBm 24.02.2024 17:26
1989 temp-at-nowhere 2024-02-24 16:26:17 6.84 °C x 99.9 % 2.692 V ttn-pfaffenrot -74 dBm 24.02.2024 16:26
1990 temp-at-nowhere 2024-02-24 15:26:18 6.96 °C x 99.9 % 2.691 V ttn-pfaffenrot -75 dBm 24.02.2024 15:26
1991 temp-at-nowhere 2024-02-24 14:26:19 7.25 °C x 99.9 % 2.691 V ttn-pfaffenrot -75 dBm 24.02.2024 14:26
1992 temp-at-nowhere 2024-02-24 13:26:19 8 °C x 99.1 % 2.691 V ttn-pfaffenrot -75 dBm 24.02.2024 13:26
1993 temp-at-nowhere 2024-02-24 12:26:20 8.66 °C x 99.9 % 2.692 V ttn-pfaffenrot -74 dBm 24.02.2024 12:26
1994 temp-at-nowhere 2024-02-24 11:26:21 7.65 °C x 99.9 % 2.692 V ttn-pfaffenrot -72 dBm 24.02.2024 11:26
1995 temp-at-nowhere 2024-02-24 10:26:22 5.53 °C x 99.9 % 2.689 V ttn-pfaffenrot -75 dBm 24.02.2024 10:26
1996 temp-at-nowhere 2024-02-24 09:26:23 4.52 °C x 99.9 % 2.69 V ttn-pfaffenrot -74 dBm 24.02.2024 09:26
1997 temp-at-nowhere 2024-02-24 08:26:24 3.26 °C x 99.9 % 2.688 V ttn-pfaffenrot -73 dBm 24.02.2024 08:26
1998 temp-at-nowhere 2024-02-24 07:26:24 3.56 °C x 99.9 % 2.688 V ttn-pfaffenrot -73 dBm 24.02.2024 07:26
1999 temp-at-nowhere 2024-02-24 06:26:25 4.53 °C x 99.9 % 2.691 V ttn-pfaffenrot -73 dBm 24.02.2024 06:26
2000 temp-at-nowhere 2024-02-24 05:26:26 3.86 °C x 99.9 % 2.689 V ttn-pfaffenrot -74 dBm 24.02.2024 05:26
2001 temp-at-nowhere 2024-02-24 04:26:27 4.23 °C x 99.9 % 2.689 V ttn-pfaffenrot -73 dBm 24.02.2024 04:26
2002 temp-at-nowhere 2024-02-24 03:26:28 5 °C x 99.9 % 2.691 V ttn-pfaffenrot -71 dBm 24.02.2024 03:26
2003 temp-at-nowhere 2024-02-24 02:26:28 6.41 °C x 99.9 % 2.69 V ttn-pfaffenrot -74 dBm 24.02.2024 02:26
2004 temp-at-nowhere 2024-02-24 01:26:29 5.98 °C x 99.9 % 2.69 V ttn-pfaffenrot -74 dBm 24.02.2024 01:26
2005 temp-at-nowhere 2024-02-24 00:26:30 5.78 °C x 99.9 % 2.691 V ttn-pfaffenrot -74 dBm 24.02.2024 00:26
2006 temp-at-nowhere 2024-02-23 23:26:31 5.27 °C x 99.9 % 2.691 V ttn-pfaffenrot -73 dBm 23.02.2024 23:26
2007 temp-at-nowhere 2024-02-23 22:26:32 5.42 °C x 99.9 % 2.692 V ttn-pfaffenrot -75 dBm 23.02.2024 22:26
2008 temp-at-nowhere 2024-02-23 21:26:32 4.9 °C x 99.9 % 2.691 V ttn-pfaffenrot -77 dBm 23.02.2024 21:26
2009 temp-at-nowhere 2024-02-23 20:26:33 5.22 °C x 99.9 % 2.691 V ttn-pfaffenrot -72 dBm 23.02.2024 20:26
2010 temp-at-nowhere 2024-02-23 19:26:34 6.19 °C x 99.8 % 2.69 V ttn-pfaffenrot -77 dBm 23.02.2024 19:26
2011 temp-at-nowhere 2024-02-23 18:26:35 7.55 °C x 97.1 % 2.693 V ttn-pfaffenrot -74 dBm 23.02.2024 18:26
2012 temp-at-nowhere 2024-02-23 17:26:35 8.49 °C x 91.1 % 2.692 V ttn-pfaffenrot -75 dBm 23.02.2024 17:26
2013 temp-at-nowhere 2024-02-23 16:26:36 9.79 °C x 85.2 % 2.694 V ttn-pfaffenrot -73 dBm 23.02.2024 16:26
2014 temp-at-nowhere 2024-02-23 15:26:37 12.78 °C x 79.8 % 2.694 V ttn-pfaffenrot -76 dBm 23.02.2024 15:26
2015 temp-at-nowhere 2024-02-23 14:26:38 12.78 °C x 83.2 % 2.692 V ttn-pfaffenrot -75 dBm 23.02.2024 14:26
2016 temp-at-nowhere 2024-02-23 13:26:38 11.37 °C x 88.9 % 2.692 V ttn-pfaffenrot -76 dBm 23.02.2024 13:26
2017 temp-at-nowhere 2024-02-23 12:26:39 9.78 °C x 90.8 % 2.693 V ttn-pfaffenrot -73 dBm 23.02.2024 12:26
2018 temp-at-nowhere 2024-02-23 11:26:40 9.41 °C x 94.4 % 2.692 V ttn-pfaffenrot -76 dBm 23.02.2024 11:26
2019 temp-at-nowhere 2024-02-23 10:26:41 7.5 °C x 99.9 % 2.693 V ttn-pfaffenrot -76 dBm 23.02.2024 10:26
2020 temp-at-nowhere 2024-02-23 09:26:41 4.98 °C x 99.9 % 2.693 V ttn-pfaffenrot -72 dBm 23.02.2024 09:26
2021 temp-at-nowhere 2024-02-23 08:26:42 3.53 °C x 99.9 % 2.69 V ttn-pfaffenrot -73 dBm 23.02.2024 08:26
2022 temp-at-nowhere 2024-02-23 07:26:43 4.25 °C x 99.9 % 2.691 V ttn-pfaffenrot -75 dBm 23.02.2024 07:26
2023 temp-at-nowhere 2024-02-23 06:26:44 5.92 °C x 99.9 % 2.692 V ttn-pfaffenrot -73 dBm 23.02.2024 06:26
2024 temp-at-nowhere 2024-02-23 05:26:44 6.17 °C x 99.9 % 2.692 V ttn-pfaffenrot -76 dBm 23.02.2024 05:26
2025 temp-at-nowhere 2024-02-23 04:26:45 6.13 °C x 99.9 % 2.692 V ttn-pfaffenrot -72 dBm 23.02.2024 04:26
2026 temp-at-nowhere 2024-02-23 03:26:46 5.88 °C x 99.9 % 2.69 V ttn-pfaffenrot -74 dBm 23.02.2024 03:26
2027 temp-at-nowhere 2024-02-23 02:26:47 6.35 °C x 99.9 % 2.692 V ttn-pfaffenrot -72 dBm 23.02.2024 02:26
2028 temp-at-nowhere 2024-02-23 01:26:47 6.36 °C x 99.9 % 2.692 V ttn-pfaffenrot -72 dBm 23.02.2024 01:26
2029 temp-at-nowhere 2024-02-23 00:26:48 6.88 °C x 99.9 % 2.691 V ttn-pfaffenrot -72 dBm 23.02.2024 00:26
2030 temp-at-nowhere 2024-02-22 23:26:49 7.84 °C x 99.9 % 2.693 V ttn-pfaffenrot -72 dBm 22.02.2024 23:26
2031 temp-at-nowhere 2024-02-22 22:26:50 8.88 °C x 99.9 % 2.694 V ttn-pfaffenrot -73 dBm 22.02.2024 22:26
2032 temp-at-nowhere 2024-02-22 21:26:50 9.36 °C x 99.9 % 2.693 V ttn-pfaffenrot -75 dBm 22.02.2024 21:26
2033 temp-at-nowhere 2024-02-22 20:26:51 10.39 °C x 99.9 % 2.692 V ttn-pfaffenrot -71 dBm 22.02.2024 20:26
2034 temp-at-nowhere 2024-02-22 19:26:52 9.66 °C x 99.9 % 2.694 V ttn-pfaffenrot -75 dBm 22.02.2024 19:26
2035 temp-at-nowhere 2024-02-22 18:26:53 9.25 °C x 99.9 % 2.693 V ttn-pfaffenrot -72 dBm 22.02.2024 18:26
2036 temp-at-nowhere 2024-02-22 17:26:53 9.48 °C x 99.9 % 2.692 V ttn-pfaffenrot -73 dBm 22.02.2024 17:26
2037 temp-at-nowhere 2024-02-22 16:26:54 9.78 °C x 99.9 % 2.694 V ttn-pfaffenrot -69 dBm 22.02.2024 16:26
2038 temp-at-nowhere 2024-02-22 15:26:55 9.9 °C x 99.9 % 2.694 V ttn-pfaffenrot -72 dBm 22.02.2024 15:26
2039 temp-at-nowhere 2024-02-22 14:26:56 10.68 °C x 99.9 % 2.693 V ttn-pfaffenrot -73 dBm 22.02.2024 14:26
2040 temp-at-nowhere 2024-02-22 13:26:57 11.14 °C x 99.9 % 2.693 V ttn-pfaffenrot -72 dBm 22.02.2024 13:26
2041 temp-at-nowhere 2024-02-22 12:26:57 9.6 °C x 99.9 % 2.692 V ttn-pfaffenrot -72 dBm 22.02.2024 12:26
2042 temp-at-nowhere 2024-02-22 11:26:58 9.58 °C x 99.9 % 2.692 V ttn-pfaffenrot -75 dBm 22.02.2024 11:26
2043 temp-at-nowhere 2024-02-22 10:26:59 9.1 °C x 99.9 % 2.692 V ttn-pfaffenrot -72 dBm 22.02.2024 10:26
2044 temp-at-nowhere 2024-02-22 09:27:00 8.71 °C x 99.9 % 2.692 V ttn-pfaffenrot -73 dBm 22.02.2024 09:27
2045 temp-at-nowhere 2024-02-22 08:27:00 8.45 °C x 99.9 % 2.69 V ttn-pfaffenrot -72 dBm 22.02.2024 08:27
2046 temp-at-nowhere 2024-02-22 07:27:01 8.64 °C x 99.9 % 2.694 V ttn-pfaffenrot -72 dBm 22.02.2024 07:27
2047 temp-at-nowhere 2024-02-22 06:27:02 9.46 °C x 99.9 % 2.694 V ttn-pfaffenrot -75 dBm 22.02.2024 06:27
2048 temp-at-nowhere 2024-02-22 05:27:03 9.09 °C x 99.9 % 2.692 V ttn-pfaffenrot -77 dBm 22.02.2024 05:27
2049 temp-at-nowhere 2024-02-22 04:27:03 9.12 °C x 99.9 % 2.692 V ttn-pfaffenrot -76 dBm 22.02.2024 04:27
2050 temp-at-nowhere 2024-02-22 03:27:04 8.68 °C x 99.9 % 2.693 V ttn-pfaffenrot -77 dBm 22.02.2024 03:27
2051 temp-at-nowhere 2024-02-22 02:27:05 8.88 °C x 99.9 % 2.693 V ttn-pfaffenrot -74 dBm 22.02.2024 02:27
2052 temp-at-nowhere 2024-02-22 01:27:06 9.51 °C x 99.9 % 2.694 V ttn-pfaffenrot -77 dBm 22.02.2024 01:27
2053 temp-at-nowhere 2024-02-22 00:27:06 10.31 °C x 99.9 % 2.694 V ttn-pfaffenrot -75 dBm 22.02.2024 00:27
2054 temp-at-nowhere 2024-02-21 23:27:07 10.95 °C x 99.9 % 2.692 V ttn-pfaffenrot -78 dBm 21.02.2024 23:27
2055 temp-at-nowhere 2024-02-21 22:27:08 10.54 °C x 99.9 % 2.693 V ttn-pfaffenrot -77 dBm 21.02.2024 22:27
2056 temp-at-nowhere 2024-02-21 21:27:09 9.24 °C x 99.9 % 2.693 V ttn-pfaffenrot -78 dBm 21.02.2024 21:27
2057 temp-at-nowhere 2024-02-21 20:27:10 8.05 °C x 99.9 % 2.692 V ttn-pfaffenrot -81 dBm 21.02.2024 20:27
2058 temp-at-nowhere 2024-02-21 19:27:10 8.6 °C x 99.9 % 2.695 V ttn-pfaffenrot -75 dBm 21.02.2024 19:27
2059 temp-at-nowhere 2024-02-21 18:27:11 9.17 °C x 99.9 % 2.693 V ttn-pfaffenrot -77 dBm 21.02.2024 18:27
2060 temp-at-nowhere 2024-02-21 17:27:12 9.92 °C x 99.9 % 2.693 V ttn-pfaffenrot -77 dBm 21.02.2024 17:27
2061 temp-at-nowhere 2024-02-21 16:27:12 10.55 °C x 99.9 % 2.693 V ttn-pfaffenrot -77 dBm 21.02.2024 16:27
2062 temp-at-nowhere 2024-02-21 15:27:13 11.06 °C x 99.9 % 2.694 V ttn-pfaffenrot -77 dBm 21.02.2024 15:27
2063 temp-at-nowhere 2024-02-21 14:27:14 11.37 °C x 99.9 % 2.694 V ttn-pfaffenrot -79 dBm 21.02.2024 14:27
2064 temp-at-nowhere 2024-02-21 13:27:15 11.34 °C x 99.9 % 2.694 V ttn-pfaffenrot -77 dBm 21.02.2024 13:27
2065 temp-at-nowhere 2024-02-21 12:27:15 10.44 °C x 99.9 % 2.694 V ttn-pfaffenrot -78 dBm 21.02.2024 12:27
2066 temp-at-nowhere 2024-02-21 11:27:16 9.19 °C x 99.9 % 2.693 V ttn-pfaffenrot -76 dBm 21.02.2024 11:27
2067 temp-at-nowhere 2024-02-21 10:27:17 7.5 °C x 99.9 % 2.694 V ttn-pfaffenrot -83 dBm 21.02.2024 10:27
2068 temp-at-nowhere 2024-02-21 09:27:18 6.39 °C x 99.9 % 2.692 V ttn-pfaffenrot -76 dBm 21.02.2024 09:27
2069 temp-at-nowhere 2024-02-21 08:27:18 5.92 °C x 99.9 % 2.694 V ttn-pfaffenrot -76 dBm 21.02.2024 08:27
2070 temp-at-nowhere 2024-02-21 07:27:19 6.36 °C x 99.9 % 2.692 V ttn-pfaffenrot -74 dBm 21.02.2024 07:27
2071 temp-at-nowhere 2024-02-21 06:27:20 7.65 °C x 99.9 % 2.693 V ttn-pfaffenrot -83 dBm 21.02.2024 06:27
2072 temp-at-nowhere 2024-02-21 05:27:20 7.74 °C x 99.9 % 2.694 V ttn-pfaffenrot -76 dBm 21.02.2024 05:27
2073 temp-at-nowhere 2024-02-21 04:27:21 8.24 °C x 99.9 % 2.693 V ttn-pfaffenrot -95 dBm 21.02.2024 04:27
2074 temp-at-nowhere 2024-02-21 03:27:22 8.14 °C x 99.9 % 2.693 V ttn-pfaffenrot -78 dBm 21.02.2024 03:27
2075 temp-at-nowhere 2024-02-21 02:27:23 8.36 °C x 99.9 % 2.692 V ttn-pfaffenrot -87 dBm 21.02.2024 02:27
2076 temp-at-nowhere 2024-02-21 01:27:23 8.11 °C x 99.9 % 2.693 V ttn-pfaffenrot -79 dBm 21.02.2024 01:27
2077 temp-at-nowhere 2024-02-21 00:27:24 7.98 °C x 99.9 % 2.693 V ttn-pfaffenrot -84 dBm 21.02.2024 00:27
2078 temp-at-nowhere 2024-02-20 23:27:25 7.65 °C x 99.9 % 2.693 V ttn-pfaffenrot -76 dBm 20.02.2024 23:27
2079 temp-at-nowhere 2024-02-20 22:27:26 7.38 °C x 99.9 % 2.691 V ttn-pfaffenrot -84 dBm 20.02.2024 22:27
2080 temp-at-nowhere 2024-02-20 21:27:27 6.35 °C x 99.9 % 2.692 V ttn-pfaffenrot -78 dBm 20.02.2024 21:27
2081 temp-at-nowhere 2024-02-20 20:27:27 6.48 °C x 99.9 % 2.693 V ttn-pfaffenrot -91 dBm 20.02.2024 20:27
2082 temp-at-nowhere 2024-02-20 19:27:28 7.07 °C x 99.9 % 2.694 V ttn-pfaffenrot -75 dBm 20.02.2024 19:27
2083 temp-at-nowhere 2024-02-20 18:27:29 7.7 °C x 99.9 % 2.694 V ttn-pfaffenrot -84 dBm 20.02.2024 18:27
2084 temp-at-nowhere 2024-02-20 17:27:29 8.46 °C x 99.9 % 2.694 V ttn-pfaffenrot -77 dBm 20.02.2024 17:27
2085 temp-at-nowhere 2024-02-20 16:27:30 9.32 °C x 99.9 % 2.695 V ttn-pfaffenrot -87 dBm 20.02.2024 16:27
2086 temp-at-nowhere 2024-02-20 15:27:31 10.35 °C x 99.9 % 2.695 V ttn-pfaffenrot -76 dBm 20.02.2024 15:27
2087 temp-at-nowhere 2024-02-20 14:27:31 11.05 °C x 99.9 % 2.695 V ttn-pfaffenrot -76 dBm 20.02.2024 14:27
2088 temp-at-nowhere 2024-02-20 13:27:32 9.81 °C x 99.9 % 2.694 V ttn-pfaffenrot -78 dBm 20.02.2024 13:27
2089 temp-at-nowhere 2024-02-20 12:27:33 8.95 °C x 99.9 % 2.694 V ttn-pfaffenrot -85 dBm 20.02.2024 12:27
2090 temp-at-nowhere 2024-02-20 11:27:34 9.14 °C x 99.9 % 2.693 V ttn-pfaffenrot -75 dBm 20.02.2024 11:27
2091 temp-at-nowhere 2024-02-20 10:27:34 7.15 °C x 99.9 % 2.694 V ttn-pfaffenrot -78 dBm 20.02.2024 10:27
2092 temp-at-nowhere 2024-02-20 09:27:35 5.72 °C x 99.9 % 2.692 V ttn-pfaffenrot -77 dBm 20.02.2024 09:27
2093 temp-at-nowhere 2024-02-20 08:27:36 5.68 °C x 99.9 % 2.694 V ttn-pfaffenrot -79 dBm 20.02.2024 08:27
2094 temp-at-nowhere 2024-02-20 07:27:37 6.14 °C x 99.9 % 2.694 V ttn-pfaffenrot -75 dBm 20.02.2024 07:27
2095 temp-at-nowhere 2024-02-20 06:27:37 7.67 °C x 99.9 % 2.694 V ttn-pfaffenrot -85 dBm 20.02.2024 06:27
2096 temp-at-nowhere 2024-02-20 05:27:38 7.8 °C x 99.9 % 2.693 V ttn-pfaffenrot -77 dBm 20.02.2024 05:27
2097 temp-at-nowhere 2024-02-20 04:27:39 8.1 °C x 99.9 % 2.694 V ttn-pfaffenrot -77 dBm 20.02.2024 04:27
2098 temp-at-nowhere 2024-02-20 03:27:39 8.27 °C x 99.9 % 2.695 V ttn-pfaffenrot -73 dBm 20.02.2024 03:27
2099 temp-at-nowhere 2024-02-20 02:27:40 8.48 °C x 99.9 % 2.694 V ttn-pfaffenrot -83 dBm 20.02.2024 02:27
2100 temp-at-nowhere 2024-02-20 01:27:41 8.86 °C x 99.9 % 2.694 V ttn-pfaffenrot -78 dBm 20.02.2024 01:27
2101 temp-at-nowhere 2024-02-20 00:27:42 8.34 °C x 99.9 % 2.695 V ttn-pfaffenrot -85 dBm 20.02.2024 00:27
2102 temp-at-nowhere 2024-02-19 23:27:42 8.54 °C x 99.9 % 2.696 V ttn-pfaffenrot -72 dBm 19.02.2024 23:27
2103 temp-at-nowhere 2024-02-19 22:27:43 8.7 °C x 99.9 % 2.695 V ttn-pfaffenrot -91 dBm 19.02.2024 22:27
2104 temp-at-nowhere 2024-02-19 21:27:44 8.62 °C x 99.9 % 2.695 V ttn-pfaffenrot -81 dBm 19.02.2024 21:27
2105 temp-at-nowhere 2024-02-19 20:27:45 7.97 °C x 99.9 % 2.695 V ttn-pfaffenrot -83 dBm 19.02.2024 20:27
2106 temp-at-nowhere 2024-02-19 19:27:45 8.06 °C x 99.9 % 2.695 V ttn-pfaffenrot -77 dBm 19.02.2024 19:27
2107 temp-at-nowhere 2024-02-19 18:27:46 8.28 °C x 99.9 % 2.695 V ttn-pfaffenrot -85 dBm 19.02.2024 18:27
2108 temp-at-nowhere 2024-02-19 17:27:47 8.91 °C x 99.9 % 2.694 V ttn-pfaffenrot -79 dBm 19.02.2024 17:27
2109 temp-at-nowhere 2024-02-19 16:27:47 10.25 °C x 99.9 % 2.696 V ttn-pfaffenrot -85 dBm 19.02.2024 16:27
2110 temp-at-nowhere 2024-02-19 15:27:48 12.18 °C x 99.9 % 2.696 V ttn-pfaffenrot -79 dBm 19.02.2024 15:27
2111 temp-at-nowhere 2024-02-19 14:27:49 10.5 °C x 99.9 % 2.696 V ttn-pfaffenrot -85 dBm 19.02.2024 14:27
2112 temp-at-nowhere 2024-02-19 13:27:50 9.57 °C x 99.9 % 2.697 V ttn-pfaffenrot -81 dBm 19.02.2024 13:27
2113 temp-at-nowhere 2024-02-19 12:27:50 8.47 °C x 99.9 % 2.695 V ttn-pfaffenrot -83 dBm 19.02.2024 12:27
2114 temp-at-nowhere 2024-02-19 11:27:51 7.78 °C x 99.9 % 2.695 V ttn-pfaffenrot -78 dBm 19.02.2024 11:27
2115 temp-at-nowhere 2024-02-19 10:27:52 7.49 °C x 99.9 % 2.694 V ttn-pfaffenrot -85 dBm 19.02.2024 10:27
2116 temp-at-nowhere 2024-02-19 09:27:53 7.08 °C x 99.9 % 2.697 V ttn-pfaffenrot -79 dBm 19.02.2024 09:27
2117 temp-at-nowhere 2024-02-19 08:27:53 7.21 °C x 99.9 % 2.695 V ttn-pfaffenrot -89 dBm 19.02.2024 08:27
2118 temp-at-nowhere 2024-02-19 07:27:54 7.97 °C x 99.9 % 2.695 V ttn-pfaffenrot -75 dBm 19.02.2024 07:27
2119 temp-at-nowhere 2024-02-19 06:27:55 9.41 °C x 99.9 % 2.695 V ttn-pfaffenrot -85 dBm 19.02.2024 06:27
2120 temp-at-nowhere 2024-02-19 05:27:55 8.76 °C x 99.9 % 2.696 V ttn-pfaffenrot -76 dBm 19.02.2024 05:27
2121 temp-at-nowhere 2024-02-19 04:27:56 8.81 °C x 99.9 % 2.695 V ttn-pfaffenrot -79 dBm 19.02.2024 04:27
2122 temp-at-nowhere 2024-02-19 03:27:57 8.71 °C x 99.9 % 2.696 V ttn-pfaffenrot -73 dBm 19.02.2024 03:27
2123 temp-at-nowhere 2024-02-19 02:27:58 8.81 °C x 99.9 % 2.696 V ttn-pfaffenrot -81 dBm 19.02.2024 02:27
2124 temp-at-nowhere 2024-02-19 01:27:58 8.7 °C x 99.9 % 2.696 V ttn-pfaffenrot -73 dBm 19.02.2024 01:27
2125 temp-at-nowhere 2024-02-19 00:27:59 8.69 °C x 99.9 % 2.696 V ttn-pfaffenrot -81 dBm 19.02.2024 00:27
2126 temp-at-nowhere 2024-02-18 23:28:00 8.47 °C x 99.9 % 2.695 V ttn-pfaffenrot -76 dBm 18.02.2024 23:28
2127 temp-at-nowhere 2024-02-18 22:28:00 8.41 °C x 99.9 % 2.696 V ttn-pfaffenrot -81 dBm 18.02.2024 22:28
2128 temp-at-nowhere 2024-02-18 21:28:01 8.42 °C x 99.9 % 2.696 V ttn-pfaffenrot -72 dBm 18.02.2024 21:28
2129 temp-at-nowhere 2024-02-18 20:28:02 7.76 °C x 99.9 % 2.695 V ttn-pfaffenrot -83 dBm 18.02.2024 20:28
2130 temp-at-nowhere 2024-02-18 19:28:03 8.73 °C x 99.9 % 2.695 V ttn-pfaffenrot -76 dBm 18.02.2024 19:28
2131 temp-at-nowhere 2024-02-18 18:28:03 9.07 °C x 99.9 % 2.697 V ttn-pfaffenrot -75 dBm 18.02.2024 18:28
2132 temp-at-nowhere 2024-02-18 17:28:04 9.51 °C x 99.9 % 2.696 V ttn-pfaffenrot -77 dBm 18.02.2024 17:28
2133 temp-at-nowhere 2024-02-18 16:28:05 9.99 °C x 99.9 % 2.697 V ttn-pfaffenrot -81 dBm 18.02.2024 16:28
2134 temp-at-nowhere 2024-02-18 15:28:06 10.65 °C x 99.9 % 2.697 V ttn-pfaffenrot -76 dBm 18.02.2024 15:28
2135 temp-at-nowhere 2024-02-18 14:28:07 11.27 °C x 99.9 % 2.697 V ttn-pfaffenrot -101 dBm 18.02.2024 14:28
2136 temp-at-nowhere 2024-02-18 13:28:07 11.81 °C x 99.9 % 2.697 V ttn-pfaffenrot -77 dBm 18.02.2024 13:28
2137 temp-at-nowhere 2024-02-18 12:28:08 11.55 °C x 99.9 % 2.697 V ttn-pfaffenrot -91 dBm 18.02.2024 12:28
2138 temp-at-nowhere 2024-02-18 11:28:09 10.05 °C x 99.9 % 2.695 V ttn-pfaffenrot -75 dBm 18.02.2024 11:28
2139 temp-at-nowhere 2024-02-18 10:28:10 8.39 °C x 99.9 % 2.697 V ttn-pfaffenrot -84 dBm 18.02.2024 10:28
2140 temp-at-nowhere 2024-02-18 09:28:10 6.89 °C x 99.9 % 2.697 V ttn-pfaffenrot -79 dBm 18.02.2024 09:28
2141 temp-at-nowhere 2024-02-18 08:28:11 6.11 °C x 99.9 % 2.696 V ttn-pfaffenrot -84 dBm 18.02.2024 08:28
2142 temp-at-nowhere 2024-02-18 07:28:12 6.71 °C x 99.9 % 2.695 V ttn-pfaffenrot -77 dBm 18.02.2024 07:28
2143 temp-at-nowhere 2024-02-18 06:28:12 7.74 °C x 99.9 % 2.697 V ttn-pfaffenrot -101 dBm 18.02.2024 06:28
2144 temp-at-nowhere 2024-02-18 05:28:13 8.36 °C x 99.9 % 2.696 V ttn-pfaffenrot -79 dBm 18.02.2024 05:28
2145 temp-at-nowhere 2024-02-18 04:28:14 8.12 °C x 99.9 % 2.696 V ttn-pfaffenrot -89 dBm 18.02.2024 04:28
2146 temp-at-nowhere 2024-02-18 03:28:15 8.38 °C x 99.9 % 2.697 V ttn-pfaffenrot -73 dBm 18.02.2024 03:28
2147 temp-at-nowhere 2024-02-18 02:28:15 8.24 °C x 99.9 % 2.696 V ttn-pfaffenrot -84 dBm 18.02.2024 02:28
2148 temp-at-nowhere 2024-02-18 01:28:16 7.86 °C x 99.9 % 2.696 V ttn-pfaffenrot -78 dBm 18.02.2024 01:28
2149 temp-at-nowhere 2024-02-18 00:28:17 7.73 °C x 99.9 % 2.696 V ttn-pfaffenrot -83 dBm 18.02.2024 00:28
2150 temp-at-nowhere 2024-02-17 23:28:17 8 °C x 99.9 % 2.697 V ttn-pfaffenrot -79 dBm 17.02.2024 23:28
2151 temp-at-nowhere 2024-02-17 22:28:18 8.09 °C x 99.9 % 2.697 V ttn-pfaffenrot -85 dBm 17.02.2024 22:28
2152 temp-at-nowhere 2024-02-17 21:28:19 8.3 °C x 99.9 % 2.697 V ttn-pfaffenrot -77 dBm 17.02.2024 21:28
2153 temp-at-nowhere 2024-02-17 20:28:19 8.12 °C x 99.9 % 2.696 V ttn-pfaffenrot -83 dBm 17.02.2024 20:28
2154 temp-at-nowhere 2024-02-17 19:28:20 9.09 °C x 99.9 % 2.698 V ttn-pfaffenrot -73 dBm 17.02.2024 19:28
2155 temp-at-nowhere 2024-02-17 18:28:21 10.89 °C x 99.9 % 2.698 V ttn-pfaffenrot -77 dBm 17.02.2024 18:28
2156 temp-at-nowhere 2024-02-17 17:28:22 12.48 °C x 94.7 % 2.698 V ttn-pfaffenrot -75 dBm 17.02.2024 17:28
2157 temp-at-nowhere 2024-02-17 16:28:22 14.1 °C x 90.4 % 2.697 V ttn-pfaffenrot -81 dBm 17.02.2024 16:28
2158 temp-at-nowhere 2024-02-17 15:28:23 16.7 °C x 84.6 % 2.696 V ttn-pfaffenrot -76 dBm 17.02.2024 15:28
2159 temp-at-nowhere 2024-02-17 14:28:24 16.35 °C x 99.9 % 2.697 V ttn-pfaffenrot -85 dBm 17.02.2024 14:28
2160 temp-at-nowhere 2024-02-17 13:28:25 11.99 °C x 99.9 % 2.698 V ttn-pfaffenrot -77 dBm 17.02.2024 13:28
2161 temp-at-nowhere 2024-02-17 12:28:25 12.25 °C x 99.9 % 2.696 V ttn-pfaffenrot -78 dBm 17.02.2024 12:28
2162 temp-at-nowhere 2024-02-17 11:28:26 11.27 °C x 99.9 % 2.697 V ttn-pfaffenrot -76 dBm 17.02.2024 11:28
2163 temp-at-nowhere 2024-02-17 10:28:27 10.18 °C x 99.9 % 2.695 V ttn-pfaffenrot -85 dBm 17.02.2024 10:28
2164 temp-at-nowhere 2024-02-17 09:28:28 9.89 °C x 99.9 % 2.699 V ttn-pfaffenrot -71 dBm 17.02.2024 09:28
2165 temp-at-nowhere 2024-02-17 08:28:28 9.89 °C x 99.9 % 2.697 V ttn-pfaffenrot -81 dBm 17.02.2024 08:28
2166 temp-at-nowhere 2024-02-17 07:28:29 10.72 °C x 99.9 % 2.697 V ttn-pfaffenrot -77 dBm 17.02.2024 07:28
2167 temp-at-nowhere 2024-02-17 06:28:30 11.86 °C x 99.9 % 2.697 V ttn-pfaffenrot -91 dBm 17.02.2024 06:28
2168 temp-at-nowhere 2024-02-17 05:28:31 11.77 °C x 99.9 % 2.697 V ttn-pfaffenrot -81 dBm 17.02.2024 05:28
2169 temp-at-nowhere 2024-02-17 04:28:32 11.99 °C x 99.9 % 2.697 V ttn-pfaffenrot -89 dBm 17.02.2024 04:28
2170 temp-at-nowhere 2024-02-17 03:28:32 12.79 °C x 99.9 % 2.698 V ttn-pfaffenrot -83 dBm 17.02.2024 03:28
2171 temp-at-nowhere 2024-02-17 02:28:33 12.56 °C x 99.9 % 2.698 V ttn-pfaffenrot -95 dBm 17.02.2024 02:28
2172 temp-at-nowhere 2024-02-17 01:28:34 12.56 °C x 99.9 % 2.696 V ttn-pfaffenrot -75 dBm 17.02.2024 01:28
2173 temp-at-nowhere 2024-02-17 00:28:35 12.37 °C x 99.9 % 2.696 V ttn-pfaffenrot -91 dBm 17.02.2024 00:28
2174 temp-at-nowhere 2024-02-16 23:28:36 12.44 °C x 99.9 % 2.697 V ttn-pfaffenrot -83 dBm 16.02.2024 23:28
2175 temp-at-nowhere 2024-02-16 22:28:36 12.34 °C x 99.9 % 2.696 V ttn-pfaffenrot -85 dBm 16.02.2024 22:28
2176 temp-at-nowhere 2024-02-16 21:28:37 12.23 °C x 99.9 % 2.697 V ttn-pfaffenrot -81 dBm 16.02.2024 21:28
2177 temp-at-nowhere 2024-02-16 20:28:38 11.62 °C x 99.9 % 2.696 V ttn-pfaffenrot -91 dBm 16.02.2024 20:28
2178 temp-at-nowhere 2024-02-16 19:28:39 11.81 °C x 99.9 % 2.697 V ttn-pfaffenrot -77 dBm 16.02.2024 19:28
2179 temp-at-nowhere 2024-02-16 18:28:39 12.25 °C x 99.9 % 2.698 V ttn-pfaffenrot -87 dBm 16.02.2024 18:28
2180 temp-at-nowhere 2024-02-16 17:28:40 13.21 °C x 99.9 % 2.697 V ttn-pfaffenrot -74 dBm 16.02.2024 17:28
2181 temp-at-nowhere 2024-02-16 16:28:41 14.6 °C x 99.9 % 2.696 V ttn-pfaffenrot -101 dBm 16.02.2024 16:28
2182 temp-at-nowhere 2024-02-16 15:28:42 14.74 °C x 99.9 % 2.697 V ttn-pfaffenrot -81 dBm 16.02.2024 15:28
2183 temp-at-nowhere 2024-02-16 14:28:42 15.25 °C x 99.9 % 2.696 V ttn-pfaffenrot -76 dBm 16.02.2024 14:28
2184 temp-at-nowhere 2024-02-16 13:28:43 16.02 °C x 96.1 % 2.698 V ttn-pfaffenrot -91 dBm 16.02.2024 13:28
2185 temp-at-nowhere 2024-02-16 12:28:44 15.47 °C x 99.9 % 2.697 V ttn-pfaffenrot -87 dBm 16.02.2024 12:28
2186 temp-at-nowhere 2024-02-16 11:28:45 14.4 °C x 99.9 % 2.696 V ttn-pfaffenrot -78 dBm 16.02.2024 11:28
2187 temp-at-nowhere 2024-02-16 10:28:45 13.01 °C x 99.9 % 2.698 V ttn-pfaffenrot -81 dBm 16.02.2024 10:28
2188 temp-at-nowhere 2024-02-16 09:28:46 11.26 °C x 99.9 % 2.696 V ttn-pfaffenrot -79 dBm 16.02.2024 09:28
2189 temp-at-nowhere 2024-02-16 08:28:47 9.81 °C x 99.9 % 2.696 V ttn-pfaffenrot -89 dBm 16.02.2024 08:28
2190 temp-at-nowhere 2024-02-16 07:28:48 10.3 °C x 99.9 % 2.697 V ttn-pfaffenrot -79 dBm 16.02.2024 07:28
2191 temp-at-nowhere 2024-02-16 06:28:49 11.67 °C x 99.9 % 2.697 V ttn-pfaffenrot -83 dBm 16.02.2024 06:28
2192 temp-at-nowhere 2024-02-16 05:28:49 12.15 °C x 99.9 % 2.696 V ttn-pfaffenrot -74 dBm 16.02.2024 05:28
2193 temp-at-nowhere 2024-02-16 04:28:50 11.84 °C x 99.9 % 2.697 V ttn-pfaffenrot -77 dBm 16.02.2024 04:28
2194 temp-at-nowhere 2024-02-16 03:28:51 12.1 °C x 99.9 % 2.697 V ttn-pfaffenrot -78 dBm 16.02.2024 03:28
2195 temp-at-nowhere 2024-02-16 02:28:52 12.13 °C x 99.9 % 2.697 V ttn-pfaffenrot -87 dBm 16.02.2024 02:28
2196 temp-at-nowhere 2024-02-16 01:28:52 12.04 °C x 99.9 % 2.696 V ttn-pfaffenrot -81 dBm 16.02.2024 01:28
2197 temp-at-nowhere 2024-02-16 00:28:53 12.24 °C x 99.9 % 2.697 V ttn-pfaffenrot -81 dBm 16.02.2024 00:28
2198 temp-at-nowhere 2024-02-15 23:28:54 12.28 °C x 99.9 % 2.699 V ttn-pfaffenrot -76 dBm 15.02.2024 23:28
2199 temp-at-nowhere 2024-02-15 22:28:55 12.55 °C x 99.9 % 2.697 V ttn-pfaffenrot -91 dBm 15.02.2024 22:28
2200 temp-at-nowhere 2024-02-15 21:28:55 11.94 °C x 99.9 % 2.695 V ttn-pfaffenrot -85 dBm 15.02.2024 21:28
2201 temp-at-nowhere 2024-02-15 20:28:56 12.26 °C x 99.9 % 2.698 V ttn-pfaffenrot -95 dBm 15.02.2024 20:28
2202 temp-at-nowhere 2024-02-15 19:28:57 12.75 °C x 99.9 % 2.697 V ttn-pfaffenrot -81 dBm 15.02.2024 19:28
2203 temp-at-nowhere 2024-02-15 18:28:58 13.45 °C x 99.9 % 2.698 V ttn-pfaffenrot -85 dBm 15.02.2024 18:28
2204 temp-at-nowhere 2024-02-15 17:28:58 14.43 °C x 99.9 % 2.696 V ttn-pfaffenrot -81 dBm 15.02.2024 17:28
2205 temp-at-nowhere 2024-02-15 16:28:59 15.79 °C x 99.9 % 2.696 V ttn-pfaffenrot -84 dBm 15.02.2024 16:28
2206 temp-at-nowhere 2024-02-15 15:29:00 17.1 °C x 99.9 % 2.697 V ttn-pfaffenrot -81 dBm 15.02.2024 15:29
2207 temp-at-nowhere 2024-02-15 14:29:01 16.18 °C x 99.9 % 2.696 V ttn-pfaffenrot -89 dBm 15.02.2024 14:29
2208 temp-at-nowhere 2024-02-15 13:29:01 15.76 °C x 99.9 % 2.694 V ttn-pfaffenrot -81 dBm 15.02.2024 13:29
2209 temp-at-nowhere 2024-02-15 12:29:02 15.7 °C x 99.9 % 2.696 V ttn-pfaffenrot -89 dBm 15.02.2024 12:29
2210 temp-at-nowhere 2024-02-15 11:29:03 15.35 °C x 99.9 % 2.696 V ttn-pfaffenrot -83 dBm 15.02.2024 11:29
2211 temp-at-nowhere 2024-02-15 10:29:04 12.72 °C x 99.9 % 2.695 V ttn-pfaffenrot -89 dBm 15.02.2024 10:29
2212 temp-at-nowhere 2024-02-15 09:29:05 10.16 °C x 99.9 % 2.694 V ttn-pfaffenrot -77 dBm 15.02.2024 09:29
2213 temp-at-nowhere 2024-02-15 08:29:05 10.01 °C x 99.9 % 2.695 V ttn-pfaffenrot -89 dBm 15.02.2024 08:29
2214 temp-at-nowhere 2024-02-15 07:29:06 10.95 °C x 99.9 % 2.694 V ttn-pfaffenrot -83 dBm 15.02.2024 07:29
2215 temp-at-nowhere 2024-02-15 06:29:07 12.09 °C x 99.9 % 2.695 V ttn-pfaffenrot -80 dBm 15.02.2024 06:29
2216 temp-at-nowhere 2024-02-15 05:29:08 11.81 °C x 99.9 % 2.695 V ttn-pfaffenrot -77 dBm 15.02.2024 05:29
2217 temp-at-nowhere 2024-02-15 04:29:08 11.78 °C x 99.9 % 2.695 V ttn-pfaffenrot -87 dBm 15.02.2024 04:29
2218 temp-at-nowhere 2024-02-15 03:29:09 11.92 °C x 99.9 % 2.697 V ttn-pfaffenrot -81 dBm 15.02.2024 03:29
2219 temp-at-nowhere 2024-02-15 02:29:10 12.2 °C x 99.9 % 2.695 V ttn-pfaffenrot -77 dBm 15.02.2024 02:29
2220 temp-at-nowhere 2024-02-15 01:29:11 12.31 °C x 99.9 % 2.696 V ttn-pfaffenrot -81 dBm 15.02.2024 01:29
2221 temp-at-nowhere 2024-02-15 00:29:12 12.52 °C x 99.9 % 2.696 V ttn-pfaffenrot -81 dBm 15.02.2024 00:29
2222 temp-at-nowhere 2024-02-14 23:29:12 12.59 °C x 99.9 % 2.697 V ttn-pfaffenrot -81 dBm 14.02.2024 23:29
2223 temp-at-nowhere 2024-02-14 22:29:13 12.44 °C x 99.9 % 2.694 V ttn-pfaffenrot -91 dBm 14.02.2024 22:29
2224 temp-at-nowhere 2024-02-14 21:29:14 12.16 °C x 99.9 % 2.694 V ttn-pfaffenrot -77 dBm 14.02.2024 21:29
2225 temp-at-nowhere 2024-02-14 20:29:15 11.39 °C x 99.9 % 2.694 V ttn-pfaffenrot -81 dBm 14.02.2024 20:29
2226 temp-at-nowhere 2024-02-14 19:29:16 11.66 °C x 99.9 % 2.694 V ttn-pfaffenrot -78 dBm 14.02.2024 19:29
2227 temp-at-nowhere 2024-02-14 18:29:16 11.92 °C x 99.9 % 2.695 V ttn-pfaffenrot -83 dBm 14.02.2024 18:29
2228 temp-at-nowhere 2024-02-14 17:29:17 12.39 °C x 99.9 % 2.694 V ttn-pfaffenrot -78 dBm 14.02.2024 17:29
2229 temp-at-nowhere 2024-02-14 16:29:18 13.04 °C x 99.9 % 2.695 V ttn-pfaffenrot -81 dBm 14.02.2024 16:29
2230 temp-at-nowhere 2024-02-14 15:29:19 14.17 °C x 99.8 % 2.694 V ttn-pfaffenrot -79 dBm 14.02.2024 15:29
2231 temp-at-nowhere 2024-02-14 14:29:19 15.53 °C x 98.9 % 2.694 V ttn-pfaffenrot -85 dBm 14.02.2024 14:29
2232 temp-at-nowhere 2024-02-14 13:29:20 13.98 °C x 99.9 % 2.694 V ttn-pfaffenrot -79 dBm 14.02.2024 13:29
2233 temp-at-nowhere 2024-02-14 12:29:21 11.06 °C x 99.9 % 2.694 V ttn-pfaffenrot -91 dBm 14.02.2024 12:29
2234 temp-at-nowhere 2024-02-14 11:29:22 9.94 °C x 99.9 % 2.695 V ttn-pfaffenrot -79 dBm 14.02.2024 11:29
2235 temp-at-nowhere 2024-02-14 10:29:23 8.89 °C x 99.9 % 2.694 V ttn-pfaffenrot -85 dBm 14.02.2024 10:29
2236 temp-at-nowhere 2024-02-14 09:29:24 8.28 °C x 99.9 % 2.694 V ttn-pfaffenrot -81 dBm 14.02.2024 09:29
2237 temp-at-nowhere 2024-02-14 08:29:24 7.82 °C x 99.9 % 2.693 V ttn-pfaffenrot -89 dBm 14.02.2024 08:29
2238 temp-at-nowhere 2024-02-14 07:29:25 7.87 °C x 99.9 % 2.693 V ttn-pfaffenrot -79 dBm 14.02.2024 07:29
2239 temp-at-nowhere 2024-02-14 06:29:26 8.71 °C x 99.9 % 2.696 V ttn-pfaffenrot -95 dBm 14.02.2024 06:29
2240 temp-at-nowhere 2024-02-14 05:29:27 8 °C x 99.9 % 2.694 V ttn-pfaffenrot -81 dBm 14.02.2024 05:29
2241 temp-at-nowhere 2024-02-14 04:29:28 7.75 °C x 99.9 % 2.693 V ttn-pfaffenrot -101 dBm 14.02.2024 04:29
2242 temp-at-nowhere 2024-02-14 03:29:28 7.02 °C x 99.9 % 2.693 V ttn-pfaffenrot -78 dBm 14.02.2024 03:29
2243 temp-at-nowhere 2024-02-14 02:29:29 6.78 °C x 99.9 % 2.692 V ttn-pfaffenrot -91 dBm 14.02.2024 02:29
2244 temp-at-nowhere 2024-02-14 01:29:30 6.4 °C x 99.9 % 2.694 V ttn-pfaffenrot -81 dBm 14.02.2024 01:29
2245 temp-at-nowhere 2024-02-14 00:29:31 5.69 °C x 99.9 % 2.692 V ttn-pfaffenrot -95 dBm 14.02.2024 00:29
2246 temp-at-nowhere 2024-02-13 23:29:32 5.8 °C x 99.9 % 2.692 V ttn-pfaffenrot -81 dBm 13.02.2024 23:29
2247 temp-at-nowhere 2024-02-13 22:29:32 5.86 °C x 99.9 % 2.693 V ttn-pfaffenrot -77 dBm 13.02.2024 22:29
2248 temp-at-nowhere 2024-02-13 21:29:33 5.64 °C x 99.9 % 2.693 V ttn-pfaffenrot -77 dBm 13.02.2024 21:29
2249 temp-at-nowhere 2024-02-13 20:29:34 5.72 °C x 99.9 % 2.694 V ttn-pfaffenrot -83 dBm 13.02.2024 20:29
2250 temp-at-nowhere 2024-02-13 19:29:35 6.83 °C x 99.9 % 2.694 V ttn-pfaffenrot -78 dBm 13.02.2024 19:29
2251 temp-at-nowhere 2024-02-13 18:29:35 8.03 °C x 99.9 % 2.694 V ttn-pfaffenrot -85 dBm 13.02.2024 18:29
2252 temp-at-nowhere 2024-02-13 17:29:36 9.46 °C x 99.9 % 2.695 V ttn-pfaffenrot -78 dBm 13.02.2024 17:29
2253 temp-at-nowhere 2024-02-13 16:29:37 11.5 °C x 90.9 % 2.694 V ttn-pfaffenrot -85 dBm 13.02.2024 16:29
2254 temp-at-nowhere 2024-02-13 15:29:38 15.59 °C x 83.3 % 2.694 V ttn-pfaffenrot -78 dBm 13.02.2024 15:29
2255 temp-at-nowhere 2024-02-13 14:29:39 13.41 °C x 99.9 % 2.694 V ttn-pfaffenrot -78 dBm 13.02.2024 14:29
2256 temp-at-nowhere 2024-02-13 13:29:39 10.89 °C x 99.9 % 2.693 V ttn-pfaffenrot -77 dBm 13.02.2024 13:29
2257 temp-at-nowhere 2024-02-13 12:29:40 10.32 °C x 99.9 % 2.696 V ttn-pfaffenrot -85 dBm 13.02.2024 12:29
2258 temp-at-nowhere 2024-02-13 11:29:41 9.88 °C x 99.9 % 2.694 V ttn-pfaffenrot -81 dBm 13.02.2024 11:29
2259 temp-at-nowhere 2024-02-13 10:29:42 7.85 °C x 99.9 % 2.694 V ttn-pfaffenrot -85 dBm 13.02.2024 10:29
2260 temp-at-nowhere 2024-02-13 09:29:43 5.47 °C x 99.9 % 2.692 V ttn-pfaffenrot -78 dBm 13.02.2024 09:29
2261 temp-at-nowhere 2024-02-13 08:29:43 5.4 °C x 99.9 % 2.693 V ttn-pfaffenrot -83 dBm 13.02.2024 08:29
2262 temp-at-nowhere 2024-02-13 07:29:44 6.02 °C x 99.9 % 2.693 V ttn-pfaffenrot -77 dBm 13.02.2024 07:29
2263 temp-at-nowhere 2024-02-13 06:29:45 7.03 °C x 99.9 % 2.693 V ttn-pfaffenrot -84 dBm 13.02.2024 06:29
2264 temp-at-nowhere 2024-02-13 05:29:46 6.41 °C x 99.9 % 2.694 V ttn-pfaffenrot -77 dBm 13.02.2024 05:29
2265 temp-at-nowhere 2024-02-13 04:29:47 6.79 °C x 99.9 % 2.694 V ttn-pfaffenrot -85 dBm 13.02.2024 04:29
2266 temp-at-nowhere 2024-02-13 03:29:47 7.1 °C x 99.9 % 2.693 V ttn-pfaffenrot -78 dBm 13.02.2024 03:29
2267 temp-at-nowhere 2024-02-13 02:29:48 7.04 °C x 99.9 % 2.694 V ttn-pfaffenrot -91 dBm 13.02.2024 02:29
2268 temp-at-nowhere 2024-02-13 01:29:49 6.11 °C x 99.9 % 2.693 V ttn-pfaffenrot -79 dBm 13.02.2024 01:29
2269 temp-at-nowhere 2024-02-13 00:29:50 6.21 °C x 99.9 % 2.693 V ttn-pfaffenrot -85 dBm 13.02.2024 00:29
2270 temp-at-nowhere 2024-02-12 23:29:51 6.55 °C x 99.9 % 2.693 V ttn-pfaffenrot -78 dBm 12.02.2024 23:29
2271 temp-at-nowhere 2024-02-12 22:29:51 6.94 °C x 99.9 % 2.695 V ttn-pfaffenrot -95 dBm 12.02.2024 22:29
2272 temp-at-nowhere 2024-02-12 21:29:52 6.35 °C x 99.9 % 2.694 V ttn-pfaffenrot -79 dBm 12.02.2024 21:29
2273 temp-at-nowhere 2024-02-12 20:29:53 5.84 °C x 99.9 % 2.693 V ttn-pfaffenrot -83 dBm 12.02.2024 20:29
2274 temp-at-nowhere 2024-02-12 19:29:54 6.39 °C x 99.9 % 2.694 V ttn-pfaffenrot -78 dBm 12.02.2024 19:29
2275 temp-at-nowhere 2024-02-12 18:29:55 6.73 °C x 99.9 % 2.693 V ttn-pfaffenrot -91 dBm 12.02.2024 18:29
2276 temp-at-nowhere 2024-02-12 17:29:55 7.47 °C x 99.9 % 2.695 V ttn-pfaffenrot -78 dBm 12.02.2024 17:29
2277 temp-at-nowhere 2024-02-12 16:29:56 8.07 °C x 99.9 % 2.694 V ttn-pfaffenrot -91 dBm 12.02.2024 16:29
2278 temp-at-nowhere 2024-02-12 15:29:57 8.23 °C x 99.9 % 2.694 V ttn-pfaffenrot -75 dBm 12.02.2024 15:29
2279 temp-at-nowhere 2024-02-12 14:29:58 8.56 °C x 99.9 % 2.694 V ttn-pfaffenrot -81 dBm 12.02.2024 14:29
2280 temp-at-nowhere 2024-02-12 13:29:59 8.93 °C x 99.9 % 2.695 V ttn-pfaffenrot -74 dBm 12.02.2024 13:29
2281 temp-at-nowhere 2024-02-12 12:29:59 8.62 °C x 99.9 % 2.694 V ttn-pfaffenrot -83 dBm 12.02.2024 12:29
2282 temp-at-nowhere 2024-02-12 11:30:00 7.85 °C x 99.9 % 2.696 V ttn-pfaffenrot -73 dBm 12.02.2024 11:30
2283 temp-at-nowhere 2024-02-12 10:30:01 7.27 °C x 99.9 % 2.694 V ttn-pfaffenrot -78 dBm 12.02.2024 10:30
2284 temp-at-nowhere 2024-02-12 09:30:02 6.11 °C x 99.9 % 2.695 V ttn-pfaffenrot -78 dBm 12.02.2024 09:30
2285 temp-at-nowhere 2024-02-12 08:30:03 6.13 °C x 99.9 % 2.695 V ttn-pfaffenrot -85 dBm 12.02.2024 08:30
2286 temp-at-nowhere 2024-02-12 07:30:03 6.76 °C x 99.9 % 2.694 V ttn-pfaffenrot -78 dBm 12.02.2024 07:30
2287 temp-at-nowhere 2024-02-12 06:30:04 7.7 °C x 99.9 % 2.695 V ttn-pfaffenrot -85 dBm 12.02.2024 06:30
2288 temp-at-nowhere 2024-02-12 05:30:05 7.86 °C x 99.9 % 2.694 V ttn-pfaffenrot -76 dBm 12.02.2024 05:30
2289 temp-at-nowhere 2024-02-12 04:30:06 8.22 °C x 99.9 % 2.694 V ttn-pfaffenrot -85 dBm 12.02.2024 04:30
2290 temp-at-nowhere 2024-02-12 03:30:07 8.26 °C x 99.9 % 2.695 V ttn-pfaffenrot -76 dBm 12.02.2024 03:30
2291 temp-at-nowhere 2024-02-12 02:30:07 7.85 °C x 99.9 % 2.694 V ttn-pfaffenrot -76 dBm 12.02.2024 02:30
2292 temp-at-nowhere 2024-02-12 01:30:08 8.14 °C x 99.9 % 2.693 V ttn-pfaffenrot -77 dBm 12.02.2024 01:30
2293 temp-at-nowhere 2024-02-12 00:30:09 8.07 °C x 99.9 % 2.694 V ttn-pfaffenrot -78 dBm 12.02.2024 00:30
2294 temp-at-nowhere 2024-02-11 23:30:10 8.31 °C x 99.9 % 2.695 V ttn-pfaffenrot -74 dBm 11.02.2024 23:30
2295 temp-at-nowhere 2024-02-11 22:30:11 8.36 °C x 99.9 % 2.696 V ttn-pfaffenrot -89 dBm 11.02.2024 22:30
2296 temp-at-nowhere 2024-02-11 21:30:11 7.99 °C x 99.9 % 2.695 V ttn-pfaffenrot -78 dBm 11.02.2024 21:30
2297 temp-at-nowhere 2024-02-11 20:30:12 6.93 °C x 99.9 % 2.694 V ttn-pfaffenrot -89 dBm 11.02.2024 20:30
2298 temp-at-nowhere 2024-02-11 19:30:13 7.24 °C x 99.9 % 2.694 V ttn-pfaffenrot -75 dBm 11.02.2024 19:30
2299 temp-at-nowhere 2024-02-11 18:30:14 7.48 °C x 99.9 % 2.695 V ttn-pfaffenrot -91 dBm 11.02.2024 18:30
2300 temp-at-nowhere 2024-02-11 17:30:15 8.13 °C x 99.9 % 2.695 V ttn-pfaffenrot -77 dBm 11.02.2024 17:30
2301 temp-at-nowhere 2024-02-11 16:30:15 8.79 °C x 99.9 % 2.694 V ttn-pfaffenrot -83 dBm 11.02.2024 16:30
2302 temp-at-nowhere 2024-02-11 15:30:16 10.01 °C x 99.9 % 2.695 V ttn-pfaffenrot -74 dBm 11.02.2024 15:30
2303 temp-at-nowhere 2024-02-11 14:30:17 9.41 °C x 99.9 % 2.696 V ttn-pfaffenrot -91 dBm 11.02.2024 14:30
2304 temp-at-nowhere 2024-02-11 13:30:18 8.59 °C x 99.9 % 2.696 V ttn-pfaffenrot -75 dBm 11.02.2024 13:30
2305 temp-at-nowhere 2024-02-11 12:30:19 8.07 °C x 99.9 % 2.696 V ttn-pfaffenrot -87 dBm 11.02.2024 12:30
2306 temp-at-nowhere 2024-02-11 11:30:19 7.49 °C x 99.9 % 2.694 V ttn-pfaffenrot -81 dBm 11.02.2024 11:30
2307 temp-at-nowhere 2024-02-11 10:30:20 6.97 °C x 99.9 % 2.694 V ttn-pfaffenrot -95 dBm 11.02.2024 10:30
2308 temp-at-nowhere 2024-02-11 09:30:21 5.59 °C x 99.9 % 2.694 V ttn-pfaffenrot -73 dBm 11.02.2024 09:30
2309 temp-at-nowhere 2024-02-11 08:30:22 5.42 °C x 99.9 % 2.694 V ttn-pfaffenrot -85 dBm 11.02.2024 08:30
2310 temp-at-nowhere 2024-02-11 07:30:23 5.79 °C x 99.9 % 2.694 V ttn-pfaffenrot -79 dBm 11.02.2024 07:30
2311 temp-at-nowhere 2024-02-11 06:30:23 6.83 °C x 99.9 % 2.696 V ttn-pfaffenrot -74 dBm 11.02.2024 06:30
2312 temp-at-nowhere 2024-02-11 05:30:24 6.53 °C x 99.9 % 2.695 V ttn-pfaffenrot -73 dBm 11.02.2024 05:30
2313 temp-at-nowhere 2024-02-11 04:30:25 7.25 °C x 99.9 % 2.694 V ttn-pfaffenrot -73 dBm 11.02.2024 04:30
2314 temp-at-nowhere 2024-02-11 03:30:26 8.57 °C x 99.9 % 2.695 V ttn-pfaffenrot -74 dBm 11.02.2024 03:30
2315 temp-at-nowhere 2024-02-11 02:30:27 10.39 °C x 99.9 % 2.696 V ttn-pfaffenrot -74 dBm 11.02.2024 02:30
2316 temp-at-nowhere 2024-02-11 01:30:27 10.11 °C x 99.9 % 2.695 V ttn-pfaffenrot -74 dBm 11.02.2024 01:30
2317 temp-at-nowhere 2024-02-11 00:30:28 9.98 °C x 99.9 % 2.695 V ttn-pfaffenrot -75 dBm 11.02.2024 00:30
2318 temp-at-nowhere 2024-02-10 23:30:29 9.56 °C x 99.9 % 2.696 V ttn-pfaffenrot -77 dBm 10.02.2024 23:30
2319 temp-at-nowhere 2024-02-10 22:30:30 9.1 °C x 99.9 % 2.696 V ttn-pfaffenrot -76 dBm 10.02.2024 22:30
2320 temp-at-nowhere 2024-02-10 21:30:31 8.41 °C x 99.9 % 2.696 V ttn-pfaffenrot -74 dBm 10.02.2024 21:30
2321 temp-at-nowhere 2024-02-10 20:30:31 8.5 °C x 99.9 % 2.695 V ttn-pfaffenrot -73 dBm 10.02.2024 20:30
2322 temp-at-nowhere 2024-02-10 19:30:32 8.75 °C x 99.9 % 2.697 V ttn-pfaffenrot -76 dBm 10.02.2024 19:30
2323 temp-at-nowhere 2024-02-10 18:30:33 9.29 °C x 99.9 % 2.697 V ttn-pfaffenrot -74 dBm 10.02.2024 18:30
2324 temp-at-nowhere 2024-02-10 17:30:34 9.88 °C x 99.9 % 2.696 V ttn-pfaffenrot -74 dBm 10.02.2024 17:30
2325 temp-at-nowhere 2024-02-10 16:30:34 10.93 °C x 99.9 % 2.696 V ttn-pfaffenrot -73 dBm 10.02.2024 16:30
2326 temp-at-nowhere 2024-02-10 15:30:35 11.56 °C x 99.9 % 2.698 V ttn-pfaffenrot -73 dBm 10.02.2024 15:30
2327 temp-at-nowhere 2024-02-10 14:30:36 10.77 °C x 99.9 % 2.695 V ttn-pfaffenrot -74 dBm 10.02.2024 14:30
2328 temp-at-nowhere 2024-02-10 13:30:37 10.25 °C x 99.9 % 2.695 V ttn-pfaffenrot -73 dBm 10.02.2024 13:30
2329 temp-at-nowhere 2024-02-10 12:30:38 9.46 °C x 99.9 % 2.696 V ttn-pfaffenrot -74 dBm 10.02.2024 12:30
2330 temp-at-nowhere 2024-02-10 11:30:39 8.8 °C x 99.9 % 2.696 V ttn-pfaffenrot -77 dBm 10.02.2024 11:30
2331 temp-at-nowhere 2024-02-10 10:30:39 8.17 °C x 99.9 % 2.697 V ttn-pfaffenrot -71 dBm 10.02.2024 10:30
2332 temp-at-nowhere 2024-02-10 09:30:40 7.68 °C x 99.9 % 2.695 V ttn-pfaffenrot -76 dBm 10.02.2024 09:30
2333 temp-at-nowhere 2024-02-10 08:30:41 7.63 °C x 99.9 % 2.695 V ttn-pfaffenrot -75 dBm 10.02.2024 08:30
2334 temp-at-nowhere 2024-02-10 07:30:42 8.29 °C x 99.9 % 2.696 V ttn-pfaffenrot -77 dBm 10.02.2024 07:30
2335 temp-at-nowhere 2024-02-10 06:30:43 9.61 °C x 99.9 % 2.695 V ttn-pfaffenrot -76 dBm 10.02.2024 06:30
2336 temp-at-nowhere 2024-02-10 05:30:43 10.05 °C x 99.9 % 2.695 V ttn-pfaffenrot -78 dBm 10.02.2024 05:30
2337 temp-at-nowhere 2024-02-10 04:30:44 10.83 °C x 99.9 % 2.697 V ttn-pfaffenrot -77 dBm 10.02.2024 04:30
2338 temp-at-nowhere 2024-02-10 03:30:45 10.93 °C x 99.9 % 2.697 V ttn-pfaffenrot -79 dBm 10.02.2024 03:30
2339 temp-at-nowhere 2024-02-10 02:30:46 10.5 °C x 99.9 % 2.697 V ttn-pfaffenrot -75 dBm 10.02.2024 02:30
2340 temp-at-nowhere 2024-02-10 01:30:47 10.45 °C x 99.9 % 2.695 V ttn-pfaffenrot -76 dBm 10.02.2024 01:30
2341 temp-at-nowhere 2024-02-10 00:30:48 10.38 °C x 99.9 % 2.696 V ttn-pfaffenrot -76 dBm 10.02.2024 00:30
2342 temp-at-nowhere 2024-02-09 23:30:48 10.28 °C x 99.9 % 2.695 V ttn-pfaffenrot -77 dBm 09.02.2024 23:30
2343 temp-at-nowhere 2024-02-09 22:30:49 9.99 °C x 99.9 % 2.696 V ttn-pfaffenrot -76 dBm 09.02.2024 22:30
2344 temp-at-nowhere 2024-02-09 21:30:50 8.87 °C x 99.9 % 2.696 V ttn-pfaffenrot -75 dBm 09.02.2024 21:30
2345 temp-at-nowhere 2024-02-09 20:30:51 8.83 °C x 99.9 % 2.696 V ttn-pfaffenrot -73 dBm 09.02.2024 20:30
2346 temp-at-nowhere 2024-02-09 19:30:52 9.04 °C x 99.9 % 2.695 V ttn-pfaffenrot -73 dBm 09.02.2024 19:30
2347 temp-at-nowhere 2024-02-09 18:30:52 9.46 °C x 99.9 % 2.695 V ttn-pfaffenrot -72 dBm 09.02.2024 18:30
2348 temp-at-nowhere 2024-02-09 17:30:53 10.08 °C x 99.9 % 2.695 V ttn-pfaffenrot -73 dBm 09.02.2024 17:30
2349 temp-at-nowhere 2024-02-09 16:30:54 10.98 °C x 99.9 % 2.695 V ttn-pfaffenrot -73 dBm 09.02.2024 16:30
2350 temp-at-nowhere 2024-02-09 15:30:55 11.43 °C x 99.9 % 2.696 V ttn-pfaffenrot -72 dBm 09.02.2024 15:30
2351 temp-at-nowhere 2024-02-09 14:30:56 11.33 °C x 99.9 % 2.695 V ttn-pfaffenrot -75 dBm 09.02.2024 14:30
2352 temp-at-nowhere 2024-02-09 13:30:56 11.06 °C x 99.9 % 2.698 V ttn-pfaffenrot -73 dBm 09.02.2024 13:30
2353 temp-at-nowhere 2024-02-09 12:30:57 11.68 °C x 99.9 % 2.697 V ttn-pfaffenrot -73 dBm 09.02.2024 12:30
2354 temp-at-nowhere 2024-02-09 11:30:58 11.54 °C x 99.9 % 2.695 V ttn-pfaffenrot -73 dBm 09.02.2024 11:30
2355 temp-at-nowhere 2024-02-09 10:30:59 10.58 °C x 99.9 % 2.696 V ttn-pfaffenrot -72 dBm 09.02.2024 10:30
2356 temp-at-nowhere 2024-02-09 09:31:00 9.9 °C x 99.9 % 2.696 V ttn-pfaffenrot -74 dBm 09.02.2024 09:31
2357 temp-at-nowhere 2024-02-09 08:31:01 9.59 °C x 99.9 % 2.696 V ttn-pfaffenrot -73 dBm 09.02.2024 08:31
2358 temp-at-nowhere 2024-02-09 07:31:01 9.95 °C x 99.9 % 2.696 V ttn-pfaffenrot -75 dBm 09.02.2024 07:31
2359 temp-at-nowhere 2024-02-09 06:31:02 10.86 °C x 99.9 % 2.696 V ttn-pfaffenrot -71 dBm 09.02.2024 06:31
2360 temp-at-nowhere 2024-02-09 05:31:03 10.65 °C x 99.9 % 2.694 V ttn-pfaffenrot -77 dBm 09.02.2024 05:31
2361 temp-at-nowhere 2024-02-09 04:31:04 11.12 °C x 99.9 % 2.696 V ttn-pfaffenrot -74 dBm 09.02.2024 04:31
2362 temp-at-nowhere 2024-02-09 03:31:05 11.49 °C x 99.9 % 2.695 V ttn-pfaffenrot -77 dBm 09.02.2024 03:31
2363 temp-at-nowhere 2024-02-09 02:31:06 11.93 °C x 99.9 % 2.696 V ttn-pfaffenrot -74 dBm 09.02.2024 02:31
2364 temp-at-nowhere 2024-02-09 01:31:07 12.27 °C x 99.9 % 2.696 V ttn-pfaffenrot -77 dBm 09.02.2024 01:31
2365 temp-at-nowhere 2024-02-09 00:31:07 12.09 °C x 99.9 % 2.696 V ttn-pfaffenrot -74 dBm 09.02.2024 00:31
2366 temp-at-nowhere 2024-02-08 23:31:08 12.03 °C x 99.9 % 2.696 V ttn-pfaffenrot -77 dBm 08.02.2024 23:31
2367 temp-at-nowhere 2024-02-08 22:31:09 11.84 °C x 99.9 % 2.697 V ttn-pfaffenrot -74 dBm 08.02.2024 22:31
2368 temp-at-nowhere 2024-02-08 21:31:10 11.69 °C x 99.9 % 2.694 V ttn-pfaffenrot -76 dBm 08.02.2024 21:31
2369 temp-at-nowhere 2024-02-08 20:31:11 10.5 °C x 99.9 % 2.695 V ttn-pfaffenrot -74 dBm 08.02.2024 20:31
2370 temp-at-nowhere 2024-02-08 19:31:12 10.52 °C x 99.9 % 2.695 V ttn-pfaffenrot -72 dBm 08.02.2024 19:31
2371 temp-at-nowhere 2024-02-08 18:31:13 10.79 °C x 99.9 % 2.696 V ttn-pfaffenrot -72 dBm 08.02.2024 18:31
2372 temp-at-nowhere 2024-02-08 17:31:14 11.32 °C x 99.9 % 2.694 V ttn-pfaffenrot -75 dBm 08.02.2024 17:31
2373 temp-at-nowhere 2024-02-08 16:31:14 11.48 °C x 99.9 % 2.695 V ttn-pfaffenrot -71 dBm 08.02.2024 16:31
2374 temp-at-nowhere 2024-02-08 15:31:15 11.34 °C x 99.9 % 2.695 V ttn-pfaffenrot -73 dBm 08.02.2024 15:31
2375 temp-at-nowhere 2024-02-08 14:31:16 11.02 °C x 99.9 % 2.696 V ttn-pfaffenrot -69 dBm 08.02.2024 14:31
2376 temp-at-nowhere 2024-02-08 13:31:17 9.89 °C x 99.9 % 2.695 V ttn-pfaffenrot -73 dBm 08.02.2024 13:31
2377 temp-at-nowhere 2024-02-08 12:31:18 9.61 °C x 99.9 % 2.695 V ttn-pfaffenrot -72 dBm 08.02.2024 12:31
2378 temp-at-nowhere 2024-02-08 11:31:19 9.34 °C x 99.9 % 2.695 V ttn-pfaffenrot -72 dBm 08.02.2024 11:31
2379 temp-at-nowhere 2024-02-08 10:31:21 9.12 °C x 99.9 % 2.694 V ttn-pfaffenrot -71 dBm 08.02.2024 10:31
2380 temp-at-nowhere 2024-02-08 09:31:21 8.69 °C x 99.9 % 2.694 V ttn-pfaffenrot -72 dBm 08.02.2024 09:31
2381 temp-at-nowhere 2024-02-08 08:31:23 8.47 °C x 99.9 % 2.694 V ttn-pfaffenrot -71 dBm 08.02.2024 08:31
2382 temp-at-nowhere 2024-02-08 07:31:24 8.77 °C x 99.9 % 2.695 V ttn-pfaffenrot -72 dBm 08.02.2024 07:31
2383 temp-at-nowhere 2024-02-08 06:31:25 10.03 °C x 99.9 % 2.694 V ttn-pfaffenrot -72 dBm 08.02.2024 06:31
2384 temp-at-nowhere 2024-02-08 05:31:26 9.82 °C x 99.9 % 2.695 V ttn-pfaffenrot -74 dBm 08.02.2024 05:31
2385 temp-at-nowhere 2024-02-08 04:31:27 9.65 °C x 99.9 % 2.695 V ttn-pfaffenrot -75 dBm 08.02.2024 04:31
2386 temp-at-nowhere 2024-02-08 03:31:28 9.32 °C x 99.9 % 2.696 V ttn-pfaffenrot -75 dBm 08.02.2024 03:31
2387 temp-at-nowhere 2024-02-08 02:31:29 9.25 °C x 99.9 % 2.695 V ttn-pfaffenrot -69 dBm 08.02.2024 02:31
2388 temp-at-nowhere 2024-02-08 01:31:30 9.37 °C x 99.9 % 2.695 V ttn-pfaffenrot -75 dBm 08.02.2024 01:31
2389 temp-at-nowhere 2024-02-08 00:31:31 8.44 °C x 99.9 % 2.694 V ttn-pfaffenrot -72 dBm 08.02.2024 00:31
2390 temp-at-nowhere 2024-02-07 23:31:31 8.25 °C x 99.9 % 2.696 V ttn-pfaffenrot -71 dBm 07.02.2024 23:31
2391 temp-at-nowhere 2024-02-07 22:31:32 8.07 °C x 99.9 % 2.694 V ttn-pfaffenrot -71 dBm 07.02.2024 22:31
2392 temp-at-nowhere 2024-02-07 21:31:33 7.85 °C x 99.9 % 2.694 V ttn-pfaffenrot -73 dBm 07.02.2024 21:31
2393 temp-at-nowhere 2024-02-07 20:31:34 7.06 °C x 99.9 % 2.693 V ttn-pfaffenrot -72 dBm 07.02.2024 20:31
2394 temp-at-nowhere 2024-02-07 19:31:35 7.02 °C x 99.9 % 2.695 V ttn-pfaffenrot -73 dBm 07.02.2024 19:31
2395 temp-at-nowhere 2024-02-07 18:31:36 6.95 °C x 99.9 % 2.694 V ttn-pfaffenrot -71 dBm 07.02.2024 18:31
2396 temp-at-nowhere 2024-02-07 17:31:37 7.13 °C x 99.9 % 2.694 V ttn-pfaffenrot -75 dBm 07.02.2024 17:31
2397 temp-at-nowhere 2024-02-07 16:31:38 7.55 °C x 99.9 % 2.694 V ttn-pfaffenrot -74 dBm 07.02.2024 16:31
2398 temp-at-nowhere 2024-02-07 15:31:39 7.94 °C x 99.9 % 2.694 V ttn-pfaffenrot -75 dBm 07.02.2024 15:31
2399 temp-at-nowhere 2024-02-07 14:31:40 8.71 °C x 99.9 % 2.695 V ttn-pfaffenrot -74 dBm 07.02.2024 14:31
2400 temp-at-nowhere 2024-02-07 13:31:41 9.09 °C x 99.9 % 2.694 V ttn-pfaffenrot -76 dBm 07.02.2024 13:31
2401 temp-at-nowhere 2024-02-07 12:31:42 9.94 °C x 99.9 % 2.696 V ttn-pfaffenrot -76 dBm 07.02.2024 12:31
2402 temp-at-nowhere 2024-02-07 11:31:43 9.42 °C x 99.9 % 2.695 V ttn-pfaffenrot -79 dBm 07.02.2024 11:31
2403 temp-at-nowhere 2024-02-07 10:31:44 8.52 °C x 99.9 % 2.696 V ttn-pfaffenrot -77 dBm 07.02.2024 10:31
2404 temp-at-nowhere 2024-02-07 09:31:45 8 °C x 99.9 % 2.695 V ttn-pfaffenrot -76 dBm 07.02.2024 09:31
2405 temp-at-nowhere 2024-02-07 08:31:46 8.19 °C x 99.9 % 2.694 V ttn-pfaffenrot -76 dBm 07.02.2024 08:31
2406 temp-at-nowhere 2024-02-07 07:31:47 8.33 °C x 99.9 % 2.695 V ttn-pfaffenrot -77 dBm 07.02.2024 07:31
2407 temp-at-nowhere 2024-02-07 06:31:48 9.47 °C x 99.9 % 2.695 V ttn-pfaffenrot -76 dBm 07.02.2024 06:31
2408 temp-at-nowhere 2024-02-07 05:31:49 9.04 °C x 99.9 % 2.693 V ttn-pfaffenrot -77 dBm 07.02.2024 05:31
2409 temp-at-nowhere 2024-02-07 04:31:50 8.7 °C x 99.9 % 2.694 V ttn-pfaffenrot -76 dBm 07.02.2024 04:31
2410 temp-at-nowhere 2024-02-07 03:31:51 8.29 °C x 99.9 % 2.695 V ttn-pfaffenrot -76 dBm 07.02.2024 03:31
2411 temp-at-nowhere 2024-02-07 02:31:51 7.85 °C x 99.9 % 2.696 V ttn-pfaffenrot -74 dBm 07.02.2024 02:31
2412 temp-at-nowhere 2024-02-07 01:31:52 8.07 °C x 99.9 % 2.696 V ttn-pfaffenrot -77 dBm 07.02.2024 01:31
2413 temp-at-nowhere 2024-02-07 00:31:53 8.7 °C x 99.9 % 2.695 V ttn-pfaffenrot -76 dBm 07.02.2024 00:31
2414 temp-at-nowhere 2024-02-06 23:31:54 8.56 °C x 99.9 % 2.694 V ttn-pfaffenrot -76 dBm 06.02.2024 23:31
2415 temp-at-nowhere 2024-02-06 22:31:55 8.3 °C x 99.9 % 2.695 V ttn-pfaffenrot -77 dBm 06.02.2024 22:31
2416 temp-at-nowhere 2024-02-06 21:31:56 7.82 °C x 99.9 % 2.695 V ttn-pfaffenrot -77 dBm 06.02.2024 21:31
2417 temp-at-nowhere 2024-02-06 20:31:57 7.21 °C x 99.2 % 2.694 V ttn-pfaffenrot -76 dBm 06.02.2024 20:31
2418 temp-at-nowhere 2024-02-06 19:31:58 7.23 °C x 98.6 % 2.695 V ttn-pfaffenrot -76 dBm 06.02.2024 19:31
2419 temp-at-nowhere 2024-02-06 18:31:59 7.2 °C x 97.4 % 2.694 V ttn-pfaffenrot -76 dBm 06.02.2024 18:31
2420 temp-at-nowhere 2024-02-06 17:32:00 7.74 °C x 95.6 % 2.695 V ttn-pfaffenrot -78 dBm 06.02.2024 17:32
2421 temp-at-nowhere 2024-02-06 16:32:01 8.97 °C x 91 % 2.695 V ttn-pfaffenrot -77 dBm 06.02.2024 16:32
2422 temp-at-nowhere 2024-02-06 15:32:01 12.44 °C x 83.2 % 2.696 V ttn-pfaffenrot -77 dBm 06.02.2024 15:32
2423 temp-at-nowhere 2024-02-06 14:32:02 12.55 °C x 91.9 % 2.696 V ttn-pfaffenrot -79 dBm 06.02.2024 14:32
2424 temp-at-nowhere 2024-02-06 13:32:03 9.14 °C x 99.9 % 2.696 V ttn-pfaffenrot -83 dBm 06.02.2024 13:32
2425 temp-at-nowhere 2024-02-06 12:32:04 8.77 °C x 99.9 % 2.695 V ttn-pfaffenrot -75 dBm 06.02.2024 12:32
2426 temp-at-nowhere 2024-02-06 11:32:05 8.27 °C x 99.9 % 2.694 V ttn-pfaffenrot -79 dBm 06.02.2024 11:32
2427 temp-at-nowhere 2024-02-06 10:32:06 6.84 °C x 99.9 % 2.695 V ttn-pfaffenrot -80 dBm 06.02.2024 10:32
2428 temp-at-nowhere 2024-02-06 09:32:07 6.47 °C x 99.9 % 2.694 V ttn-pfaffenrot -78 dBm 06.02.2024 09:32
2429 temp-at-nowhere 2024-02-06 08:32:08 5.54 °C x 99.9 % 2.695 V ttn-pfaffenrot -75 dBm 06.02.2024 08:32
2430 temp-at-nowhere 2024-02-06 07:32:08 4.95 °C x 99.9 % 2.694 V ttn-pfaffenrot -77 dBm 06.02.2024 07:32
2431 temp-at-nowhere 2024-02-06 06:32:09 5.27 °C x 99.9 % 2.694 V ttn-pfaffenrot -78 dBm 06.02.2024 06:32
2432 temp-at-nowhere 2024-02-06 05:32:10 4.84 °C x 99.9 % 2.694 V ttn-pfaffenrot -79 dBm 06.02.2024 05:32
2433 temp-at-nowhere 2024-02-06 04:32:11 4.87 °C x 99.9 % 2.695 V ttn-pfaffenrot -75 dBm 06.02.2024 04:32
2434 temp-at-nowhere 2024-02-06 03:32:12 4.92 °C x 99.9 % 2.694 V ttn-pfaffenrot -77 dBm 06.02.2024 03:32
2435 temp-at-nowhere 2024-02-06 02:32:13 5.07 °C x 99.9 % 2.694 V ttn-pfaffenrot -76 dBm 06.02.2024 02:32
2436 temp-at-nowhere 2024-02-06 01:32:14 5.27 °C x 99.9 % 2.695 V ttn-pfaffenrot -79 dBm 06.02.2024 01:32
2437 temp-at-nowhere 2024-02-06 00:32:15 5.6 °C x 99.9 % 2.696 V ttn-pfaffenrot -76 dBm 06.02.2024 00:32
2438 temp-at-nowhere 2024-02-05 23:32:16 5.8 °C x 99.9 % 2.696 V ttn-pfaffenrot -78 dBm 05.02.2024 23:32
2439 temp-at-nowhere 2024-02-05 22:32:16 5.9 °C x 99.9 % 2.694 V ttn-pfaffenrot -75 dBm 05.02.2024 22:32
2440 temp-at-nowhere 2024-02-05 21:32:17 5.65 °C x 99.9 % 2.695 V ttn-pfaffenrot -78 dBm 05.02.2024 21:32
2441 temp-at-nowhere 2024-02-05 20:32:18 5.47 °C x 99.9 % 2.695 V ttn-pfaffenrot -75 dBm 05.02.2024 20:32
2442 temp-at-nowhere 2024-02-05 19:32:19 6.24 °C x 99.9 % 2.696 V ttn-pfaffenrot -77 dBm 05.02.2024 19:32
2443 temp-at-nowhere 2024-02-05 18:32:20 7.32 °C x 99.9 % 2.697 V ttn-pfaffenrot -75 dBm 05.02.2024 18:32
2444 temp-at-nowhere 2024-02-05 17:32:21 8.44 °C x 97.8 % 2.696 V ttn-pfaffenrot -76 dBm 05.02.2024 17:32
2445 temp-at-nowhere 2024-02-05 16:32:22 10.32 °C x 91.4 % 2.697 V ttn-pfaffenrot -75 dBm 05.02.2024 16:32
2446 temp-at-nowhere 2024-02-05 15:32:23 14.03 °C x 81.1 % 2.695 V ttn-pfaffenrot -79 dBm 05.02.2024 15:32
2447 temp-at-nowhere 2024-02-05 14:32:24 15.1 °C x 84.4 % 2.696 V ttn-pfaffenrot -77 dBm 05.02.2024 14:32
2448 temp-at-nowhere 2024-02-05 13:32:25 13.41 °C x 95.9 % 2.696 V ttn-pfaffenrot -76 dBm 05.02.2024 13:32
2449 temp-at-nowhere 2024-02-05 12:32:26 11.72 °C x 98.3 % 2.696 V ttn-pfaffenrot -76 dBm 05.02.2024 12:32
2450 temp-at-nowhere 2024-02-05 11:32:27 11.49 °C x 99.9 % 2.695 V ttn-pfaffenrot -77 dBm 05.02.2024 11:32
2451 temp-at-nowhere 2024-02-05 10:32:28 9.74 °C x 99.9 % 2.696 V ttn-pfaffenrot -75 dBm 05.02.2024 10:32
2452 temp-at-nowhere 2024-02-05 09:32:29 7.7 °C x 99.9 % 2.695 V ttn-pfaffenrot -77 dBm 05.02.2024 09:32
2453 temp-at-nowhere 2024-02-05 08:32:29 6.71 °C x 99.9 % 2.695 V ttn-pfaffenrot -75 dBm 05.02.2024 08:32
2454 temp-at-nowhere 2024-02-05 07:32:30 6.89 °C x 99.9 % 2.696 V ttn-pfaffenrot -74 dBm 05.02.2024 07:32
2455 temp-at-nowhere 2024-02-05 06:32:31 7.9 °C x 99.9 % 2.695 V ttn-pfaffenrot -75 dBm 05.02.2024 06:32
2456 temp-at-nowhere 2024-02-05 05:32:32 7.42 °C x 99.9 % 2.696 V ttn-pfaffenrot -78 dBm 05.02.2024 05:32
2457 temp-at-nowhere 2024-02-05 04:32:33 7.45 °C x 99.9 % 2.695 V ttn-pfaffenrot -77 dBm 05.02.2024 04:32
2458 temp-at-nowhere 2024-02-05 03:32:34 7.75 °C x 99.9 % 2.695 V ttn-pfaffenrot -81 dBm 05.02.2024 03:32
2459 temp-at-nowhere 2024-02-05 02:32:35 7.94 °C x 99.9 % 2.695 V ttn-pfaffenrot -76 dBm 05.02.2024 02:32
2460 temp-at-nowhere 2024-02-05 01:32:36 8.15 °C x 99.9 % 2.695 V ttn-pfaffenrot -77 dBm 05.02.2024 01:32
2461 temp-at-nowhere 2024-02-05 00:32:37 8.52 °C x 99.9 % 2.695 V ttn-pfaffenrot -77 dBm 05.02.2024 00:32
2462 temp-at-nowhere 2024-02-04 23:32:38 8.35 °C x 99.9 % 2.695 V ttn-pfaffenrot -79 dBm 04.02.2024 23:32
2463 temp-at-nowhere 2024-02-04 22:32:39 8.33 °C x 99.9 % 2.696 V ttn-pfaffenrot -76 dBm 04.02.2024 22:32
2464 temp-at-nowhere 2024-02-04 21:32:40 8.1 °C x 99.9 % 2.694 V ttn-pfaffenrot -75 dBm 04.02.2024 21:32
2465 temp-at-nowhere 2024-02-04 20:32:41 7.4 °C x 99.9 % 2.696 V ttn-pfaffenrot -76 dBm 04.02.2024 20:32
2466 temp-at-nowhere 2024-02-04 19:32:41 7.47 °C x 99.9 % 2.696 V ttn-pfaffenrot -79 dBm 04.02.2024 19:32
2467 temp-at-nowhere 2024-02-04 18:32:42 7.52 °C x 99.9 % 2.695 V ttn-pfaffenrot -75 dBm 04.02.2024 18:32
2468 temp-at-nowhere 2024-02-04 17:32:43 7.54 °C x 99.9 % 2.696 V ttn-pfaffenrot -78 dBm 04.02.2024 17:32
2469 temp-at-nowhere 2024-02-04 16:32:44 7.68 °C x 99.9 % 2.695 V ttn-pfaffenrot -79 dBm 04.02.2024 16:32
2470 temp-at-nowhere 2024-02-04 15:32:45 7.97 °C x 99.9 % 2.694 V ttn-pfaffenrot -76 dBm 04.02.2024 15:32
2471 temp-at-nowhere 2024-02-04 14:32:46 8.3 °C x 99.9 % 2.695 V ttn-pfaffenrot -76 dBm 04.02.2024 14:32
2472 temp-at-nowhere 2024-02-04 13:32:47 9.31 °C x 99.9 % 2.696 V ttn-pfaffenrot -77 dBm 04.02.2024 13:32
2473 temp-at-nowhere 2024-02-04 12:32:48 8.53 °C x 99.9 % 2.697 V ttn-pfaffenrot -77 dBm 04.02.2024 12:32
2474 temp-at-nowhere 2024-02-04 11:32:49 8.16 °C x 99.9 % 2.695 V ttn-pfaffenrot -78 dBm 04.02.2024 11:32
2475 temp-at-nowhere 2024-02-04 10:32:50 7.64 °C x 99.9 % 2.697 V ttn-pfaffenrot -75 dBm 04.02.2024 10:32
2476 temp-at-nowhere 2024-02-04 09:32:51 7.26 °C x 99.9 % 2.696 V ttn-pfaffenrot -74 dBm 04.02.2024 09:32
2477 temp-at-nowhere 2024-02-04 08:32:52 6.98 °C x 99.9 % 2.695 V ttn-pfaffenrot -75 dBm 04.02.2024 08:32
2478 temp-at-nowhere 2024-02-04 07:32:53 7.3 °C x 99.9 % 2.696 V ttn-pfaffenrot -77 dBm 04.02.2024 07:32
2479 temp-at-nowhere 2024-02-04 06:32:53 7.88 °C x 99.9 % 2.696 V ttn-pfaffenrot -76 dBm 04.02.2024 06:32
2480 temp-at-nowhere 2024-02-04 05:32:54 7.68 °C x 99.9 % 2.695 V ttn-pfaffenrot -76 dBm 04.02.2024 05:32
2481 temp-at-nowhere 2024-02-04 04:32:55 7.84 °C x 99.9 % 2.696 V ttn-pfaffenrot -75 dBm 04.02.2024 04:32
2482 temp-at-nowhere 2024-02-04 03:32:56 8.03 °C x 99.9 % 2.696 V ttn-pfaffenrot -77 dBm 04.02.2024 03:32
2483 temp-at-nowhere 2024-02-04 02:32:57 7.7 °C x 99.9 % 2.695 V ttn-pfaffenrot -76 dBm 04.02.2024 02:32
2484 temp-at-nowhere 2024-02-04 01:32:58 7.77 °C x 99.9 % 2.696 V ttn-pfaffenrot -76 dBm 04.02.2024 01:32
2485 temp-at-nowhere 2024-02-04 00:32:59 8.28 °C x 99.9 % 2.697 V ttn-pfaffenrot -77 dBm 04.02.2024 00:32
2486 temp-at-nowhere 2024-02-03 23:33:00 8.41 °C x 99.9 % 2.696 V ttn-pfaffenrot -77 dBm 03.02.2024 23:33
2487 temp-at-nowhere 2024-02-03 22:33:01 8.15 °C x 99.9 % 2.696 V ttn-pfaffenrot -75 dBm 03.02.2024 22:33
2488 temp-at-nowhere 2024-02-03 21:33:02 7.88 °C x 99.9 % 2.696 V ttn-pfaffenrot -76 dBm 03.02.2024 21:33
2489 temp-at-nowhere 2024-02-03 20:33:03 7.1 °C x 99.9 % 2.697 V ttn-pfaffenrot -73 dBm 03.02.2024 20:33
2490 temp-at-nowhere 2024-02-03 19:33:04 7.09 °C x 99.9 % 2.694 V ttn-pfaffenrot -76 dBm 03.02.2024 19:33
2491 temp-at-nowhere 2024-02-03 18:33:05 7.11 °C x 99.9 % 2.694 V ttn-pfaffenrot -75 dBm 03.02.2024 18:33
2492 temp-at-nowhere 2024-02-03 17:33:06 7.27 °C x 99.9 % 2.696 V ttn-pfaffenrot -77 dBm 03.02.2024 17:33
2493 temp-at-nowhere 2024-02-03 16:33:06 7.66 °C x 99.9 % 2.696 V ttn-pfaffenrot -74 dBm 03.02.2024 16:33
2494 temp-at-nowhere 2024-02-03 15:33:07 7.87 °C x 99.9 % 2.697 V ttn-pfaffenrot -78 dBm 03.02.2024 15:33
2495 temp-at-nowhere 2024-02-03 14:33:08 8.11 °C x 99.9 % 2.695 V ttn-pfaffenrot -74 dBm 03.02.2024 14:33
2496 temp-at-nowhere 2024-02-03 13:33:09 8.49 °C x 99.9 % 2.696 V ttn-pfaffenrot -75 dBm 03.02.2024 13:33
2497 temp-at-nowhere 2024-02-03 12:33:10 8.29 °C x 99.9 % 2.697 V ttn-pfaffenrot -73 dBm 03.02.2024 12:33
2498 temp-at-nowhere 2024-02-03 11:33:11 6.83 °C x 99.9 % 2.695 V ttn-pfaffenrot -75 dBm 03.02.2024 11:33
2499 temp-at-nowhere 2024-02-03 10:33:12 5.51 °C x 99.9 % 2.694 V ttn-pfaffenrot -74 dBm 03.02.2024 10:33
2500 temp-at-nowhere 2024-02-03 09:33:13 5.54 °C x 99.9 % 2.696 V ttn-pfaffenrot -76 dBm 03.02.2024 09:33
2501 temp-at-nowhere 2024-02-03 08:33:14 5.62 °C x 99.9 % 2.695 V ttn-pfaffenrot -74 dBm 03.02.2024 08:33
2502 temp-at-nowhere 2024-02-03 07:33:15 6.28 °C x 99.9 % 2.696 V ttn-pfaffenrot -77 dBm 03.02.2024 07:33
2503 temp-at-nowhere 2024-02-03 06:33:16 7.42 °C x 99.9 % 2.696 V ttn-pfaffenrot -75 dBm 03.02.2024 06:33
2504 temp-at-nowhere 2024-02-03 05:33:17 7.55 °C x 99.9 % 2.696 V ttn-pfaffenrot -76 dBm 03.02.2024 05:33
2505 temp-at-nowhere 2024-02-03 04:33:18 7.62 °C x 99.9 % 2.696 V ttn-pfaffenrot -77 dBm 03.02.2024 04:33
2506 temp-at-nowhere 2024-02-03 03:33:18 7.59 °C x 99.9 % 2.696 V ttn-pfaffenrot -76 dBm 03.02.2024 03:33
2507 temp-at-nowhere 2024-02-03 02:33:19 8.08 °C x 99.9 % 2.694 V ttn-pfaffenrot -77 dBm 03.02.2024 02:33
2508 temp-at-nowhere 2024-02-03 01:33:20 8.59 °C x 99.9 % 2.697 V ttn-pfaffenrot -78 dBm 03.02.2024 01:33
2509 temp-at-nowhere 2024-02-03 00:33:21 8.6 °C x 99.9 % 2.697 V ttn-pfaffenrot -76 dBm 03.02.2024 00:33
2510 temp-at-nowhere 2024-02-02 23:33:22 8.37 °C x 99.9 % 2.695 V ttn-pfaffenrot -77 dBm 02.02.2024 23:33
2511 temp-at-nowhere 2024-02-02 22:33:24 8.6 °C x 99.9 % 2.697 V ttn-pfaffenrot -76 dBm 02.02.2024 22:33
2512 temp-at-nowhere 2024-02-02 21:33:24 8.27 °C x 99.7 % 2.696 V ttn-pfaffenrot -77 dBm 02.02.2024 21:33
2513 temp-at-nowhere 2024-02-02 20:33:25 7.87 °C x 92.6 % 2.696 V ttn-pfaffenrot -76 dBm 02.02.2024 20:33
2514 temp-at-nowhere 2024-02-02 19:33:26 7.88 °C x 94.1 % 2.696 V ttn-pfaffenrot -76 dBm 02.02.2024 19:33
2515 temp-at-nowhere 2024-02-02 18:33:26 7.79 °C x 96.8 % 2.696 V ttn-pfaffenrot -77 dBm 02.02.2024 18:33
2516 temp-at-nowhere 2024-02-02 17:33:27 8.22 °C x 98.4 % 2.696 V ttn-pfaffenrot -76 dBm 02.02.2024 17:33
2517 temp-at-nowhere 2024-02-02 16:33:28 9.14 °C x 99.9 % 2.698 V ttn-pfaffenrot -75 dBm 02.02.2024 16:33
2518 temp-at-nowhere 2024-02-02 15:33:29 10.49 °C x 99.9 % 2.695 V ttn-pfaffenrot -76 dBm 02.02.2024 15:33
2519 temp-at-nowhere 2024-02-02 14:33:30 10.68 °C x 99.9 % 2.697 V ttn-pfaffenrot -76 dBm 02.02.2024 14:33
2520 temp-at-nowhere 2024-02-02 13:33:31 10.17 °C x 99.9 % 2.696 V ttn-pfaffenrot -77 dBm 02.02.2024 13:33
2521 temp-at-nowhere 2024-02-02 12:33:32 9.14 °C x 99.9 % 2.696 V ttn-pfaffenrot -77 dBm 02.02.2024 12:33
2522 temp-at-nowhere 2024-02-02 11:33:33 7.02 °C x 99.9 % 2.695 V ttn-pfaffenrot -75 dBm 02.02.2024 11:33
2523 temp-at-nowhere 2024-02-02 10:33:34 5.99 °C x 99.9 % 2.695 V ttn-pfaffenrot -73 dBm 02.02.2024 10:33
2524 temp-at-nowhere 2024-02-02 09:33:34 5.62 °C x 99.9 % 2.695 V ttn-pfaffenrot -75 dBm 02.02.2024 09:33
2525 temp-at-nowhere 2024-02-02 08:33:35 5.55 °C x 99.9 % 2.697 V ttn-pfaffenrot -74 dBm 02.02.2024 08:33
2526 temp-at-nowhere 2024-02-02 07:33:36 6.03 °C x 99.9 % 2.695 V ttn-pfaffenrot -73 dBm 02.02.2024 07:33
2527 temp-at-nowhere 2024-02-02 06:33:37 7 °C x 99.9 % 2.695 V ttn-pfaffenrot -75 dBm 02.02.2024 06:33
2528 temp-at-nowhere 2024-02-02 05:33:38 6.43 °C x 99.9 % 2.695 V ttn-pfaffenrot -73 dBm 02.02.2024 05:33
2529 temp-at-nowhere 2024-02-02 04:33:39 6.04 °C x 99.9 % 2.696 V ttn-pfaffenrot -74 dBm 02.02.2024 04:33
2530 temp-at-nowhere 2024-02-02 03:33:40 5.86 °C x 99.9 % 2.695 V ttn-pfaffenrot -78 dBm 02.02.2024 03:33
2531 temp-at-nowhere 2024-02-02 02:33:41 6.26 °C x 99.9 % 2.696 V ttn-pfaffenrot -73 dBm 02.02.2024 02:33
2532 temp-at-nowhere 2024-02-02 01:33:42 6.8 °C x 99.9 % 2.695 V ttn-pfaffenrot -76 dBm 02.02.2024 01:33
2533 temp-at-nowhere 2024-02-02 00:33:42 7.1 °C x 99.9 % 2.695 V ttn-pfaffenrot -70 dBm 02.02.2024 00:33
2534 temp-at-nowhere 2024-02-01 23:33:43 7.55 °C x 99.9 % 2.695 V ttn-pfaffenrot -76 dBm 01.02.2024 23:33
2535 temp-at-nowhere 2024-02-01 22:33:44 7.73 °C x 99.9 % 2.697 V ttn-pfaffenrot -73 dBm 01.02.2024 22:33
2536 temp-at-nowhere 2024-02-01 21:33:45 7.21 °C x 99.9 % 2.696 V ttn-pfaffenrot -75 dBm 01.02.2024 21:33
2537 temp-at-nowhere 2024-02-01 20:33:46 6.71 °C x 99.9 % 2.697 V ttn-pfaffenrot -72 dBm 01.02.2024 20:33
2538 temp-at-nowhere 2024-02-01 19:33:47 6.71 °C x 99.9 % 2.696 V ttn-pfaffenrot -72 dBm 01.02.2024 19:33
2539 temp-at-nowhere 2024-02-01 18:33:48 6.97 °C x 99.9 % 2.696 V ttn-pfaffenrot -72 dBm 01.02.2024 18:33
2540 temp-at-nowhere 2024-02-01 17:33:49 7.53 °C x 99.9 % 2.697 V ttn-pfaffenrot -73 dBm 01.02.2024 17:33
2541 temp-at-nowhere 2024-02-01 16:33:50 7.86 °C x 99.9 % 2.697 V ttn-pfaffenrot -73 dBm 01.02.2024 16:33
2542 temp-at-nowhere 2024-02-01 15:33:51 7.91 °C x 99.9 % 2.696 V ttn-pfaffenrot -72 dBm 01.02.2024 15:33
2543 temp-at-nowhere 2024-02-01 14:33:51 8.36 °C x 99.9 % 2.696 V ttn-pfaffenrot -72 dBm 01.02.2024 14:33
2544 temp-at-nowhere 2024-02-01 13:33:52 7.85 °C x 99.9 % 2.696 V ttn-pfaffenrot -73 dBm 01.02.2024 13:33
2545 temp-at-nowhere 2024-02-01 12:33:53 7.29 °C x 99.9 % 2.697 V ttn-pfaffenrot -73 dBm 01.02.2024 12:33
2546 temp-at-nowhere 2024-02-01 11:33:54 7.25 °C x 99.9 % 2.696 V ttn-pfaffenrot -72 dBm 01.02.2024 11:33
2547 temp-at-nowhere 2024-02-01 10:33:55 6.99 °C x 99.9 % 2.697 V ttn-pfaffenrot -72 dBm 01.02.2024 10:33
2548 temp-at-nowhere 2024-02-01 09:33:56 6.78 °C x 99.9 % 2.697 V ttn-pfaffenrot -73 dBm 01.02.2024 09:33
2549 temp-at-nowhere 2024-02-01 08:33:57 6.78 °C x 99.9 % 2.697 V ttn-pfaffenrot -71 dBm 01.02.2024 08:33
2550 temp-at-nowhere 2024-02-01 07:33:58 7.23 °C x 99.9 % 2.697 V ttn-pfaffenrot -72 dBm 01.02.2024 07:33
2551 temp-at-nowhere 2024-02-01 06:33:59 8.47 °C x 99.9 % 2.696 V ttn-pfaffenrot -75 dBm 01.02.2024 06:33
2552 temp-at-nowhere 2024-02-01 05:34:00 8.38 °C x 99.9 % 2.696 V ttn-pfaffenrot -81 dBm 01.02.2024 05:34
2553 temp-at-nowhere 2024-02-01 04:34:01 8.83 °C x 99.9 % 2.697 V ttn-pfaffenrot -76 dBm 01.02.2024 04:34
2554 temp-at-nowhere 2024-02-01 03:34:01 9 °C x 99.9 % 2.699 V ttn-pfaffenrot -78 dBm 01.02.2024 03:34
2555 temp-at-nowhere 2024-02-01 02:34:03 9.49 °C x 99.9 % 2.698 V ttn-pfaffenrot -76 dBm 01.02.2024 02:34
2556 temp-at-nowhere 2024-02-01 01:34:03 9.85 °C x 99.9 % 2.697 V ttn-pfaffenrot -79 dBm 01.02.2024 01:34
2557 temp-at-nowhere 2024-02-01 00:34:04 9.85 °C x 99.9 % 2.697 V ttn-pfaffenrot -75 dBm 01.02.2024 00:34
2558 temp-at-nowhere 2024-01-31 23:34:05 9.68 °C x 99.9 % 2.698 V ttn-pfaffenrot -77 dBm 31.01.2024 23:34
2559 temp-at-nowhere 2024-01-31 22:34:06 9.35 °C x 99.9 % 2.697 V ttn-pfaffenrot -76 dBm 31.01.2024 22:34
2560 temp-at-nowhere 2024-01-31 21:34:07 8.68 °C x 99.9 % 2.695 V ttn-pfaffenrot -75 dBm 31.01.2024 21:34
2561 temp-at-nowhere 2024-01-31 20:34:08 7.79 °C x 99.9 % 2.696 V ttn-pfaffenrot -74 dBm 31.01.2024 20:34
2562 temp-at-nowhere 2024-01-31 19:34:09 7.71 °C x 99.9 % 2.697 V ttn-pfaffenrot -78 dBm 31.01.2024 19:34
2563 temp-at-nowhere 2024-01-31 18:34:10 8.17 °C x 99.9 % 2.698 V ttn-pfaffenrot -76 dBm 31.01.2024 18:34
2564 temp-at-nowhere 2024-01-31 17:34:11 8.93 °C x 99.9 % 2.696 V ttn-pfaffenrot -74 dBm 31.01.2024 17:34
2565 temp-at-nowhere 2024-01-31 16:34:12 9.54 °C x 99.9 % 2.697 V ttn-pfaffenrot -76 dBm 31.01.2024 16:34
2566 temp-at-nowhere 2024-01-31 15:34:13 9.95 °C x 99.9 % 2.698 V ttn-pfaffenrot -76 dBm 31.01.2024 15:34
2567 temp-at-nowhere 2024-01-31 14:34:14 10.23 °C x 99.9 % 2.696 V ttn-pfaffenrot -81 dBm 31.01.2024 14:34
2568 temp-at-nowhere 2024-01-31 12:34:16 9.01 °C x 99.9 % 2.697 V ttn-pfaffenrot -83 dBm 31.01.2024 12:34
2569 temp-at-nowhere 2024-01-31 11:34:16 8 °C x 99.9 % 2.697 V ttn-pfaffenrot -77 dBm 31.01.2024 11:34
2570 temp-at-nowhere 2024-01-31 10:34:17 7.23 °C x 99.9 % 2.698 V ttn-pfaffenrot -78 dBm 31.01.2024 10:34
2571 temp-at-nowhere 2024-01-31 09:34:18 7.15 °C x 99.9 % 2.697 V ttn-pfaffenrot -77 dBm 31.01.2024 09:34
2572 temp-at-nowhere 2024-01-31 08:34:19 7.62 °C x 99.9 % 2.696 V ttn-pfaffenrot -83 dBm 31.01.2024 08:34
2573 temp-at-nowhere 2024-01-31 07:34:20 8.39 °C x 99.9 % 2.696 V ttn-pfaffenrot -73 dBm 31.01.2024 07:34
2574 temp-at-nowhere 2024-01-31 06:34:21 9.78 °C x 99.9 % 2.698 V ttn-pfaffenrot -76 dBm 31.01.2024 06:34
2575 temp-at-nowhere 2024-01-31 05:34:22 10.01 °C x 99.9 % 2.698 V ttn-pfaffenrot -78 dBm 31.01.2024 05:34
2576 temp-at-nowhere 2024-01-31 04:34:23 10.13 °C x 99.9 % 2.697 V ttn-pfaffenrot -75 dBm 31.01.2024 04:34
2577 temp-at-nowhere 2024-01-31 03:34:24 9.78 °C x 99.9 % 2.696 V ttn-pfaffenrot -81 dBm 31.01.2024 03:34
2578 temp-at-nowhere 2024-01-31 02:34:25 9.88 °C x 99.9 % 2.698 V ttn-pfaffenrot -78 dBm 31.01.2024 02:34
2579 temp-at-nowhere 2024-01-31 01:34:26 9.94 °C x 99.9 % 2.696 V ttn-pfaffenrot -78 dBm 31.01.2024 01:34
2580 temp-at-nowhere 2024-01-31 00:34:27 10.04 °C x 99.9 % 2.698 V ttn-pfaffenrot -83 dBm 31.01.2024 00:34
2581 temp-at-nowhere 2024-01-30 23:34:28 9.75 °C x 99.9 % 2.696 V ttn-pfaffenrot -78 dBm 30.01.2024 23:34
2582 temp-at-nowhere 2024-01-30 22:34:29 9.64 °C x 99.9 % 2.697 V ttn-pfaffenrot -91 dBm 30.01.2024 22:34
2583 temp-at-nowhere 2024-01-30 21:34:30 9.57 °C x 99.9 % 2.696 V ttn-pfaffenrot -79 dBm 30.01.2024 21:34
2584 temp-at-nowhere 2024-01-30 20:34:31 9.04 °C x 99.9 % 2.697 V ttn-pfaffenrot -95 dBm 30.01.2024 20:34
2585 temp-at-nowhere 2024-01-30 19:34:32 9.47 °C x 99.9 % 2.697 V ttn-pfaffenrot -79 dBm 30.01.2024 19:34
2586 temp-at-nowhere 2024-01-30 18:34:33 9.51 °C x 97.2 % 2.696 V ttn-pfaffenrot -91 dBm 30.01.2024 18:34
2587 temp-at-nowhere 2024-01-30 17:34:34 10.11 °C x 94.6 % 2.696 V ttn-pfaffenrot -76 dBm 30.01.2024 17:34
2588 temp-at-nowhere 2024-01-30 16:34:35 11.18 °C x 92.3 % 2.697 V ttn-pfaffenrot -95 dBm 30.01.2024 16:34
2589 temp-at-nowhere 2024-01-30 15:34:36 12.95 °C x 87.4 % 2.697 V ttn-pfaffenrot -79 dBm 30.01.2024 15:34
2590 temp-at-nowhere 2024-01-30 14:34:37 14.63 °C x 86.1 % 2.696 V ttn-pfaffenrot -89 dBm 30.01.2024 14:34
2591 temp-at-nowhere 2024-01-30 13:34:37 14.91 °C x 97.9 % 2.695 V ttn-pfaffenrot -81 dBm 30.01.2024 13:34
2592 temp-at-nowhere 2024-01-30 12:34:38 11.64 °C x 99.9 % 2.695 V ttn-pfaffenrot -84 dBm 30.01.2024 12:34
2593 temp-at-nowhere 2024-01-30 11:34:39 8.82 °C x 99.9 % 2.695 V ttn-pfaffenrot -79 dBm 30.01.2024 11:34
2594 temp-at-nowhere 2024-01-30 10:34:40 7.25 °C x 99.9 % 2.695 V ttn-pfaffenrot -83 dBm 30.01.2024 10:34
2595 temp-at-nowhere 2024-01-30 09:34:41 6.02 °C x 99.9 % 2.696 V ttn-pfaffenrot -78 dBm 30.01.2024 09:34
2596 temp-at-nowhere 2024-01-30 08:34:42 5.02 °C x 99.9 % 2.695 V ttn-pfaffenrot -89 dBm 30.01.2024 08:34
2597 temp-at-nowhere 2024-01-30 07:34:43 5.54 °C x 99.9 % 2.695 V ttn-pfaffenrot -79 dBm 30.01.2024 07:34
2598 temp-at-nowhere 2024-01-30 06:34:44 6.86 °C x 99.9 % 2.695 V ttn-pfaffenrot -81 dBm 30.01.2024 06:34
2599 temp-at-nowhere 2024-01-30 05:34:45 6.63 °C x 99.9 % 2.697 V ttn-pfaffenrot -78 dBm 30.01.2024 05:34
2600 temp-at-nowhere 2024-01-30 04:34:46 7.24 °C x 99.9 % 2.696 V ttn-pfaffenrot -77 dBm 30.01.2024 04:34
2601 temp-at-nowhere 2024-01-30 03:34:47 6.86 °C x 99.9 % 2.697 V ttn-pfaffenrot -76 dBm 30.01.2024 03:34
2602 temp-at-nowhere 2024-01-30 02:34:48 7.14 °C x 99.9 % 2.697 V ttn-pfaffenrot -77 dBm 30.01.2024 02:34
2603 temp-at-nowhere 2024-01-30 01:34:49 7.57 °C x 99.9 % 2.696 V ttn-pfaffenrot -78 dBm 30.01.2024 01:34
2604 temp-at-nowhere 2024-01-30 00:34:50 6.75 °C x 99.9 % 2.696 V ttn-pfaffenrot -83 dBm 30.01.2024 00:34
2605 temp-at-nowhere 2024-01-29 23:34:51 6.73 °C x 99.9 % 2.695 V ttn-pfaffenrot -76 dBm 29.01.2024 23:34
2606 temp-at-nowhere 2024-01-29 22:34:52 6.68 °C x 99.9 % 2.695 V ttn-pfaffenrot -81 dBm 29.01.2024 22:34
2607 temp-at-nowhere 2024-01-29 21:34:53 6.45 °C x 99.9 % 2.696 V ttn-pfaffenrot -79 dBm 29.01.2024 21:34
2608 temp-at-nowhere 2024-01-29 20:34:54 6.42 °C x 99.9 % 2.694 V ttn-pfaffenrot -85 dBm 29.01.2024 20:34
2609 temp-at-nowhere 2024-01-29 19:34:55 7.38 °C x 99.9 % 2.695 V ttn-pfaffenrot -75 dBm 29.01.2024 19:34
2610 temp-at-nowhere 2024-01-29 18:34:56 8.24 °C x 99.9 % 2.696 V ttn-pfaffenrot -78 dBm 29.01.2024 18:34
2611 temp-at-nowhere 2024-01-29 17:34:57 9.39 °C x 99.9 % 2.697 V ttn-pfaffenrot -76 dBm 29.01.2024 17:34
2612 temp-at-nowhere 2024-01-29 16:34:58 10.99 °C x 99.9 % 2.696 V ttn-pfaffenrot -75 dBm 29.01.2024 16:34
2613 temp-at-nowhere 2024-01-29 15:34:59 12.57 °C x 98.5 % 2.697 V ttn-pfaffenrot -77 dBm 29.01.2024 15:34
2614 temp-at-nowhere 2024-01-29 14:35:00 15.63 °C x 86.9 % 2.698 V ttn-pfaffenrot -95 dBm 29.01.2024 14:35
2615 temp-at-nowhere 2024-01-29 13:35:01 15.96 °C x 97.9 % 2.696 V ttn-pfaffenrot -81 dBm 29.01.2024 13:35
2616 temp-at-nowhere 2024-01-29 12:35:03 13.06 °C x 99.9 % 2.696 V ttn-pfaffenrot -85 dBm 29.01.2024 12:35
2617 temp-at-nowhere 2024-01-29 11:35:04 10.72 °C x 99.9 % 2.695 V ttn-pfaffenrot -73 dBm 29.01.2024 11:35
2618 temp-at-nowhere 2024-01-29 10:35:05 6.27 °C x 99.9 % 2.695 V ttn-pfaffenrot -83 dBm 29.01.2024 10:35
2619 temp-at-nowhere 2024-01-29 09:35:06 3.73 °C x 99.9 % 2.694 V ttn-pfaffenrot -75 dBm 29.01.2024 09:35
2620 temp-at-nowhere 2024-01-29 08:35:07 2.9 °C x 99.9 % 2.693 V ttn-pfaffenrot -95 dBm 29.01.2024 08:35
2621 temp-at-nowhere 2024-01-29 07:35:08 3.55 °C x 99.9 % 2.693 V ttn-pfaffenrot -75 dBm 29.01.2024 07:35
2622 temp-at-nowhere 2024-01-29 06:35:09 4.4 °C x 99.9 % 2.694 V ttn-pfaffenrot -87 dBm 29.01.2024 06:35
2623 temp-at-nowhere 2024-01-29 05:35:10 4.5 °C x 99.9 % 2.693 V ttn-pfaffenrot -79 dBm 29.01.2024 05:35
2624 temp-at-nowhere 2024-01-29 04:35:11 4.83 °C x 99.9 % 2.696 V ttn-pfaffenrot -95 dBm 29.01.2024 04:35
2625 temp-at-nowhere 2024-01-29 03:35:12 4.9 °C x 99.9 % 2.694 V ttn-pfaffenrot -75 dBm 29.01.2024 03:35
2626 temp-at-nowhere 2024-01-29 02:35:13 4.76 °C x 99.9 % 2.694 V ttn-pfaffenrot -101 dBm 29.01.2024 02:35
2627 temp-at-nowhere 2024-01-29 01:35:14 4.25 °C x 99.9 % 2.694 V ttn-pfaffenrot -78 dBm 29.01.2024 01:35
2628 temp-at-nowhere 2024-01-29 00:35:15 4.41 °C x 99.9 % 2.694 V ttn-pfaffenrot -85 dBm 29.01.2024 00:35
2629 temp-at-nowhere 2024-01-28 23:35:16 4.11 °C x 99.9 % 2.694 V ttn-pfaffenrot -77 dBm 28.01.2024 23:35
2630 temp-at-nowhere 2024-01-28 22:35:18 3.64 °C x 99.9 % 2.694 V ttn-pfaffenrot -79 dBm 28.01.2024 22:35
2631 temp-at-nowhere 2024-01-28 21:35:18 3.49 °C x 99.9 % 2.694 V ttn-pfaffenrot -75 dBm 28.01.2024 21:35
2632 temp-at-nowhere 2024-01-28 20:35:19 3 °C x 99.9 % 2.694 V ttn-pfaffenrot -78 dBm 28.01.2024 20:35
2633 temp-at-nowhere 2024-01-28 19:35:20 3.73 °C x 99.9 % 2.694 V ttn-pfaffenrot -73 dBm 28.01.2024 19:35
2634 temp-at-nowhere 2024-01-28 18:35:21 4.63 °C x 99.9 % 2.696 V ttn-pfaffenrot -85 dBm 28.01.2024 18:35
2635 temp-at-nowhere 2024-01-28 17:35:22 5.96 °C x 99.9 % 2.697 V ttn-pfaffenrot -75 dBm 28.01.2024 17:35
2636 temp-at-nowhere 2024-01-28 16:35:23 7.43 °C x 99.9 % 2.696 V ttn-pfaffenrot -74 dBm 28.01.2024 16:35
2637 temp-at-nowhere 2024-01-28 15:35:24 9.09 °C x 99.9 % 2.695 V ttn-pfaffenrot -74 dBm 28.01.2024 15:35
2638 temp-at-nowhere 2024-01-28 14:35:25 12.52 °C x 91.8 % 2.697 V ttn-pfaffenrot -78 dBm 28.01.2024 14:35
2639 temp-at-nowhere 2024-01-28 13:35:26 13.84 °C x 99.8 % 2.696 V ttn-pfaffenrot -78 dBm 28.01.2024 13:35
2640 temp-at-nowhere 2024-01-28 12:35:27 11.42 °C x 99.9 % 2.695 V ttn-pfaffenrot -74 dBm 28.01.2024 12:35
2641 temp-at-nowhere 2024-01-28 11:35:29 8.03 °C x 99.9 % 2.696 V ttn-pfaffenrot -71 dBm 28.01.2024 11:35
2642 temp-at-nowhere 2024-01-28 10:35:29 5.1 °C x 99.9 % 2.695 V ttn-pfaffenrot -81 dBm 28.01.2024 10:35
2643 temp-at-nowhere 2024-01-28 09:35:30 1.8 °C x 99.9 % 2.692 V ttn-pfaffenrot -73 dBm 28.01.2024 09:35
2644 temp-at-nowhere 2024-01-28 08:35:31 0.82 °C x 99.9 % 2.693 V ttn-pfaffenrot -76 dBm 28.01.2024 08:35
2645 temp-at-nowhere 2024-01-28 07:35:32 1.45 °C x 99.9 % 2.693 V ttn-pfaffenrot -75 dBm 28.01.2024 07:35
2646 temp-at-nowhere 2024-01-28 06:35:33 2.65 °C x 99.9 % 2.694 V ttn-pfaffenrot -85 dBm 28.01.2024 06:35
2647 temp-at-nowhere 2024-01-28 05:35:34 2.43 °C x 99.9 % 2.692 V ttn-pfaffenrot -75 dBm 28.01.2024 05:35
2648 temp-at-nowhere 2024-01-28 04:35:35 2.82 °C x 99.9 % 2.692 V ttn-pfaffenrot -83 dBm 28.01.2024 04:35
2649 temp-at-nowhere 2024-01-28 03:35:36 2.92 °C x 99.9 % 2.693 V ttn-pfaffenrot -76 dBm 28.01.2024 03:35
2650 temp-at-nowhere 2024-01-28 02:35:37 3.14 °C x 99.9 % 2.694 V ttn-pfaffenrot -101 dBm 28.01.2024 02:35
2651 temp-at-nowhere 2024-01-28 01:35:38 3.11 °C x 99.9 % 2.693 V ttn-pfaffenrot -73 dBm 28.01.2024 01:35
2652 temp-at-nowhere 2024-01-28 00:35:39 2.68 °C x 99.9 % 2.693 V ttn-pfaffenrot -95 dBm 28.01.2024 00:35
2653 temp-at-nowhere 2024-01-27 23:35:40 1.94 °C x 99.9 % 2.693 V ttn-pfaffenrot -76 dBm 27.01.2024 23:35
2654 temp-at-nowhere 2024-01-27 22:35:41 1.24 °C x 99.9 % 2.694 V ttn-pfaffenrot -89 dBm 27.01.2024 22:35
2655 temp-at-nowhere 2024-01-27 21:35:41 1.99 °C x 99.9 % 2.695 V ttn-pfaffenrot -77 dBm 27.01.2024 21:35
2656 temp-at-nowhere 2024-01-27 20:35:42 2.41 °C x 99.9 % 2.694 V ttn-pfaffenrot -95 dBm 27.01.2024 20:35
2657 temp-at-nowhere 2024-01-27 19:35:43 3.06 °C x 99.9 % 2.695 V ttn-pfaffenrot -79 dBm 27.01.2024 19:35
2658 temp-at-nowhere 2024-01-27 18:35:44 3.91 °C x 99.9 % 2.695 V ttn-pfaffenrot -89 dBm 27.01.2024 18:35
2659 temp-at-nowhere 2024-01-27 17:35:45 5.12 °C x 99.9 % 2.695 V ttn-pfaffenrot -79 dBm 27.01.2024 17:35
2660 temp-at-nowhere 2024-01-27 16:35:46 6.51 °C x 99.9 % 2.694 V ttn-pfaffenrot -82 dBm 27.01.2024 16:35
2661 temp-at-nowhere 2024-01-27 15:35:47 8.26 °C x 99.9 % 2.696 V ttn-pfaffenrot -81 dBm 27.01.2024 15:35
2662 temp-at-nowhere 2024-01-27 14:35:48 10.74 °C x 99.9 % 2.697 V ttn-pfaffenrot -85 dBm 27.01.2024 14:35
2663 temp-at-nowhere 2024-01-27 13:35:49 12.48 °C x 99.9 % 2.696 V ttn-pfaffenrot -77 dBm 27.01.2024 13:35
2664 temp-at-nowhere 2024-01-27 12:35:49 10.08 °C x 99.9 % 2.696 V ttn-pfaffenrot -79 dBm 27.01.2024 12:35
2665 temp-at-nowhere 2024-01-27 11:35:50 6.95 °C x 99.9 % 2.694 V ttn-pfaffenrot -77 dBm 27.01.2024 11:35
2666 temp-at-nowhere 2024-01-27 10:35:51 3.49 °C x 99.9 % 2.694 V ttn-pfaffenrot -85 dBm 27.01.2024 10:35
2667 temp-at-nowhere 2024-01-27 09:35:52 1.56 °C x 99.9 % 2.694 V ttn-pfaffenrot -77 dBm 27.01.2024 09:35
2668 temp-at-nowhere 2024-01-27 08:35:53 0.37 °C x 99.9 % 2.694 V ttn-pfaffenrot -83 dBm 27.01.2024 08:35
2669 temp-at-nowhere 2024-01-27 07:35:54 1.12 °C x 99.9 % 2.693 V ttn-pfaffenrot -76 dBm 27.01.2024 07:35
2670 temp-at-nowhere 2024-01-27 06:35:55 2.52 °C x 99.9 % 2.694 V ttn-pfaffenrot -77 dBm 27.01.2024 06:35
2671 temp-at-nowhere 2024-01-27 05:35:56 2.4 °C x 99.9 % 2.694 V ttn-pfaffenrot -78 dBm 27.01.2024 05:35
2672 temp-at-nowhere 2024-01-27 04:35:56 2.82 °C x 99.9 % 2.694 V ttn-pfaffenrot -75 dBm 27.01.2024 04:35
2673 temp-at-nowhere 2024-01-27 03:35:57 3.38 °C x 99.9 % 2.695 V ttn-pfaffenrot -76 dBm 27.01.2024 03:35
2674 temp-at-nowhere 2024-01-27 02:35:58 3.5 °C x 99.9 % 2.696 V ttn-pfaffenrot -77 dBm 27.01.2024 02:35
2675 temp-at-nowhere 2024-01-27 01:35:59 3.73 °C x 99.9 % 2.696 V ttn-pfaffenrot -76 dBm 27.01.2024 01:35
2676 temp-at-nowhere 2024-01-27 00:36:00 4.3 °C x 99.9 % 2.696 V ttn-pfaffenrot -75 dBm 27.01.2024 00:36
2677 temp-at-nowhere 2024-01-26 23:36:00 4.95 °C x 99.9 % 2.696 V ttn-pfaffenrot -75 dBm 26.01.2024 23:36
2678 temp-at-nowhere 2024-01-26 22:36:01 5.79 °C x 99.9 % 2.696 V ttn-pfaffenrot -89 dBm 26.01.2024 22:36
2679 temp-at-nowhere 2024-01-26 21:36:02 5.89 °C x 99.9 % 2.697 V ttn-pfaffenrot -73 dBm 26.01.2024 21:36
2680 temp-at-nowhere 2024-01-26 20:36:03 5.77 °C x 99.9 % 2.697 V ttn-pfaffenrot -89 dBm 26.01.2024 20:36
2681 temp-at-nowhere 2024-01-26 19:36:04 6.83 °C x 99.9 % 2.697 V ttn-pfaffenrot -73 dBm 26.01.2024 19:36
2682 temp-at-nowhere 2024-01-26 18:36:04 8.01 °C x 99.9 % 2.697 V ttn-pfaffenrot -79 dBm 26.01.2024 18:36
2683 temp-at-nowhere 2024-01-26 17:36:05 8.59 °C x 99.9 % 2.697 V ttn-pfaffenrot -73 dBm 26.01.2024 17:36
2684 temp-at-nowhere 2024-01-26 16:36:06 9.29 °C x 99.9 % 2.698 V ttn-pfaffenrot -85 dBm 26.01.2024 16:36
2685 temp-at-nowhere 2024-01-26 15:36:07 9.35 °C x 99.9 % 2.696 V ttn-pfaffenrot -79 dBm 26.01.2024 15:36
2686 temp-at-nowhere 2024-01-26 14:36:08 9.58 °C x 99.9 % 2.696 V ttn-pfaffenrot -85 dBm 26.01.2024 14:36
2687 temp-at-nowhere 2024-01-26 13:36:08 10.6 °C x 99.9 % 2.698 V ttn-pfaffenrot -74 dBm 26.01.2024 13:36
2688 temp-at-nowhere 2024-01-26 12:36:09 11.38 °C x 99.9 % 2.698 V ttn-pfaffenrot -83 dBm 26.01.2024 12:36
2689 temp-at-nowhere 2024-01-26 11:36:10 11.3 °C x 99.9 % 2.697 V ttn-pfaffenrot -79 dBm 26.01.2024 11:36
2690 temp-at-nowhere 2024-01-26 10:36:11 9.61 °C x 99.9 % 2.696 V ttn-pfaffenrot -82 dBm 26.01.2024 10:36
2691 temp-at-nowhere 2024-01-26 09:36:12 9.07 °C x 99.9 % 2.696 V ttn-pfaffenrot -73 dBm 26.01.2024 09:36
2692 temp-at-nowhere 2024-01-26 08:36:13 8.62 °C x 99.9 % 2.697 V ttn-pfaffenrot -84 dBm 26.01.2024 08:36
2693 temp-at-nowhere 2024-01-26 07:36:14 8.74 °C x 99.9 % 2.697 V ttn-pfaffenrot -75 dBm 26.01.2024 07:36
2694 temp-at-nowhere 2024-01-26 06:36:14 9.7 °C x 99.9 % 2.697 V ttn-pfaffenrot -83 dBm 26.01.2024 06:36
2695 temp-at-nowhere 2024-01-26 05:36:15 10.16 °C x 99.9 % 2.698 V ttn-pfaffenrot -77 dBm 26.01.2024 05:36
2696 temp-at-nowhere 2024-01-26 04:36:16 10.03 °C x 99.9 % 2.697 V ttn-pfaffenrot -85 dBm 26.01.2024 04:36
2697 temp-at-nowhere 2024-01-26 03:36:17 9.58 °C x 99.9 % 2.697 V ttn-pfaffenrot -78 dBm 26.01.2024 03:36
2698 temp-at-nowhere 2024-01-26 02:36:17 9.91 °C x 99.9 % 2.698 V ttn-pfaffenrot -78 dBm 26.01.2024 02:36
2699 temp-at-nowhere 2024-01-26 01:36:18 9.65 °C x 99.9 % 2.698 V ttn-pfaffenrot -79 dBm 26.01.2024 01:36
2700 temp-at-nowhere 2024-01-26 00:36:19 9.9 °C x 99.9 % 2.695 V ttn-pfaffenrot -79 dBm 26.01.2024 00:36
2701 temp-at-nowhere 2024-01-25 23:36:20 10.22 °C x 99.9 % 2.696 V ttn-pfaffenrot -78 dBm 25.01.2024 23:36
2702 temp-at-nowhere 2024-01-25 22:36:21 10.16 °C x 99.9 % 2.695 V ttn-pfaffenrot -79 dBm 25.01.2024 22:36
2703 temp-at-nowhere 2024-01-25 21:36:22 9.76 °C x 99.9 % 2.696 V ttn-pfaffenrot -77 dBm 25.01.2024 21:36
2704 temp-at-nowhere 2024-01-25 20:36:22 8.43 °C x 99.9 % 2.696 V ttn-pfaffenrot -85 dBm 25.01.2024 20:36
2705 temp-at-nowhere 2024-01-25 19:36:23 8.27 °C x 99.9 % 2.697 V ttn-pfaffenrot -77 dBm 25.01.2024 19:36
2706 temp-at-nowhere 2024-01-25 18:36:24 8.31 °C x 99.9 % 2.696 V ttn-pfaffenrot -79 dBm 25.01.2024 18:36
2707 temp-at-nowhere 2024-01-25 17:36:25 8.83 °C x 99.9 % 2.697 V ttn-pfaffenrot -77 dBm 25.01.2024 17:36
2708 temp-at-nowhere 2024-01-25 16:36:26 9.66 °C x 99.9 % 2.697 V ttn-pfaffenrot -81 dBm 25.01.2024 16:36
2709 temp-at-nowhere 2024-01-25 15:36:26 10.72 °C x 99.9 % 2.697 V ttn-pfaffenrot -78 dBm 25.01.2024 15:36
2710 temp-at-nowhere 2024-01-25 14:36:27 12.58 °C x 99.9 % 2.698 V ttn-pfaffenrot -95 dBm 25.01.2024 14:36
2711 temp-at-nowhere 2024-01-25 13:36:28 14.38 °C x 99.9 % 2.697 V ttn-pfaffenrot -81 dBm 25.01.2024 13:36
2712 temp-at-nowhere 2024-01-25 12:36:29 12.76 °C x 99.9 % 2.696 V ttn-pfaffenrot -89 dBm 25.01.2024 12:36
2713 temp-at-nowhere 2024-01-25 11:36:30 10.14 °C x 99.9 % 2.695 V ttn-pfaffenrot -76 dBm 25.01.2024 11:36
2714 temp-at-nowhere 2024-01-25 10:36:31 7.94 °C x 99.9 % 2.696 V ttn-pfaffenrot -82 dBm 25.01.2024 10:36
2715 temp-at-nowhere 2024-01-25 09:36:31 7.69 °C x 99.9 % 2.695 V ttn-pfaffenrot -78 dBm 25.01.2024 09:36
2716 temp-at-nowhere 2024-01-25 08:36:32 7.06 °C x 99.9 % 2.694 V ttn-pfaffenrot -95 dBm 25.01.2024 08:36
2717 temp-at-nowhere 2024-01-25 07:36:33 8.07 °C x 99.9 % 2.695 V ttn-pfaffenrot -73 dBm 25.01.2024 07:36
2718 temp-at-nowhere 2024-01-25 06:36:34 9.81 °C x 99.9 % 2.695 V ttn-pfaffenrot -91 dBm 25.01.2024 06:36
2719 temp-at-nowhere 2024-01-25 05:36:35 9.21 °C x 99.9 % 2.696 V ttn-pfaffenrot -79 dBm 25.01.2024 05:36
2720 temp-at-nowhere 2024-01-25 04:36:35 9.49 °C x 99.9 % 2.694 V ttn-pfaffenrot -87 dBm 25.01.2024 04:36
2721 temp-at-nowhere 2024-01-25 03:36:36 9.71 °C x 99.9 % 2.696 V ttn-pfaffenrot -77 dBm 25.01.2024 03:36
2722 temp-at-nowhere 2024-01-25 02:36:37 9.93 °C x 99.9 % 2.695 V ttn-pfaffenrot -87 dBm 25.01.2024 02:36
2723 temp-at-nowhere 2024-01-25 01:36:38 10.04 °C x 99.9 % 2.694 V ttn-pfaffenrot -75 dBm 25.01.2024 01:36
2724 temp-at-nowhere 2024-01-25 00:36:39 10.06 °C x 99.9 % 2.694 V ttn-pfaffenrot -89 dBm 25.01.2024 00:36
2725 temp-at-nowhere 2024-01-24 23:36:39 9.9 °C x 99.9 % 2.694 V ttn-pfaffenrot -79 dBm 24.01.2024 23:36
2726 temp-at-nowhere 2024-01-24 22:36:40 9.61 °C x 99.9 % 2.695 V ttn-pfaffenrot -74 dBm 24.01.2024 22:36
2727 temp-at-nowhere 2024-01-24 21:36:41 9.36 °C x 99.9 % 2.696 V ttn-pfaffenrot -74 dBm 24.01.2024 21:36
2728 temp-at-nowhere 2024-01-24 20:36:42 8.38 °C x 99.9 % 2.696 V ttn-pfaffenrot -81 dBm 24.01.2024 20:36
2729 temp-at-nowhere 2024-01-24 19:36:43 8.69 °C x 99.9 % 2.695 V ttn-pfaffenrot -75 dBm 24.01.2024 19:36
2730 temp-at-nowhere 2024-01-24 18:36:43 9.05 °C x 99.9 % 2.697 V ttn-pfaffenrot -77 dBm 24.01.2024 18:36
2731 temp-at-nowhere 2024-01-24 17:36:44 9.69 °C x 99.9 % 2.695 V ttn-pfaffenrot -75 dBm 24.01.2024 17:36
2732 temp-at-nowhere 2024-01-24 16:36:45 10.18 °C x 99.9 % 2.695 V ttn-pfaffenrot -74 dBm 24.01.2024 16:36
2733 temp-at-nowhere 2024-01-24 15:36:46 10.42 °C x 99.9 % 2.695 V ttn-pfaffenrot -77 dBm 24.01.2024 15:36
2734 temp-at-nowhere 2024-01-24 14:36:47 10.35 °C x 99.9 % 2.694 V ttn-pfaffenrot -76 dBm 24.01.2024 14:36
2735 temp-at-nowhere 2024-01-24 13:36:48 11 °C x 99.9 % 2.695 V ttn-pfaffenrot -77 dBm 24.01.2024 13:36
2736 temp-at-nowhere 2024-01-24 12:36:48 11.05 °C x 99.9 % 2.694 V ttn-pfaffenrot -85 dBm 24.01.2024 12:36
2737 temp-at-nowhere 2024-01-24 11:36:49 11.72 °C x 99.9 % 2.694 V ttn-pfaffenrot -73 dBm 24.01.2024 11:36
2738 temp-at-nowhere 2024-01-24 10:36:50 11.53 °C x 99.9 % 2.694 V ttn-pfaffenrot -81 dBm 24.01.2024 10:36
2739 temp-at-nowhere 2024-01-24 09:36:51 11.34 °C x 99.9 % 2.694 V ttn-pfaffenrot -75 dBm 24.01.2024 09:36
2740 temp-at-nowhere 2024-01-24 08:36:52 11.04 °C x 99.9 % 2.693 V ttn-pfaffenrot -83 dBm 24.01.2024 08:36
2741 temp-at-nowhere 2024-01-24 07:36:53 11.92 °C x 99.9 % 2.695 V ttn-pfaffenrot -77 dBm 24.01.2024 07:36
2742 temp-at-nowhere 2024-01-24 06:36:53 12.21 °C x 99.9 % 2.694 V ttn-pfaffenrot -95 dBm 24.01.2024 06:36
2743 temp-at-nowhere 2024-01-24 05:36:54 11.46 °C x 99.9 % 2.694 V ttn-pfaffenrot -79 dBm 24.01.2024 05:36
2744 temp-at-nowhere 2024-01-24 04:36:55 11.17 °C x 99.9 % 2.694 V ttn-pfaffenrot -95 dBm 24.01.2024 04:36
2745 temp-at-nowhere 2024-01-24 03:36:56 11.34 °C x 99.9 % 2.693 V ttn-pfaffenrot -76 dBm 24.01.2024 03:36
2746 temp-at-nowhere 2024-01-24 02:36:57 10.83 °C x 99.9 % 2.692 V ttn-pfaffenrot -85 dBm 24.01.2024 02:36
2747 temp-at-nowhere 2024-01-24 01:36:58 10.28 °C x 99.9 % 2.694 V ttn-pfaffenrot -83 dBm 24.01.2024 01:36
2748 temp-at-nowhere 2024-01-24 00:36:58 9.83 °C x 99.9 % 2.694 V ttn-pfaffenrot -91 dBm 24.01.2024 00:36
2749 temp-at-nowhere 2024-01-23 23:36:59 9.29 °C x 99.9 % 2.692 V ttn-pfaffenrot -78 dBm 23.01.2024 23:36
2750 temp-at-nowhere 2024-01-23 22:37:00 8.62 °C x 99.9 % 2.691 V ttn-pfaffenrot -82 dBm 23.01.2024 22:37
2751 temp-at-nowhere 2024-01-23 21:37:01 6.79 °C x 99.9 % 2.692 V ttn-pfaffenrot -79 dBm 23.01.2024 21:37
2752 temp-at-nowhere 2024-01-23 20:37:02 6.07 °C x 99.9 % 2.691 V ttn-pfaffenrot -83 dBm 23.01.2024 20:37
2753 temp-at-nowhere 2024-01-23 19:37:03 5.67 °C x 99.9 % 2.691 V ttn-pfaffenrot -77 dBm 23.01.2024 19:37
2754 temp-at-nowhere 2024-01-23 18:37:03 6.18 °C x 99.9 % 2.691 V ttn-pfaffenrot -95 dBm 23.01.2024 18:37
2755 temp-at-nowhere 2024-01-23 17:37:04 6.51 °C x 99.9 % 2.692 V ttn-pfaffenrot -74 dBm 23.01.2024 17:37
2756 temp-at-nowhere 2024-01-23 16:37:05 6.79 °C x 99.9 % 2.692 V ttn-pfaffenrot -91 dBm 23.01.2024 16:37
2757 temp-at-nowhere 2024-01-23 15:37:06 6.98 °C x 99.9 % 2.692 V ttn-pfaffenrot -79 dBm 23.01.2024 15:37
2758 temp-at-nowhere 2024-01-23 14:37:07 7.7 °C x 99.9 % 2.692 V ttn-pfaffenrot -83 dBm 23.01.2024 14:37
2759 temp-at-nowhere 2024-01-23 13:37:07 7.88 °C x 99.9 % 2.691 V ttn-pfaffenrot -74 dBm 23.01.2024 13:37
2760 temp-at-nowhere 2024-01-23 12:37:08 7.02 °C x 99.9 % 2.692 V ttn-pfaffenrot -81 dBm 23.01.2024 12:37
2761 temp-at-nowhere 2024-01-23 11:37:09 5.93 °C x 99.9 % 2.693 V ttn-pfaffenrot -78 dBm 23.01.2024 11:37
2762 temp-at-nowhere 2024-01-23 10:37:10 5.32 °C x 99.9 % 2.69 V ttn-pfaffenrot -83 dBm 23.01.2024 10:37
2763 temp-at-nowhere 2024-01-23 09:37:10 5.07 °C x 99.9 % 2.692 V ttn-pfaffenrot -72 dBm 23.01.2024 09:37
2764 temp-at-nowhere 2024-01-23 08:37:11 5.02 °C x 99.9 % 2.691 V ttn-pfaffenrot -81 dBm 23.01.2024 08:37
2765 temp-at-nowhere 2024-01-23 07:37:12 5.3 °C x 99.9 % 2.692 V ttn-pfaffenrot -78 dBm 23.01.2024 07:37
2766 temp-at-nowhere 2024-01-23 06:37:13 6.58 °C x 99.9 % 2.692 V ttn-pfaffenrot -81 dBm 23.01.2024 06:37
2767 temp-at-nowhere 2024-01-23 05:37:14 7.09 °C x 99.9 % 2.69 V ttn-pfaffenrot -74 dBm 23.01.2024 05:37
2768 temp-at-nowhere 2024-01-23 04:37:14 7.18 °C x 99.9 % 2.692 V ttn-pfaffenrot -85 dBm 23.01.2024 04:37
2769 temp-at-nowhere 2024-01-23 03:37:15 7.32 °C x 99.9 % 2.693 V ttn-pfaffenrot -78 dBm 23.01.2024 03:37
2770 temp-at-nowhere 2024-01-23 02:37:16 7.58 °C x 99.9 % 2.692 V ttn-pfaffenrot -79 dBm 23.01.2024 02:37
2771 temp-at-nowhere 2024-01-23 01:37:17 7.27 °C x 99.9 % 2.693 V ttn-pfaffenrot -77 dBm 23.01.2024 01:37
2772 temp-at-nowhere 2024-01-23 00:37:18 7.3 °C x 99.9 % 2.69 V ttn-pfaffenrot -89 dBm 23.01.2024 00:37
2773 temp-at-nowhere 2024-01-22 23:37:18 7.24 °C x 99.9 % 2.69 V ttn-pfaffenrot -78 dBm 22.01.2024 23:37
2774 temp-at-nowhere 2024-01-22 22:37:19 6.84 °C x 99.9 % 2.691 V ttn-pfaffenrot -89 dBm 22.01.2024 22:37
2775 temp-at-nowhere 2024-01-22 21:37:20 5.78 °C x 99.9 % 2.69 V ttn-pfaffenrot -73 dBm 22.01.2024 21:37
2776 temp-at-nowhere 2024-01-22 20:37:21 5.82 °C x 99.9 % 2.692 V ttn-pfaffenrot -84 dBm 22.01.2024 20:37
2777 temp-at-nowhere 2024-01-22 19:37:21 5.71 °C x 99.9 % 2.69 V ttn-pfaffenrot -77 dBm 22.01.2024 19:37
2778 temp-at-nowhere 2024-01-22 18:37:22 6.48 °C x 99.9 % 2.691 V ttn-pfaffenrot -82 dBm 22.01.2024 18:37
2779 temp-at-nowhere 2024-01-22 17:37:23 8.14 °C x 99.9 % 2.692 V ttn-pfaffenrot -77 dBm 22.01.2024 17:37
2780 temp-at-nowhere 2024-01-22 16:37:24 9.53 °C x 99.9 % 2.691 V ttn-pfaffenrot -84 dBm 22.01.2024 16:37
2781 temp-at-nowhere 2024-01-22 15:37:25 11.11 °C x 99.9 % 2.692 V ttn-pfaffenrot -79 dBm 22.01.2024 15:37
2782 temp-at-nowhere 2024-01-22 14:37:25 11.42 °C x 99.9 % 2.691 V ttn-pfaffenrot -95 dBm 22.01.2024 14:37
2783 temp-at-nowhere 2024-01-22 13:37:26 11.32 °C x 99.9 % 2.69 V ttn-pfaffenrot -77 dBm 22.01.2024 13:37
2784 temp-at-nowhere 2024-01-22 12:37:27 10.63 °C x 99.9 % 2.691 V ttn-pfaffenrot -85 dBm 22.01.2024 12:37
2785 temp-at-nowhere 2024-01-22 11:37:28 10.11 °C x 99.9 % 2.691 V ttn-pfaffenrot -79 dBm 22.01.2024 11:37
2786 temp-at-nowhere 2024-01-22 10:37:28 10.11 °C x 99.9 % 2.692 V ttn-pfaffenrot -91 dBm 22.01.2024 10:37
2787 temp-at-nowhere 2024-01-22 09:37:29 9.58 °C x 99.9 % 2.692 V ttn-pfaffenrot -75 dBm 22.01.2024 09:37
2788 temp-at-nowhere 2024-01-22 08:37:30 8.01 °C x 99.9 % 2.689 V ttn-pfaffenrot -81 dBm 22.01.2024 08:37
2789 temp-at-nowhere 2024-01-22 07:37:31 6.78 °C x 99.9 % 2.689 V ttn-pfaffenrot -75 dBm 22.01.2024 07:37
2790 temp-at-nowhere 2024-01-22 06:37:31 6.73 °C x 99.9 % 2.69 V ttn-pfaffenrot -81 dBm 22.01.2024 06:37
2791 temp-at-nowhere 2024-01-22 05:37:32 6.13 °C x 99.9 % 2.687 V ttn-pfaffenrot -78 dBm 22.01.2024 05:37
2792 temp-at-nowhere 2024-01-22 04:37:33 4.65 °C x 99.9 % 2.688 V ttn-pfaffenrot -85 dBm 22.01.2024 04:37
2793 temp-at-nowhere 2024-01-22 03:37:34 4.23 °C x 99.9 % 2.689 V ttn-pfaffenrot -73 dBm 22.01.2024 03:37
2794 temp-at-nowhere 2024-01-22 02:37:34 4.14 °C x 99.9 % 2.69 V ttn-pfaffenrot -77 dBm 22.01.2024 02:37
2795 temp-at-nowhere 2024-01-22 01:37:35 4.97 °C x 99.9 % 2.688 V ttn-pfaffenrot -72 dBm 22.01.2024 01:37
2796 temp-at-nowhere 2024-01-22 00:37:36 5.68 °C x 99.9 % 2.689 V ttn-pfaffenrot -81 dBm 22.01.2024 00:37
2797 temp-at-nowhere 2024-01-21 23:37:36 4.84 °C x 99.9 % 2.688 V ttn-pfaffenrot -76 dBm 21.01.2024 23:37
2798 temp-at-nowhere 2024-01-21 22:37:37 4 °C x 99.9 % 2.689 V ttn-pfaffenrot -73 dBm 21.01.2024 22:37
2799 temp-at-nowhere 2024-01-21 21:37:38 2.95 °C x 99.9 % 2.686 V ttn-pfaffenrot -73 dBm 21.01.2024 21:37
2800 temp-at-nowhere 2024-01-21 20:37:39 1.53 °C x 99.9 % 2.687 V ttn-pfaffenrot -78 dBm 21.01.2024 20:37
2801 temp-at-nowhere 2024-01-21 19:37:39 0.85 °C x 99.9 % 2.686 V ttn-pfaffenrot -71 dBm 21.01.2024 19:37
2802 temp-at-nowhere 2024-01-21 18:37:40 1.15 °C x 99.9 % 2.687 V ttn-pfaffenrot -79 dBm 21.01.2024 18:37
2803 temp-at-nowhere 2024-01-21 16:37:41 2.39 °C x 99.9 % 2.688 V ttn-pfaffenrot -77 dBm 21.01.2024 16:37
2804 temp-at-nowhere 2024-01-21 15:37:42 2.94 °C x 99.9 % 2.685 V ttn-pfaffenrot -76 dBm 21.01.2024 15:37
2805 temp-at-nowhere 2024-01-21 14:37:43 3.29 °C x 99.9 % 2.688 V ttn-pfaffenrot -95 dBm 21.01.2024 14:37
2806 temp-at-nowhere 2024-01-21 13:37:43 3.03 °C x 99.9 % 2.687 V ttn-pfaffenrot -81 dBm 21.01.2024 13:37
2807 temp-at-nowhere 2024-01-21 12:37:44 -0.7 °C x 99.9 % 2.686 V ttn-pfaffenrot -85 dBm 21.01.2024 12:37
2808 temp-at-nowhere 2024-01-21 11:37:45 -1.93 °C x 99.9 % 2.687 V ttn-pfaffenrot -79 dBm 21.01.2024 11:37
2809 temp-at-nowhere 2024-01-21 10:37:45 -2.73 °C x 99.9 % 2.683 V ttn-pfaffenrot -95 dBm 21.01.2024 10:37
2810 temp-at-nowhere 2024-01-21 09:37:46 -3.07 °C x 99.9 % 2.684 V ttn-pfaffenrot -77 dBm 21.01.2024 09:37
2811 temp-at-nowhere 2024-01-21 08:37:47 -3.6 °C x 99.9 % 2.684 V ttn-pfaffenrot -83 dBm 21.01.2024 08:37
2812 temp-at-nowhere 2024-01-21 07:37:47 -2.55 °C x 99.9 % 2.686 V ttn-pfaffenrot -76 dBm 21.01.2024 07:37
2813 temp-at-nowhere 2024-01-21 06:37:48 -2.07 °C x 99.9 % 2.685 V ttn-pfaffenrot -87 dBm 21.01.2024 06:37
2814 temp-at-nowhere 2024-01-21 05:37:49 -2.52 °C x 99.9 % 2.685 V ttn-pfaffenrot -81 dBm 21.01.2024 05:37
2815 temp-at-nowhere 2024-01-21 04:37:49 -2.54 °C x 99.9 % 2.685 V ttn-pfaffenrot -85 dBm 21.01.2024 04:37
2816 temp-at-nowhere 2024-01-21 03:37:50 -2.69 °C x 99.9 % 2.686 V ttn-pfaffenrot -81 dBm 21.01.2024 03:37
2817 temp-at-nowhere 2024-01-21 02:37:51 -2.3 °C x 99.9 % 2.686 V ttn-pfaffenrot -91 dBm 21.01.2024 02:37
2818 temp-at-nowhere 2024-01-21 01:37:51 -1.5 °C x 99.9 % 2.687 V ttn-pfaffenrot -81 dBm 21.01.2024 01:37
2819 temp-at-nowhere 2024-01-21 00:37:52 -0.38 °C x 99.9 % 2.688 V ttn-pfaffenrot -89 dBm 21.01.2024 00:37
2820 temp-at-nowhere 2024-01-20 23:37:53 -0.97 °C x 99.9 % 2.687 V ttn-pfaffenrot -78 dBm 20.01.2024 23:37
2821 temp-at-nowhere 2024-01-20 22:37:53 -0.73 °C x 99.9 % 2.689 V ttn-pfaffenrot -78 dBm 20.01.2024 22:37
2822 temp-at-nowhere 2024-01-20 21:37:54 -0.74 °C x 99.9 % 2.687 V ttn-pfaffenrot -81 dBm 20.01.2024 21:37
2823 temp-at-nowhere 2024-01-20 20:37:55 -2.06 °C x 99.9 % 2.687 V ttn-pfaffenrot -75 dBm 20.01.2024 20:37
2824 temp-at-nowhere 2024-01-20 19:37:55 -1.64 °C x 99.9 % 2.688 V ttn-pfaffenrot -76 dBm 20.01.2024 19:37
2825 temp-at-nowhere 2024-01-20 18:37:56 -1.05 °C x 99.9 % 2.686 V ttn-pfaffenrot -74 dBm 20.01.2024 18:37
2826 temp-at-nowhere 2024-01-20 17:37:57 -0.21 °C x 99.9 % 2.689 V ttn-pfaffenrot -75 dBm 20.01.2024 17:37
2827 temp-at-nowhere 2024-01-20 16:37:57 0.41 °C x 99.9 % 2.688 V ttn-pfaffenrot -74 dBm 20.01.2024 16:37
2828 temp-at-nowhere 2024-01-20 15:37:58 1.44 °C x 99.9 % 2.689 V ttn-pfaffenrot -75 dBm 20.01.2024 15:37
2829 temp-at-nowhere 2024-01-20 14:37:59 2.52 °C x 99.9 % 2.689 V ttn-pfaffenrot -75 dBm 20.01.2024 14:37
2830 temp-at-nowhere 2024-01-20 13:37:59 4.6 °C x 99.9 % 2.69 V ttn-pfaffenrot -78 dBm 20.01.2024 13:37
2831 temp-at-nowhere 2024-01-20 12:38:00 3.76 °C x 99.9 % 2.688 V ttn-pfaffenrot -78 dBm 20.01.2024 12:38
2832 temp-at-nowhere 2024-01-20 11:38:01 0.89 °C x 99.9 % 2.688 V ttn-pfaffenrot -80 dBm 20.01.2024 11:38
2833 temp-at-nowhere 2024-01-20 10:38:01 -2.17 °C x 99.9 % 2.686 V ttn-pfaffenrot -78 dBm 20.01.2024 10:38
2834 temp-at-nowhere 2024-01-20 09:38:02 -4.39 °C x 99.9 % 2.684 V ttn-pfaffenrot -77 dBm 20.01.2024 09:38
2835 temp-at-nowhere 2024-01-20 08:38:03 -4.71 °C x 99.9 % 2.684 V ttn-pfaffenrot -75 dBm 20.01.2024 08:38
2836 temp-at-nowhere 2024-01-20 07:38:03 -3.78 °C x 99.9 % 2.684 V ttn-pfaffenrot -76 dBm 20.01.2024 07:38
2837 temp-at-nowhere 2024-01-20 06:38:04 -2.88 °C x 99.9 % 2.685 V ttn-pfaffenrot -77 dBm 20.01.2024 06:38
2838 temp-at-nowhere 2024-01-20 05:38:05 -2.83 °C x 99.9 % 2.687 V ttn-pfaffenrot -76 dBm 20.01.2024 05:38
2839 temp-at-nowhere 2024-01-20 04:38:05 -2.4 °C x 99.9 % 2.687 V ttn-pfaffenrot -75 dBm 20.01.2024 04:38
2840 temp-at-nowhere 2024-01-20 03:38:06 -2.15 °C x 99.9 % 2.687 V ttn-pfaffenrot -74 dBm 20.01.2024 03:38
2841 temp-at-nowhere 2024-01-20 02:38:07 -2.19 °C x 99.9 % 2.688 V ttn-pfaffenrot -73 dBm 20.01.2024 02:38
2842 temp-at-nowhere 2024-01-20 01:38:07 -1.79 °C x 99.9 % 2.687 V ttn-pfaffenrot -77 dBm 20.01.2024 01:38
2843 temp-at-nowhere 2024-01-20 00:38:08 -1.3 °C x 99.9 % 2.687 V ttn-pfaffenrot -73 dBm 20.01.2024 00:38
2844 temp-at-nowhere 2024-01-19 23:38:09 -0.78 °C x 99.9 % 2.688 V ttn-pfaffenrot -74 dBm 19.01.2024 23:38
2845 temp-at-nowhere 2024-01-19 22:38:09 -1.21 °C x 99.9 % 2.688 V ttn-pfaffenrot -73 dBm 19.01.2024 22:38
2846 temp-at-nowhere 2024-01-19 21:38:10 -1.89 °C x 99.9 % 2.688 V ttn-pfaffenrot -78 dBm 19.01.2024 21:38
2847 temp-at-nowhere 2024-01-19 20:38:11 -2.88 °C x 99.9 % 2.687 V ttn-pfaffenrot -73 dBm 19.01.2024 20:38
2848 temp-at-nowhere 2024-01-19 19:38:11 -2.47 °C x 99.9 % 2.687 V ttn-pfaffenrot -77 dBm 19.01.2024 19:38
2849 temp-at-nowhere 2024-01-19 18:38:12 -1.73 °C x 99.9 % 2.687 V ttn-pfaffenrot -73 dBm 19.01.2024 18:38
2850 temp-at-nowhere 2024-01-19 17:38:13 -1.08 °C x 99.9 % 2.688 V ttn-pfaffenrot -75 dBm 19.01.2024 17:38
2851 temp-at-nowhere 2024-01-19 16:38:13 -0.83 °C x 99.9 % 2.689 V ttn-pfaffenrot -71 dBm 19.01.2024 16:38
2852 temp-at-nowhere 2024-01-19 15:38:14 -0.31 °C x 99.9 % 2.69 V ttn-pfaffenrot -75 dBm 19.01.2024 15:38
2853 temp-at-nowhere 2024-01-19 14:38:15 0.13 °C x 99.9 % 2.69 V ttn-pfaffenrot -73 dBm 19.01.2024 14:38
2854 temp-at-nowhere 2024-01-19 13:38:15 1.13 °C x 99.9 % 2.69 V ttn-pfaffenrot -76 dBm 19.01.2024 13:38
2855 temp-at-nowhere 2024-01-19 12:38:16 0.48 °C x 99.9 % 2.69 V ttn-pfaffenrot -72 dBm 19.01.2024 12:38
2856 temp-at-nowhere 2024-01-19 11:38:17 -0.18 °C x 99.9 % 2.689 V ttn-pfaffenrot -73 dBm 19.01.2024 11:38
2857 temp-at-nowhere 2024-01-19 10:38:17 -0.52 °C x 99.9 % 2.689 V ttn-pfaffenrot -72 dBm 19.01.2024 10:38
2858 temp-at-nowhere 2024-01-19 09:38:18 -1.96 °C x 99.9 % 2.689 V ttn-pfaffenrot -71 dBm 19.01.2024 09:38
2859 temp-at-nowhere 2024-01-19 08:38:19 -1.93 °C x 99.9 % 2.689 V ttn-pfaffenrot -75 dBm 19.01.2024 08:38
2860 temp-at-nowhere 2024-01-19 06:38:20 0.5 °C x 99.9 % 2.689 V ttn-pfaffenrot -73 dBm 19.01.2024 06:38
2861 temp-at-nowhere 2024-01-19 05:38:21 0.71 °C x 99.9 % 2.689 V ttn-pfaffenrot -73 dBm 19.01.2024 05:38
2862 temp-at-nowhere 2024-01-19 04:38:22 0.76 °C x 99.9 % 2.691 V ttn-pfaffenrot -75 dBm 19.01.2024 04:38
2863 temp-at-nowhere 2024-01-19 03:38:22 0.54 °C x 99.9 % 2.692 V ttn-pfaffenrot -73 dBm 19.01.2024 03:38
2864 temp-at-nowhere 2024-01-19 02:38:23 0.71 °C x 99.9 % 2.69 V ttn-pfaffenrot -73 dBm 19.01.2024 02:38
2865 temp-at-nowhere 2024-01-19 01:38:24 1.31 °C x 99.9 % 2.691 V ttn-pfaffenrot -71 dBm 19.01.2024 01:38
2866 temp-at-nowhere 2024-01-19 00:38:24 0.96 °C x 99.9 % 2.69 V ttn-pfaffenrot -69 dBm 19.01.2024 00:38
2867 temp-at-nowhere 2024-01-18 23:38:25 0.61 °C x 99.9 % 2.69 V ttn-pfaffenrot -73 dBm 18.01.2024 23:38
2868 temp-at-nowhere 2024-01-18 21:38:26 0.01 °C x 99.9 % 2.69 V ttn-pfaffenrot -72 dBm 18.01.2024 21:38
2869 temp-at-nowhere 2024-01-18 20:38:27 -1.31 °C x 99.9 % 2.69 V ttn-pfaffenrot -70 dBm 18.01.2024 20:38
2870 temp-at-nowhere 2024-01-18 19:38:28 -0.94 °C x 99.9 % 2.691 V ttn-pfaffenrot -73 dBm 18.01.2024 19:38
2871 temp-at-nowhere 2024-01-18 18:38:28 -0.65 °C x 99.9 % 2.69 V ttn-pfaffenrot -71 dBm 18.01.2024 18:38
2872 temp-at-nowhere 2024-01-18 17:38:29 -0.41 °C x 99.9 % 2.69 V ttn-pfaffenrot -70 dBm 18.01.2024 17:38
2873 temp-at-nowhere 2024-01-18 16:38:30 -0.81 °C x 99.9 % 2.691 V ttn-pfaffenrot -71 dBm 18.01.2024 16:38
2874 temp-at-nowhere 2024-01-18 15:38:30 -0.65 °C x 99.9 % 2.691 V ttn-pfaffenrot -73 dBm 18.01.2024 15:38
2875 temp-at-nowhere 2024-01-18 14:38:31 -0.56 °C x 99.9 % 2.69 V ttn-pfaffenrot -71 dBm 18.01.2024 14:38
2876 temp-at-nowhere 2024-01-18 13:38:32 -0.26 °C x 99.9 % 2.691 V ttn-pfaffenrot -72 dBm 18.01.2024 13:38
2877 temp-at-nowhere 2024-01-18 12:38:32 -0.3 °C x 99.9 % 2.691 V ttn-pfaffenrot -70 dBm 18.01.2024 12:38
2878 temp-at-nowhere 2024-01-18 11:38:33 -0.3 °C x 99.9 % 2.691 V ttn-pfaffenrot -73 dBm 18.01.2024 11:38
2879 temp-at-nowhere 2024-01-18 10:38:34 -0.12 °C x 99.9 % 2.692 V ttn-pfaffenrot -73 dBm 18.01.2024 10:38
2880 temp-at-nowhere 2024-01-18 09:38:34 0.21 °C x 99.9 % 2.691 V ttn-pfaffenrot -75 dBm 18.01.2024 09:38
2881 temp-at-nowhere 2024-01-18 08:38:35 0.8 °C x 99.9 % 2.693 V ttn-pfaffenrot -72 dBm 18.01.2024 08:38
2882 temp-at-nowhere 2024-01-18 07:38:36 1.87 °C x 99.9 % 2.692 V ttn-pfaffenrot -75 dBm 18.01.2024 07:38
2883 temp-at-nowhere 2024-01-18 06:38:36 4.32 °C x 99.9 % 2.693 V ttn-pfaffenrot -74 dBm 18.01.2024 06:38
2884 temp-at-nowhere 2024-01-18 05:38:37 4.95 °C x 99.9 % 2.693 V ttn-pfaffenrot -75 dBm 18.01.2024 05:38
2885 temp-at-nowhere 2024-01-18 04:38:38 6.45 °C x 99.9 % 2.692 V ttn-pfaffenrot -73 dBm 18.01.2024 04:38
2886 temp-at-nowhere 2024-01-18 03:38:38 9.55 °C x 99.9 % 2.694 V ttn-pfaffenrot -76 dBm 18.01.2024 03:38
2887 temp-at-nowhere 2024-01-18 02:38:39 10.44 °C x 99.9 % 2.695 V ttn-pfaffenrot -77 dBm 18.01.2024 02:38
2888 temp-at-nowhere 2024-01-18 01:38:40 10.43 °C x 99.9 % 2.693 V ttn-pfaffenrot -77 dBm 18.01.2024 01:38
2889 temp-at-nowhere 2024-01-18 00:38:40 10.61 °C x 99.9 % 2.694 V ttn-pfaffenrot -78 dBm 18.01.2024 00:38
2890 temp-at-nowhere 2024-01-17 23:38:41 11.49 °C x 99.9 % 2.694 V ttn-pfaffenrot -77 dBm 17.01.2024 23:38
2891 temp-at-nowhere 2024-01-17 22:38:42 11.57 °C x 99.9 % 2.694 V ttn-pfaffenrot -77 dBm 17.01.2024 22:38
2892 temp-at-nowhere 2024-01-17 21:38:43 11.47 °C x 99.9 % 2.693 V ttn-pfaffenrot -78 dBm 17.01.2024 21:38
2893 temp-at-nowhere 2024-01-17 20:38:43 10.61 °C x 99.9 % 2.693 V ttn-pfaffenrot -75 dBm 17.01.2024 20:38
2894 temp-at-nowhere 2024-01-17 19:38:44 10.13 °C x 99.9 % 2.692 V ttn-pfaffenrot -76 dBm 17.01.2024 19:38
2895 temp-at-nowhere 2024-01-17 18:38:45 9.53 °C x 99.9 % 2.694 V ttn-pfaffenrot -75 dBm 17.01.2024 18:38
2896 temp-at-nowhere 2024-01-17 17:38:46 8.62 °C x 99.9 % 2.692 V ttn-pfaffenrot -73 dBm 17.01.2024 17:38
2897 temp-at-nowhere 2024-01-17 16:38:46 7.8 °C x 99.9 % 2.693 V ttn-pfaffenrot -73 dBm 17.01.2024 16:38
2898 temp-at-nowhere 2024-01-17 15:38:47 5.61 °C x 99.9 % 2.691 V ttn-pfaffenrot -75 dBm 17.01.2024 15:38
2899 temp-at-nowhere 2024-01-17 14:38:48 0.99 °C x 99.9 % 2.69 V ttn-pfaffenrot -72 dBm 17.01.2024 14:38
2900 temp-at-nowhere 2024-01-17 13:38:48 0.41 °C x 99.9 % 2.689 V ttn-pfaffenrot -75 dBm 17.01.2024 13:38
2901 temp-at-nowhere 2024-01-17 12:38:49 0.23 °C x 99.9 % 2.689 V ttn-pfaffenrot -73 dBm 17.01.2024 12:38
2902 temp-at-nowhere 2024-01-17 11:38:50 0.33 °C x 99.9 % 2.689 V ttn-pfaffenrot -76 dBm 17.01.2024 11:38
2903 temp-at-nowhere 2024-01-17 10:38:50 -0.08 °C x 99.9 % 2.688 V ttn-pfaffenrot -68 dBm 17.01.2024 10:38
2904 temp-at-nowhere 2024-01-17 09:38:51 -0.45 °C x 99.9 % 2.688 V ttn-pfaffenrot -74 dBm 17.01.2024 09:38
2905 temp-at-nowhere 2024-01-17 08:38:52 -0.67 °C x 99.9 % 2.689 V ttn-pfaffenrot -75 dBm 17.01.2024 08:38
2906 temp-at-nowhere 2024-01-17 07:38:53 -0.62 °C x 99.9 % 2.688 V ttn-pfaffenrot -78 dBm 17.01.2024 07:38
2907 temp-at-nowhere 2024-01-17 06:38:53 0.13 °C x 99.9 % 2.689 V ttn-pfaffenrot -75 dBm 17.01.2024 06:38
2908 temp-at-nowhere 2024-01-17 05:38:54 -0.97 °C x 99.9 % 2.688 V ttn-pfaffenrot -78 dBm 17.01.2024 05:38
2909 temp-at-nowhere 2024-01-17 04:38:54 -1.44 °C x 99.9 % 2.689 V ttn-pfaffenrot -77 dBm 17.01.2024 04:38
2910 temp-at-nowhere 2024-01-17 03:38:55 -1.86 °C x 99.9 % 2.688 V ttn-pfaffenrot -76 dBm 17.01.2024 03:38
2911 temp-at-nowhere 2024-01-17 02:38:56 -1.96 °C x 99.9 % 2.688 V ttn-pfaffenrot -75 dBm 17.01.2024 02:38
2912 temp-at-nowhere 2024-01-17 01:38:56 -2.08 °C x 99.9 % 2.688 V ttn-pfaffenrot -79 dBm 17.01.2024 01:38
2913 temp-at-nowhere 2024-01-17 00:38:57 -2.53 °C x 99.9 % 2.687 V ttn-pfaffenrot -78 dBm 17.01.2024 00:38
2914 temp-at-nowhere 2024-01-16 23:38:58 -2.7 °C x 99.9 % 2.687 V ttn-pfaffenrot -77 dBm 16.01.2024 23:38
2915 temp-at-nowhere 2024-01-16 22:38:58 -2.6 °C x 99.9 % 2.687 V ttn-pfaffenrot -75 dBm 16.01.2024 22:38
2916 temp-at-nowhere 2024-01-16 21:38:59 -3.7 °C x 99.9 % 2.687 V ttn-pfaffenrot -78 dBm 16.01.2024 21:38
2917 temp-at-nowhere 2024-01-16 20:39:00 -3.23 °C x 99.9 % 2.688 V ttn-pfaffenrot -78 dBm 16.01.2024 20:39
2918 temp-at-nowhere 2024-01-16 19:39:00 -2.24 °C x 99.9 % 2.689 V ttn-pfaffenrot -78 dBm 16.01.2024 19:39
2919 temp-at-nowhere 2024-01-16 18:39:01 -1.54 °C x 99.9 % 2.689 V ttn-pfaffenrot -78 dBm 16.01.2024 18:39
2920 temp-at-nowhere 2024-01-16 17:39:02 -0.86 °C x 99.9 % 2.691 V ttn-pfaffenrot -77 dBm 16.01.2024 17:39
2921 temp-at-nowhere 2024-01-16 16:39:02 0.09 °C x 99.9 % 2.691 V ttn-pfaffenrot -78 dBm 16.01.2024 16:39
2922 temp-at-nowhere 2024-01-16 15:39:03 1.16 °C x 99.9 % 2.69 V ttn-pfaffenrot -80 dBm 16.01.2024 15:39
2923 temp-at-nowhere 2024-01-16 14:39:04 2.39 °C x 99.9 % 2.691 V ttn-pfaffenrot -79 dBm 16.01.2024 14:39
2924 temp-at-nowhere 2024-01-16 13:39:04 4.67 °C x 99.9 % 2.693 V ttn-pfaffenrot -81 dBm 16.01.2024 13:39
2925 temp-at-nowhere 2024-01-16 12:39:05 3.44 °C x 99.9 % 2.691 V ttn-pfaffenrot -79 dBm 16.01.2024 12:39
2926 temp-at-nowhere 2024-01-16 11:39:06 0.63 °C x 99.9 % 2.69 V ttn-pfaffenrot -74 dBm 16.01.2024 11:39
2927 temp-at-nowhere 2024-01-16 10:39:06 -1.39 °C x 99.9 % 2.69 V ttn-pfaffenrot -74 dBm 16.01.2024 10:39
2928 temp-at-nowhere 2024-01-16 09:39:07 -2.19 °C x 99.9 % 2.689 V ttn-pfaffenrot -78 dBm 16.01.2024 09:39
2929 temp-at-nowhere 2024-01-16 08:39:08 -2.22 °C x 99.9 % 2.69 V ttn-pfaffenrot -77 dBm 16.01.2024 08:39
2930 temp-at-nowhere 2024-01-16 07:39:08 -1.98 °C x 99.9 % 2.69 V ttn-pfaffenrot -76 dBm 16.01.2024 07:39
2931 temp-at-nowhere 2024-01-16 06:39:09 -0.42 °C x 99.9 % 2.691 V ttn-pfaffenrot -78 dBm 16.01.2024 06:39
2932 temp-at-nowhere 2024-01-16 05:39:10 -0.77 °C x 99.9 % 2.69 V ttn-pfaffenrot -78 dBm 16.01.2024 05:39
2933 temp-at-nowhere 2024-01-16 04:39:10 0.03 °C x 99.9 % 2.691 V ttn-pfaffenrot -75 dBm 16.01.2024 04:39
2934 temp-at-nowhere 2024-01-16 03:39:11 0.28 °C x 99.9 % 2.692 V ttn-pfaffenrot -76 dBm 16.01.2024 03:39
2935 temp-at-nowhere 2024-01-16 02:39:12 0.31 °C x 99.9 % 2.691 V ttn-pfaffenrot -78 dBm 16.01.2024 02:39
2936 temp-at-nowhere 2024-01-16 01:39:12 -0.5 °C x 99.9 % 2.689 V ttn-pfaffenrot -78 dBm 16.01.2024 01:39
2937 temp-at-nowhere 2024-01-16 00:39:13 -0.43 °C x 99.9 % 2.691 V ttn-pfaffenrot -75 dBm 16.01.2024 00:39
2938 temp-at-nowhere 2024-01-15 23:39:14 -0.47 °C x 99.9 % 2.691 V ttn-pfaffenrot -77 dBm 15.01.2024 23:39
2939 temp-at-nowhere 2024-01-15 22:39:14 -0.65 °C x 99.9 % 2.691 V ttn-pfaffenrot -74 dBm 15.01.2024 22:39
2940 temp-at-nowhere 2024-01-15 21:39:15 -0.69 °C x 99.9 % 2.69 V ttn-pfaffenrot -78 dBm 15.01.2024 21:39
2941 temp-at-nowhere 2024-01-15 20:39:16 -1.3 °C x 99.9 % 2.69 V ttn-pfaffenrot -74 dBm 15.01.2024 20:39
2942 temp-at-nowhere 2024-01-15 19:39:16 -1.15 °C x 99.9 % 2.689 V ttn-pfaffenrot -75 dBm 15.01.2024 19:39
2943 temp-at-nowhere 2024-01-15 18:39:17 -1.44 °C x 99.9 % 2.69 V ttn-pfaffenrot -75 dBm 15.01.2024 18:39
2944 temp-at-nowhere 2024-01-15 17:39:18 -1.24 °C x 99.9 % 2.691 V ttn-pfaffenrot -77 dBm 15.01.2024 17:39
2945 temp-at-nowhere 2024-01-15 16:39:18 -0.93 °C x 99.9 % 2.691 V ttn-pfaffenrot -75 dBm 15.01.2024 16:39
2946 temp-at-nowhere 2024-01-15 15:39:19 -0.77 °C x 99.9 % 2.691 V ttn-pfaffenrot -77 dBm 15.01.2024 15:39
2947 temp-at-nowhere 2024-01-15 14:39:20 -0.75 °C x 99.9 % 2.692 V ttn-pfaffenrot -73 dBm 15.01.2024 14:39
2948 temp-at-nowhere 2024-01-15 13:39:20 -0.89 °C x 99.9 % 2.691 V ttn-pfaffenrot -75 dBm 15.01.2024 13:39
2949 temp-at-nowhere 2024-01-15 12:39:21 -0.76 °C x 99.9 % 2.691 V ttn-pfaffenrot -74 dBm 15.01.2024 12:39
2950 temp-at-nowhere 2024-01-15 11:39:22 -0.6 °C x 99.9 % 2.69 V ttn-pfaffenrot -75 dBm 15.01.2024 11:39
2951 temp-at-nowhere 2024-01-15 10:39:22 -1.05 °C x 99.9 % 2.692 V ttn-pfaffenrot -76 dBm 15.01.2024 10:39
2952 temp-at-nowhere 2024-01-15 09:39:23 -1.28 °C x 99.9 % 2.692 V ttn-pfaffenrot -77 dBm 15.01.2024 09:39
2953 temp-at-nowhere 2024-01-15 08:39:24 -1.44 °C x 99.9 % 2.69 V ttn-pfaffenrot -77 dBm 15.01.2024 08:39
2954 temp-at-nowhere 2024-01-15 07:39:24 -1.1 °C x 99.9 % 2.691 V ttn-pfaffenrot -75 dBm 15.01.2024 07:39
2955 temp-at-nowhere 2024-01-15 06:39:25 -0.42 °C x 99.9 % 2.691 V ttn-pfaffenrot -76 dBm 15.01.2024 06:39
2956 temp-at-nowhere 2024-01-15 05:39:26 -0.45 °C x 99.9 % 2.69 V ttn-pfaffenrot -78 dBm 15.01.2024 05:39
2957 temp-at-nowhere 2024-01-15 04:39:26 -1.4 °C x 99.9 % 2.691 V ttn-pfaffenrot -78 dBm 15.01.2024 04:39
2958 temp-at-nowhere 2024-01-15 03:39:27 -1.57 °C x 99.9 % 2.69 V ttn-pfaffenrot -77 dBm 15.01.2024 03:39
2959 temp-at-nowhere 2024-01-15 02:39:28 -1.74 °C x 99.9 % 2.69 V ttn-pfaffenrot -77 dBm 15.01.2024 02:39
2960 temp-at-nowhere 2024-01-15 00:39:29 -2.39 °C x 99.9 % 2.691 V ttn-pfaffenrot -78 dBm 15.01.2024 00:39
2961 temp-at-nowhere 2024-01-14 23:39:30 -2.85 °C x 99.9 % 2.69 V ttn-pfaffenrot -78 dBm 14.01.2024 23:39
2962 temp-at-nowhere 2024-01-14 22:39:30 -3.2 °C x 99.9 % 2.689 V ttn-pfaffenrot -77 dBm 14.01.2024 22:39
2963 temp-at-nowhere 2024-01-14 21:39:31 -3.98 °C x 99.9 % 2.688 V ttn-pfaffenrot -81 dBm 14.01.2024 21:39
2964 temp-at-nowhere 2024-01-14 20:39:32 -4.53 °C x 99.9 % 2.689 V ttn-pfaffenrot -79 dBm 14.01.2024 20:39
2965 temp-at-nowhere 2024-01-14 19:39:32 -4.36 °C x 99.9 % 2.69 V ttn-pfaffenrot -79 dBm 14.01.2024 19:39
2966 temp-at-nowhere 2024-01-14 18:39:33 -4.02 °C x 99.9 % 2.69 V ttn-pfaffenrot -81 dBm 14.01.2024 18:39
2967 temp-at-nowhere 2024-01-14 17:39:34 -3.17 °C x 99.9 % 2.69 V ttn-pfaffenrot -82 dBm 14.01.2024 17:39
2968 temp-at-nowhere 2024-01-14 16:39:34 -1.69 °C x 99.9 % 2.691 V ttn-pfaffenrot -79 dBm 14.01.2024 16:39
2969 temp-at-nowhere 2024-01-14 15:39:35 -0.33 °C x 99.9 % 2.692 V ttn-pfaffenrot -78 dBm 14.01.2024 15:39
2970 temp-at-nowhere 2024-01-14 14:39:36 -0.13 °C x 99.9 % 2.693 V ttn-pfaffenrot -76 dBm 14.01.2024 14:39
2971 temp-at-nowhere 2024-01-14 13:39:36 1.18 °C x 99.9 % 2.694 V ttn-pfaffenrot -85 dBm 14.01.2024 13:39
2972 temp-at-nowhere 2024-01-14 12:39:37 0.73 °C x 99.9 % 2.693 V ttn-pfaffenrot -82 dBm 14.01.2024 12:39
2973 temp-at-nowhere 2024-01-14 11:39:38 -0.42 °C x 99.9 % 2.694 V ttn-pfaffenrot -82 dBm 14.01.2024 11:39
2974 temp-at-nowhere 2024-01-14 10:39:38 -2.69 °C x 99.9 % 2.69 V ttn-pfaffenrot -77 dBm 14.01.2024 10:39
2975 temp-at-nowhere 2024-01-14 09:39:39 -4.37 °C x 99.9 % 2.689 V ttn-pfaffenrot -78 dBm 14.01.2024 09:39
2976 temp-at-nowhere 2024-01-14 08:39:40 -4.77 °C x 99.9 % 2.691 V ttn-pfaffenrot -77 dBm 14.01.2024 08:39
2977 temp-at-nowhere 2024-01-14 07:39:40 -3.62 °C x 99.9 % 2.69 V ttn-pfaffenrot -79 dBm 14.01.2024 07:39
2978 temp-at-nowhere 2024-01-14 06:39:41 -2.36 °C x 99.9 % 2.69 V ttn-pfaffenrot -76 dBm 14.01.2024 06:39
2979 temp-at-nowhere 2024-01-14 05:39:42 -2.88 °C x 99.9 % 2.692 V ttn-pfaffenrot -80 dBm 14.01.2024 05:39
2980 temp-at-nowhere 2024-01-14 04:39:42 -2.49 °C x 99.9 % 2.691 V ttn-pfaffenrot -79 dBm 14.01.2024 04:39
2981 temp-at-nowhere 2024-01-14 03:39:43 -2.52 °C x 99.9 % 2.693 V ttn-pfaffenrot -78 dBm 14.01.2024 03:39
2982 temp-at-nowhere 2024-01-14 02:39:44 -2.12 °C x 99.9 % 2.69 V ttn-pfaffenrot -78 dBm 14.01.2024 02:39
2983 temp-at-nowhere 2024-01-14 01:39:44 -1.59 °C x 99.9 % 2.691 V ttn-pfaffenrot -78 dBm 14.01.2024 01:39
2984 temp-at-nowhere 2024-01-14 00:39:45 -2.32 °C x 99.9 % 2.692 V ttn-pfaffenrot -77 dBm 14.01.2024 00:39
2985 temp-at-nowhere 2024-01-13 23:39:46 -2.57 °C x 99.9 % 2.693 V ttn-pfaffenrot -77 dBm 13.01.2024 23:39
2986 temp-at-nowhere 2024-01-13 22:39:46 -2.43 °C x 99.9 % 2.691 V ttn-pfaffenrot -78 dBm 13.01.2024 22:39
2987 temp-at-nowhere 2024-01-13 21:39:47 -3.52 °C x 99.9 % 2.689 V ttn-pfaffenrot -77 dBm 13.01.2024 21:39
2988 temp-at-nowhere 2024-01-13 20:39:47 -4.53 °C x 99.9 % 2.69 V ttn-pfaffenrot -78 dBm 13.01.2024 20:39
2989 temp-at-nowhere 2024-01-13 19:39:48 -4.4 °C x 99.9 % 2.691 V ttn-pfaffenrot -79 dBm 13.01.2024 19:39
2990 temp-at-nowhere 2024-01-13 18:39:49 -4.13 °C x 99.9 % 2.69 V ttn-pfaffenrot -75 dBm 13.01.2024 18:39
2991 temp-at-nowhere 2024-01-13 17:39:49 -3.9 °C x 99.9 % 2.692 V ttn-pfaffenrot -77 dBm 13.01.2024 17:39
2992 temp-at-nowhere 2024-01-13 16:39:50 -3.34 °C x 99.9 % 2.691 V ttn-pfaffenrot -76 dBm 13.01.2024 16:39
2993 temp-at-nowhere 2024-01-13 15:39:51 -2.93 °C x 99.9 % 2.692 V ttn-pfaffenrot -76 dBm 13.01.2024 15:39
2994 temp-at-nowhere 2024-01-13 14:39:51 -2.41 °C x 99.9 % 2.693 V ttn-pfaffenrot -77 dBm 13.01.2024 14:39
2995 temp-at-nowhere 2024-01-13 13:39:52 -2.53 °C x 99.9 % 2.694 V ttn-pfaffenrot -79 dBm 13.01.2024 13:39
2996 temp-at-nowhere 2024-01-13 12:39:53 -2.51 °C x 99.9 % 2.693 V ttn-pfaffenrot -78 dBm 13.01.2024 12:39
2997 temp-at-nowhere 2024-01-13 11:39:53 -2.3 °C x 99.9 % 2.693 V ttn-pfaffenrot -79 dBm 13.01.2024 11:39
2998 temp-at-nowhere 2024-01-13 10:39:54 -2.17 °C x 99.9 % 2.694 V ttn-pfaffenrot -77 dBm 13.01.2024 10:39
2999 temp-at-nowhere 2024-01-13 09:39:55 -2.46 °C x 99.9 % 2.693 V ttn-pfaffenrot -78 dBm 13.01.2024 09:39
3000 temp-at-nowhere 2024-01-13 08:39:55 -2.42 °C x 99.9 % 2.694 V ttn-pfaffenrot -77 dBm 13.01.2024 08:39
3001 temp-at-nowhere 2024-01-13 07:39:56 -1.89 °C x 99.9 % 2.695 V ttn-pfaffenrot -76 dBm 13.01.2024 07:39
3002 temp-at-nowhere 2024-01-13 06:39:57 -0.15 °C x 99.9 % 2.694 V ttn-pfaffenrot -79 dBm 13.01.2024 06:39
3003 temp-at-nowhere 2024-01-13 05:39:57 -1.02 °C x 99.9 % 2.694 V ttn-pfaffenrot -77 dBm 13.01.2024 05:39
3004 temp-at-nowhere 2024-01-13 04:39:58 -0.97 °C x 99.9 % 2.694 V ttn-pfaffenrot -77 dBm 13.01.2024 04:39
3005 temp-at-nowhere 2024-01-13 03:39:59 -1.59 °C x 99.9 % 2.696 V ttn-pfaffenrot -79 dBm 13.01.2024 03:39
3006 temp-at-nowhere 2024-01-13 02:39:59 -1.36 °C x 99.9 % 2.695 V ttn-pfaffenrot -76 dBm 13.01.2024 02:39
3007 temp-at-nowhere 2024-01-13 01:40:00 -0.87 °C x 99.9 % 2.696 V ttn-pfaffenrot -81 dBm 13.01.2024 01:40
3008 temp-at-nowhere 2024-01-13 00:40:01 -1.24 °C x 99.9 % 2.693 V ttn-pfaffenrot -78 dBm 13.01.2024 00:40
3009 temp-at-nowhere 2024-01-12 23:40:01 -1.42 °C x 99.9 % 2.695 V ttn-pfaffenrot -79 dBm 12.01.2024 23:40
3010 temp-at-nowhere 2024-01-12 22:40:02 -1.76 °C x 99.9 % 2.694 V ttn-pfaffenrot -79 dBm 12.01.2024 22:40
3011 temp-at-nowhere 2024-01-12 21:40:03 -3.1 °C x 99.9 % 2.695 V ttn-pfaffenrot -81 dBm 12.01.2024 21:40
3012 temp-at-nowhere 2024-01-12 20:40:03 -2.95 °C x 99.9 % 2.693 V ttn-pfaffenrot -81 dBm 12.01.2024 20:40
3013 temp-at-nowhere 2024-01-12 19:40:04 -2.6 °C x 99.9 % 2.694 V ttn-pfaffenrot -82 dBm 12.01.2024 19:40
3014 temp-at-nowhere 2024-01-12 18:40:05 -2.16 °C x 99.9 % 2.694 V ttn-pfaffenrot -82 dBm 12.01.2024 18:40
3015 temp-at-nowhere 2024-01-12 17:40:05 -2.03 °C x 99.9 % 2.696 V ttn-pfaffenrot -75 dBm 12.01.2024 17:40
3016 temp-at-nowhere 2024-01-12 16:40:06 -0.69 °C x 99.9 % 2.697 V ttn-pfaffenrot -81 dBm 12.01.2024 16:40
3017 temp-at-nowhere 2024-01-12 15:40:07 -0.06 °C x 99.9 % 2.698 V ttn-pfaffenrot -82 dBm 12.01.2024 15:40
3018 temp-at-nowhere 2024-01-12 14:40:07 0.95 °C x 99.9 % 2.696 V ttn-pfaffenrot -79 dBm 12.01.2024 14:40
3019 temp-at-nowhere 2024-01-12 13:40:08 3.13 °C x 99.9 % 2.698 V ttn-pfaffenrot -82 dBm 12.01.2024 13:40
3020 temp-at-nowhere 2024-01-12 12:40:09 2.59 °C x 99.9 % 2.697 V ttn-pfaffenrot -80 dBm 12.01.2024 12:40
3021 temp-at-nowhere 2024-01-12 11:40:09 -0.21 °C x 99.9 % 2.695 V ttn-pfaffenrot -78 dBm 12.01.2024 11:40
3022 temp-at-nowhere 2024-01-12 10:40:10 -3.04 °C x 99.9 % 2.694 V ttn-pfaffenrot -80 dBm 12.01.2024 10:40
3023 temp-at-nowhere 2024-01-12 09:40:11 -4.82 °C x 99.9 % 2.692 V ttn-pfaffenrot -78 dBm 12.01.2024 09:40
3024 temp-at-nowhere 2024-01-12 08:40:11 -4.99 °C x 99.9 % 2.692 V ttn-pfaffenrot -78 dBm 12.01.2024 08:40
3025 temp-at-nowhere 2024-01-12 07:40:12 -4.34 °C x 99.9 % 2.694 V ttn-pfaffenrot -83 dBm 12.01.2024 07:40
3026 temp-at-nowhere 2024-01-12 06:40:13 -3.01 °C x 99.9 % 2.696 V ttn-pfaffenrot -79 dBm 12.01.2024 06:40
3027 temp-at-nowhere 2024-01-12 05:40:13 -2.93 °C x 99.9 % 2.694 V ttn-pfaffenrot -79 dBm 12.01.2024 05:40
3028 temp-at-nowhere 2024-01-12 04:40:14 -3 °C x 99.9 % 2.695 V ttn-pfaffenrot -78 dBm 12.01.2024 04:40
3029 temp-at-nowhere 2024-01-12 03:40:15 -2.56 °C x 99.9 % 2.695 V ttn-pfaffenrot -79 dBm 12.01.2024 03:40
3030 temp-at-nowhere 2024-01-12 02:40:15 -2.05 °C x 99.9 % 2.696 V ttn-pfaffenrot -77 dBm 12.01.2024 02:40
3031 temp-at-nowhere 2024-01-12 01:40:16 -2.28 °C x 99.9 % 2.695 V ttn-pfaffenrot -77 dBm 12.01.2024 01:40
3032 temp-at-nowhere 2024-01-12 00:40:17 -2.32 °C x 99.9 % 2.696 V ttn-pfaffenrot -77 dBm 12.01.2024 00:40
3033 temp-at-nowhere 2024-01-11 23:40:17 -2.29 °C x 99.9 % 2.695 V ttn-pfaffenrot -83 dBm 11.01.2024 23:40
3034 temp-at-nowhere 2024-01-11 22:40:18 -2.18 °C x 99.9 % 2.696 V ttn-pfaffenrot -78 dBm 11.01.2024 22:40
3035 temp-at-nowhere 2024-01-11 21:40:19 -2.06 °C x 99.9 % 2.695 V ttn-pfaffenrot -79 dBm 11.01.2024 21:40
3036 temp-at-nowhere 2024-01-11 20:40:19 -2.89 °C x 99.9 % 2.696 V ttn-pfaffenrot -82 dBm 11.01.2024 20:40
3037 temp-at-nowhere 2024-01-11 19:40:20 -2.8 °C x 99.9 % 2.698 V ttn-pfaffenrot -81 dBm 11.01.2024 19:40
3038 temp-at-nowhere 2024-01-11 18:40:20 -1.97 °C x 99.9 % 2.696 V ttn-pfaffenrot -80 dBm 11.01.2024 18:40
3039 temp-at-nowhere 2024-01-11 17:40:21 -1.61 °C x 99.9 % 2.697 V ttn-pfaffenrot -83 dBm 11.01.2024 17:40
3040 temp-at-nowhere 2024-01-11 16:40:22 -0.5 °C x 99.9 % 2.697 V ttn-pfaffenrot -81 dBm 11.01.2024 16:40
3041 temp-at-nowhere 2024-01-11 15:40:22 0.43 °C x 99.9 % 2.699 V ttn-pfaffenrot -81 dBm 11.01.2024 15:40
3042 temp-at-nowhere 2024-01-11 14:40:23 1.95 °C x 99.9 % 2.697 V ttn-pfaffenrot -73 dBm 11.01.2024 14:40
3043 temp-at-nowhere 2024-01-11 13:40:24 3.93 °C x 99.9 % 2.7 V ttn-pfaffenrot -81 dBm 11.01.2024 13:40
3044 temp-at-nowhere 2024-01-11 12:40:25 3.53 °C x 99.9 % 2.699 V ttn-pfaffenrot -77 dBm 11.01.2024 12:40
3045 temp-at-nowhere 2024-01-11 11:40:25 0.36 °C x 99.9 % 2.698 V ttn-pfaffenrot -80 dBm 11.01.2024 11:40
3046 temp-at-nowhere 2024-01-11 10:40:26 -2.73 °C x 99.9 % 2.696 V ttn-pfaffenrot -79 dBm 11.01.2024 10:40
3047 temp-at-nowhere 2024-01-11 09:40:27 -4.57 °C x 99.9 % 2.694 V ttn-pfaffenrot -82 dBm 11.01.2024 09:40
3048 temp-at-nowhere 2024-01-11 08:40:27 -5.39 °C x 99.9 % 2.691 V ttn-pfaffenrot -82 dBm 11.01.2024 08:40
3049 temp-at-nowhere 2024-01-11 07:40:28 -4.59 °C x 99.9 % 2.694 V ttn-pfaffenrot -84 dBm 11.01.2024 07:40
3050 temp-at-nowhere 2024-01-11 06:40:29 -3.29 °C x 99.9 % 2.696 V ttn-pfaffenrot -78 dBm 11.01.2024 06:40
3051 temp-at-nowhere 2024-01-11 05:40:29 -3.84 °C x 99.9 % 2.695 V ttn-pfaffenrot -81 dBm 11.01.2024 05:40
3052 temp-at-nowhere 2024-01-11 04:40:30 -3.2 °C x 99.9 % 2.696 V ttn-pfaffenrot -78 dBm 11.01.2024 04:40
3053 temp-at-nowhere 2024-01-11 03:40:30 -2.57 °C x 99.9 % 2.696 V ttn-pfaffenrot -78 dBm 11.01.2024 03:40
3054 temp-at-nowhere 2024-01-11 02:40:31 -2.26 °C x 99.9 % 2.698 V ttn-pfaffenrot -81 dBm 11.01.2024 02:40
3055 temp-at-nowhere 2024-01-11 01:40:32 -2.43 °C x 99.9 % 2.697 V ttn-pfaffenrot -78 dBm 11.01.2024 01:40
3056 temp-at-nowhere 2024-01-11 00:40:32 -2.09 °C x 99.9 % 2.698 V ttn-pfaffenrot -79 dBm 11.01.2024 00:40
3057 temp-at-nowhere 2024-01-10 23:40:33 -2.58 °C x 99.9 % 2.698 V ttn-pfaffenrot -80 dBm 10.01.2024 23:40
3058 temp-at-nowhere 2024-01-10 22:40:34 -2.28 °C x 99.9 % 2.698 V ttn-pfaffenrot -79 dBm 10.01.2024 22:40
3059 temp-at-nowhere 2024-01-10 21:40:34 -2.47 °C x 99.9 % 2.698 V ttn-pfaffenrot -81 dBm 10.01.2024 21:40
3060 temp-at-nowhere 2024-01-10 20:40:35 -2.53 °C x 99.9 % 2.697 V ttn-pfaffenrot -83 dBm 10.01.2024 20:40
3061 temp-at-nowhere 2024-01-10 19:40:36 -2.12 °C x 99.9 % 2.699 V ttn-pfaffenrot -85 dBm 10.01.2024 19:40
3062 temp-at-nowhere 2024-01-10 18:40:37 -2.2 °C x 99.9 % 2.698 V ttn-pfaffenrot -84 dBm 10.01.2024 18:40
3063 temp-at-nowhere 2024-01-10 17:40:37 -1.32 °C x 99.9 % 2.699 V ttn-pfaffenrot -84 dBm 10.01.2024 17:40
3064 temp-at-nowhere 2024-01-10 16:40:38 -0.15 °C x 99.9 % 2.7 V ttn-pfaffenrot -80 dBm 10.01.2024 16:40
3065 temp-at-nowhere 2024-01-10 15:40:38 0.6 °C x 99.9 % 2.7 V ttn-pfaffenrot -87 dBm 10.01.2024 15:40
3066 temp-at-nowhere 2024-01-10 14:40:39 1.53 °C x 99.9 % 2.7 V ttn-pfaffenrot -82 dBm 10.01.2024 14:40
3067 temp-at-nowhere 2024-01-10 13:40:40 3.11 °C x 99.9 % 2.702 V ttn-pfaffenrot -84 dBm 10.01.2024 13:40
3068 temp-at-nowhere 2024-01-10 12:40:41 2.85 °C x 99.9 % 2.701 V ttn-pfaffenrot -83 dBm 10.01.2024 12:40
3069 temp-at-nowhere 2024-01-10 11:40:41 -0.34 °C x 99.9 % 2.699 V ttn-pfaffenrot -80 dBm 10.01.2024 11:40
3070 temp-at-nowhere 2024-01-10 10:40:42 -2.79 °C x 99.9 % 2.697 V ttn-pfaffenrot -82 dBm 10.01.2024 10:40
3071 temp-at-nowhere 2024-01-10 09:40:43 -4.64 °C x 99.9 % 2.697 V ttn-pfaffenrot -84 dBm 10.01.2024 09:40
3072 temp-at-nowhere 2024-01-10 08:40:43 -4.66 °C x 99.9 % 2.697 V ttn-pfaffenrot -83 dBm 10.01.2024 08:40
3073 temp-at-nowhere 2024-01-10 07:40:44 -3.66 °C x 99.9 % 2.698 V ttn-pfaffenrot -82 dBm 10.01.2024 07:40
3074 temp-at-nowhere 2024-01-10 06:40:45 -1.88 °C x 99.9 % 2.699 V ttn-pfaffenrot -84 dBm 10.01.2024 06:40
3075 temp-at-nowhere 2024-01-10 05:40:45 -2.88 °C x 99.9 % 2.699 V ttn-pfaffenrot -81 dBm 10.01.2024 05:40
3076 temp-at-nowhere 2024-01-10 04:40:46 -2.73 °C x 99.9 % 2.698 V ttn-pfaffenrot -85 dBm 10.01.2024 04:40
3077 temp-at-nowhere 2024-01-10 03:40:47 -2.3 °C x 99.9 % 2.698 V ttn-pfaffenrot -83 dBm 10.01.2024 03:40
3078 temp-at-nowhere 2024-01-10 02:40:47 -3.03 °C x 99.9 % 2.699 V ttn-pfaffenrot -81 dBm 10.01.2024 02:40
3079 temp-at-nowhere 2024-01-10 01:40:48 -3.12 °C x 99.9 % 2.698 V ttn-pfaffenrot -81 dBm 10.01.2024 01:40
3080 temp-at-nowhere 2024-01-10 00:40:48 -3.35 °C x 99.9 % 2.698 V ttn-pfaffenrot -81 dBm 10.01.2024 00:40
3081 temp-at-nowhere 2024-01-09 23:40:49 -2.68 °C x 99.9 % 2.699 V ttn-pfaffenrot -82 dBm 09.01.2024 23:40
3082 temp-at-nowhere 2024-01-09 22:40:50 -3.26 °C x 99.9 % 2.698 V ttn-pfaffenrot -84 dBm 09.01.2024 22:40
3083 temp-at-nowhere 2024-01-09 21:40:50 -3.29 °C x 99.9 % 2.698 V ttn-pfaffenrot -78 dBm 09.01.2024 21:40
3084 temp-at-nowhere 2024-01-09 20:40:51 -4.15 °C x 99.9 % 2.697 V ttn-pfaffenrot -87 dBm 09.01.2024 20:40
3085 temp-at-nowhere 2024-01-09 19:40:52 -3.8 °C x 99.9 % 2.698 V ttn-pfaffenrot -84 dBm 09.01.2024 19:40
3086 temp-at-nowhere 2024-01-09 18:40:52 -3.54 °C x 99.9 % 2.699 V ttn-pfaffenrot -82 dBm 09.01.2024 18:40
3087 temp-at-nowhere 2024-01-09 17:40:53 -3.34 °C x 99.9 % 2.698 V ttn-pfaffenrot -88 dBm 09.01.2024 17:40
3088 temp-at-nowhere 2024-01-09 16:40:54 -2.79 °C x 99.9 % 2.7 V ttn-pfaffenrot -89 dBm 09.01.2024 16:40
3089 temp-at-nowhere 2024-01-09 15:40:54 -2.29 °C x 99.9 % 2.7 V ttn-pfaffenrot -87 dBm 09.01.2024 15:40
3090 temp-at-nowhere 2024-01-09 14:40:55 -1.49 °C x 99.9 % 2.7 V ttn-pfaffenrot -93 dBm 09.01.2024 14:40
3091 temp-at-nowhere 2024-01-09 13:40:56 -0.05 °C x 99.9 % 2.702 V ttn-pfaffenrot -89 dBm 09.01.2024 13:40
3092 temp-at-nowhere 2024-01-09 12:40:56 -0.36 °C x 99.9 % 2.702 V ttn-pfaffenrot -90 dBm 09.01.2024 12:40
3093 temp-at-nowhere 2024-01-09 11:40:57 -2.03 °C x 99.9 % 2.701 V ttn-pfaffenrot -85 dBm 09.01.2024 11:40
3094 temp-at-nowhere 2024-01-09 10:40:58 -4.6 °C x 99.9 % 2.697 V ttn-pfaffenrot -85 dBm 09.01.2024 10:40
3095 temp-at-nowhere 2024-01-09 09:40:58 -5.95 °C x 99.9 % 2.697 V ttn-pfaffenrot -87 dBm 09.01.2024 09:40
3096 temp-at-nowhere 2024-01-09 08:40:59 -6.52 °C x 99.9 % 2.695 V ttn-pfaffenrot -91 dBm 09.01.2024 08:40
3097 temp-at-nowhere 2024-01-09 07:41:00 -6.36 °C x 99.9 % 2.695 V ttn-pfaffenrot -85 dBm 09.01.2024 07:41
3098 temp-at-nowhere 2024-01-09 06:41:00 -4.99 °C x 99.9 % 2.697 V ttn-pfaffenrot -93 dBm 09.01.2024 06:41
3099 temp-at-nowhere 2024-01-09 05:41:01 -5.69 °C x 99.9 % 2.696 V ttn-pfaffenrot -83 dBm 09.01.2024 05:41
3100 temp-at-nowhere 2024-01-09 04:41:02 -5.56 °C x 99.9 % 2.697 V ttn-pfaffenrot -95 dBm 09.01.2024 04:41
3101 temp-at-nowhere 2024-01-09 03:41:02 -5.43 °C x 99.9 % 2.697 V ttn-pfaffenrot -80 dBm 09.01.2024 03:41
3102 temp-at-nowhere 2024-01-09 02:41:03 -5.18 °C x 99.9 % 2.699 V ttn-pfaffenrot -95 dBm 09.01.2024 02:41
3103 temp-at-nowhere 2024-01-09 01:41:04 -4.45 °C x 99.9 % 2.698 V ttn-pfaffenrot -81 dBm 09.01.2024 01:41
3104 temp-at-nowhere 2024-01-09 00:41:04 -4.32 °C x 99.9 % 2.699 V ttn-pfaffenrot -97 dBm 09.01.2024 00:41
3105 temp-at-nowhere 2024-01-08 23:41:05 -3.31 °C x 99.9 % 2.7 V ttn-pfaffenrot -83 dBm 08.01.2024 23:41
3106 temp-at-nowhere 2024-01-08 22:41:05 -3.65 °C x 99.9 % 2.701 V ttn-pfaffenrot -87 dBm 08.01.2024 22:41
3107 temp-at-nowhere 2024-01-08 21:41:06 -3.06 °C x 99.9 % 2.702 V ttn-pfaffenrot -83 dBm 08.01.2024 21:41
3108 temp-at-nowhere 2024-01-08 20:41:07 -3.85 °C x 99.9 % 2.7 V ttn-pfaffenrot -95 dBm 08.01.2024 20:41
3109 temp-at-nowhere 2024-01-08 19:41:07 -3.37 °C x 99.9 % 2.701 V ttn-pfaffenrot -88 dBm 08.01.2024 19:41
3110 temp-at-nowhere 2024-01-08 18:41:08 -3.67 °C x 99.9 % 2.699 V ttn-pfaffenrot -95 dBm 08.01.2024 18:41
3111 temp-at-nowhere 2024-01-08 17:41:09 -3.24 °C x 99.9 % 2.7 V ttn-pfaffenrot -86 dBm 08.01.2024 17:41
3112 temp-at-nowhere 2024-01-08 16:41:09 -2.88 °C x 99.9 % 2.701 V ttn-pfaffenrot -83 dBm 08.01.2024 16:41
3113 temp-at-nowhere 2024-01-08 15:41:10 -2.29 °C x 99.9 % 2.702 V ttn-pfaffenrot -84 dBm 08.01.2024 15:41
3114 temp-at-nowhere 2024-01-08 14:41:11 -2.17 °C x 99.9 % 2.702 V ttn-pfaffenrot -82 dBm 08.01.2024 14:41
3115 temp-at-nowhere 2024-01-08 13:41:11 -1.96 °C x 99.9 % 2.703 V ttn-pfaffenrot -85 dBm 08.01.2024 13:41
3116 temp-at-nowhere 2024-01-08 12:41:12 -2.08 °C x 99.9 % 2.704 V ttn-pfaffenrot -91 dBm 08.01.2024 12:41
3117 temp-at-nowhere 2024-01-08 11:41:13 -1.83 °C x 99.9 % 2.703 V ttn-pfaffenrot -84 dBm 08.01.2024 11:41
3118 temp-at-nowhere 2024-01-08 10:41:13 -1.74 °C x 99.9 % 2.703 V ttn-pfaffenrot -94 dBm 08.01.2024 10:41
3119 temp-at-nowhere 2024-01-08 09:41:14 -1.95 °C x 99.9 % 2.703 V ttn-pfaffenrot -84 dBm 08.01.2024 09:41
3120 temp-at-nowhere 2024-01-08 08:41:15 -2.04 °C x 99.9 % 2.702 V ttn-pfaffenrot -91 dBm 08.01.2024 08:41
3121 temp-at-nowhere 2024-01-08 07:41:15 -1.82 °C x 99.9 % 2.703 V ttn-pfaffenrot -80 dBm 08.01.2024 07:41
3122 temp-at-nowhere 2024-01-08 06:41:16 -0.5 °C x 99.9 % 2.704 V ttn-pfaffenrot -97 dBm 08.01.2024 06:41
3123 temp-at-nowhere 2024-01-08 05:41:17 -1.02 °C x 99.9 % 2.703 V ttn-pfaffenrot -85 dBm 08.01.2024 05:41
3124 temp-at-nowhere 2024-01-08 04:41:17 -1.03 °C x 99.9 % 2.703 V ttn-pfaffenrot -97 dBm 08.01.2024 04:41
3125 temp-at-nowhere 2024-01-08 03:41:18 -1.2 °C x 99.9 % 2.703 V ttn-pfaffenrot -87 dBm 08.01.2024 03:41
3126 temp-at-nowhere 2024-01-08 02:41:19 -1.01 °C x 99.9 % 2.704 V ttn-pfaffenrot -101 dBm 08.01.2024 02:41
3127 temp-at-nowhere 2024-01-08 01:41:19 -0.49 °C x 99.9 % 2.705 V ttn-pfaffenrot -83 dBm 08.01.2024 01:41
3128 temp-at-nowhere 2024-01-08 00:41:20 -0.94 °C x 99.9 % 2.704 V ttn-pfaffenrot -95 dBm 08.01.2024 00:41
3129 temp-at-nowhere 2024-01-07 23:41:21 -0.68 °C x 99.9 % 2.705 V ttn-pfaffenrot -83 dBm 07.01.2024 23:41
3130 temp-at-nowhere 2024-01-07 22:41:21 -1 °C x 99.9 % 2.705 V ttn-pfaffenrot -89 dBm 07.01.2024 22:41
3131 temp-at-nowhere 2024-01-07 21:41:22 -1.33 °C x 99.9 % 2.705 V ttn-pfaffenrot -81 dBm 07.01.2024 21:41
3132 temp-at-nowhere 2024-01-07 20:41:23 -1.52 °C x 99.9 % 2.704 V ttn-pfaffenrot -85 dBm 07.01.2024 20:41
3133 temp-at-nowhere 2024-01-07 19:41:23 -0.97 °C x 99.9 % 2.704 V ttn-pfaffenrot -74 dBm 07.01.2024 19:41
3134 temp-at-nowhere 2024-01-07 18:41:24 -0.38 °C x 99.9 % 2.705 V ttn-pfaffenrot -85 dBm 07.01.2024 18:41
3135 temp-at-nowhere 2024-01-07 17:41:25 0.08 °C x 99.9 % 2.706 V ttn-pfaffenrot -74 dBm 07.01.2024 17:41
3136 temp-at-nowhere 2024-01-07 16:41:25 0.65 °C x 99.9 % 2.707 V ttn-pfaffenrot -95 dBm 07.01.2024 16:41
3137 temp-at-nowhere 2024-01-07 15:41:26 1.18 °C x 99.9 % 2.707 V ttn-pfaffenrot -79 dBm 07.01.2024 15:41
3138 temp-at-nowhere 2024-01-07 14:41:27 1.57 °C x 99.9 % 2.705 V ttn-pfaffenrot -77 dBm 07.01.2024 14:41
3139 temp-at-nowhere 2024-01-07 13:41:28 1.93 °C x 99.9 % 2.707 V ttn-pfaffenrot -72 dBm 07.01.2024 13:41
3140 temp-at-nowhere 2024-01-07 12:41:28 2.75 °C x 99.9 % 2.707 V ttn-pfaffenrot -81 dBm 07.01.2024 12:41
3141 temp-at-nowhere 2024-01-07 11:41:29 3.3 °C x 99.9 % 2.708 V ttn-pfaffenrot -75 dBm 07.01.2024 11:41
3142 temp-at-nowhere 2024-01-07 10:41:30 2.58 °C x 99.9 % 2.707 V ttn-pfaffenrot -83 dBm 07.01.2024 10:41
3143 temp-at-nowhere 2024-01-07 09:41:30 2.53 °C x 99.9 % 2.708 V ttn-pfaffenrot -73 dBm 07.01.2024 09:41
3144 temp-at-nowhere 2024-01-07 08:41:31 2.79 °C x 99.9 % 2.708 V ttn-pfaffenrot -83 dBm 07.01.2024 08:41
3145 temp-at-nowhere 2024-01-07 07:41:32 3.21 °C x 99.9 % 2.708 V ttn-pfaffenrot -77 dBm 07.01.2024 07:41
3146 temp-at-nowhere 2024-01-07 06:41:33 4.11 °C x 99.9 % 2.708 V ttn-pfaffenrot -79 dBm 07.01.2024 06:41
3147 temp-at-nowhere 2024-01-07 05:41:33 4.42 °C x 99.9 % 2.707 V ttn-pfaffenrot -75 dBm 07.01.2024 05:41
3148 temp-at-nowhere 2024-01-07 04:41:34 4.63 °C x 99.9 % 2.709 V ttn-pfaffenrot -74 dBm 07.01.2024 04:41
3149 temp-at-nowhere 2024-01-07 03:41:35 4.67 °C x 99.9 % 2.708 V ttn-pfaffenrot -77 dBm 07.01.2024 03:41
3150 temp-at-nowhere 2024-01-07 02:41:35 5.04 °C x 99.9 % 2.708 V ttn-pfaffenrot -85 dBm 07.01.2024 02:41
3151 temp-at-nowhere 2024-01-07 01:41:36 4.86 °C x 99.9 % 2.71 V ttn-pfaffenrot -72 dBm 07.01.2024 01:41
3152 temp-at-nowhere 2024-01-07 00:41:37 4.98 °C x 99.9 % 2.709 V ttn-pfaffenrot -81 dBm 07.01.2024 00:41
3153 temp-at-nowhere 2024-01-06 23:41:38 5.1 °C x 99.9 % 2.707 V ttn-pfaffenrot -76 dBm 06.01.2024 23:41
3154 temp-at-nowhere 2024-01-06 22:41:38 5.59 °C x 99.9 % 2.709 V ttn-pfaffenrot -83 dBm 06.01.2024 22:41
3155 temp-at-nowhere 2024-01-06 21:41:39 4.66 °C x 99.9 % 2.709 V ttn-pfaffenrot -78 dBm 06.01.2024 21:41
3156 temp-at-nowhere 2024-01-06 20:41:40 3.99 °C x 99.9 % 2.708 V ttn-pfaffenrot -84 dBm 06.01.2024 20:41
3157 temp-at-nowhere 2024-01-06 19:41:41 3.94 °C x 99.9 % 2.71 V ttn-pfaffenrot -81 dBm 06.01.2024 19:41
3158 temp-at-nowhere 2024-01-06 18:41:41 3.94 °C x 99.9 % 2.709 V ttn-pfaffenrot -89 dBm 06.01.2024 18:41
3159 temp-at-nowhere 2024-01-06 17:41:42 4.04 °C x 99.9 % 2.709 V ttn-pfaffenrot -77 dBm 06.01.2024 17:41
3160 temp-at-nowhere 2024-01-06 16:41:43 4.09 °C x 99.9 % 2.71 V ttn-pfaffenrot -95 dBm 06.01.2024 16:41
3161 temp-at-nowhere 2024-01-06 15:41:43 4.23 °C x 99.9 % 2.709 V ttn-pfaffenrot -77 dBm 06.01.2024 15:41
3162 temp-at-nowhere 2024-01-06 14:41:44 4.32 °C x 99.9 % 2.71 V ttn-pfaffenrot -82 dBm 06.01.2024 14:41
3163 temp-at-nowhere 2024-01-06 13:41:45 4.3 °C x 99.9 % 2.709 V ttn-pfaffenrot -77 dBm 06.01.2024 13:41
3164 temp-at-nowhere 2024-01-06 12:41:46 4.53 °C x 99.9 % 2.707 V ttn-pfaffenrot -84 dBm 06.01.2024 12:41
3165 temp-at-nowhere 2024-01-06 11:41:46 3.88 °C x 99.9 % 2.71 V ttn-pfaffenrot -81 dBm 06.01.2024 11:41
3166 temp-at-nowhere 2024-01-06 10:41:47 3.88 °C x 99.9 % 2.709 V ttn-pfaffenrot -83 dBm 06.01.2024 10:41
3167 temp-at-nowhere 2024-01-06 09:41:48 3.75 °C x 99.9 % 2.71 V ttn-pfaffenrot -77 dBm 06.01.2024 09:41
3168 temp-at-nowhere 2024-01-06 08:41:49 3.88 °C x 99.9 % 2.709 V ttn-pfaffenrot -85 dBm 06.01.2024 08:41
3169 temp-at-nowhere 2024-01-06 07:41:49 4.09 °C x 99.9 % 2.709 V ttn-pfaffenrot -77 dBm 06.01.2024 07:41
3170 temp-at-nowhere 2024-01-06 06:41:50 5.4 °C x 99.9 % 2.71 V ttn-pfaffenrot -76 dBm 06.01.2024 06:41
3171 temp-at-nowhere 2024-01-06 05:41:51 5.15 °C x 99.9 % 2.71 V ttn-pfaffenrot -77 dBm 06.01.2024 05:41
3172 temp-at-nowhere 2024-01-06 04:41:52 5.25 °C x 99.9 % 2.709 V ttn-pfaffenrot -75 dBm 06.01.2024 04:41
3173 temp-at-nowhere 2024-01-06 03:41:52 5.19 °C x 99.9 % 2.71 V ttn-pfaffenrot -76 dBm 06.01.2024 03:41
3174 temp-at-nowhere 2024-01-06 02:41:53 5.64 °C x 99.9 % 2.711 V ttn-pfaffenrot -81 dBm 06.01.2024 02:41
3175 temp-at-nowhere 2024-01-06 01:41:54 5.81 °C x 99.9 % 2.711 V ttn-pfaffenrot -76 dBm 06.01.2024 01:41
3176 temp-at-nowhere 2024-01-06 00:41:54 6.04 °C x 99.9 % 2.711 V ttn-pfaffenrot -83 dBm 06.01.2024 00:41
3177 temp-at-nowhere 2024-01-05 23:41:55 6.43 °C x 99.9 % 2.712 V ttn-pfaffenrot -78 dBm 05.01.2024 23:41
3178 temp-at-nowhere 2024-01-05 22:41:56 6.68 °C x 99.9 % 2.71 V ttn-pfaffenrot -76 dBm 05.01.2024 22:41
3179 temp-at-nowhere 2024-01-05 21:41:57 6.82 °C x 99.9 % 2.711 V ttn-pfaffenrot -76 dBm 05.01.2024 21:41
3180 temp-at-nowhere 2024-01-05 20:41:57 6.06 °C x 99.9 % 2.71 V ttn-pfaffenrot -85 dBm 05.01.2024 20:41
3181 temp-at-nowhere 2024-01-05 19:41:58 6.16 °C x 99.9 % 2.712 V ttn-pfaffenrot -78 dBm 05.01.2024 19:41
3182 temp-at-nowhere 2024-01-05 18:41:59 6.46 °C x 99.9 % 2.712 V ttn-pfaffenrot -76 dBm 05.01.2024 18:41
3183 temp-at-nowhere 2024-01-05 17:42:00 7.05 °C x 99.9 % 2.71 V ttn-pfaffenrot -77 dBm 05.01.2024 17:42
3184 temp-at-nowhere 2024-01-05 16:42:00 7.52 °C x 99.9 % 2.71 V ttn-pfaffenrot -85 dBm 05.01.2024 16:42
3185 temp-at-nowhere 2024-01-05 15:42:01 8.2 °C x 99.9 % 2.711 V ttn-pfaffenrot -78 dBm 05.01.2024 15:42
3186 temp-at-nowhere 2024-01-05 14:42:02 8.56 °C x 99.9 % 2.71 V ttn-pfaffenrot -95 dBm 05.01.2024 14:42
3187 temp-at-nowhere 2024-01-05 13:42:03 8.22 °C x 99.9 % 2.71 V ttn-pfaffenrot -79 dBm 05.01.2024 13:42
3188 temp-at-nowhere 2024-01-05 12:42:04 7.88 °C x 99.9 % 2.71 V ttn-pfaffenrot -85 dBm 05.01.2024 12:42
3189 temp-at-nowhere 2024-01-05 11:42:04 7.2 °C x 99.9 % 2.711 V ttn-pfaffenrot -81 dBm 05.01.2024 11:42
3190 temp-at-nowhere 2024-01-05 10:42:05 7.33 °C x 99.9 % 2.709 V ttn-pfaffenrot -95 dBm 05.01.2024 10:42
3191 temp-at-nowhere 2024-01-05 09:42:06 6.74 °C x 99.9 % 2.71 V ttn-pfaffenrot -76 dBm 05.01.2024 09:42
3192 temp-at-nowhere 2024-01-05 08:42:07 6.41 °C x 99.9 % 2.71 V ttn-pfaffenrot -95 dBm 05.01.2024 08:42
3193 temp-at-nowhere 2024-01-05 07:42:07 6.28 °C x 99.9 % 2.711 V ttn-pfaffenrot -78 dBm 05.01.2024 07:42
3194 temp-at-nowhere 2024-01-05 06:42:08 6.94 °C x 99.9 % 2.711 V ttn-pfaffenrot -95 dBm 05.01.2024 06:42
3195 temp-at-nowhere 2024-01-05 05:42:09 6.06 °C x 99.9 % 2.711 V ttn-pfaffenrot -76 dBm 05.01.2024 05:42
3196 temp-at-nowhere 2024-01-05 04:42:10 6.22 °C x 99.9 % 2.71 V ttn-pfaffenrot -83 dBm 05.01.2024 04:42
3197 temp-at-nowhere 2024-01-05 03:42:10 6.67 °C x 99.9 % 2.711 V ttn-pfaffenrot -77 dBm 05.01.2024 03:42
3198 temp-at-nowhere 2024-01-05 02:42:11 6.92 °C x 99.9 % 2.71 V ttn-pfaffenrot -95 dBm 05.01.2024 02:42
3199 temp-at-nowhere 2024-01-05 01:42:12 7.03 °C x 99.9 % 2.711 V ttn-pfaffenrot -77 dBm 05.01.2024 01:42
3200 temp-at-nowhere 2024-01-05 00:42:13 7.05 °C x 99.9 % 2.71 V ttn-pfaffenrot -91 dBm 05.01.2024 00:42
3201 temp-at-nowhere 2024-01-04 23:42:13 6.89 °C x 99.9 % 2.711 V ttn-pfaffenrot -77 dBm 04.01.2024 23:42
3202 temp-at-nowhere 2024-01-04 22:42:14 7.06 °C x 99.9 % 2.711 V ttn-pfaffenrot -75 dBm 04.01.2024 22:42
3203 temp-at-nowhere 2024-01-04 21:42:15 6.29 °C x 99.9 % 2.71 V ttn-pfaffenrot -78 dBm 04.01.2024 21:42
3204 temp-at-nowhere 2024-01-04 20:42:16 6.22 °C x 99.9 % 2.709 V ttn-pfaffenrot -75 dBm 04.01.2024 20:42
3205 temp-at-nowhere 2024-01-04 19:42:16 6.44 °C x 99.9 % 2.711 V ttn-pfaffenrot -73 dBm 04.01.2024 19:42
3206 temp-at-nowhere 2024-01-04 18:42:17 6.38 °C x 99.9 % 2.711 V ttn-pfaffenrot -79 dBm 04.01.2024 18:42
3207 temp-at-nowhere 2024-01-04 17:42:18 6.28 °C x 99.9 % 2.71 V ttn-pfaffenrot -74 dBm 04.01.2024 17:42
3208 temp-at-nowhere 2024-01-04 16:42:19 6.25 °C x 99.9 % 2.71 V ttn-pfaffenrot -79 dBm 04.01.2024 16:42
3209 temp-at-nowhere 2024-01-04 15:42:19 6.28 °C x 99.9 % 2.71 V ttn-pfaffenrot -69 dBm 04.01.2024 15:42
3210 temp-at-nowhere 2024-01-04 14:42:20 6.86 °C x 99.9 % 2.712 V ttn-pfaffenrot -78 dBm 04.01.2024 14:42
3211 temp-at-nowhere 2024-01-04 13:42:21 7.62 °C x 99.9 % 2.711 V ttn-pfaffenrot -77 dBm 04.01.2024 13:42
3212 temp-at-nowhere 2024-01-04 12:42:22 8.17 °C x 99.9 % 2.712 V ttn-pfaffenrot -76 dBm 04.01.2024 12:42
3213 temp-at-nowhere 2024-01-04 11:42:22 7.27 °C x 99.9 % 2.712 V ttn-pfaffenrot -77 dBm 04.01.2024 11:42
3214 temp-at-nowhere 2024-01-04 10:42:23 7.25 °C x 99.9 % 2.711 V ttn-pfaffenrot -78 dBm 04.01.2024 10:42
3215 temp-at-nowhere 2024-01-04 09:42:24 7.06 °C x 99.9 % 2.713 V ttn-pfaffenrot -77 dBm 04.01.2024 09:42
3216 temp-at-nowhere 2024-01-04 08:42:25 6.65 °C x 99.9 % 2.712 V ttn-pfaffenrot -81 dBm 04.01.2024 08:42
3217 temp-at-nowhere 2024-01-04 07:42:25 6.8 °C x 99.9 % 2.71 V ttn-pfaffenrot -69 dBm 04.01.2024 07:42
3218 temp-at-nowhere 2024-01-04 06:42:26 7.55 °C x 99.9 % 2.71 V ttn-pfaffenrot -95 dBm 04.01.2024 06:42
3219 temp-at-nowhere 2024-01-04 05:42:27 7.25 °C x 99.9 % 2.711 V ttn-pfaffenrot -79 dBm 04.01.2024 05:42
3220 temp-at-nowhere 2024-01-04 04:42:28 6.96 °C x 99.9 % 2.71 V ttn-pfaffenrot -82 dBm 04.01.2024 04:42
3221 temp-at-nowhere 2024-01-04 03:42:28 6.69 °C x 99.9 % 2.71 V ttn-pfaffenrot -77 dBm 04.01.2024 03:42
3222 temp-at-nowhere 2024-01-04 02:42:29 7.02 °C x 99.9 % 2.71 V ttn-pfaffenrot -89 dBm 04.01.2024 02:42
3223 temp-at-nowhere 2024-01-04 01:42:30 7.08 °C x 99.9 % 2.711 V ttn-pfaffenrot -76 dBm 04.01.2024 01:42
3224 temp-at-nowhere 2024-01-04 00:42:31 7.21 °C x 99.9 % 2.712 V ttn-pfaffenrot -84 dBm 04.01.2024 00:42
3225 temp-at-nowhere 2024-01-03 23:42:31 7.69 °C x 99.9 % 2.712 V ttn-pfaffenrot -79 dBm 03.01.2024 23:42
3226 temp-at-nowhere 2024-01-03 22:42:32 7.68 °C x 99.9 % 2.711 V ttn-pfaffenrot -85 dBm 03.01.2024 22:42
3227 temp-at-nowhere 2024-01-03 21:42:33 7.62 °C x 99.9 % 2.711 V ttn-pfaffenrot -79 dBm 03.01.2024 21:42
3228 temp-at-nowhere 2024-01-03 20:42:34 7.15 °C x 99.9 % 2.711 V ttn-pfaffenrot -84 dBm 03.01.2024 20:42
3229 temp-at-nowhere 2024-01-03 19:42:34 6.94 °C x 99.9 % 2.712 V ttn-pfaffenrot -75 dBm 03.01.2024 19:42
3230 temp-at-nowhere 2024-01-03 18:42:35 7.61 °C x 99.9 % 2.712 V ttn-pfaffenrot -91 dBm 03.01.2024 18:42
3231 temp-at-nowhere 2024-01-03 17:42:36 8.17 °C x 99.9 % 2.713 V ttn-pfaffenrot -76 dBm 03.01.2024 17:42
3232 temp-at-nowhere 2024-01-03 16:42:37 8.35 °C x 99.9 % 2.712 V ttn-pfaffenrot -83 dBm 03.01.2024 16:42
3233 temp-at-nowhere 2024-01-03 15:42:37 8.26 °C x 99.9 % 2.711 V ttn-pfaffenrot -75 dBm 03.01.2024 15:42
3234 temp-at-nowhere 2024-01-03 14:42:38 8.91 °C x 99.9 % 2.71 V ttn-pfaffenrot -75 dBm 03.01.2024 14:42
3235 temp-at-nowhere 2024-01-03 13:42:39 8.63 °C x 99.9 % 2.713 V ttn-pfaffenrot -77 dBm 03.01.2024 13:42
3236 temp-at-nowhere 2024-01-03 12:42:40 8.94 °C x 99.9 % 2.711 V ttn-pfaffenrot -76 dBm 03.01.2024 12:42
3237 temp-at-nowhere 2024-01-03 11:42:40 8.74 °C x 99.9 % 2.71 V ttn-pfaffenrot -74 dBm 03.01.2024 11:42
3238 temp-at-nowhere 2024-01-03 10:42:41 9.87 °C x 99.9 % 2.712 V ttn-pfaffenrot -85 dBm 03.01.2024 10:42
3239 temp-at-nowhere 2024-01-03 09:42:42 9.44 °C x 99.9 % 2.712 V ttn-pfaffenrot -78 dBm 03.01.2024 09:42
3240 temp-at-nowhere 2024-01-03 08:42:43 9.29 °C x 99.9 % 2.712 V ttn-pfaffenrot -76 dBm 03.01.2024 08:42
3241 temp-at-nowhere 2024-01-03 07:42:44 8.86 °C x 99.9 % 2.71 V ttn-pfaffenrot -74 dBm 03.01.2024 07:42
3242 temp-at-nowhere 2024-01-03 06:42:44 9.54 °C x 99.9 % 2.711 V ttn-pfaffenrot -85 dBm 03.01.2024 06:42
3243 temp-at-nowhere 2024-01-03 05:42:45 9.22 °C x 99.9 % 2.711 V ttn-pfaffenrot -77 dBm 03.01.2024 05:42
3244 temp-at-nowhere 2024-01-03 04:42:46 9.21 °C x 99.9 % 2.711 V ttn-pfaffenrot -85 dBm 03.01.2024 04:42
3245 temp-at-nowhere 2024-01-03 03:42:47 9.43 °C x 99.9 % 2.711 V ttn-pfaffenrot -76 dBm 03.01.2024 03:42
3246 temp-at-nowhere 2024-01-03 02:42:47 9.17 °C x 99.9 % 2.711 V ttn-pfaffenrot -78 dBm 03.01.2024 02:42
3247 temp-at-nowhere 2024-01-03 01:42:48 8.82 °C x 99.9 % 2.712 V ttn-pfaffenrot -75 dBm 03.01.2024 01:42
3248 temp-at-nowhere 2024-01-03 00:42:49 8.84 °C x 99.9 % 2.711 V ttn-pfaffenrot -76 dBm 03.01.2024 00:42
3249 temp-at-nowhere 2024-01-02 23:42:50 9.02 °C x 99.9 % 2.712 V ttn-pfaffenrot -79 dBm 02.01.2024 23:42
3250 temp-at-nowhere 2024-01-02 22:42:50 9.34 °C x 99.9 % 2.712 V ttn-pfaffenrot -89 dBm 02.01.2024 22:42
3251 temp-at-nowhere 2024-01-02 21:42:51 8.42 °C x 99.9 % 2.711 V ttn-pfaffenrot -75 dBm 02.01.2024 21:42
3252 temp-at-nowhere 2024-01-02 20:42:52 8.62 °C x 99.9 % 2.713 V ttn-pfaffenrot -84 dBm 02.01.2024 20:42
3253 temp-at-nowhere 2024-01-02 19:42:53 8.43 °C x 99.9 % 2.712 V ttn-pfaffenrot -77 dBm 02.01.2024 19:42
3254 temp-at-nowhere 2024-01-02 18:42:54 8.15 °C x 99.9 % 2.711 V ttn-pfaffenrot -91 dBm 02.01.2024 18:42
3255 temp-at-nowhere 2024-01-02 17:42:54 7.85 °C x 99.9 % 2.711 V ttn-pfaffenrot -79 dBm 02.01.2024 17:42
3256 temp-at-nowhere 2024-01-02 16:42:55 7.72 °C x 99.9 % 2.711 V ttn-pfaffenrot -84 dBm 02.01.2024 16:42
3257 temp-at-nowhere 2024-01-02 15:42:56 7.62 °C x 99.9 % 2.711 V ttn-pfaffenrot -73 dBm 02.01.2024 15:42
3258 temp-at-nowhere 2024-01-02 14:42:57 7.71 °C x 99.9 % 2.71 V ttn-pfaffenrot -91 dBm 02.01.2024 14:42
3259 temp-at-nowhere 2024-01-02 13:42:58 7.87 °C x 99.9 % 2.712 V ttn-pfaffenrot -79 dBm 02.01.2024 13:42
3260 temp-at-nowhere 2024-01-02 12:42:58 8 °C x 99.9 % 2.71 V ttn-pfaffenrot -82 dBm 02.01.2024 12:42
3261 temp-at-nowhere 2024-01-02 11:42:59 7.35 °C x 99.9 % 2.71 V ttn-pfaffenrot -74 dBm 02.01.2024 11:42
3262 temp-at-nowhere 2024-01-02 10:43:00 7.08 °C x 99.9 % 2.71 V ttn-pfaffenrot -85 dBm 02.01.2024 10:43
3263 temp-at-nowhere 2024-01-02 09:43:01 6.65 °C x 99.9 % 2.71 V ttn-pfaffenrot -76 dBm 02.01.2024 09:43
3264 temp-at-nowhere 2024-01-02 08:43:01 6.41 °C x 99.9 % 2.711 V ttn-pfaffenrot -85 dBm 02.01.2024 08:43
3265 temp-at-nowhere 2024-01-02 07:43:02 6.43 °C x 99.9 % 2.711 V ttn-pfaffenrot -77 dBm 02.01.2024 07:43
3266 temp-at-nowhere 2024-01-02 06:43:03 7.31 °C x 99.9 % 2.709 V ttn-pfaffenrot -81 dBm 02.01.2024 06:43
3267 temp-at-nowhere 2024-01-02 05:43:04 6.93 °C x 99.9 % 2.711 V ttn-pfaffenrot -72 dBm 02.01.2024 05:43
3268 temp-at-nowhere 2024-01-02 04:43:05 7.49 °C x 99.9 % 2.712 V ttn-pfaffenrot -85 dBm 02.01.2024 04:43
3269 temp-at-nowhere 2024-01-02 03:43:05 8.02 °C x 99.9 % 2.71 V ttn-pfaffenrot -78 dBm 02.01.2024 03:43
3270 temp-at-nowhere 2024-01-02 02:43:06 7.76 °C x 99.9 % 2.712 V ttn-pfaffenrot -75 dBm 02.01.2024 02:43
3271 temp-at-nowhere 2024-01-02 01:43:07 7.8 °C x 99.9 % 2.71 V ttn-pfaffenrot -78 dBm 02.01.2024 01:43
3272 temp-at-nowhere 2024-01-02 00:43:08 7.55 °C x 99.9 % 2.71 V ttn-pfaffenrot -78 dBm 02.01.2024 00:43
3273 temp-at-nowhere 2024-01-01 23:43:08 7.37 °C x 99.9 % 2.709 V ttn-pfaffenrot -76 dBm 01.01.2024 23:43
3274 temp-at-nowhere 2024-01-01 22:43:09 7.03 °C x 99.9 % 2.711 V ttn-pfaffenrot -81 dBm 01.01.2024 22:43
3275 temp-at-nowhere 2024-01-01 21:43:10 6.78 °C x 99.9 % 2.71 V ttn-pfaffenrot -77 dBm 01.01.2024 21:43
3276 temp-at-nowhere 2024-01-01 20:43:11 5.87 °C x 99.9 % 2.71 V ttn-pfaffenrot -77 dBm 01.01.2024 20:43
3277 temp-at-nowhere 2024-01-01 19:43:11 5.81 °C x 99.9 % 2.71 V ttn-pfaffenrot -74 dBm 01.01.2024 19:43
3278 temp-at-nowhere 2024-01-01 18:43:12 6 °C x 99.9 % 2.712 V ttn-pfaffenrot -79 dBm 01.01.2024 18:43
3279 temp-at-nowhere 2024-01-01 17:43:13 6.24 °C x 99.9 % 2.711 V ttn-pfaffenrot -74 dBm 01.01.2024 17:43
3280 temp-at-nowhere 2024-01-01 16:43:14 6.47 °C x 99.9 % 2.71 V ttn-pfaffenrot -75 dBm 01.01.2024 16:43
3281 temp-at-nowhere 2024-01-01 15:43:14 6.81 °C x 99.9 % 2.712 V ttn-pfaffenrot -78 dBm 01.01.2024 15:43
3282 temp-at-nowhere 2024-01-01 14:43:15 6.91 °C x 99.9 % 2.712 V ttn-pfaffenrot -83 dBm 01.01.2024 14:43
3283 temp-at-nowhere 2024-01-01 13:43:16 7.26 °C x 99.9 % 2.711 V ttn-pfaffenrot -77 dBm 01.01.2024 13:43
3284 temp-at-nowhere 2024-01-01 12:43:17 7.72 °C x 99.9 % 2.709 V ttn-pfaffenrot -95 dBm 01.01.2024 12:43
3285 temp-at-nowhere 2024-01-01 11:43:18 7.92 °C x 99.9 % 2.711 V ttn-pfaffenrot -78 dBm 01.01.2024 11:43
3286 temp-at-nowhere 2024-01-01 10:43:18 7.04 °C x 99.9 % 2.711 V ttn-pfaffenrot -91 dBm 01.01.2024 10:43
3287 temp-at-nowhere 2024-01-01 09:43:19 6.26 °C x 99.9 % 2.71 V ttn-pfaffenrot -78 dBm 01.01.2024 09:43
3288 temp-at-nowhere 2024-01-01 08:43:20 5.56 °C x 99.9 % 2.71 V ttn-pfaffenrot -101 dBm 01.01.2024 08:43
3289 temp-at-nowhere 2024-01-01 07:43:21 5.99 °C x 99.9 % 2.712 V ttn-pfaffenrot -79 dBm 01.01.2024 07:43
3290 temp-at-nowhere 2024-01-01 06:43:21 6.96 °C x 99.9 % 2.71 V ttn-pfaffenrot -87 dBm 01.01.2024 06:43
3291 temp-at-nowhere 2024-01-01 05:43:22 6.71 °C x 99.9 % 2.711 V ttn-pfaffenrot -77 dBm 01.01.2024 05:43
3292 temp-at-nowhere 2024-01-01 04:43:23 6.45 °C x 99.9 % 2.711 V ttn-pfaffenrot -95 dBm 01.01.2024 04:43
3293 temp-at-nowhere 2024-01-01 03:43:24 6.44 °C x 99.9 % 2.709 V ttn-pfaffenrot -79 dBm 01.01.2024 03:43
3294 temp-at-nowhere 2024-01-01 02:43:24 6.98 °C x 99.9 % 2.71 V ttn-pfaffenrot -89 dBm 01.01.2024 02:43
3295 temp-at-nowhere 2024-01-01 01:43:25 7.26 °C x 99.9 % 2.71 V ttn-pfaffenrot -76 dBm 01.01.2024 01:43
3296 temp-at-nowhere 2024-01-01 00:43:26 7.88 °C x 99.9 % 2.711 V ttn-pfaffenrot -84 dBm 01.01.2024 00:43
3297 temp-at-nowhere 2023-12-31 23:43:27 6.93 °C x 99.9 % 2.71 V ttn-pfaffenrot -79 dBm 31.12.2023 23:43
3298 temp-at-nowhere 2023-12-31 22:43:27 6.31 °C x 99.9 % 2.71 V ttn-pfaffenrot -79 dBm 31.12.2023 22:43
3299 temp-at-nowhere 2023-12-31 21:43:28 6.47 °C x 99.9 % 2.712 V ttn-pfaffenrot -75 dBm 31.12.2023 21:43
3300 temp-at-nowhere 2023-12-31 20:43:29 5.84 °C x 99.9 % 2.71 V ttn-pfaffenrot -78 dBm 31.12.2023 20:43
3301 temp-at-nowhere 2023-12-31 19:43:29 6 °C x 99.9 % 2.711 V ttn-pfaffenrot -75 dBm 31.12.2023 19:43
3302 temp-at-nowhere 2023-12-31 18:43:30 5.95 °C x 99.9 % 2.711 V ttn-pfaffenrot -76 dBm 31.12.2023 18:43
3303 temp-at-nowhere 2023-12-31 17:43:31 5.91 °C x 99.9 % 2.71 V ttn-pfaffenrot -77 dBm 31.12.2023 17:43
3304 temp-at-nowhere 2023-12-31 16:43:32 5.9 °C x 99.9 % 2.71 V ttn-pfaffenrot -74 dBm 31.12.2023 16:43
3305 temp-at-nowhere 2023-12-31 15:43:32 5.96 °C x 99.9 % 2.71 V ttn-pfaffenrot -75 dBm 31.12.2023 15:43
3306 temp-at-nowhere 2023-12-31 14:43:33 6.15 °C x 99.9 % 2.71 V ttn-pfaffenrot -78 dBm 31.12.2023 14:43
3307 temp-at-nowhere 2023-12-31 13:43:34 6.76 °C x 99.9 % 2.711 V ttn-pfaffenrot -73 dBm 31.12.2023 13:43
3308 temp-at-nowhere 2023-12-31 12:43:35 8.35 °C x 99.9 % 2.711 V ttn-pfaffenrot -85 dBm 31.12.2023 12:43
3309 temp-at-nowhere 2023-12-31 11:43:35 11.64 °C x 99.9 % 2.711 V ttn-pfaffenrot -75 dBm 31.12.2023 11:43
3310 temp-at-nowhere 2023-12-31 10:43:36 10.24 °C x 99.9 % 2.711 V ttn-pfaffenrot -83 dBm 31.12.2023 10:43
3311 temp-at-nowhere 2023-12-31 09:43:37 8.85 °C x 99.9 % 2.712 V ttn-pfaffenrot -77 dBm 31.12.2023 09:43
3312 temp-at-nowhere 2023-12-31 08:43:38 7.41 °C x 99.9 % 2.711 V ttn-pfaffenrot -81 dBm 31.12.2023 08:43
3313 temp-at-nowhere 2023-12-31 07:43:38 7.25 °C x 99.9 % 2.71 V ttn-pfaffenrot -76 dBm 31.12.2023 07:43
3314 temp-at-nowhere 2023-12-31 06:43:39 8.46 °C x 99.9 % 2.709 V ttn-pfaffenrot -101 dBm 31.12.2023 06:43
3315 temp-at-nowhere 2023-12-31 05:43:40 7.84 °C x 99.9 % 2.711 V ttn-pfaffenrot -76 dBm 31.12.2023 05:43
3316 temp-at-nowhere 2023-12-31 04:43:41 7.36 °C x 99.9 % 2.71 V ttn-pfaffenrot -95 dBm 31.12.2023 04:43
3317 temp-at-nowhere 2023-12-31 03:43:42 6.63 °C x 99.9 % 2.71 V ttn-pfaffenrot -79 dBm 31.12.2023 03:43
3318 temp-at-nowhere 2023-12-31 02:43:42 6.63 °C x 99.9 % 2.709 V ttn-pfaffenrot -84 dBm 31.12.2023 02:43
3319 temp-at-nowhere 2023-12-31 01:43:43 6.85 °C x 99.9 % 2.711 V ttn-pfaffenrot -79 dBm 31.12.2023 01:43
3320 temp-at-nowhere 2023-12-31 00:43:44 6.91 °C x 99.9 % 2.711 V ttn-pfaffenrot -95 dBm 31.12.2023 00:43
3321 temp-at-nowhere 2023-12-30 23:43:45 7.31 °C x 99.9 % 2.711 V ttn-pfaffenrot -76 dBm 30.12.2023 23:43
3322 temp-at-nowhere 2023-12-30 22:43:46 7.45 °C x 99.9 % 2.71 V ttn-pfaffenrot -84 dBm 30.12.2023 22:43
3323 temp-at-nowhere 2023-12-30 21:43:46 7.59 °C x 99.9 % 2.711 V ttn-pfaffenrot -79 dBm 30.12.2023 21:43
3324 temp-at-nowhere 2023-12-30 20:43:47 6.81 °C x 99.9 % 2.711 V ttn-pfaffenrot -89 dBm 30.12.2023 20:43
3325 temp-at-nowhere 2023-12-30 19:43:48 7.33 °C x 99.9 % 2.71 V ttn-pfaffenrot -78 dBm 30.12.2023 19:43
3326 temp-at-nowhere 2023-12-30 18:43:49 7.65 °C x 99.9 % 2.711 V ttn-pfaffenrot -87 dBm 30.12.2023 18:43
3327 temp-at-nowhere 2023-12-30 17:43:49 8.15 °C x 99.9 % 2.711 V ttn-pfaffenrot -76 dBm 30.12.2023 17:43
3328 temp-at-nowhere 2023-12-30 16:43:50 8.56 °C x 99.9 % 2.71 V ttn-pfaffenrot -87 dBm 30.12.2023 16:43
3329 temp-at-nowhere 2023-12-30 15:43:51 8.97 °C x 99.9 % 2.71 V ttn-pfaffenrot -79 dBm 30.12.2023 15:43
3330 temp-at-nowhere 2023-12-30 14:43:52 9.45 °C x 99.9 % 2.71 V ttn-pfaffenrot -74 dBm 30.12.2023 14:43
3331 temp-at-nowhere 2023-12-30 13:43:53 9.84 °C x 99.9 % 2.711 V ttn-pfaffenrot -76 dBm 30.12.2023 13:43
3332 temp-at-nowhere 2023-12-30 12:43:53 10.05 °C x 99.9 % 2.711 V ttn-pfaffenrot -74 dBm 30.12.2023 12:43
3333 temp-at-nowhere 2023-12-30 11:43:54 9.83 °C x 99.9 % 2.71 V ttn-pfaffenrot -74 dBm 30.12.2023 11:43
3334 temp-at-nowhere 2023-12-30 10:43:55 8.74 °C x 99.9 % 2.712 V ttn-pfaffenrot -74 dBm 30.12.2023 10:43
3335 temp-at-nowhere 2023-12-30 09:43:56 7.81 °C x 99.9 % 2.711 V ttn-pfaffenrot -76 dBm 30.12.2023 09:43
3336 temp-at-nowhere 2023-12-30 08:43:56 7.25 °C x 99.9 % 2.709 V ttn-pfaffenrot -74 dBm 30.12.2023 08:43
3337 temp-at-nowhere 2023-12-30 07:43:57 7.62 °C x 99.9 % 2.711 V ttn-pfaffenrot -73 dBm 30.12.2023 07:43
3338 temp-at-nowhere 2023-12-30 06:43:58 8.79 °C x 99.9 % 2.709 V ttn-pfaffenrot -76 dBm 30.12.2023 06:43
3339 temp-at-nowhere 2023-12-30 05:43:59 8.29 °C x 99.9 % 2.71 V ttn-pfaffenrot -76 dBm 30.12.2023 05:43
3340 temp-at-nowhere 2023-12-30 04:44:00 8.37 °C x 99.9 % 2.709 V ttn-pfaffenrot -75 dBm 30.12.2023 04:44
3341 temp-at-nowhere 2023-12-30 03:44:00 8.74 °C x 99.9 % 2.711 V ttn-pfaffenrot -74 dBm 30.12.2023 03:44
3342 temp-at-nowhere 2023-12-30 02:44:01 9.29 °C x 99.9 % 2.709 V ttn-pfaffenrot -74 dBm 30.12.2023 02:44
3343 temp-at-nowhere 2023-12-30 01:44:02 9.76 °C x 99.9 % 2.708 V ttn-pfaffenrot -77 dBm 30.12.2023 01:44
3344 temp-at-nowhere 2023-12-30 00:44:03 9.29 °C x 99.9 % 2.709 V ttn-pfaffenrot -75 dBm 30.12.2023 00:44
3345 temp-at-nowhere 2023-12-29 23:44:04 9.53 °C x 99.9 % 2.71 V ttn-pfaffenrot -74 dBm 29.12.2023 23:44
3346 temp-at-nowhere 2023-12-29 22:44:04 9.61 °C x 99.9 % 2.71 V ttn-pfaffenrot -76 dBm 29.12.2023 22:44
3347 temp-at-nowhere 2023-12-29 21:44:05 9.64 °C x 99.9 % 2.709 V ttn-pfaffenrot -79 dBm 29.12.2023 21:44
3348 temp-at-nowhere 2023-12-29 20:44:06 8.72 °C x 99.9 % 2.71 V ttn-pfaffenrot -75 dBm 29.12.2023 20:44
3349 temp-at-nowhere 2023-12-29 19:44:07 8.63 °C x 99.9 % 2.709 V ttn-pfaffenrot -76 dBm 29.12.2023 19:44
3350 temp-at-nowhere 2023-12-29 18:44:07 8.59 °C x 99.9 % 2.709 V ttn-pfaffenrot -76 dBm 29.12.2023 18:44
3351 temp-at-nowhere 2023-12-29 17:44:08 9.01 °C x 99.9 % 2.71 V ttn-pfaffenrot -76 dBm 29.12.2023 17:44
3352 temp-at-nowhere 2023-12-29 16:44:09 9.56 °C x 99.9 % 2.709 V ttn-pfaffenrot -75 dBm 29.12.2023 16:44
3353 temp-at-nowhere 2023-12-29 15:44:09 9.96 °C x 99.9 % 2.71 V ttn-pfaffenrot -78 dBm 29.12.2023 15:44
3354 temp-at-nowhere 2023-12-29 14:44:10 10.52 °C x 99.9 % 2.709 V ttn-pfaffenrot -75 dBm 29.12.2023 14:44
3355 temp-at-nowhere 2023-12-29 13:44:11 11.36 °C x 99.9 % 2.71 V ttn-pfaffenrot -76 dBm 29.12.2023 13:44
3356 temp-at-nowhere 2023-12-29 12:44:12 12.16 °C x 99.9 % 2.71 V ttn-pfaffenrot -75 dBm 29.12.2023 12:44
3357 temp-at-nowhere 2023-12-29 11:44:12 10.99 °C x 99.9 % 2.711 V ttn-pfaffenrot -76 dBm 29.12.2023 11:44
3358 temp-at-nowhere 2023-12-29 10:44:13 9.85 °C x 99.9 % 2.71 V ttn-pfaffenrot -77 dBm 29.12.2023 10:44
3359 temp-at-nowhere 2023-12-29 09:44:14 9.25 °C x 99.9 % 2.709 V ttn-pfaffenrot -78 dBm 29.12.2023 09:44
3360 temp-at-nowhere 2023-12-29 08:44:15 8.81 °C x 99.9 % 2.709 V ttn-pfaffenrot -74 dBm 29.12.2023 08:44
3361 temp-at-nowhere 2023-12-29 07:44:16 8.89 °C x 99.9 % 2.708 V ttn-pfaffenrot -76 dBm 29.12.2023 07:44
3362 temp-at-nowhere 2023-12-29 06:44:16 9.95 °C x 99.9 % 2.708 V ttn-pfaffenrot -75 dBm 29.12.2023 06:44
3363 temp-at-nowhere 2023-12-29 05:44:17 9.79 °C x 99.9 % 2.71 V ttn-pfaffenrot -75 dBm 29.12.2023 05:44
3364 temp-at-nowhere 2023-12-29 04:44:18 10.18 °C x 99.9 % 2.708 V ttn-pfaffenrot -74 dBm 29.12.2023 04:44
3365 temp-at-nowhere 2023-12-29 03:44:19 10.26 °C x 99.9 % 2.708 V ttn-pfaffenrot -75 dBm 29.12.2023 03:44
3366 temp-at-nowhere 2023-12-29 02:44:19 10.45 °C x 99.9 % 2.709 V ttn-pfaffenrot -75 dBm 29.12.2023 02:44
3367 temp-at-nowhere 2023-12-29 01:44:20 10.49 °C x 99.9 % 2.71 V ttn-pfaffenrot -76 dBm 29.12.2023 01:44
3368 temp-at-nowhere 2023-12-29 00:44:21 10.13 °C x 99.9 % 2.709 V ttn-pfaffenrot -73 dBm 29.12.2023 00:44
3369 temp-at-nowhere 2023-12-28 23:44:22 9.93 °C x 99.9 % 2.709 V ttn-pfaffenrot -75 dBm 28.12.2023 23:44
3370 temp-at-nowhere 2023-12-28 22:44:22 9.23 °C x 99.9 % 2.71 V ttn-pfaffenrot -72 dBm 28.12.2023 22:44
3371 temp-at-nowhere 2023-12-28 21:44:23 8.75 °C x 99.9 % 2.709 V ttn-pfaffenrot -73 dBm 28.12.2023 21:44
3372 temp-at-nowhere 2023-12-28 20:44:24 7.89 °C x 99.9 % 2.708 V ttn-pfaffenrot -75 dBm 28.12.2023 20:44
3373 temp-at-nowhere 2023-12-28 19:44:25 7.85 °C x 99.9 % 2.709 V ttn-pfaffenrot -73 dBm 28.12.2023 19:44
3374 temp-at-nowhere 2023-12-28 18:44:26 7.82 °C x 99.9 % 2.709 V ttn-pfaffenrot -74 dBm 28.12.2023 18:44
3375 temp-at-nowhere 2023-12-28 17:44:26 7.76 °C x 99.9 % 2.709 V ttn-pfaffenrot -76 dBm 28.12.2023 17:44
3376 temp-at-nowhere 2023-12-28 16:44:27 7.73 °C x 99.9 % 2.707 V ttn-pfaffenrot -73 dBm 28.12.2023 16:44
3377 temp-at-nowhere 2023-12-28 15:44:28 7.7 °C x 99.9 % 2.707 V ttn-pfaffenrot -75 dBm 28.12.2023 15:44
3378 temp-at-nowhere 2023-12-28 14:44:28 7.96 °C x 99.9 % 2.708 V ttn-pfaffenrot -73 dBm 28.12.2023 14:44
3379 temp-at-nowhere 2023-12-28 13:44:29 8.14 °C x 99.9 % 2.709 V ttn-pfaffenrot -75 dBm 28.12.2023 13:44
3380 temp-at-nowhere 2023-12-28 12:44:30 8 °C x 99.9 % 2.707 V ttn-pfaffenrot -69 dBm 28.12.2023 12:44
3381 temp-at-nowhere 2023-12-28 11:44:31 7.83 °C x 99.9 % 2.709 V ttn-pfaffenrot -74 dBm 28.12.2023 11:44
3382 temp-at-nowhere 2023-12-28 10:44:31 7.9 °C x 99.9 % 2.707 V ttn-pfaffenrot -76 dBm 28.12.2023 10:44
3383 temp-at-nowhere 2023-12-28 09:44:32 8.1 °C x 99.9 % 2.706 V ttn-pfaffenrot -76 dBm 28.12.2023 09:44
3384 temp-at-nowhere 2023-12-28 08:44:33 8.96 °C x 99.9 % 2.708 V ttn-pfaffenrot -76 dBm 28.12.2023 08:44
3385 temp-at-nowhere 2023-12-28 07:44:34 9.38 °C x 99.9 % 2.708 V ttn-pfaffenrot -76 dBm 28.12.2023 07:44
3386 temp-at-nowhere 2023-12-28 06:44:34 10.28 °C x 99.9 % 2.709 V ttn-pfaffenrot -75 dBm 28.12.2023 06:44
3387 temp-at-nowhere 2023-12-28 05:44:35 11.39 °C x 99.9 % 2.708 V ttn-pfaffenrot -78 dBm 28.12.2023 05:44
3388 temp-at-nowhere 2023-12-28 04:44:36 11.23 °C x 99.9 % 2.708 V ttn-pfaffenrot -76 dBm 28.12.2023 04:44
3389 temp-at-nowhere 2023-12-28 03:44:37 10.73 °C x 99.9 % 2.707 V ttn-pfaffenrot -79 dBm 28.12.2023 03:44
3390 temp-at-nowhere 2023-12-28 02:44:37 9.7 °C x 99.9 % 2.707 V ttn-pfaffenrot -76 dBm 28.12.2023 02:44
3391 temp-at-nowhere 2023-12-28 01:44:38 8.91 °C x 99.9 % 2.707 V ttn-pfaffenrot -77 dBm 28.12.2023 01:44
3392 temp-at-nowhere 2023-12-28 00:44:39 7.59 °C x 99.9 % 2.708 V ttn-pfaffenrot -75 dBm 28.12.2023 00:44
3393 temp-at-nowhere 2023-12-27 23:44:40 8.12 °C x 99.9 % 2.707 V ttn-pfaffenrot -76 dBm 27.12.2023 23:44
3394 temp-at-nowhere 2023-12-27 22:44:40 8.24 °C x 99.9 % 2.707 V ttn-pfaffenrot -75 dBm 27.12.2023 22:44
3395 temp-at-nowhere 2023-12-27 21:44:41 6.51 °C x 99.9 % 2.706 V ttn-pfaffenrot -76 dBm 27.12.2023 21:44
3396 temp-at-nowhere 2023-12-27 20:44:42 4.49 °C x 99.9 % 2.707 V ttn-pfaffenrot -74 dBm 27.12.2023 20:44
3397 temp-at-nowhere 2023-12-27 19:44:43 5.07 °C x 99.9 % 2.707 V ttn-pfaffenrot -76 dBm 27.12.2023 19:44
3398 temp-at-nowhere 2023-12-27 18:44:43 5.78 °C x 99.9 % 2.707 V ttn-pfaffenrot -75 dBm 27.12.2023 18:44
3399 temp-at-nowhere 2023-12-27 17:44:44 6.98 °C x 99.9 % 2.708 V ttn-pfaffenrot -75 dBm 27.12.2023 17:44
3400 temp-at-nowhere 2023-12-27 16:44:45 8.16 °C x 99.9 % 2.707 V ttn-pfaffenrot -75 dBm 27.12.2023 16:44
3401 temp-at-nowhere 2023-12-27 15:44:46 8.79 °C x 99.9 % 2.707 V ttn-pfaffenrot -75 dBm 27.12.2023 15:44
3402 temp-at-nowhere 2023-12-27 14:44:47 9.6 °C x 99.9 % 2.709 V ttn-pfaffenrot -75 dBm 27.12.2023 14:44
3403 temp-at-nowhere 2023-12-27 13:44:47 10.46 °C x 99.9 % 2.708 V ttn-pfaffenrot -75 dBm 27.12.2023 13:44
3404 temp-at-nowhere 2023-12-27 12:44:48 9.64 °C x 99.9 % 2.707 V ttn-pfaffenrot -76 dBm 27.12.2023 12:44
3405 temp-at-nowhere 2023-12-27 11:44:49 7.15 °C x 99.9 % 2.706 V ttn-pfaffenrot -77 dBm 27.12.2023 11:44
3406 temp-at-nowhere 2023-12-27 10:44:50 6.24 °C x 99.9 % 2.707 V ttn-pfaffenrot -76 dBm 27.12.2023 10:44
3407 temp-at-nowhere 2023-12-27 09:44:50 6.14 °C x 99.9 % 2.707 V ttn-pfaffenrot -75 dBm 27.12.2023 09:44
3408 temp-at-nowhere 2023-12-27 08:44:51 5.95 °C x 99.9 % 2.705 V ttn-pfaffenrot -74 dBm 27.12.2023 08:44
3409 temp-at-nowhere 2023-12-27 07:44:52 6.56 °C x 99.9 % 2.707 V ttn-pfaffenrot -74 dBm 27.12.2023 07:44
3410 temp-at-nowhere 2023-12-27 06:44:53 8.27 °C x 99.9 % 2.706 V ttn-pfaffenrot -75 dBm 27.12.2023 06:44
3411 temp-at-nowhere 2023-12-27 05:44:54 8.45 °C x 99.9 % 2.705 V ttn-pfaffenrot -78 dBm 27.12.2023 05:44
3412 temp-at-nowhere 2023-12-27 04:44:54 8.77 °C x 99.9 % 2.707 V ttn-pfaffenrot -75 dBm 27.12.2023 04:44
3413 temp-at-nowhere 2023-12-27 03:44:55 8.77 °C x 99.9 % 2.706 V ttn-pfaffenrot -79 dBm 27.12.2023 03:44
3414 temp-at-nowhere 2023-12-27 02:44:56 9.31 °C x 99.9 % 2.707 V ttn-pfaffenrot -73 dBm 27.12.2023 02:44
3415 temp-at-nowhere 2023-12-27 01:44:57 8.56 °C x 99.9 % 2.705 V ttn-pfaffenrot -74 dBm 27.12.2023 01:44
3416 temp-at-nowhere 2023-12-27 00:44:58 8.56 °C x 99.9 % 2.705 V ttn-pfaffenrot -74 dBm 27.12.2023 00:44
3417 temp-at-nowhere 2023-12-26 23:44:58 8.5 °C x 99.9 % 2.706 V ttn-pfaffenrot -74 dBm 26.12.2023 23:44
3418 temp-at-nowhere 2023-12-26 22:44:59 8.32 °C x 99.9 % 2.707 V ttn-pfaffenrot -73 dBm 26.12.2023 22:44
3419 temp-at-nowhere 2023-12-26 21:45:00 8.36 °C x 99.9 % 2.706 V ttn-pfaffenrot -76 dBm 26.12.2023 21:45
3420 temp-at-nowhere 2023-12-26 20:45:01 7.08 °C x 99.9 % 2.707 V ttn-pfaffenrot -75 dBm 26.12.2023 20:45
3421 temp-at-nowhere 2023-12-26 19:45:01 7.22 °C x 99.9 % 2.705 V ttn-pfaffenrot -78 dBm 26.12.2023 19:45
3422 temp-at-nowhere 2023-12-26 18:45:02 7.06 °C x 99.9 % 2.706 V ttn-pfaffenrot -73 dBm 26.12.2023 18:45
3423 temp-at-nowhere 2023-12-26 17:45:03 7.07 °C x 99.9 % 2.706 V ttn-pfaffenrot -77 dBm 26.12.2023 17:45
3424 temp-at-nowhere 2023-12-26 16:45:04 7.11 °C x 99.9 % 2.707 V ttn-pfaffenrot -73 dBm 26.12.2023 16:45
3425 temp-at-nowhere 2023-12-26 15:45:05 7.2 °C x 99.9 % 2.706 V ttn-pfaffenrot -76 dBm 26.12.2023 15:45
3426 temp-at-nowhere 2023-12-26 14:45:06 7.62 °C x 99.9 % 2.706 V ttn-pfaffenrot -74 dBm 26.12.2023 14:45
3427 temp-at-nowhere 2023-12-26 13:45:06 7.65 °C x 99.9 % 2.705 V ttn-pfaffenrot -76 dBm 26.12.2023 13:45
3428 temp-at-nowhere 2023-12-26 12:45:07 7.84 °C x 99.9 % 2.706 V ttn-pfaffenrot -76 dBm 26.12.2023 12:45
3429 temp-at-nowhere 2023-12-26 11:45:08 7.65 °C x 99.9 % 2.705 V ttn-pfaffenrot -76 dBm 26.12.2023 11:45
3430 temp-at-nowhere 2023-12-26 10:45:08 7.69 °C x 99.9 % 2.706 V ttn-pfaffenrot -78 dBm 26.12.2023 10:45
3431 temp-at-nowhere 2023-12-26 09:45:09 7.67 °C x 99.9 % 2.704 V ttn-pfaffenrot -77 dBm 26.12.2023 09:45
3432 temp-at-nowhere 2023-12-26 08:45:10 7.73 °C x 99.9 % 2.706 V ttn-pfaffenrot -76 dBm 26.12.2023 08:45
3433 temp-at-nowhere 2023-12-26 07:45:11 7.94 °C x 99.9 % 2.706 V ttn-pfaffenrot -76 dBm 26.12.2023 07:45
3434 temp-at-nowhere 2023-12-26 06:45:12 9.08 °C x 99.9 % 2.706 V ttn-pfaffenrot -75 dBm 26.12.2023 06:45
3435 temp-at-nowhere 2023-12-26 05:45:12 8.89 °C x 99.9 % 2.705 V ttn-pfaffenrot -76 dBm 26.12.2023 05:45
3436 temp-at-nowhere 2023-12-26 04:45:13 8.48 °C x 99.9 % 2.705 V ttn-pfaffenrot -75 dBm 26.12.2023 04:45
3437 temp-at-nowhere 2023-12-26 03:45:14 8.54 °C x 99.9 % 2.705 V ttn-pfaffenrot -75 dBm 26.12.2023 03:45
3438 temp-at-nowhere 2023-12-26 02:45:15 8.56 °C x 99.9 % 2.705 V ttn-pfaffenrot -73 dBm 26.12.2023 02:45
3439 temp-at-nowhere 2023-12-26 01:45:15 8.22 °C x 99.9 % 2.704 V ttn-pfaffenrot -75 dBm 26.12.2023 01:45
3440 temp-at-nowhere 2023-12-26 00:45:16 8.55 °C x 99.9 % 2.705 V ttn-pfaffenrot -75 dBm 26.12.2023 00:45
3441 temp-at-nowhere 2023-12-25 23:45:17 8.57 °C x 99.9 % 2.706 V ttn-pfaffenrot -76 dBm 25.12.2023 23:45
3442 temp-at-nowhere 2023-12-25 22:45:18 8.69 °C x 99.9 % 2.705 V ttn-pfaffenrot -75 dBm 25.12.2023 22:45
3443 temp-at-nowhere 2023-12-25 21:45:18 8.59 °C x 99.9 % 2.704 V ttn-pfaffenrot -79 dBm 25.12.2023 21:45
3444 temp-at-nowhere 2023-12-25 20:45:19 7.89 °C x 99.9 % 2.706 V ttn-pfaffenrot -77 dBm 25.12.2023 20:45
3445 temp-at-nowhere 2023-12-25 19:45:20 8 °C x 99.9 % 2.704 V ttn-pfaffenrot -77 dBm 25.12.2023 19:45
3446 temp-at-nowhere 2023-12-25 18:45:21 8.09 °C x 99.9 % 2.706 V ttn-pfaffenrot -75 dBm 25.12.2023 18:45
3447 temp-at-nowhere 2023-12-25 17:45:21 8.62 °C x 99.9 % 2.705 V ttn-pfaffenrot -77 dBm 25.12.2023 17:45
3448 temp-at-nowhere 2023-12-25 16:45:22 9.31 °C x 99.9 % 2.704 V ttn-pfaffenrot -76 dBm 25.12.2023 16:45
3449 temp-at-nowhere 2023-12-25 15:45:23 9.54 °C x 99.9 % 2.705 V ttn-pfaffenrot -79 dBm 25.12.2023 15:45
3450 temp-at-nowhere 2023-12-25 14:45:24 9.77 °C x 99.9 % 2.704 V ttn-pfaffenrot -75 dBm 25.12.2023 14:45
3451 temp-at-nowhere 2023-12-25 13:45:24 9.36 °C x 99.9 % 2.704 V ttn-pfaffenrot -76 dBm 25.12.2023 13:45
3452 temp-at-nowhere 2023-12-25 12:45:25 9.55 °C x 99.9 % 2.703 V ttn-pfaffenrot -77 dBm 25.12.2023 12:45
3453 temp-at-nowhere 2023-12-25 11:45:26 9.17 °C x 99.9 % 2.704 V ttn-pfaffenrot -76 dBm 25.12.2023 11:45
3454 temp-at-nowhere 2023-12-25 10:45:27 7.64 °C x 99.9 % 2.705 V ttn-pfaffenrot -75 dBm 25.12.2023 10:45
3455 temp-at-nowhere 2023-12-25 09:45:27 8.27 °C x 99.9 % 2.704 V ttn-pfaffenrot -78 dBm 25.12.2023 09:45
3456 temp-at-nowhere 2023-12-25 08:45:28 8.38 °C x 99.9 % 2.705 V ttn-pfaffenrot -76 dBm 25.12.2023 08:45
3457 temp-at-nowhere 2023-12-25 07:45:29 8.63 °C x 98.4 % 2.702 V ttn-pfaffenrot -76 dBm 25.12.2023 07:45
3458 temp-at-nowhere 2023-12-25 06:45:30 9.57 °C x 99.9 % 2.703 V ttn-pfaffenrot -75 dBm 25.12.2023 06:45
3459 temp-at-nowhere 2023-12-25 05:45:30 9.83 °C x 99.9 % 2.703 V ttn-pfaffenrot -76 dBm 25.12.2023 05:45
3460 temp-at-nowhere 2023-12-25 04:45:31 10.17 °C x 99.9 % 2.703 V ttn-pfaffenrot -75 dBm 25.12.2023 04:45
3461 temp-at-nowhere 2023-12-25 03:45:32 10.31 °C x 99.9 % 2.702 V ttn-pfaffenrot -75 dBm 25.12.2023 03:45
3462 temp-at-nowhere 2023-12-25 02:45:33 10.23 °C x 99.9 % 2.703 V ttn-pfaffenrot -76 dBm 25.12.2023 02:45
3463 temp-at-nowhere 2023-12-25 01:45:34 10.67 °C x 99.9 % 2.702 V ttn-pfaffenrot -77 dBm 25.12.2023 01:45
3464 temp-at-nowhere 2023-12-25 00:45:34 10.6 °C x 99.9 % 2.701 V ttn-pfaffenrot -75 dBm 25.12.2023 00:45
3465 temp-at-nowhere 2023-12-24 23:45:35 10.62 °C x 99.9 % 2.702 V ttn-pfaffenrot -74 dBm 24.12.2023 23:45
3466 temp-at-nowhere 2023-12-24 21:45:37 10.7 °C x 99.9 % 2.701 V ttn-pfaffenrot -75 dBm 24.12.2023 21:45
3467 temp-at-nowhere 2023-12-24 20:45:38 9.83 °C x 99.9 % 2.702 V ttn-pfaffenrot -75 dBm 24.12.2023 20:45
3468 temp-at-nowhere 2023-12-24 19:45:38 9.55 °C x 99.9 % 2.702 V ttn-pfaffenrot -77 dBm 24.12.2023 19:45
3469 temp-at-nowhere 2023-12-24 18:45:39 9.13 °C x 99.9 % 2.702 V ttn-pfaffenrot -74 dBm 24.12.2023 18:45
3470 temp-at-nowhere 2023-12-24 17:45:40 8.64 °C x 99.9 % 2.702 V ttn-pfaffenrot -74 dBm 24.12.2023 17:45
3471 temp-at-nowhere 2023-12-24 16:45:41 8.54 °C x 99.9 % 2.701 V ttn-pfaffenrot -74 dBm 24.12.2023 16:45
3472 temp-at-nowhere 2023-12-24 15:45:42 8.82 °C x 99.9 % 2.702 V ttn-pfaffenrot -75 dBm 24.12.2023 15:45
3473 temp-at-nowhere 2023-12-24 14:45:42 8.93 °C x 99.9 % 2.703 V ttn-pfaffenrot -77 dBm 24.12.2023 14:45
3474 temp-at-nowhere 2023-12-24 13:45:43 8.84 °C x 99.9 % 2.7 V ttn-pfaffenrot -78 dBm 24.12.2023 13:45
3475 temp-at-nowhere 2023-12-24 12:45:44 8.97 °C x 99.9 % 2.701 V ttn-pfaffenrot -73 dBm 24.12.2023 12:45
3476 temp-at-nowhere 2023-12-24 11:45:45 8.76 °C x 99.9 % 2.701 V ttn-pfaffenrot -76 dBm 24.12.2023 11:45
3477 temp-at-nowhere 2023-12-24 10:45:46 8.55 °C x 99.9 % 2.701 V ttn-pfaffenrot -76 dBm 24.12.2023 10:45
3478 temp-at-nowhere 2023-12-24 09:45:47 8.31 °C x 99.9 % 2.701 V ttn-pfaffenrot -77 dBm 24.12.2023 09:45
3479 temp-at-nowhere 2023-12-24 08:45:47 7.71 °C x 99.9 % 2.7 V ttn-pfaffenrot -74 dBm 24.12.2023 08:45
3480 temp-at-nowhere 2023-12-24 07:45:48 7.53 °C x 99.9 % 2.7 V ttn-pfaffenrot -78 dBm 24.12.2023 07:45
3481 temp-at-nowhere 2023-12-24 06:45:49 8.07 °C x 99.9 % 2.7 V ttn-pfaffenrot -76 dBm 24.12.2023 06:45
3482 temp-at-nowhere 2023-12-24 05:45:50 7.96 °C x 99.9 % 2.699 V ttn-pfaffenrot -73 dBm 24.12.2023 05:45
3483 temp-at-nowhere 2023-12-24 04:45:51 8.17 °C x 99.9 % 2.7 V ttn-pfaffenrot -73 dBm 24.12.2023 04:45
3484 temp-at-nowhere 2023-12-24 03:45:52 8.29 °C x 99.9 % 2.698 V ttn-pfaffenrot -75 dBm 24.12.2023 03:45
3485 temp-at-nowhere 2023-12-24 02:45:53 8.33 °C x 99.9 % 2.699 V ttn-pfaffenrot -74 dBm 24.12.2023 02:45
3486 temp-at-nowhere 2023-12-24 01:45:53 8.03 °C x 99.9 % 2.698 V ttn-pfaffenrot -75 dBm 24.12.2023 01:45
3487 temp-at-nowhere 2023-12-24 00:45:54 7.88 °C x 99.9 % 2.7 V ttn-pfaffenrot -73 dBm 24.12.2023 00:45
3488 temp-at-nowhere 2023-12-23 23:45:55 7.78 °C x 99.9 % 2.698 V ttn-pfaffenrot -74 dBm 23.12.2023 23:45
3489 temp-at-nowhere 2023-12-23 22:45:56 7.57 °C x 99.9 % 2.699 V ttn-pfaffenrot -74 dBm 23.12.2023 22:45
3490 temp-at-nowhere 2023-12-23 21:45:57 7.38 °C x 99.9 % 2.7 V ttn-pfaffenrot -73 dBm 23.12.2023 21:45
3491 temp-at-nowhere 2023-12-23 20:45:58 7.02 °C x 99.9 % 2.699 V ttn-pfaffenrot -76 dBm 23.12.2023 20:45
3492 temp-at-nowhere 2023-12-23 19:45:59 6.88 °C x 99.9 % 2.699 V ttn-pfaffenrot -74 dBm 23.12.2023 19:45
3493 temp-at-nowhere 2023-12-23 18:46:00 6.87 °C x 99.9 % 2.698 V ttn-pfaffenrot -74 dBm 23.12.2023 18:46
3494 temp-at-nowhere 2023-12-23 17:46:01 6.71 °C x 99.9 % 2.699 V ttn-pfaffenrot -75 dBm 23.12.2023 17:46
3495 temp-at-nowhere 2023-12-23 16:46:02 6.56 °C x 99.9 % 2.697 V ttn-pfaffenrot -70 dBm 23.12.2023 16:46
3496 temp-at-nowhere 2023-12-23 15:46:03 6.42 °C x 99.9 % 2.698 V ttn-pfaffenrot -75 dBm 23.12.2023 15:46
3497 temp-at-nowhere 2023-12-23 14:46:04 6.42 °C x 99.9 % 2.696 V ttn-pfaffenrot -75 dBm 23.12.2023 14:46
3498 temp-at-nowhere 2023-12-23 13:46:05 6.7 °C x 99.9 % 2.698 V ttn-pfaffenrot -